<?xml version="1.0" encoding="UTF-8" standalone="no" ?>
<gpx xmlns="http://www.topografix.com/GPX/1/1" xmlns:xsi="http://www.w3.org/2001/XMLSchema-instance" xsi:schemaLocation="http://www.topografix.com/GPX/1/1 http://www.topografix.com/GPX/1/1/gpx.xsd" version="1.1" creator="VisuGPX - https://www.visugpx.com">
  <metadata>
    <name>2017-05-26 Bike ride-Amberieux-Rance O 33km</name>
    <desc><![CDATA[2017-05-26 Bike ride-Amberieux-Rance O 33km]]></desc>
  </metadata>
  <wpt lat="45.92476" lon="4.73658">
    <ele>174</ele>
    <name><![CDATA[2017-05-26 10:07 (Start)]]></name>
  </wpt>
  <wpt lat="45.92458" lon="4.73713">
    <ele>174</ele>
    <name><![CDATA[2017-05-26 10:07 (End)]]></name>
    <desc><![CDATA[Created by Google My Tracks on Android  Name: 2017-05-26 10:07 Activity type: biking Description: - Total distance: 32.51 km (20.2 mi) Total time: 1:41:21 Moving time: 1:36:27 Average speed: 19.24 km/h (12.0 mi/h) Average moving speed: 20.22 km/h (12.6 mi/h) Max speed: 47.01 km/h (29.2 mi/h) Average pace: 3:07 min/km (5:01 min/mi) Average moving pace: 2:58 min/km (4:46 min/mi) Fastest pace: 1:17 min/km (2:03 min/mi) Max elevation: 298 m (978 ft) Min elevation: 170 m (558 ft) Elevation gain: 465 m (1526 ft) Max grade: 8 % Min grade: -10 % Recorded: 26/05/2017 10:07]]></desc>
  </wpt>
  <trk>
    <name><![CDATA[2017-05-26 10:07]]></name>
    <trkseg>
      <trkpt lat="45.92476" lon="4.73658">
        <ele>174</ele>
        <time>2017-05-26T08:07:22.826Z</time>
      </trkpt>
      <trkpt lat="45.92478" lon="4.73648">
        <ele>174</ele>
        <time>2017-05-26T08:08:44Z</time>
      </trkpt>
      <trkpt lat="45.92481" lon="4.73646">
        <ele>174</ele>
        <time>2017-05-26T08:08:45Z</time>
      </trkpt>
      <trkpt lat="45.92486" lon="4.73646">
        <ele>174</ele>
        <time>2017-05-26T08:08:47Z</time>
      </trkpt>
      <trkpt lat="45.9249" lon="4.73647">
        <ele>174</ele>
        <time>2017-05-26T08:08:48Z</time>
      </trkpt>
      <trkpt lat="45.92498" lon="4.73647">
        <ele>174</ele>
        <time>2017-05-26T08:08:50Z</time>
      </trkpt>
      <trkpt lat="45.92501" lon="4.73647">
        <ele>174</ele>
        <time>2017-05-26T08:08:51Z</time>
      </trkpt>
      <trkpt lat="45.92508" lon="4.73646">
        <ele>174</ele>
        <time>2017-05-26T08:08:53Z</time>
      </trkpt>
      <trkpt lat="45.92512" lon="4.73646">
        <ele>174</ele>
        <time>2017-05-26T08:08:54Z</time>
      </trkpt>
      <trkpt lat="45.92521" lon="4.73645">
        <ele>173</ele>
        <time>2017-05-26T08:08:56Z</time>
      </trkpt>
      <trkpt lat="45.92525" lon="4.73644">
        <ele>173</ele>
        <time>2017-05-26T08:08:57Z</time>
      </trkpt>
      <trkpt lat="45.9253" lon="4.73644">
        <ele>173</ele>
        <time>2017-05-26T08:08:58Z</time>
      </trkpt>
      <trkpt lat="45.92535" lon="4.73643">
        <ele>173</ele>
        <time>2017-05-26T08:08:59Z</time>
      </trkpt>
      <trkpt lat="45.92539" lon="4.73642">
        <ele>173</ele>
        <time>2017-05-26T08:09:00Z</time>
      </trkpt>
      <trkpt lat="45.92544" lon="4.73641">
        <ele>173</ele>
        <time>2017-05-26T08:09:01Z</time>
      </trkpt>
      <trkpt lat="45.92549" lon="4.73639">
        <ele>173</ele>
        <time>2017-05-26T08:09:02Z</time>
      </trkpt>
      <trkpt lat="45.92553" lon="4.73638">
        <ele>173</ele>
        <time>2017-05-26T08:09:03Z</time>
      </trkpt>
      <trkpt lat="45.92558" lon="4.73637">
        <ele>173</ele>
        <time>2017-05-26T08:09:04Z</time>
      </trkpt>
      <trkpt lat="45.92563" lon="4.73636">
        <ele>173</ele>
        <time>2017-05-26T08:09:05Z</time>
      </trkpt>
      <trkpt lat="45.92568" lon="4.73635">
        <ele>173</ele>
        <time>2017-05-26T08:09:06Z</time>
      </trkpt>
      <trkpt lat="45.92573" lon="4.73633">
        <ele>173</ele>
        <time>2017-05-26T08:09:07Z</time>
      </trkpt>
      <trkpt lat="45.92581" lon="4.73628">
        <ele>173</ele>
        <time>2017-05-26T08:09:09Z</time>
      </trkpt>
      <trkpt lat="45.92585" lon="4.73627">
        <ele>172</ele>
        <time>2017-05-26T08:09:10Z</time>
      </trkpt>
      <trkpt lat="45.92594" lon="4.73626">
        <ele>172</ele>
        <time>2017-05-26T08:09:12Z</time>
      </trkpt>
      <trkpt lat="45.92599" lon="4.73625">
        <ele>173</ele>
        <time>2017-05-26T08:09:13Z</time>
      </trkpt>
      <trkpt lat="45.92604" lon="4.73625">
        <ele>173</ele>
        <time>2017-05-26T08:09:14Z</time>
      </trkpt>
      <trkpt lat="45.92609" lon="4.73626">
        <ele>173</ele>
        <time>2017-05-26T08:09:15Z</time>
      </trkpt>
      <trkpt lat="45.92614" lon="4.7363">
        <ele>173</ele>
        <time>2017-05-26T08:09:16Z</time>
      </trkpt>
      <trkpt lat="45.92618" lon="4.73635">
        <ele>173</ele>
        <time>2017-05-26T08:09:17Z</time>
      </trkpt>
      <trkpt lat="45.92621" lon="4.73641">
        <ele>173</ele>
        <time>2017-05-26T08:09:18Z</time>
      </trkpt>
      <trkpt lat="45.92624" lon="4.73647">
        <ele>173</ele>
        <time>2017-05-26T08:09:19Z</time>
      </trkpt>
      <trkpt lat="45.92627" lon="4.73654">
        <ele>173</ele>
        <time>2017-05-26T08:09:20Z</time>
      </trkpt>
      <trkpt lat="45.9263" lon="4.73661">
        <ele>173</ele>
        <time>2017-05-26T08:09:21Z</time>
      </trkpt>
      <trkpt lat="45.92632" lon="4.73667">
        <ele>173</ele>
        <time>2017-05-26T08:09:22Z</time>
      </trkpt>
      <trkpt lat="45.92635" lon="4.73673">
        <ele>173</ele>
        <time>2017-05-26T08:09:23Z</time>
      </trkpt>
      <trkpt lat="45.92638" lon="4.73679">
        <ele>173</ele>
        <time>2017-05-26T08:09:24Z</time>
      </trkpt>
      <trkpt lat="45.92642" lon="4.73684">
        <ele>173</ele>
        <time>2017-05-26T08:09:25Z</time>
      </trkpt>
      <trkpt lat="45.92646" lon="4.73689">
        <ele>173</ele>
        <time>2017-05-26T08:09:26Z</time>
      </trkpt>
      <trkpt lat="45.9265" lon="4.73694">
        <ele>173</ele>
        <time>2017-05-26T08:09:27Z</time>
      </trkpt>
      <trkpt lat="45.92655" lon="4.73699">
        <ele>173</ele>
        <time>2017-05-26T08:09:28Z</time>
      </trkpt>
      <trkpt lat="45.9266" lon="4.73702">
        <ele>173</ele>
        <time>2017-05-26T08:09:29Z</time>
      </trkpt>
      <trkpt lat="45.92665" lon="4.73705">
        <ele>173</ele>
        <time>2017-05-26T08:09:30Z</time>
      </trkpt>
      <trkpt lat="45.92671" lon="4.73708">
        <ele>174</ele>
        <time>2017-05-26T08:09:31Z</time>
      </trkpt>
      <trkpt lat="45.92676" lon="4.7371">
        <ele>174</ele>
        <time>2017-05-26T08:09:32Z</time>
      </trkpt>
      <trkpt lat="45.92681" lon="4.73712">
        <ele>173</ele>
        <time>2017-05-26T08:09:33Z</time>
      </trkpt>
      <trkpt lat="45.92687" lon="4.73714">
        <ele>173</ele>
        <time>2017-05-26T08:09:34Z</time>
      </trkpt>
      <trkpt lat="45.92693" lon="4.73716">
        <ele>173</ele>
        <time>2017-05-26T08:09:35Z</time>
      </trkpt>
      <trkpt lat="45.92698" lon="4.73717">
        <ele>173</ele>
        <time>2017-05-26T08:09:36Z</time>
      </trkpt>
      <trkpt lat="45.92704" lon="4.73718">
        <ele>173</ele>
        <time>2017-05-26T08:09:37Z</time>
      </trkpt>
      <trkpt lat="45.92709" lon="4.73718">
        <ele>173</ele>
        <time>2017-05-26T08:09:38Z</time>
      </trkpt>
      <trkpt lat="45.92715" lon="4.73719">
        <ele>173</ele>
        <time>2017-05-26T08:09:39Z</time>
      </trkpt>
      <trkpt lat="45.92721" lon="4.7372">
        <ele>173</ele>
        <time>2017-05-26T08:09:40Z</time>
      </trkpt>
      <trkpt lat="45.92726" lon="4.73721">
        <ele>173</ele>
        <time>2017-05-26T08:09:41Z</time>
      </trkpt>
      <trkpt lat="45.92732" lon="4.73722">
        <ele>173</ele>
        <time>2017-05-26T08:09:42Z</time>
      </trkpt>
      <trkpt lat="45.92738" lon="4.73723">
        <ele>173</ele>
        <time>2017-05-26T08:09:43Z</time>
      </trkpt>
      <trkpt lat="45.92743" lon="4.73724">
        <ele>173</ele>
        <time>2017-05-26T08:09:44Z</time>
      </trkpt>
      <trkpt lat="45.92749" lon="4.73725">
        <ele>173</ele>
        <time>2017-05-26T08:09:45Z</time>
      </trkpt>
      <trkpt lat="45.92754" lon="4.73726">
        <ele>172</ele>
        <time>2017-05-26T08:09:46Z</time>
      </trkpt>
      <trkpt lat="45.92759" lon="4.73727">
        <ele>172</ele>
        <time>2017-05-26T08:09:47Z</time>
      </trkpt>
      <trkpt lat="45.92766" lon="4.7373">
        <ele>172</ele>
        <time>2017-05-26T08:09:49Z</time>
      </trkpt>
      <trkpt lat="45.9277" lon="4.7373">
        <ele>172</ele>
        <time>2017-05-26T08:09:50Z</time>
      </trkpt>
      <trkpt lat="45.92776" lon="4.73732">
        <ele>172</ele>
        <time>2017-05-26T08:09:51Z</time>
      </trkpt>
      <trkpt lat="45.9278" lon="4.73731">
        <ele>172</ele>
        <time>2017-05-26T08:09:52Z</time>
      </trkpt>
      <trkpt lat="45.92785" lon="4.73721">
        <ele>172</ele>
        <time>2017-05-26T08:09:54Z</time>
      </trkpt>
      <trkpt lat="45.92786" lon="4.73714">
        <ele>172</ele>
        <time>2017-05-26T08:09:55Z</time>
      </trkpt>
      <trkpt lat="45.92788" lon="4.73708">
        <ele>172</ele>
        <time>2017-05-26T08:09:56Z</time>
      </trkpt>
      <trkpt lat="45.92789" lon="4.73701">
        <ele>172</ele>
        <time>2017-05-26T08:09:57Z</time>
      </trkpt>
      <trkpt lat="45.92791" lon="4.73695">
        <ele>172</ele>
        <time>2017-05-26T08:09:58Z</time>
      </trkpt>
      <trkpt lat="45.92793" lon="4.73688">
        <ele>172</ele>
        <time>2017-05-26T08:09:59Z</time>
      </trkpt>
      <trkpt lat="45.92795" lon="4.73682">
        <ele>172</ele>
        <time>2017-05-26T08:10:00Z</time>
      </trkpt>
      <trkpt lat="45.92797" lon="4.73676">
        <ele>172</ele>
        <time>2017-05-26T08:10:01Z</time>
      </trkpt>
      <trkpt lat="45.92799" lon="4.73664">
        <ele>172</ele>
        <time>2017-05-26T08:10:03Z</time>
      </trkpt>
      <trkpt lat="45.928" lon="4.73658">
        <ele>172</ele>
        <time>2017-05-26T08:10:04Z</time>
      </trkpt>
      <trkpt lat="45.92803" lon="4.73646">
        <ele>172</ele>
        <time>2017-05-26T08:10:06Z</time>
      </trkpt>
      <trkpt lat="45.92806" lon="4.73642">
        <ele>172</ele>
        <time>2017-05-26T08:10:07Z</time>
      </trkpt>
      <trkpt lat="45.92813" lon="4.73638">
        <ele>172</ele>
        <time>2017-05-26T08:10:12Z</time>
      </trkpt>
      <trkpt lat="45.92814" lon="4.73637">
        <ele>172</ele>
        <time>2017-05-26T08:10:13Z</time>
      </trkpt>
      <trkpt lat="45.92815" lon="4.73636">
        <ele>172</ele>
        <time>2017-05-26T08:10:14Z</time>
      </trkpt>
      <trkpt lat="45.92816" lon="4.73637">
        <ele>172</ele>
        <time>2017-05-26T08:10:23Z</time>
      </trkpt>
      <trkpt lat="45.92818" lon="4.73633">
        <ele>172</ele>
        <time>2017-05-26T08:10:24Z</time>
      </trkpt>
      <trkpt lat="45.9282" lon="4.73624">
        <ele>172</ele>
        <time>2017-05-26T08:10:26Z</time>
      </trkpt>
      <trkpt lat="45.9282" lon="4.73619">
        <ele>172</ele>
        <time>2017-05-26T08:10:27Z</time>
      </trkpt>
      <trkpt lat="45.92819" lon="4.7361">
        <ele>172</ele>
        <time>2017-05-26T08:10:29Z</time>
      </trkpt>
      <trkpt lat="45.92819" lon="4.73605">
        <ele>171</ele>
        <time>2017-05-26T08:10:30Z</time>
      </trkpt>
      <trkpt lat="45.92819" lon="4.73593">
        <ele>171</ele>
        <time>2017-05-26T08:10:32Z</time>
      </trkpt>
      <trkpt lat="45.92819" lon="4.73587">
        <ele>171</ele>
        <time>2017-05-26T08:10:33Z</time>
      </trkpt>
      <trkpt lat="45.92819" lon="4.73575">
        <ele>171</ele>
        <time>2017-05-26T08:10:35Z</time>
      </trkpt>
      <trkpt lat="45.9282" lon="4.73568">
        <ele>171</ele>
        <time>2017-05-26T08:10:36Z</time>
      </trkpt>
      <trkpt lat="45.9282" lon="4.73561">
        <ele>171</ele>
        <time>2017-05-26T08:10:37Z</time>
      </trkpt>
      <trkpt lat="45.92821" lon="4.73554">
        <ele>171</ele>
        <time>2017-05-26T08:10:38Z</time>
      </trkpt>
      <trkpt lat="45.92822" lon="4.73548">
        <ele>171</ele>
        <time>2017-05-26T08:10:39Z</time>
      </trkpt>
      <trkpt lat="45.92822" lon="4.7354">
        <ele>172</ele>
        <time>2017-05-26T08:10:40Z</time>
      </trkpt>
      <trkpt lat="45.92823" lon="4.73533">
        <ele>172</ele>
        <time>2017-05-26T08:10:41Z</time>
      </trkpt>
      <trkpt lat="45.92824" lon="4.73526">
        <ele>172</ele>
        <time>2017-05-26T08:10:42Z</time>
      </trkpt>
      <trkpt lat="45.92825" lon="4.73518">
        <ele>172</ele>
        <time>2017-05-26T08:10:43Z</time>
      </trkpt>
      <trkpt lat="45.92826" lon="4.7351">
        <ele>172</ele>
        <time>2017-05-26T08:10:44Z</time>
      </trkpt>
      <trkpt lat="45.92827" lon="4.73501">
        <ele>172</ele>
        <time>2017-05-26T08:10:45Z</time>
      </trkpt>
      <trkpt lat="45.92828" lon="4.73492">
        <ele>172</ele>
        <time>2017-05-26T08:10:46Z</time>
      </trkpt>
      <trkpt lat="45.92829" lon="4.73483">
        <ele>172</ele>
        <time>2017-05-26T08:10:47Z</time>
      </trkpt>
      <trkpt lat="45.92831" lon="4.73475">
        <ele>172</ele>
        <time>2017-05-26T08:10:48Z</time>
      </trkpt>
      <trkpt lat="45.92832" lon="4.73466">
        <ele>172</ele>
        <time>2017-05-26T08:10:49Z</time>
      </trkpt>
      <trkpt lat="45.92833" lon="4.73457">
        <ele>172</ele>
        <time>2017-05-26T08:10:50Z</time>
      </trkpt>
      <trkpt lat="45.92834" lon="4.73448">
        <ele>172</ele>
        <time>2017-05-26T08:10:51Z</time>
      </trkpt>
      <trkpt lat="45.92835" lon="4.73439">
        <ele>172</ele>
        <time>2017-05-26T08:10:52Z</time>
      </trkpt>
      <trkpt lat="45.92836" lon="4.73431">
        <ele>172</ele>
        <time>2017-05-26T08:10:53Z</time>
      </trkpt>
      <trkpt lat="45.92837" lon="4.73422">
        <ele>172</ele>
        <time>2017-05-26T08:10:54Z</time>
      </trkpt>
      <trkpt lat="45.92838" lon="4.73413">
        <ele>172</ele>
        <time>2017-05-26T08:10:55Z</time>
      </trkpt>
      <trkpt lat="45.92839" lon="4.73404">
        <ele>172</ele>
        <time>2017-05-26T08:10:56Z</time>
      </trkpt>
      <trkpt lat="45.9284" lon="4.73395">
        <ele>172</ele>
        <time>2017-05-26T08:10:57Z</time>
      </trkpt>
      <trkpt lat="45.92841" lon="4.73386">
        <ele>172</ele>
        <time>2017-05-26T08:10:58Z</time>
      </trkpt>
      <trkpt lat="45.92843" lon="4.73376">
        <ele>172</ele>
        <time>2017-05-26T08:10:59Z</time>
      </trkpt>
      <trkpt lat="45.92844" lon="4.73367">
        <ele>171</ele>
        <time>2017-05-26T08:11:00Z</time>
      </trkpt>
      <trkpt lat="45.92846" lon="4.73357">
        <ele>171</ele>
        <time>2017-05-26T08:11:01Z</time>
      </trkpt>
      <trkpt lat="45.92847" lon="4.73347">
        <ele>171</ele>
        <time>2017-05-26T08:11:02Z</time>
      </trkpt>
      <trkpt lat="45.92848" lon="4.73337">
        <ele>171</ele>
        <time>2017-05-26T08:11:03Z</time>
      </trkpt>
      <trkpt lat="45.92849" lon="4.73328">
        <ele>171</ele>
        <time>2017-05-26T08:11:04Z</time>
      </trkpt>
      <trkpt lat="45.9285" lon="4.73319">
        <ele>171</ele>
        <time>2017-05-26T08:11:05Z</time>
      </trkpt>
      <trkpt lat="45.92851" lon="4.7331">
        <ele>171</ele>
        <time>2017-05-26T08:11:06Z</time>
      </trkpt>
      <trkpt lat="45.92852" lon="4.73301">
        <ele>171</ele>
        <time>2017-05-26T08:11:07Z</time>
      </trkpt>
      <trkpt lat="45.92854" lon="4.73291">
        <ele>171</ele>
        <time>2017-05-26T08:11:08Z</time>
      </trkpt>
      <trkpt lat="45.92855" lon="4.73282">
        <ele>171</ele>
        <time>2017-05-26T08:11:09Z</time>
      </trkpt>
      <trkpt lat="45.92856" lon="4.73272">
        <ele>171</ele>
        <time>2017-05-26T08:11:10Z</time>
      </trkpt>
      <trkpt lat="45.92857" lon="4.73262">
        <ele>171</ele>
        <time>2017-05-26T08:11:11Z</time>
      </trkpt>
      <trkpt lat="45.92858" lon="4.73252">
        <ele>171</ele>
        <time>2017-05-26T08:11:12Z</time>
      </trkpt>
      <trkpt lat="45.9286" lon="4.73243">
        <ele>171</ele>
        <time>2017-05-26T08:11:13Z</time>
      </trkpt>
      <trkpt lat="45.92861" lon="4.73233">
        <ele>171</ele>
        <time>2017-05-26T08:11:14Z</time>
      </trkpt>
      <trkpt lat="45.92862" lon="4.73224">
        <ele>171</ele>
        <time>2017-05-26T08:11:15Z</time>
      </trkpt>
      <trkpt lat="45.92863" lon="4.73215">
        <ele>171</ele>
        <time>2017-05-26T08:11:16Z</time>
      </trkpt>
      <trkpt lat="45.92863" lon="4.73206">
        <ele>171</ele>
        <time>2017-05-26T08:11:17Z</time>
      </trkpt>
      <trkpt lat="45.92864" lon="4.73197">
        <ele>171</ele>
        <time>2017-05-26T08:11:18Z</time>
      </trkpt>
      <trkpt lat="45.92865" lon="4.73188">
        <ele>171</ele>
        <time>2017-05-26T08:11:19Z</time>
      </trkpt>
      <trkpt lat="45.92866" lon="4.73179">
        <ele>171</ele>
        <time>2017-05-26T08:11:20Z</time>
      </trkpt>
      <trkpt lat="45.92867" lon="4.7317">
        <ele>171</ele>
        <time>2017-05-26T08:11:21Z</time>
      </trkpt>
      <trkpt lat="45.92867" lon="4.73161">
        <ele>171</ele>
        <time>2017-05-26T08:11:22Z</time>
      </trkpt>
      <trkpt lat="45.92869" lon="4.73152">
        <ele>171</ele>
        <time>2017-05-26T08:11:23Z</time>
      </trkpt>
      <trkpt lat="45.9287" lon="4.73143">
        <ele>171</ele>
        <time>2017-05-26T08:11:24Z</time>
      </trkpt>
      <trkpt lat="45.92872" lon="4.73134">
        <ele>171</ele>
        <time>2017-05-26T08:11:25Z</time>
      </trkpt>
      <trkpt lat="45.92874" lon="4.73124">
        <ele>171</ele>
        <time>2017-05-26T08:11:26Z</time>
      </trkpt>
      <trkpt lat="45.92876" lon="4.73114">
        <ele>172</ele>
        <time>2017-05-26T08:11:27Z</time>
      </trkpt>
      <trkpt lat="45.92878" lon="4.73105">
        <ele>172</ele>
        <time>2017-05-26T08:11:28Z</time>
      </trkpt>
      <trkpt lat="45.92881" lon="4.73096">
        <ele>172</ele>
        <time>2017-05-26T08:11:29Z</time>
      </trkpt>
      <trkpt lat="45.92885" lon="4.73087">
        <ele>172</ele>
        <time>2017-05-26T08:11:30Z</time>
      </trkpt>
      <trkpt lat="45.92888" lon="4.73079">
        <ele>172</ele>
        <time>2017-05-26T08:11:31Z</time>
      </trkpt>
      <trkpt lat="45.92892" lon="4.73072">
        <ele>172</ele>
        <time>2017-05-26T08:11:32Z</time>
      </trkpt>
      <trkpt lat="45.92895" lon="4.73065">
        <ele>172</ele>
        <time>2017-05-26T08:11:33Z</time>
      </trkpt>
      <trkpt lat="45.92899" lon="4.73058">
        <ele>172</ele>
        <time>2017-05-26T08:11:34Z</time>
      </trkpt>
      <trkpt lat="45.92903" lon="4.73052">
        <ele>172</ele>
        <time>2017-05-26T08:11:35Z</time>
      </trkpt>
      <trkpt lat="45.92907" lon="4.73046">
        <ele>172</ele>
        <time>2017-05-26T08:11:36Z</time>
      </trkpt>
      <trkpt lat="45.92912" lon="4.7304">
        <ele>172</ele>
        <time>2017-05-26T08:11:37Z</time>
      </trkpt>
      <trkpt lat="45.92916" lon="4.73034">
        <ele>172</ele>
        <time>2017-05-26T08:11:38Z</time>
      </trkpt>
      <trkpt lat="45.92921" lon="4.73028">
        <ele>171</ele>
        <time>2017-05-26T08:11:39Z</time>
      </trkpt>
      <trkpt lat="45.92926" lon="4.73022">
        <ele>171</ele>
        <time>2017-05-26T08:11:40Z</time>
      </trkpt>
      <trkpt lat="45.92931" lon="4.73016">
        <ele>171</ele>
        <time>2017-05-26T08:11:41Z</time>
      </trkpt>
      <trkpt lat="45.92935" lon="4.7301">
        <ele>171</ele>
        <time>2017-05-26T08:11:42Z</time>
      </trkpt>
      <trkpt lat="45.9294" lon="4.73004">
        <ele>171</ele>
        <time>2017-05-26T08:11:43Z</time>
      </trkpt>
      <trkpt lat="45.92945" lon="4.72998">
        <ele>171</ele>
        <time>2017-05-26T08:11:44Z</time>
      </trkpt>
      <trkpt lat="45.92951" lon="4.72993">
        <ele>171</ele>
        <time>2017-05-26T08:11:45Z</time>
      </trkpt>
      <trkpt lat="45.92956" lon="4.72987">
        <ele>171</ele>
        <time>2017-05-26T08:11:46Z</time>
      </trkpt>
      <trkpt lat="45.9296" lon="4.72981">
        <ele>171</ele>
        <time>2017-05-26T08:11:47Z</time>
      </trkpt>
      <trkpt lat="45.92965" lon="4.72976">
        <ele>171</ele>
        <time>2017-05-26T08:11:48Z</time>
      </trkpt>
      <trkpt lat="45.9297" lon="4.72971">
        <ele>171</ele>
        <time>2017-05-26T08:11:49Z</time>
      </trkpt>
      <trkpt lat="45.92974" lon="4.72967">
        <ele>171</ele>
        <time>2017-05-26T08:11:50Z</time>
      </trkpt>
      <trkpt lat="45.92977" lon="4.72962">
        <ele>171</ele>
        <time>2017-05-26T08:11:51Z</time>
      </trkpt>
      <trkpt lat="45.92981" lon="4.72957">
        <ele>171</ele>
        <time>2017-05-26T08:11:52Z</time>
      </trkpt>
      <trkpt lat="45.92985" lon="4.72952">
        <ele>171</ele>
        <time>2017-05-26T08:11:53Z</time>
      </trkpt>
      <trkpt lat="45.92989" lon="4.72947">
        <ele>171</ele>
        <time>2017-05-26T08:11:54Z</time>
      </trkpt>
      <trkpt lat="45.92994" lon="4.72941">
        <ele>171</ele>
        <time>2017-05-26T08:11:55Z</time>
      </trkpt>
      <trkpt lat="45.92998" lon="4.72936">
        <ele>171</ele>
        <time>2017-05-26T08:11:56Z</time>
      </trkpt>
      <trkpt lat="45.93002" lon="4.7293">
        <ele>170</ele>
        <time>2017-05-26T08:11:57Z</time>
      </trkpt>
      <trkpt lat="45.93007" lon="4.72925">
        <ele>170</ele>
        <time>2017-05-26T08:11:58Z</time>
      </trkpt>
      <trkpt lat="45.93011" lon="4.72919">
        <ele>170</ele>
        <time>2017-05-26T08:11:59Z</time>
      </trkpt>
      <trkpt lat="45.93015" lon="4.72914">
        <ele>171</ele>
        <time>2017-05-26T08:12:00Z</time>
      </trkpt>
      <trkpt lat="45.9302" lon="4.72908">
        <ele>172</ele>
        <time>2017-05-26T08:12:01Z</time>
      </trkpt>
      <trkpt lat="45.93025" lon="4.72903">
        <ele>172</ele>
        <time>2017-05-26T08:12:02Z</time>
      </trkpt>
      <trkpt lat="45.93029" lon="4.72897">
        <ele>172</ele>
        <time>2017-05-26T08:12:03Z</time>
      </trkpt>
      <trkpt lat="45.93034" lon="4.72891">
        <ele>172</ele>
        <time>2017-05-26T08:12:04Z</time>
      </trkpt>
      <trkpt lat="45.93039" lon="4.72885">
        <ele>172</ele>
        <time>2017-05-26T08:12:05Z</time>
      </trkpt>
      <trkpt lat="45.93044" lon="4.72879">
        <ele>172</ele>
        <time>2017-05-26T08:12:06Z</time>
      </trkpt>
      <trkpt lat="45.93048" lon="4.72873">
        <ele>172</ele>
        <time>2017-05-26T08:12:07Z</time>
      </trkpt>
      <trkpt lat="45.93053" lon="4.72867">
        <ele>172</ele>
        <time>2017-05-26T08:12:08Z</time>
      </trkpt>
      <trkpt lat="45.93058" lon="4.72861">
        <ele>172</ele>
        <time>2017-05-26T08:12:09Z</time>
      </trkpt>
      <trkpt lat="45.93063" lon="4.72856">
        <ele>172</ele>
        <time>2017-05-26T08:12:10Z</time>
      </trkpt>
      <trkpt lat="45.93068" lon="4.72851">
        <ele>172</ele>
        <time>2017-05-26T08:12:11Z</time>
      </trkpt>
      <trkpt lat="45.93073" lon="4.72845">
        <ele>173</ele>
        <time>2017-05-26T08:12:12Z</time>
      </trkpt>
      <trkpt lat="45.93078" lon="4.7284">
        <ele>173</ele>
        <time>2017-05-26T08:12:13Z</time>
      </trkpt>
      <trkpt lat="45.93084" lon="4.72835">
        <ele>173</ele>
        <time>2017-05-26T08:12:14Z</time>
      </trkpt>
      <trkpt lat="45.93089" lon="4.72833">
        <ele>173</ele>
        <time>2017-05-26T08:12:15Z</time>
      </trkpt>
      <trkpt lat="45.93094" lon="4.72831">
        <ele>172</ele>
        <time>2017-05-26T08:12:16Z</time>
      </trkpt>
      <trkpt lat="45.93101" lon="4.7283">
        <ele>172</ele>
        <time>2017-05-26T08:12:17Z</time>
      </trkpt>
      <trkpt lat="45.93106" lon="4.72829">
        <ele>172</ele>
        <time>2017-05-26T08:12:18Z</time>
      </trkpt>
      <trkpt lat="45.93109" lon="4.72816">
        <ele>172</ele>
        <time>2017-05-26T08:12:19Z</time>
      </trkpt>
      <trkpt lat="45.93114" lon="4.72807">
        <ele>171</ele>
        <time>2017-05-26T08:12:20Z</time>
      </trkpt>
      <trkpt lat="45.93118" lon="4.72801">
        <ele>171</ele>
        <time>2017-05-26T08:12:21Z</time>
      </trkpt>
      <trkpt lat="45.93123" lon="4.72794">
        <ele>171</ele>
        <time>2017-05-26T08:12:22Z</time>
      </trkpt>
      <trkpt lat="45.93127" lon="4.72789">
        <ele>171</ele>
        <time>2017-05-26T08:12:23Z</time>
      </trkpt>
      <trkpt lat="45.93132" lon="4.72783">
        <ele>171</ele>
        <time>2017-05-26T08:12:24Z</time>
      </trkpt>
      <trkpt lat="45.93137" lon="4.72777">
        <ele>171</ele>
        <time>2017-05-26T08:12:25Z</time>
      </trkpt>
      <trkpt lat="45.93141" lon="4.72772">
        <ele>171</ele>
        <time>2017-05-26T08:12:26Z</time>
      </trkpt>
      <trkpt lat="45.93145" lon="4.72766">
        <ele>171</ele>
        <time>2017-05-26T08:12:27Z</time>
      </trkpt>
      <trkpt lat="45.9315" lon="4.7276">
        <ele>170</ele>
        <time>2017-05-26T08:12:28Z</time>
      </trkpt>
      <trkpt lat="45.93155" lon="4.72754">
        <ele>170</ele>
        <time>2017-05-26T08:12:29Z</time>
      </trkpt>
      <trkpt lat="45.9316" lon="4.72748">
        <ele>170</ele>
        <time>2017-05-26T08:12:30Z</time>
      </trkpt>
      <trkpt lat="45.93165" lon="4.72741">
        <ele>170</ele>
        <time>2017-05-26T08:12:31Z</time>
      </trkpt>
      <trkpt lat="45.93171" lon="4.72735">
        <ele>170</ele>
        <time>2017-05-26T08:12:32Z</time>
      </trkpt>
      <trkpt lat="45.93175" lon="4.72728">
        <ele>170</ele>
        <time>2017-05-26T08:12:33Z</time>
      </trkpt>
      <trkpt lat="45.9318" lon="4.72722">
        <ele>169</ele>
        <time>2017-05-26T08:12:34Z</time>
      </trkpt>
      <trkpt lat="45.93185" lon="4.72716">
        <ele>169</ele>
        <time>2017-05-26T08:12:35Z</time>
      </trkpt>
      <trkpt lat="45.93189" lon="4.7271">
        <ele>169</ele>
        <time>2017-05-26T08:12:36Z</time>
      </trkpt>
      <trkpt lat="45.93194" lon="4.72704">
        <ele>169</ele>
        <time>2017-05-26T08:12:37Z</time>
      </trkpt>
      <trkpt lat="45.93199" lon="4.72699">
        <ele>169</ele>
        <time>2017-05-26T08:12:38Z</time>
      </trkpt>
      <trkpt lat="45.93204" lon="4.72693">
        <ele>169</ele>
        <time>2017-05-26T08:12:39Z</time>
      </trkpt>
      <trkpt lat="45.93209" lon="4.72687">
        <ele>169</ele>
        <time>2017-05-26T08:12:40Z</time>
      </trkpt>
      <trkpt lat="45.93214" lon="4.72681">
        <ele>169</ele>
        <time>2017-05-26T08:12:41Z</time>
      </trkpt>
      <trkpt lat="45.93218" lon="4.72676">
        <ele>169</ele>
        <time>2017-05-26T08:12:42Z</time>
      </trkpt>
      <trkpt lat="45.93223" lon="4.72671">
        <ele>169</ele>
        <time>2017-05-26T08:12:43Z</time>
      </trkpt>
      <trkpt lat="45.93228" lon="4.72665">
        <ele>169</ele>
        <time>2017-05-26T08:12:44Z</time>
      </trkpt>
      <trkpt lat="45.93233" lon="4.72659">
        <ele>169</ele>
        <time>2017-05-26T08:12:45Z</time>
      </trkpt>
      <trkpt lat="45.93237" lon="4.72653">
        <ele>169</ele>
        <time>2017-05-26T08:12:46Z</time>
      </trkpt>
      <trkpt lat="45.93242" lon="4.72648">
        <ele>170</ele>
        <time>2017-05-26T08:12:47Z</time>
      </trkpt>
      <trkpt lat="45.93246" lon="4.72642">
        <ele>170</ele>
        <time>2017-05-26T08:12:48Z</time>
      </trkpt>
      <trkpt lat="45.93251" lon="4.72637">
        <ele>169</ele>
        <time>2017-05-26T08:12:49Z</time>
      </trkpt>
      <trkpt lat="45.93256" lon="4.72631">
        <ele>170</ele>
        <time>2017-05-26T08:12:50Z</time>
      </trkpt>
      <trkpt lat="45.9326" lon="4.72626">
        <ele>170</ele>
        <time>2017-05-26T08:12:51Z</time>
      </trkpt>
      <trkpt lat="45.93265" lon="4.72621">
        <ele>170</ele>
        <time>2017-05-26T08:12:52Z</time>
      </trkpt>
      <trkpt lat="45.93269" lon="4.72616">
        <ele>170</ele>
        <time>2017-05-26T08:12:53Z</time>
      </trkpt>
      <trkpt lat="45.93273" lon="4.72611">
        <ele>170</ele>
        <time>2017-05-26T08:12:54Z</time>
      </trkpt>
      <trkpt lat="45.93277" lon="4.72605">
        <ele>170</ele>
        <time>2017-05-26T08:12:55Z</time>
      </trkpt>
      <trkpt lat="45.93282" lon="4.72599">
        <ele>170</ele>
        <time>2017-05-26T08:12:56Z</time>
      </trkpt>
      <trkpt lat="45.93286" lon="4.72594">
        <ele>170</ele>
        <time>2017-05-26T08:12:57Z</time>
      </trkpt>
      <trkpt lat="45.93291" lon="4.72588">
        <ele>170</ele>
        <time>2017-05-26T08:12:58Z</time>
      </trkpt>
      <trkpt lat="45.93295" lon="4.72583">
        <ele>171</ele>
        <time>2017-05-26T08:12:59Z</time>
      </trkpt>
      <trkpt lat="45.93299" lon="4.72578">
        <ele>171</ele>
        <time>2017-05-26T08:13:00Z</time>
      </trkpt>
      <trkpt lat="45.93304" lon="4.72573">
        <ele>171</ele>
        <time>2017-05-26T08:13:01Z</time>
      </trkpt>
      <trkpt lat="45.93308" lon="4.72568">
        <ele>171</ele>
        <time>2017-05-26T08:13:02Z</time>
      </trkpt>
      <trkpt lat="45.93312" lon="4.72563">
        <ele>171</ele>
        <time>2017-05-26T08:13:03Z</time>
      </trkpt>
      <trkpt lat="45.93317" lon="4.72558">
        <ele>171</ele>
        <time>2017-05-26T08:13:04Z</time>
      </trkpt>
      <trkpt lat="45.93322" lon="4.72553">
        <ele>172</ele>
        <time>2017-05-26T08:13:05Z</time>
      </trkpt>
      <trkpt lat="45.93326" lon="4.72547">
        <ele>172</ele>
        <time>2017-05-26T08:13:06Z</time>
      </trkpt>
      <trkpt lat="45.93331" lon="4.72542">
        <ele>172</ele>
        <time>2017-05-26T08:13:07Z</time>
      </trkpt>
      <trkpt lat="45.93336" lon="4.72537">
        <ele>171</ele>
        <time>2017-05-26T08:13:08Z</time>
      </trkpt>
      <trkpt lat="45.9334" lon="4.72532">
        <ele>172</ele>
        <time>2017-05-26T08:13:09Z</time>
      </trkpt>
      <trkpt lat="45.93344" lon="4.72527">
        <ele>172</ele>
        <time>2017-05-26T08:13:10Z</time>
      </trkpt>
      <trkpt lat="45.93349" lon="4.72522">
        <ele>172</ele>
        <time>2017-05-26T08:13:11Z</time>
      </trkpt>
      <trkpt lat="45.93353" lon="4.72517">
        <ele>172</ele>
        <time>2017-05-26T08:13:12Z</time>
      </trkpt>
      <trkpt lat="45.93358" lon="4.72511">
        <ele>172</ele>
        <time>2017-05-26T08:13:13Z</time>
      </trkpt>
      <trkpt lat="45.93363" lon="4.72506">
        <ele>172</ele>
        <time>2017-05-26T08:13:14Z</time>
      </trkpt>
      <trkpt lat="45.93367" lon="4.725">
        <ele>172</ele>
        <time>2017-05-26T08:13:15Z</time>
      </trkpt>
      <trkpt lat="45.93372" lon="4.72495">
        <ele>173</ele>
        <time>2017-05-26T08:13:16Z</time>
      </trkpt>
      <trkpt lat="45.93376" lon="4.7249">
        <ele>173</ele>
        <time>2017-05-26T08:13:17Z</time>
      </trkpt>
      <trkpt lat="45.9338" lon="4.72485">
        <ele>173</ele>
        <time>2017-05-26T08:13:18Z</time>
      </trkpt>
      <trkpt lat="45.93384" lon="4.7248">
        <ele>173</ele>
        <time>2017-05-26T08:13:19Z</time>
      </trkpt>
      <trkpt lat="45.93388" lon="4.72475">
        <ele>173</ele>
        <time>2017-05-26T08:13:20Z</time>
      </trkpt>
      <trkpt lat="45.93392" lon="4.7247">
        <ele>173</ele>
        <time>2017-05-26T08:13:21Z</time>
      </trkpt>
      <trkpt lat="45.93395" lon="4.72465">
        <ele>173</ele>
        <time>2017-05-26T08:13:22Z</time>
      </trkpt>
      <trkpt lat="45.93398" lon="4.72459">
        <ele>173</ele>
        <time>2017-05-26T08:13:23Z</time>
      </trkpt>
      <trkpt lat="45.93401" lon="4.72447">
        <ele>173</ele>
        <time>2017-05-26T08:13:25Z</time>
      </trkpt>
      <trkpt lat="45.93404" lon="4.72442">
        <ele>173</ele>
        <time>2017-05-26T08:13:26Z</time>
      </trkpt>
      <trkpt lat="45.93407" lon="4.72437">
        <ele>173</ele>
        <time>2017-05-26T08:13:27Z</time>
      </trkpt>
      <trkpt lat="45.9341" lon="4.72432">
        <ele>173</ele>
        <time>2017-05-26T08:13:28Z</time>
      </trkpt>
      <trkpt lat="45.93413" lon="4.72426">
        <ele>174</ele>
        <time>2017-05-26T08:13:29Z</time>
      </trkpt>
      <trkpt lat="45.93417" lon="4.72421">
        <ele>174</ele>
        <time>2017-05-26T08:13:30Z</time>
      </trkpt>
      <trkpt lat="45.93422" lon="4.72417">
        <ele>174</ele>
        <time>2017-05-26T08:13:31Z</time>
      </trkpt>
      <trkpt lat="45.93427" lon="4.72414">
        <ele>174</ele>
        <time>2017-05-26T08:13:32Z</time>
      </trkpt>
      <trkpt lat="45.93433" lon="4.72411">
        <ele>174</ele>
        <time>2017-05-26T08:13:33Z</time>
      </trkpt>
      <trkpt lat="45.93438" lon="4.72408">
        <ele>174</ele>
        <time>2017-05-26T08:13:34Z</time>
      </trkpt>
      <trkpt lat="45.93443" lon="4.72405">
        <ele>173</ele>
        <time>2017-05-26T08:13:35Z</time>
      </trkpt>
      <trkpt lat="45.93448" lon="4.72402">
        <ele>173</ele>
        <time>2017-05-26T08:13:36Z</time>
      </trkpt>
      <trkpt lat="45.93453" lon="4.72397">
        <ele>173</ele>
        <time>2017-05-26T08:13:37Z</time>
      </trkpt>
      <trkpt lat="45.93458" lon="4.72393">
        <ele>173</ele>
        <time>2017-05-26T08:13:38Z</time>
      </trkpt>
      <trkpt lat="45.93463" lon="4.72388">
        <ele>173</ele>
        <time>2017-05-26T08:13:39Z</time>
      </trkpt>
      <trkpt lat="45.93467" lon="4.72382">
        <ele>173</ele>
        <time>2017-05-26T08:13:40Z</time>
      </trkpt>
      <trkpt lat="45.93472" lon="4.72376">
        <ele>173</ele>
        <time>2017-05-26T08:13:41Z</time>
      </trkpt>
      <trkpt lat="45.93476" lon="4.72369">
        <ele>173</ele>
        <time>2017-05-26T08:13:42Z</time>
      </trkpt>
      <trkpt lat="45.93481" lon="4.72362">
        <ele>173</ele>
        <time>2017-05-26T08:13:43Z</time>
      </trkpt>
      <trkpt lat="45.93485" lon="4.72356">
        <ele>173</ele>
        <time>2017-05-26T08:13:44Z</time>
      </trkpt>
      <trkpt lat="45.9349" lon="4.7235">
        <ele>173</ele>
        <time>2017-05-26T08:13:45Z</time>
      </trkpt>
      <trkpt lat="45.93494" lon="4.72344">
        <ele>173</ele>
        <time>2017-05-26T08:13:46Z</time>
      </trkpt>
      <trkpt lat="45.93499" lon="4.72338">
        <ele>173</ele>
        <time>2017-05-26T08:13:47Z</time>
      </trkpt>
      <trkpt lat="45.93503" lon="4.72331">
        <ele>173</ele>
        <time>2017-05-26T08:13:48Z</time>
      </trkpt>
      <trkpt lat="45.93507" lon="4.72325">
        <ele>173</ele>
        <time>2017-05-26T08:13:49Z</time>
      </trkpt>
      <trkpt lat="45.93511" lon="4.72319">
        <ele>173</ele>
        <time>2017-05-26T08:13:50Z</time>
      </trkpt>
      <trkpt lat="45.93515" lon="4.72314">
        <ele>173</ele>
        <time>2017-05-26T08:13:51Z</time>
      </trkpt>
      <trkpt lat="45.93519" lon="4.72308">
        <ele>173</ele>
        <time>2017-05-26T08:13:52Z</time>
      </trkpt>
      <trkpt lat="45.93523" lon="4.72302">
        <ele>172</ele>
        <time>2017-05-26T08:13:53Z</time>
      </trkpt>
      <trkpt lat="45.93526" lon="4.72295">
        <ele>172</ele>
        <time>2017-05-26T08:13:54Z</time>
      </trkpt>
      <trkpt lat="45.93529" lon="4.72288">
        <ele>172</ele>
        <time>2017-05-26T08:13:55Z</time>
      </trkpt>
      <trkpt lat="45.93531" lon="4.72281">
        <ele>172</ele>
        <time>2017-05-26T08:13:56Z</time>
      </trkpt>
      <trkpt lat="45.93534" lon="4.72274">
        <ele>172</ele>
        <time>2017-05-26T08:13:57Z</time>
      </trkpt>
      <trkpt lat="45.93537" lon="4.72268">
        <ele>172</ele>
        <time>2017-05-26T08:13:58Z</time>
      </trkpt>
      <trkpt lat="45.9354" lon="4.72262">
        <ele>172</ele>
        <time>2017-05-26T08:13:59Z</time>
      </trkpt>
      <trkpt lat="45.93543" lon="4.72256">
        <ele>172</ele>
        <time>2017-05-26T08:14:00Z</time>
      </trkpt>
      <trkpt lat="45.93545" lon="4.72249">
        <ele>172</ele>
        <time>2017-05-26T08:14:01Z</time>
      </trkpt>
      <trkpt lat="45.93548" lon="4.72243">
        <ele>172</ele>
        <time>2017-05-26T08:14:02Z</time>
      </trkpt>
      <trkpt lat="45.9355" lon="4.72237">
        <ele>172</ele>
        <time>2017-05-26T08:14:03Z</time>
      </trkpt>
      <trkpt lat="45.93553" lon="4.72231">
        <ele>173</ele>
        <time>2017-05-26T08:14:04Z</time>
      </trkpt>
      <trkpt lat="45.93557" lon="4.72227">
        <ele>173</ele>
        <time>2017-05-26T08:14:05Z</time>
      </trkpt>
      <trkpt lat="45.93563" lon="4.72227">
        <ele>173</ele>
        <time>2017-05-26T08:14:06Z</time>
      </trkpt>
      <trkpt lat="45.93568" lon="4.72228">
        <ele>173</ele>
        <time>2017-05-26T08:14:07Z</time>
      </trkpt>
      <trkpt lat="45.93573" lon="4.72232">
        <ele>173</ele>
        <time>2017-05-26T08:14:08Z</time>
      </trkpt>
      <trkpt lat="45.93577" lon="4.72237">
        <ele>173</ele>
        <time>2017-05-26T08:14:09Z</time>
      </trkpt>
      <trkpt lat="45.93581" lon="4.72242">
        <ele>173</ele>
        <time>2017-05-26T08:14:10Z</time>
      </trkpt>
      <trkpt lat="45.93585" lon="4.72247">
        <ele>173</ele>
        <time>2017-05-26T08:14:11Z</time>
      </trkpt>
      <trkpt lat="45.93589" lon="4.72252">
        <ele>173</ele>
        <time>2017-05-26T08:14:12Z</time>
      </trkpt>
      <trkpt lat="45.93593" lon="4.72256">
        <ele>173</ele>
        <time>2017-05-26T08:14:13Z</time>
      </trkpt>
      <trkpt lat="45.93597" lon="4.7226">
        <ele>173</ele>
        <time>2017-05-26T08:14:14Z</time>
      </trkpt>
      <trkpt lat="45.93602" lon="4.72264">
        <ele>173</ele>
        <time>2017-05-26T08:14:15Z</time>
      </trkpt>
      <trkpt lat="45.93606" lon="4.72268">
        <ele>172</ele>
        <time>2017-05-26T08:14:16Z</time>
      </trkpt>
      <trkpt lat="45.93611" lon="4.72273">
        <ele>172</ele>
        <time>2017-05-26T08:14:17Z</time>
      </trkpt>
      <trkpt lat="45.93616" lon="4.72278">
        <ele>172</ele>
        <time>2017-05-26T08:14:18Z</time>
      </trkpt>
      <trkpt lat="45.9362" lon="4.72283">
        <ele>172</ele>
        <time>2017-05-26T08:14:19Z</time>
      </trkpt>
      <trkpt lat="45.93625" lon="4.72288">
        <ele>172</ele>
        <time>2017-05-26T08:14:20Z</time>
      </trkpt>
      <trkpt lat="45.93629" lon="4.72293">
        <ele>172</ele>
        <time>2017-05-26T08:14:21Z</time>
      </trkpt>
      <trkpt lat="45.93634" lon="4.72298">
        <ele>172</ele>
        <time>2017-05-26T08:14:22Z</time>
      </trkpt>
      <trkpt lat="45.9364" lon="4.72303">
        <ele>172</ele>
        <time>2017-05-26T08:14:23Z</time>
      </trkpt>
      <trkpt lat="45.93645" lon="4.72308">
        <ele>172</ele>
        <time>2017-05-26T08:14:24Z</time>
      </trkpt>
      <trkpt lat="45.9365" lon="4.72313">
        <ele>172</ele>
        <time>2017-05-26T08:14:25Z</time>
      </trkpt>
      <trkpt lat="45.93655" lon="4.72319">
        <ele>172</ele>
        <time>2017-05-26T08:14:26Z</time>
      </trkpt>
      <trkpt lat="45.9366" lon="4.72325">
        <ele>171</ele>
        <time>2017-05-26T08:14:27Z</time>
      </trkpt>
      <trkpt lat="45.93665" lon="4.72331">
        <ele>171</ele>
        <time>2017-05-26T08:14:28Z</time>
      </trkpt>
      <trkpt lat="45.9367" lon="4.72336">
        <ele>171</ele>
        <time>2017-05-26T08:14:29Z</time>
      </trkpt>
      <trkpt lat="45.93675" lon="4.72341">
        <ele>171</ele>
        <time>2017-05-26T08:14:30Z</time>
      </trkpt>
      <trkpt lat="45.93679" lon="4.72346">
        <ele>171</ele>
        <time>2017-05-26T08:14:31Z</time>
      </trkpt>
      <trkpt lat="45.93685" lon="4.7235">
        <ele>171</ele>
        <time>2017-05-26T08:14:32Z</time>
      </trkpt>
      <trkpt lat="45.9369" lon="4.72354">
        <ele>171</ele>
        <time>2017-05-26T08:14:33Z</time>
      </trkpt>
      <trkpt lat="45.93695" lon="4.72357">
        <ele>171</ele>
        <time>2017-05-26T08:14:34Z</time>
      </trkpt>
      <trkpt lat="45.93699" lon="4.72361">
        <ele>171</ele>
        <time>2017-05-26T08:14:35Z</time>
      </trkpt>
      <trkpt lat="45.93704" lon="4.72366">
        <ele>171</ele>
        <time>2017-05-26T08:14:36Z</time>
      </trkpt>
      <trkpt lat="45.93709" lon="4.72371">
        <ele>172</ele>
        <time>2017-05-26T08:14:37Z</time>
      </trkpt>
      <trkpt lat="45.93713" lon="4.72376">
        <ele>171</ele>
        <time>2017-05-26T08:14:38Z</time>
      </trkpt>
      <trkpt lat="45.93718" lon="4.7238">
        <ele>171</ele>
        <time>2017-05-26T08:14:39Z</time>
      </trkpt>
      <trkpt lat="45.93722" lon="4.72385">
        <ele>171</ele>
        <time>2017-05-26T08:14:40Z</time>
      </trkpt>
      <trkpt lat="45.93727" lon="4.72389">
        <ele>171</ele>
        <time>2017-05-26T08:14:41Z</time>
      </trkpt>
      <trkpt lat="45.93731" lon="4.72393">
        <ele>171</ele>
        <time>2017-05-26T08:14:42Z</time>
      </trkpt>
      <trkpt lat="45.93736" lon="4.72398">
        <ele>171</ele>
        <time>2017-05-26T08:14:43Z</time>
      </trkpt>
      <trkpt lat="45.9374" lon="4.72403">
        <ele>171</ele>
        <time>2017-05-26T08:14:44Z</time>
      </trkpt>
      <trkpt lat="45.93745" lon="4.72407">
        <ele>171</ele>
        <time>2017-05-26T08:14:45Z</time>
      </trkpt>
      <trkpt lat="45.9375" lon="4.72412">
        <ele>171</ele>
        <time>2017-05-26T08:14:46Z</time>
      </trkpt>
      <trkpt lat="45.93754" lon="4.72417">
        <ele>171</ele>
        <time>2017-05-26T08:14:47Z</time>
      </trkpt>
      <trkpt lat="45.93759" lon="4.72422">
        <ele>171</ele>
        <time>2017-05-26T08:14:48Z</time>
      </trkpt>
      <trkpt lat="45.93763" lon="4.72427">
        <ele>171</ele>
        <time>2017-05-26T08:14:49Z</time>
      </trkpt>
      <trkpt lat="45.93767" lon="4.72432">
        <ele>171</ele>
        <time>2017-05-26T08:14:50Z</time>
      </trkpt>
      <trkpt lat="45.93772" lon="4.72437">
        <ele>171</ele>
        <time>2017-05-26T08:14:51Z</time>
      </trkpt>
      <trkpt lat="45.93777" lon="4.72441">
        <ele>172</ele>
        <time>2017-05-26T08:14:52Z</time>
      </trkpt>
      <trkpt lat="45.93782" lon="4.72446">
        <ele>172</ele>
        <time>2017-05-26T08:14:53Z</time>
      </trkpt>
      <trkpt lat="45.93788" lon="4.7245">
        <ele>172</ele>
        <time>2017-05-26T08:14:54Z</time>
      </trkpt>
      <trkpt lat="45.93792" lon="4.72455">
        <ele>172</ele>
        <time>2017-05-26T08:14:55Z</time>
      </trkpt>
      <trkpt lat="45.93797" lon="4.72459">
        <ele>172</ele>
        <time>2017-05-26T08:14:56Z</time>
      </trkpt>
      <trkpt lat="45.93801" lon="4.72464">
        <ele>172</ele>
        <time>2017-05-26T08:14:57Z</time>
      </trkpt>
      <trkpt lat="45.93806" lon="4.72469">
        <ele>172</ele>
        <time>2017-05-26T08:14:58Z</time>
      </trkpt>
      <trkpt lat="45.9381" lon="4.72474">
        <ele>172</ele>
        <time>2017-05-26T08:14:59Z</time>
      </trkpt>
      <trkpt lat="45.93815" lon="4.72479">
        <ele>172</ele>
        <time>2017-05-26T08:15:00Z</time>
      </trkpt>
      <trkpt lat="45.9382" lon="4.72483">
        <ele>173</ele>
        <time>2017-05-26T08:15:01Z</time>
      </trkpt>
      <trkpt lat="45.93825" lon="4.72487">
        <ele>173</ele>
        <time>2017-05-26T08:15:02Z</time>
      </trkpt>
      <trkpt lat="45.9383" lon="4.72489">
        <ele>173</ele>
        <time>2017-05-26T08:15:03Z</time>
      </trkpt>
      <trkpt lat="45.93835" lon="4.72491">
        <ele>173</ele>
        <time>2017-05-26T08:15:04Z</time>
      </trkpt>
      <trkpt lat="45.9384" lon="4.72493">
        <ele>173</ele>
        <time>2017-05-26T08:15:05Z</time>
      </trkpt>
      <trkpt lat="45.93845" lon="4.72495">
        <ele>173</ele>
        <time>2017-05-26T08:15:06Z</time>
      </trkpt>
      <trkpt lat="45.9385" lon="4.72497">
        <ele>173</ele>
        <time>2017-05-26T08:15:07Z</time>
      </trkpt>
      <trkpt lat="45.93831" lon="4.7251">
        <ele>174</ele>
        <time>2017-05-26T08:15:08Z</time>
      </trkpt>
      <trkpt lat="45.9383" lon="4.72519">
        <ele>174</ele>
        <time>2017-05-26T08:15:09Z</time>
      </trkpt>
      <trkpt lat="45.93854" lon="4.72524">
        <ele>173</ele>
        <time>2017-05-26T08:15:10Z</time>
      </trkpt>
      <trkpt lat="45.93866" lon="4.72523">
        <ele>173</ele>
        <time>2017-05-26T08:15:11Z</time>
      </trkpt>
      <trkpt lat="45.93873" lon="4.7252">
        <ele>173</ele>
        <time>2017-05-26T08:15:12Z</time>
      </trkpt>
      <trkpt lat="45.93879" lon="4.72515">
        <ele>173</ele>
        <time>2017-05-26T08:15:13Z</time>
      </trkpt>
      <trkpt lat="45.93885" lon="4.72509">
        <ele>173</ele>
        <time>2017-05-26T08:15:14Z</time>
      </trkpt>
      <trkpt lat="45.9389" lon="4.72504">
        <ele>173</ele>
        <time>2017-05-26T08:15:15Z</time>
      </trkpt>
      <trkpt lat="45.93894" lon="4.72499">
        <ele>172</ele>
        <time>2017-05-26T08:15:16Z</time>
      </trkpt>
      <trkpt lat="45.93899" lon="4.72494">
        <ele>172</ele>
        <time>2017-05-26T08:15:17Z</time>
      </trkpt>
      <trkpt lat="45.93904" lon="4.72489">
        <ele>172</ele>
        <time>2017-05-26T08:15:18Z</time>
      </trkpt>
      <trkpt lat="45.93909" lon="4.72483">
        <ele>172</ele>
        <time>2017-05-26T08:15:19Z</time>
      </trkpt>
      <trkpt lat="45.93913" lon="4.72477">
        <ele>172</ele>
        <time>2017-05-26T08:15:20Z</time>
      </trkpt>
      <trkpt lat="45.93918" lon="4.72471">
        <ele>171</ele>
        <time>2017-05-26T08:15:21Z</time>
      </trkpt>
      <trkpt lat="45.93923" lon="4.72465">
        <ele>171</ele>
        <time>2017-05-26T08:15:22Z</time>
      </trkpt>
      <trkpt lat="45.93928" lon="4.72459">
        <ele>171</ele>
        <time>2017-05-26T08:15:23Z</time>
      </trkpt>
      <trkpt lat="45.93934" lon="4.72453">
        <ele>171</ele>
        <time>2017-05-26T08:15:24Z</time>
      </trkpt>
      <trkpt lat="45.93939" lon="4.72446">
        <ele>171</ele>
        <time>2017-05-26T08:15:25Z</time>
      </trkpt>
      <trkpt lat="45.93945" lon="4.7244">
        <ele>171</ele>
        <time>2017-05-26T08:15:26Z</time>
      </trkpt>
      <trkpt lat="45.93951" lon="4.72433">
        <ele>171</ele>
        <time>2017-05-26T08:15:27Z</time>
      </trkpt>
      <trkpt lat="45.93957" lon="4.72426">
        <ele>171</ele>
        <time>2017-05-26T08:15:28Z</time>
      </trkpt>
      <trkpt lat="45.93963" lon="4.7242">
        <ele>171</ele>
        <time>2017-05-26T08:15:29Z</time>
      </trkpt>
      <trkpt lat="45.93969" lon="4.72414">
        <ele>171</ele>
        <time>2017-05-26T08:15:30Z</time>
      </trkpt>
      <trkpt lat="45.93975" lon="4.72408">
        <ele>171</ele>
        <time>2017-05-26T08:15:31Z</time>
      </trkpt>
      <trkpt lat="45.9398" lon="4.72401">
        <ele>171</ele>
        <time>2017-05-26T08:15:32Z</time>
      </trkpt>
      <trkpt lat="45.93985" lon="4.72395">
        <ele>171</ele>
        <time>2017-05-26T08:15:33Z</time>
      </trkpt>
      <trkpt lat="45.9399" lon="4.72389">
        <ele>171</ele>
        <time>2017-05-26T08:15:34Z</time>
      </trkpt>
      <trkpt lat="45.93995" lon="4.72383">
        <ele>171</ele>
        <time>2017-05-26T08:15:35Z</time>
      </trkpt>
      <trkpt lat="45.94" lon="4.72377">
        <ele>171</ele>
        <time>2017-05-26T08:15:36Z</time>
      </trkpt>
      <trkpt lat="45.94005" lon="4.72372">
        <ele>171</ele>
        <time>2017-05-26T08:15:37Z</time>
      </trkpt>
      <trkpt lat="45.9401" lon="4.72366">
        <ele>171</ele>
        <time>2017-05-26T08:15:38Z</time>
      </trkpt>
      <trkpt lat="45.94013" lon="4.7236">
        <ele>171</ele>
        <time>2017-05-26T08:15:39Z</time>
      </trkpt>
      <trkpt lat="45.94017" lon="4.72354">
        <ele>171</ele>
        <time>2017-05-26T08:15:40Z</time>
      </trkpt>
      <trkpt lat="45.94021" lon="4.72348">
        <ele>171</ele>
        <time>2017-05-26T08:15:41Z</time>
      </trkpt>
      <trkpt lat="45.94025" lon="4.72343">
        <ele>171</ele>
        <time>2017-05-26T08:15:42Z</time>
      </trkpt>
      <trkpt lat="45.9403" lon="4.72337">
        <ele>171</ele>
        <time>2017-05-26T08:15:43Z</time>
      </trkpt>
      <trkpt lat="45.94034" lon="4.72331">
        <ele>171</ele>
        <time>2017-05-26T08:15:44Z</time>
      </trkpt>
      <trkpt lat="45.94038" lon="4.72326">
        <ele>171</ele>
        <time>2017-05-26T08:15:45Z</time>
      </trkpt>
      <trkpt lat="45.94042" lon="4.72321">
        <ele>171</ele>
        <time>2017-05-26T08:15:46Z</time>
      </trkpt>
      <trkpt lat="45.94045" lon="4.72316">
        <ele>171</ele>
        <time>2017-05-26T08:15:47Z</time>
      </trkpt>
      <trkpt lat="45.9405" lon="4.72311">
        <ele>171</ele>
        <time>2017-05-26T08:15:48Z</time>
      </trkpt>
      <trkpt lat="45.94054" lon="4.72305">
        <ele>171</ele>
        <time>2017-05-26T08:15:49Z</time>
      </trkpt>
      <trkpt lat="45.94058" lon="4.72299">
        <ele>171</ele>
        <time>2017-05-26T08:15:50Z</time>
      </trkpt>
      <trkpt lat="45.94063" lon="4.72294">
        <ele>171</ele>
        <time>2017-05-26T08:15:51Z</time>
      </trkpt>
      <trkpt lat="45.94067" lon="4.72289">
        <ele>171</ele>
        <time>2017-05-26T08:15:52Z</time>
      </trkpt>
      <trkpt lat="45.94072" lon="4.72284">
        <ele>171</ele>
        <time>2017-05-26T08:15:53Z</time>
      </trkpt>
      <trkpt lat="45.94076" lon="4.7228">
        <ele>171</ele>
        <time>2017-05-26T08:15:54Z</time>
      </trkpt>
      <trkpt lat="45.94081" lon="4.72277">
        <ele>171</ele>
        <time>2017-05-26T08:15:55Z</time>
      </trkpt>
      <trkpt lat="45.94086" lon="4.72274">
        <ele>171</ele>
        <time>2017-05-26T08:15:56Z</time>
      </trkpt>
      <trkpt lat="45.94092" lon="4.72273">
        <ele>171</ele>
        <time>2017-05-26T08:15:57Z</time>
      </trkpt>
      <trkpt lat="45.94097" lon="4.72271">
        <ele>171</ele>
        <time>2017-05-26T08:15:58Z</time>
      </trkpt>
      <trkpt lat="45.94103" lon="4.72271">
        <ele>171</ele>
        <time>2017-05-26T08:15:59Z</time>
      </trkpt>
      <trkpt lat="45.94109" lon="4.72271">
        <ele>171</ele>
        <time>2017-05-26T08:16:00Z</time>
      </trkpt>
      <trkpt lat="45.94115" lon="4.72272">
        <ele>171</ele>
        <time>2017-05-26T08:16:01Z</time>
      </trkpt>
      <trkpt lat="45.9412" lon="4.72274">
        <ele>171</ele>
        <time>2017-05-26T08:16:02Z</time>
      </trkpt>
      <trkpt lat="45.94125" lon="4.72277">
        <ele>171</ele>
        <time>2017-05-26T08:16:03Z</time>
      </trkpt>
      <trkpt lat="45.94131" lon="4.7228">
        <ele>171</ele>
        <time>2017-05-26T08:16:04Z</time>
      </trkpt>
      <trkpt lat="45.94136" lon="4.72283">
        <ele>171</ele>
        <time>2017-05-26T08:16:05Z</time>
      </trkpt>
      <trkpt lat="45.94142" lon="4.72285">
        <ele>171</ele>
        <time>2017-05-26T08:16:06Z</time>
      </trkpt>
      <trkpt lat="45.94147" lon="4.72288">
        <ele>171</ele>
        <time>2017-05-26T08:16:07Z</time>
      </trkpt>
      <trkpt lat="45.94153" lon="4.7229">
        <ele>171</ele>
        <time>2017-05-26T08:16:08Z</time>
      </trkpt>
      <trkpt lat="45.94158" lon="4.72291">
        <ele>171</ele>
        <time>2017-05-26T08:16:09Z</time>
      </trkpt>
      <trkpt lat="45.94164" lon="4.72292">
        <ele>171</ele>
        <time>2017-05-26T08:16:10Z</time>
      </trkpt>
      <trkpt lat="45.94169" lon="4.72292">
        <ele>171</ele>
        <time>2017-05-26T08:16:11Z</time>
      </trkpt>
      <trkpt lat="45.94175" lon="4.72293">
        <ele>171</ele>
        <time>2017-05-26T08:16:12Z</time>
      </trkpt>
      <trkpt lat="45.94181" lon="4.72293">
        <ele>171</ele>
        <time>2017-05-26T08:16:13Z</time>
      </trkpt>
      <trkpt lat="45.94186" lon="4.72293">
        <ele>171</ele>
        <time>2017-05-26T08:16:14Z</time>
      </trkpt>
      <trkpt lat="45.94192" lon="4.72293">
        <ele>171</ele>
        <time>2017-05-26T08:16:15Z</time>
      </trkpt>
      <trkpt lat="45.94198" lon="4.72293">
        <ele>171</ele>
        <time>2017-05-26T08:16:16Z</time>
      </trkpt>
      <trkpt lat="45.94203" lon="4.72294">
        <ele>171</ele>
        <time>2017-05-26T08:16:17Z</time>
      </trkpt>
      <trkpt lat="45.94207" lon="4.72295">
        <ele>171</ele>
        <time>2017-05-26T08:16:18Z</time>
      </trkpt>
      <trkpt lat="45.94212" lon="4.72294">
        <ele>171</ele>
        <time>2017-05-26T08:16:19Z</time>
      </trkpt>
      <trkpt lat="45.94217" lon="4.72293">
        <ele>171</ele>
        <time>2017-05-26T08:16:20Z</time>
      </trkpt>
      <trkpt lat="45.94222" lon="4.72292">
        <ele>171</ele>
        <time>2017-05-26T08:16:21Z</time>
      </trkpt>
      <trkpt lat="45.94227" lon="4.72291">
        <ele>171</ele>
        <time>2017-05-26T08:16:22Z</time>
      </trkpt>
      <trkpt lat="45.94232" lon="4.7229">
        <ele>171</ele>
        <time>2017-05-26T08:16:23Z</time>
      </trkpt>
      <trkpt lat="45.94236" lon="4.72288">
        <ele>171</ele>
        <time>2017-05-26T08:16:24Z</time>
      </trkpt>
      <trkpt lat="45.94241" lon="4.72286">
        <ele>171</ele>
        <time>2017-05-26T08:16:25Z</time>
      </trkpt>
      <trkpt lat="45.94245" lon="4.72285">
        <ele>171</ele>
        <time>2017-05-26T08:16:26Z</time>
      </trkpt>
      <trkpt lat="45.9425" lon="4.72283">
        <ele>171</ele>
        <time>2017-05-26T08:16:27Z</time>
      </trkpt>
      <trkpt lat="45.94255" lon="4.72281">
        <ele>171</ele>
        <time>2017-05-26T08:16:28Z</time>
      </trkpt>
      <trkpt lat="45.94259" lon="4.72279">
        <ele>171</ele>
        <time>2017-05-26T08:16:29Z</time>
      </trkpt>
      <trkpt lat="45.94264" lon="4.72278">
        <ele>171</ele>
        <time>2017-05-26T08:16:30Z</time>
      </trkpt>
      <trkpt lat="45.94269" lon="4.72278">
        <ele>171</ele>
        <time>2017-05-26T08:16:31Z</time>
      </trkpt>
      <trkpt lat="45.94274" lon="4.72284">
        <ele>171</ele>
        <time>2017-05-26T08:16:33Z</time>
      </trkpt>
      <trkpt lat="45.94276" lon="4.7229">
        <ele>171</ele>
        <time>2017-05-26T08:16:34Z</time>
      </trkpt>
      <trkpt lat="45.94279" lon="4.72295">
        <ele>171</ele>
        <time>2017-05-26T08:16:35Z</time>
      </trkpt>
      <trkpt lat="45.94282" lon="4.72301">
        <ele>171</ele>
        <time>2017-05-26T08:16:36Z</time>
      </trkpt>
      <trkpt lat="45.94285" lon="4.72308">
        <ele>171</ele>
        <time>2017-05-26T08:16:37Z</time>
      </trkpt>
      <trkpt lat="45.94288" lon="4.72314">
        <ele>171</ele>
        <time>2017-05-26T08:16:38Z</time>
      </trkpt>
      <trkpt lat="45.94292" lon="4.7232">
        <ele>171</ele>
        <time>2017-05-26T08:16:39Z</time>
      </trkpt>
      <trkpt lat="45.94295" lon="4.72326">
        <ele>171</ele>
        <time>2017-05-26T08:16:40Z</time>
      </trkpt>
      <trkpt lat="45.94298" lon="4.72333">
        <ele>171</ele>
        <time>2017-05-26T08:16:41Z</time>
      </trkpt>
      <trkpt lat="45.94301" lon="4.72339">
        <ele>172</ele>
        <time>2017-05-26T08:16:42Z</time>
      </trkpt>
      <trkpt lat="45.94305" lon="4.72345">
        <ele>172</ele>
        <time>2017-05-26T08:16:43Z</time>
      </trkpt>
      <trkpt lat="45.94308" lon="4.72352">
        <ele>172</ele>
        <time>2017-05-26T08:16:44Z</time>
      </trkpt>
      <trkpt lat="45.9431" lon="4.72359">
        <ele>172</ele>
        <time>2017-05-26T08:16:45Z</time>
      </trkpt>
      <trkpt lat="45.94314" lon="4.72365">
        <ele>172</ele>
        <time>2017-05-26T08:16:46Z</time>
      </trkpt>
      <trkpt lat="45.94317" lon="4.72372">
        <ele>172</ele>
        <time>2017-05-26T08:16:47Z</time>
      </trkpt>
      <trkpt lat="45.9432" lon="4.72379">
        <ele>172</ele>
        <time>2017-05-26T08:16:48Z</time>
      </trkpt>
      <trkpt lat="45.94323" lon="4.72385">
        <ele>172</ele>
        <time>2017-05-26T08:16:49Z</time>
      </trkpt>
      <trkpt lat="45.94326" lon="4.72392">
        <ele>172</ele>
        <time>2017-05-26T08:16:50Z</time>
      </trkpt>
      <trkpt lat="45.94329" lon="4.72398">
        <ele>172</ele>
        <time>2017-05-26T08:16:51Z</time>
      </trkpt>
      <trkpt lat="45.94332" lon="4.72405">
        <ele>173</ele>
        <time>2017-05-26T08:16:52Z</time>
      </trkpt>
      <trkpt lat="45.94335" lon="4.72412">
        <ele>173</ele>
        <time>2017-05-26T08:16:53Z</time>
      </trkpt>
      <trkpt lat="45.94338" lon="4.72418">
        <ele>173</ele>
        <time>2017-05-26T08:16:54Z</time>
      </trkpt>
      <trkpt lat="45.9434" lon="4.72425">
        <ele>173</ele>
        <time>2017-05-26T08:16:55Z</time>
      </trkpt>
      <trkpt lat="45.94343" lon="4.72431">
        <ele>173</ele>
        <time>2017-05-26T08:16:56Z</time>
      </trkpt>
      <trkpt lat="45.94346" lon="4.72437">
        <ele>173</ele>
        <time>2017-05-26T08:16:57Z</time>
      </trkpt>
      <trkpt lat="45.94348" lon="4.72444">
        <ele>173</ele>
        <time>2017-05-26T08:16:58Z</time>
      </trkpt>
      <trkpt lat="45.94351" lon="4.7245">
        <ele>173</ele>
        <time>2017-05-26T08:16:59Z</time>
      </trkpt>
      <trkpt lat="45.94354" lon="4.72456">
        <ele>173</ele>
        <time>2017-05-26T08:17:00Z</time>
      </trkpt>
      <trkpt lat="45.94357" lon="4.72463">
        <ele>173</ele>
        <time>2017-05-26T08:17:01Z</time>
      </trkpt>
      <trkpt lat="45.94359" lon="4.72471">
        <ele>173</ele>
        <time>2017-05-26T08:17:02Z</time>
      </trkpt>
      <trkpt lat="45.94363" lon="4.72478">
        <ele>173</ele>
        <time>2017-05-26T08:17:03Z</time>
      </trkpt>
      <trkpt lat="45.94366" lon="4.72483">
        <ele>173</ele>
        <time>2017-05-26T08:17:04Z</time>
      </trkpt>
      <trkpt lat="45.94368" lon="4.72489">
        <ele>173</ele>
        <time>2017-05-26T08:17:05Z</time>
      </trkpt>
      <trkpt lat="45.94371" lon="4.72496">
        <ele>173</ele>
        <time>2017-05-26T08:17:06Z</time>
      </trkpt>
      <trkpt lat="45.94372" lon="4.72502">
        <ele>173</ele>
        <time>2017-05-26T08:17:07Z</time>
      </trkpt>
      <trkpt lat="45.94373" lon="4.72509">
        <ele>173</ele>
        <time>2017-05-26T08:17:08Z</time>
      </trkpt>
      <trkpt lat="45.94374" lon="4.72517">
        <ele>173</ele>
        <time>2017-05-26T08:17:09Z</time>
      </trkpt>
      <trkpt lat="45.94374" lon="4.72524">
        <ele>173</ele>
        <time>2017-05-26T08:17:10Z</time>
      </trkpt>
      <trkpt lat="45.94376" lon="4.7253">
        <ele>174</ele>
        <time>2017-05-26T08:17:11Z</time>
      </trkpt>
      <trkpt lat="45.94378" lon="4.72538">
        <ele>174</ele>
        <time>2017-05-26T08:17:12Z</time>
      </trkpt>
      <trkpt lat="45.9438" lon="4.72545">
        <ele>173</ele>
        <time>2017-05-26T08:17:13Z</time>
      </trkpt>
      <trkpt lat="45.94381" lon="4.72551">
        <ele>173</ele>
        <time>2017-05-26T08:17:14Z</time>
      </trkpt>
      <trkpt lat="45.94382" lon="4.72558">
        <ele>173</ele>
        <time>2017-05-26T08:17:15Z</time>
      </trkpt>
      <trkpt lat="45.94384" lon="4.72565">
        <ele>173</ele>
        <time>2017-05-26T08:17:16Z</time>
      </trkpt>
      <trkpt lat="45.94386" lon="4.72573">
        <ele>173</ele>
        <time>2017-05-26T08:17:17Z</time>
      </trkpt>
      <trkpt lat="45.94387" lon="4.7258">
        <ele>173</ele>
        <time>2017-05-26T08:17:18Z</time>
      </trkpt>
      <trkpt lat="45.94389" lon="4.72588">
        <ele>173</ele>
        <time>2017-05-26T08:17:19Z</time>
      </trkpt>
      <trkpt lat="45.94391" lon="4.72595">
        <ele>173</ele>
        <time>2017-05-26T08:17:20Z</time>
      </trkpt>
      <trkpt lat="45.94392" lon="4.72603">
        <ele>173</ele>
        <time>2017-05-26T08:17:21Z</time>
      </trkpt>
      <trkpt lat="45.94393" lon="4.7261">
        <ele>173</ele>
        <time>2017-05-26T08:17:22Z</time>
      </trkpt>
      <trkpt lat="45.94395" lon="4.72618">
        <ele>173</ele>
        <time>2017-05-26T08:17:23Z</time>
      </trkpt>
      <trkpt lat="45.94396" lon="4.72627">
        <ele>174</ele>
        <time>2017-05-26T08:17:24Z</time>
      </trkpt>
      <trkpt lat="45.94398" lon="4.72636">
        <ele>174</ele>
        <time>2017-05-26T08:17:25Z</time>
      </trkpt>
      <trkpt lat="45.94399" lon="4.72645">
        <ele>174</ele>
        <time>2017-05-26T08:17:26Z</time>
      </trkpt>
      <trkpt lat="45.944" lon="4.72654">
        <ele>174</ele>
        <time>2017-05-26T08:17:27Z</time>
      </trkpt>
      <trkpt lat="45.94401" lon="4.72664">
        <ele>174</ele>
        <time>2017-05-26T08:17:28Z</time>
      </trkpt>
      <trkpt lat="45.94402" lon="4.72674">
        <ele>173</ele>
        <time>2017-05-26T08:17:29Z</time>
      </trkpt>
      <trkpt lat="45.94404" lon="4.72683">
        <ele>173</ele>
        <time>2017-05-26T08:17:30Z</time>
      </trkpt>
      <trkpt lat="45.94405" lon="4.72692">
        <ele>173</ele>
        <time>2017-05-26T08:17:31Z</time>
      </trkpt>
      <trkpt lat="45.94406" lon="4.72701">
        <ele>172</ele>
        <time>2017-05-26T08:17:32Z</time>
      </trkpt>
      <trkpt lat="45.94407" lon="4.72709">
        <ele>172</ele>
        <time>2017-05-26T08:17:33Z</time>
      </trkpt>
      <trkpt lat="45.94408" lon="4.72716">
        <ele>172</ele>
        <time>2017-05-26T08:17:34Z</time>
      </trkpt>
      <trkpt lat="45.94409" lon="4.72724">
        <ele>172</ele>
        <time>2017-05-26T08:17:35Z</time>
      </trkpt>
      <trkpt lat="45.9441" lon="4.72732">
        <ele>172</ele>
        <time>2017-05-26T08:17:36Z</time>
      </trkpt>
      <trkpt lat="45.94412" lon="4.7274">
        <ele>171</ele>
        <time>2017-05-26T08:17:37Z</time>
      </trkpt>
      <trkpt lat="45.94413" lon="4.72748">
        <ele>171</ele>
        <time>2017-05-26T08:17:38Z</time>
      </trkpt>
      <trkpt lat="45.94414" lon="4.72757">
        <ele>170</ele>
        <time>2017-05-26T08:17:39Z</time>
      </trkpt>
      <trkpt lat="45.94415" lon="4.72765">
        <ele>170</ele>
        <time>2017-05-26T08:17:40Z</time>
      </trkpt>
      <trkpt lat="45.94416" lon="4.72774">
        <ele>169</ele>
        <time>2017-05-26T08:17:41Z</time>
      </trkpt>
      <trkpt lat="45.94418" lon="4.72783">
        <ele>168</ele>
        <time>2017-05-26T08:17:42Z</time>
      </trkpt>
      <trkpt lat="45.94419" lon="4.72791">
        <ele>168</ele>
        <time>2017-05-26T08:17:43Z</time>
      </trkpt>
      <trkpt lat="45.9442" lon="4.728">
        <ele>167</ele>
        <time>2017-05-26T08:17:44Z</time>
      </trkpt>
      <trkpt lat="45.94421" lon="4.72808">
        <ele>167</ele>
        <time>2017-05-26T08:17:45Z</time>
      </trkpt>
      <trkpt lat="45.94423" lon="4.72817">
        <ele>167</ele>
        <time>2017-05-26T08:17:46Z</time>
      </trkpt>
      <trkpt lat="45.94424" lon="4.72825">
        <ele>167</ele>
        <time>2017-05-26T08:17:47Z</time>
      </trkpt>
      <trkpt lat="45.94425" lon="4.72833">
        <ele>166</ele>
        <time>2017-05-26T08:17:48Z</time>
      </trkpt>
      <trkpt lat="45.94426" lon="4.72841">
        <ele>166</ele>
        <time>2017-05-26T08:17:49Z</time>
      </trkpt>
      <trkpt lat="45.94427" lon="4.72849">
        <ele>166</ele>
        <time>2017-05-26T08:17:50Z</time>
      </trkpt>
      <trkpt lat="45.94429" lon="4.72857">
        <ele>166</ele>
        <time>2017-05-26T08:17:51Z</time>
      </trkpt>
      <trkpt lat="45.9443" lon="4.72866">
        <ele>166</ele>
        <time>2017-05-26T08:17:52Z</time>
      </trkpt>
      <trkpt lat="45.94431" lon="4.72874">
        <ele>166</ele>
        <time>2017-05-26T08:17:53Z</time>
      </trkpt>
      <trkpt lat="45.94432" lon="4.72882">
        <ele>166</ele>
        <time>2017-05-26T08:17:54Z</time>
      </trkpt>
      <trkpt lat="45.94434" lon="4.7289">
        <ele>166</ele>
        <time>2017-05-26T08:17:55Z</time>
      </trkpt>
      <trkpt lat="45.94435" lon="4.72898">
        <ele>166</ele>
        <time>2017-05-26T08:17:56Z</time>
      </trkpt>
      <trkpt lat="45.94436" lon="4.72906">
        <ele>166</ele>
        <time>2017-05-26T08:17:57Z</time>
      </trkpt>
      <trkpt lat="45.94437" lon="4.72913">
        <ele>166</ele>
        <time>2017-05-26T08:17:58Z</time>
      </trkpt>
      <trkpt lat="45.94438" lon="4.7292">
        <ele>167</ele>
        <time>2017-05-26T08:17:59Z</time>
      </trkpt>
      <trkpt lat="45.94439" lon="4.72927">
        <ele>167</ele>
        <time>2017-05-26T08:18:00Z</time>
      </trkpt>
      <trkpt lat="45.9444" lon="4.72935">
        <ele>167</ele>
        <time>2017-05-26T08:18:01Z</time>
      </trkpt>
      <trkpt lat="45.94441" lon="4.72943">
        <ele>167</ele>
        <time>2017-05-26T08:18:02Z</time>
      </trkpt>
      <trkpt lat="45.94442" lon="4.72952">
        <ele>167</ele>
        <time>2017-05-26T08:18:03Z</time>
      </trkpt>
      <trkpt lat="45.94443" lon="4.72961">
        <ele>167</ele>
        <time>2017-05-26T08:18:04Z</time>
      </trkpt>
      <trkpt lat="45.94444" lon="4.7297">
        <ele>167</ele>
        <time>2017-05-26T08:18:05Z</time>
      </trkpt>
      <trkpt lat="45.94445" lon="4.72979">
        <ele>167</ele>
        <time>2017-05-26T08:18:06Z</time>
      </trkpt>
      <trkpt lat="45.94446" lon="4.72988">
        <ele>167</ele>
        <time>2017-05-26T08:18:07Z</time>
      </trkpt>
      <trkpt lat="45.94448" lon="4.72998">
        <ele>167</ele>
        <time>2017-05-26T08:18:08Z</time>
      </trkpt>
      <trkpt lat="45.94449" lon="4.73007">
        <ele>169</ele>
        <time>2017-05-26T08:18:09Z</time>
      </trkpt>
      <trkpt lat="45.9445" lon="4.73017">
        <ele>169</ele>
        <time>2017-05-26T08:18:10Z</time>
      </trkpt>
      <trkpt lat="45.94451" lon="4.73027">
        <ele>169</ele>
        <time>2017-05-26T08:18:11Z</time>
      </trkpt>
      <trkpt lat="45.94452" lon="4.73037">
        <ele>169</ele>
        <time>2017-05-26T08:18:12Z</time>
      </trkpt>
      <trkpt lat="45.94453" lon="4.73048">
        <ele>169</ele>
        <time>2017-05-26T08:18:13Z</time>
      </trkpt>
      <trkpt lat="45.94455" lon="4.73058">
        <ele>170</ele>
        <time>2017-05-26T08:18:14Z</time>
      </trkpt>
      <trkpt lat="45.94456" lon="4.73069">
        <ele>170</ele>
        <time>2017-05-26T08:18:15Z</time>
      </trkpt>
      <trkpt lat="45.94457" lon="4.73079">
        <ele>170</ele>
        <time>2017-05-26T08:18:16Z</time>
      </trkpt>
      <trkpt lat="45.94459" lon="4.7309">
        <ele>171</ele>
        <time>2017-05-26T08:18:17Z</time>
      </trkpt>
      <trkpt lat="45.9446" lon="4.731">
        <ele>171</ele>
        <time>2017-05-26T08:18:18Z</time>
      </trkpt>
      <trkpt lat="45.94461" lon="4.7311">
        <ele>172</ele>
        <time>2017-05-26T08:18:19Z</time>
      </trkpt>
      <trkpt lat="45.94462" lon="4.7312">
        <ele>172</ele>
        <time>2017-05-26T08:18:20Z</time>
      </trkpt>
      <trkpt lat="45.94463" lon="4.7313">
        <ele>172</ele>
        <time>2017-05-26T08:18:21Z</time>
      </trkpt>
      <trkpt lat="45.94465" lon="4.73138">
        <ele>172</ele>
        <time>2017-05-26T08:18:22Z</time>
      </trkpt>
      <trkpt lat="45.94466" lon="4.73148">
        <ele>172</ele>
        <time>2017-05-26T08:18:23Z</time>
      </trkpt>
      <trkpt lat="45.94467" lon="4.73156">
        <ele>172</ele>
        <time>2017-05-26T08:18:24Z</time>
      </trkpt>
      <trkpt lat="45.94468" lon="4.73165">
        <ele>172</ele>
        <time>2017-05-26T08:18:25Z</time>
      </trkpt>
      <trkpt lat="45.94469" lon="4.73173">
        <ele>174</ele>
        <time>2017-05-26T08:18:26Z</time>
      </trkpt>
      <trkpt lat="45.9447" lon="4.7318">
        <ele>174</ele>
        <time>2017-05-26T08:18:27Z</time>
      </trkpt>
      <trkpt lat="45.94471" lon="4.73188">
        <ele>174</ele>
        <time>2017-05-26T08:18:28Z</time>
      </trkpt>
      <trkpt lat="45.94472" lon="4.73196">
        <ele>174</ele>
        <time>2017-05-26T08:18:29Z</time>
      </trkpt>
      <trkpt lat="45.94473" lon="4.73203">
        <ele>174</ele>
        <time>2017-05-26T08:18:30Z</time>
      </trkpt>
      <trkpt lat="45.94474" lon="4.73211">
        <ele>175</ele>
        <time>2017-05-26T08:18:31Z</time>
      </trkpt>
      <trkpt lat="45.94475" lon="4.73218">
        <ele>175</ele>
        <time>2017-05-26T08:18:32Z</time>
      </trkpt>
      <trkpt lat="45.94476" lon="4.73226">
        <ele>175</ele>
        <time>2017-05-26T08:18:33Z</time>
      </trkpt>
      <trkpt lat="45.94477" lon="4.73233">
        <ele>175</ele>
        <time>2017-05-26T08:18:34Z</time>
      </trkpt>
      <trkpt lat="45.94479" lon="4.73239">
        <ele>175</ele>
        <time>2017-05-26T08:18:35Z</time>
      </trkpt>
      <trkpt lat="45.9448" lon="4.73245">
        <ele>175</ele>
        <time>2017-05-26T08:18:36Z</time>
      </trkpt>
      <trkpt lat="45.94481" lon="4.73252">
        <ele>176</ele>
        <time>2017-05-26T08:18:37Z</time>
      </trkpt>
      <trkpt lat="45.94481" lon="4.73258">
        <ele>176</ele>
        <time>2017-05-26T08:18:38Z</time>
      </trkpt>
      <trkpt lat="45.94482" lon="4.73264">
        <ele>177</ele>
        <time>2017-05-26T08:18:39Z</time>
      </trkpt>
      <trkpt lat="45.94483" lon="4.73271">
        <ele>177</ele>
        <time>2017-05-26T08:18:40Z</time>
      </trkpt>
      <trkpt lat="45.94484" lon="4.73283">
        <ele>177</ele>
        <time>2017-05-26T08:18:42Z</time>
      </trkpt>
      <trkpt lat="45.94485" lon="4.73289">
        <ele>177</ele>
        <time>2017-05-26T08:18:43Z</time>
      </trkpt>
      <trkpt lat="45.94487" lon="4.733">
        <ele>177</ele>
        <time>2017-05-26T08:18:45Z</time>
      </trkpt>
      <trkpt lat="45.94487" lon="4.73306">
        <ele>177</ele>
        <time>2017-05-26T08:18:46Z</time>
      </trkpt>
      <trkpt lat="45.94488" lon="4.73317">
        <ele>177</ele>
        <time>2017-05-26T08:18:48Z</time>
      </trkpt>
      <trkpt lat="45.94489" lon="4.73324">
        <ele>177</ele>
        <time>2017-05-26T08:18:49Z</time>
      </trkpt>
      <trkpt lat="45.94489" lon="4.7333">
        <ele>177</ele>
        <time>2017-05-26T08:18:50Z</time>
      </trkpt>
      <trkpt lat="45.9449" lon="4.73337">
        <ele>178</ele>
        <time>2017-05-26T08:18:51Z</time>
      </trkpt>
      <trkpt lat="45.94491" lon="4.73349">
        <ele>178</ele>
        <time>2017-05-26T08:18:53Z</time>
      </trkpt>
      <trkpt lat="45.94492" lon="4.73355">
        <ele>178</ele>
        <time>2017-05-26T08:18:54Z</time>
      </trkpt>
      <trkpt lat="45.94493" lon="4.73367">
        <ele>179</ele>
        <time>2017-05-26T08:18:56Z</time>
      </trkpt>
      <trkpt lat="45.94494" lon="4.73373">
        <ele>179</ele>
        <time>2017-05-26T08:18:57Z</time>
      </trkpt>
      <trkpt lat="45.94495" lon="4.73383">
        <ele>179</ele>
        <time>2017-05-26T08:18:59Z</time>
      </trkpt>
      <trkpt lat="45.94495" lon="4.73389">
        <ele>179</ele>
        <time>2017-05-26T08:19:00Z</time>
      </trkpt>
      <trkpt lat="45.94496" lon="4.734">
        <ele>180</ele>
        <time>2017-05-26T08:19:02Z</time>
      </trkpt>
      <trkpt lat="45.94496" lon="4.73405">
        <ele>180</ele>
        <time>2017-05-26T08:19:03Z</time>
      </trkpt>
      <trkpt lat="45.94496" lon="4.73416">
        <ele>180</ele>
        <time>2017-05-26T08:19:05Z</time>
      </trkpt>
      <trkpt lat="45.94496" lon="4.73421">
        <ele>180</ele>
        <time>2017-05-26T08:19:06Z</time>
      </trkpt>
      <trkpt lat="45.94496" lon="4.73432">
        <ele>181</ele>
        <time>2017-05-26T08:19:08Z</time>
      </trkpt>
      <trkpt lat="45.94497" lon="4.73438">
        <ele>181</ele>
        <time>2017-05-26T08:19:09Z</time>
      </trkpt>
      <trkpt lat="45.94497" lon="4.73445">
        <ele>181</ele>
        <time>2017-05-26T08:19:10Z</time>
      </trkpt>
      <trkpt lat="45.94497" lon="4.73451">
        <ele>182</ele>
        <time>2017-05-26T08:19:11Z</time>
      </trkpt>
      <trkpt lat="45.94498" lon="4.73464">
        <ele>182</ele>
        <time>2017-05-26T08:19:13Z</time>
      </trkpt>
      <trkpt lat="45.94498" lon="4.73469">
        <ele>182</ele>
        <time>2017-05-26T08:19:14Z</time>
      </trkpt>
      <trkpt lat="45.94499" lon="4.73479">
        <ele>182</ele>
        <time>2017-05-26T08:19:16Z</time>
      </trkpt>
      <trkpt lat="45.94499" lon="4.73485">
        <ele>182</ele>
        <time>2017-05-26T08:19:17Z</time>
      </trkpt>
      <trkpt lat="45.94499" lon="4.73495">
        <ele>183</ele>
        <time>2017-05-26T08:19:19Z</time>
      </trkpt>
      <trkpt lat="45.94499" lon="4.735">
        <ele>183</ele>
        <time>2017-05-26T08:19:20Z</time>
      </trkpt>
      <trkpt lat="45.94499" lon="4.73511">
        <ele>184</ele>
        <time>2017-05-26T08:19:22Z</time>
      </trkpt>
      <trkpt lat="45.94499" lon="4.73517">
        <ele>184</ele>
        <time>2017-05-26T08:19:23Z</time>
      </trkpt>
      <trkpt lat="45.94499" lon="4.73524">
        <ele>184</ele>
        <time>2017-05-26T08:19:24Z</time>
      </trkpt>
      <trkpt lat="45.94499" lon="4.7353">
        <ele>184</ele>
        <time>2017-05-26T08:19:25Z</time>
      </trkpt>
      <trkpt lat="45.94498" lon="4.73537">
        <ele>184</ele>
        <time>2017-05-26T08:19:26Z</time>
      </trkpt>
      <trkpt lat="45.94498" lon="4.73543">
        <ele>184</ele>
        <time>2017-05-26T08:19:27Z</time>
      </trkpt>
      <trkpt lat="45.94498" lon="4.73556">
        <ele>185</ele>
        <time>2017-05-26T08:19:29Z</time>
      </trkpt>
      <trkpt lat="45.94497" lon="4.73562">
        <ele>185</ele>
        <time>2017-05-26T08:19:30Z</time>
      </trkpt>
      <trkpt lat="45.94496" lon="4.73574">
        <ele>185</ele>
        <time>2017-05-26T08:19:32Z</time>
      </trkpt>
      <trkpt lat="45.94496" lon="4.73581">
        <ele>185</ele>
        <time>2017-05-26T08:19:33Z</time>
      </trkpt>
      <trkpt lat="45.94496" lon="4.73587">
        <ele>185</ele>
        <time>2017-05-26T08:19:34Z</time>
      </trkpt>
      <trkpt lat="45.94495" lon="4.73594">
        <ele>185</ele>
        <time>2017-05-26T08:19:35Z</time>
      </trkpt>
      <trkpt lat="45.94494" lon="4.73601">
        <ele>185</ele>
        <time>2017-05-26T08:19:36Z</time>
      </trkpt>
      <trkpt lat="45.94493" lon="4.73608">
        <ele>186</ele>
        <time>2017-05-26T08:19:37Z</time>
      </trkpt>
      <trkpt lat="45.94493" lon="4.73615">
        <ele>186</ele>
        <time>2017-05-26T08:19:38Z</time>
      </trkpt>
      <trkpt lat="45.94492" lon="4.73621">
        <ele>186</ele>
        <time>2017-05-26T08:19:39Z</time>
      </trkpt>
      <trkpt lat="45.94491" lon="4.73628">
        <ele>186</ele>
        <time>2017-05-26T08:19:40Z</time>
      </trkpt>
      <trkpt lat="45.9449" lon="4.73635">
        <ele>186</ele>
        <time>2017-05-26T08:19:41Z</time>
      </trkpt>
      <trkpt lat="45.9449" lon="4.73642">
        <ele>186</ele>
        <time>2017-05-26T08:19:42Z</time>
      </trkpt>
      <trkpt lat="45.94489" lon="4.73649">
        <ele>186</ele>
        <time>2017-05-26T08:19:43Z</time>
      </trkpt>
      <trkpt lat="45.94488" lon="4.73661">
        <ele>185</ele>
        <time>2017-05-26T08:19:45Z</time>
      </trkpt>
      <trkpt lat="45.94487" lon="4.73668">
        <ele>185</ele>
        <time>2017-05-26T08:19:46Z</time>
      </trkpt>
      <trkpt lat="45.94486" lon="4.73675">
        <ele>186</ele>
        <time>2017-05-26T08:19:47Z</time>
      </trkpt>
      <trkpt lat="45.94485" lon="4.73682">
        <ele>186</ele>
        <time>2017-05-26T08:19:48Z</time>
      </trkpt>
      <trkpt lat="45.94483" lon="4.73689">
        <ele>186</ele>
        <time>2017-05-26T08:19:49Z</time>
      </trkpt>
      <trkpt lat="45.94482" lon="4.73696">
        <ele>186</ele>
        <time>2017-05-26T08:19:50Z</time>
      </trkpt>
      <trkpt lat="45.94482" lon="4.73703">
        <ele>186</ele>
        <time>2017-05-26T08:19:51Z</time>
      </trkpt>
      <trkpt lat="45.94481" lon="4.7371">
        <ele>186</ele>
        <time>2017-05-26T08:19:52Z</time>
      </trkpt>
      <trkpt lat="45.9448" lon="4.73717">
        <ele>186</ele>
        <time>2017-05-26T08:19:53Z</time>
      </trkpt>
      <trkpt lat="45.9448" lon="4.73724">
        <ele>186</ele>
        <time>2017-05-26T08:19:54Z</time>
      </trkpt>
      <trkpt lat="45.94478" lon="4.73737">
        <ele>186</ele>
        <time>2017-05-26T08:19:56Z</time>
      </trkpt>
      <trkpt lat="45.94477" lon="4.73742">
        <ele>186</ele>
        <time>2017-05-26T08:19:57Z</time>
      </trkpt>
      <trkpt lat="45.94475" lon="4.73754">
        <ele>186</ele>
        <time>2017-05-26T08:19:59Z</time>
      </trkpt>
      <trkpt lat="45.94474" lon="4.73759">
        <ele>186</ele>
        <time>2017-05-26T08:20:00Z</time>
      </trkpt>
      <trkpt lat="45.94477" lon="4.73771">
        <ele>186</ele>
        <time>2017-05-26T08:20:02Z</time>
      </trkpt>
      <trkpt lat="45.9448" lon="4.73775">
        <ele>186</ele>
        <time>2017-05-26T08:20:03Z</time>
      </trkpt>
      <trkpt lat="45.94488" lon="4.73782">
        <ele>186</ele>
        <time>2017-05-26T08:20:05Z</time>
      </trkpt>
      <trkpt lat="45.94491" lon="4.73785">
        <ele>186</ele>
        <time>2017-05-26T08:20:06Z</time>
      </trkpt>
      <trkpt lat="45.94495" lon="4.73789">
        <ele>186</ele>
        <time>2017-05-26T08:20:07Z</time>
      </trkpt>
      <trkpt lat="45.94499" lon="4.73792">
        <ele>185</ele>
        <time>2017-05-26T08:20:08Z</time>
      </trkpt>
      <trkpt lat="45.94503" lon="4.73797">
        <ele>186</ele>
        <time>2017-05-26T08:20:09Z</time>
      </trkpt>
      <trkpt lat="45.94507" lon="4.73801">
        <ele>186</ele>
        <time>2017-05-26T08:20:10Z</time>
      </trkpt>
      <trkpt lat="45.94512" lon="4.73805">
        <ele>186</ele>
        <time>2017-05-26T08:20:11Z</time>
      </trkpt>
      <trkpt lat="45.94516" lon="4.73808">
        <ele>186</ele>
        <time>2017-05-26T08:20:12Z</time>
      </trkpt>
      <trkpt lat="45.94523" lon="4.73816">
        <ele>186</ele>
        <time>2017-05-26T08:20:14Z</time>
      </trkpt>
      <trkpt lat="45.94526" lon="4.73819">
        <ele>186</ele>
        <time>2017-05-26T08:20:15Z</time>
      </trkpt>
      <trkpt lat="45.9453" lon="4.73823">
        <ele>186</ele>
        <time>2017-05-26T08:20:16Z</time>
      </trkpt>
      <trkpt lat="45.94534" lon="4.73827">
        <ele>186</ele>
        <time>2017-05-26T08:20:17Z</time>
      </trkpt>
      <trkpt lat="45.94541" lon="4.73834">
        <ele>186</ele>
        <time>2017-05-26T08:20:19Z</time>
      </trkpt>
      <trkpt lat="45.94545" lon="4.73838">
        <ele>186</ele>
        <time>2017-05-26T08:20:20Z</time>
      </trkpt>
      <trkpt lat="45.94549" lon="4.73841">
        <ele>186</ele>
        <time>2017-05-26T08:20:21Z</time>
      </trkpt>
      <trkpt lat="45.94552" lon="4.73845">
        <ele>186</ele>
        <time>2017-05-26T08:20:22Z</time>
      </trkpt>
      <trkpt lat="45.94559" lon="4.73853">
        <ele>186</ele>
        <time>2017-05-26T08:20:24Z</time>
      </trkpt>
      <trkpt lat="45.94562" lon="4.73857">
        <ele>186</ele>
        <time>2017-05-26T08:20:25Z</time>
      </trkpt>
      <trkpt lat="45.9457" lon="4.73864">
        <ele>186</ele>
        <time>2017-05-26T08:20:27Z</time>
      </trkpt>
      <trkpt lat="45.94573" lon="4.73868">
        <ele>186</ele>
        <time>2017-05-26T08:20:28Z</time>
      </trkpt>
      <trkpt lat="45.9458" lon="4.73875">
        <ele>186</ele>
        <time>2017-05-26T08:20:30Z</time>
      </trkpt>
      <trkpt lat="45.94583" lon="4.73879">
        <ele>186</ele>
        <time>2017-05-26T08:20:31Z</time>
      </trkpt>
      <trkpt lat="45.94589" lon="4.73886">
        <ele>187</ele>
        <time>2017-05-26T08:20:33Z</time>
      </trkpt>
      <trkpt lat="45.94592" lon="4.73889">
        <ele>187</ele>
        <time>2017-05-26T08:20:34Z</time>
      </trkpt>
      <trkpt lat="45.94598" lon="4.73897">
        <ele>187</ele>
        <time>2017-05-26T08:20:36Z</time>
      </trkpt>
      <trkpt lat="45.94602" lon="4.73901">
        <ele>187</ele>
        <time>2017-05-26T08:20:37Z</time>
      </trkpt>
      <trkpt lat="45.94606" lon="4.73905">
        <ele>187</ele>
        <time>2017-05-26T08:20:38Z</time>
      </trkpt>
      <trkpt lat="45.9461" lon="4.73911">
        <ele>187</ele>
        <time>2017-05-26T08:20:39Z</time>
      </trkpt>
      <trkpt lat="45.94614" lon="4.73916">
        <ele>187</ele>
        <time>2017-05-26T08:20:40Z</time>
      </trkpt>
      <trkpt lat="45.94617" lon="4.7392">
        <ele>187</ele>
        <time>2017-05-26T08:20:41Z</time>
      </trkpt>
      <trkpt lat="45.94621" lon="4.73925">
        <ele>187</ele>
        <time>2017-05-26T08:20:42Z</time>
      </trkpt>
      <trkpt lat="45.94624" lon="4.7393">
        <ele>187</ele>
        <time>2017-05-26T08:20:43Z</time>
      </trkpt>
      <trkpt lat="45.94628" lon="4.73935">
        <ele>187</ele>
        <time>2017-05-26T08:20:44Z</time>
      </trkpt>
      <trkpt lat="45.94631" lon="4.73938">
        <ele>187</ele>
        <time>2017-05-26T08:20:45Z</time>
      </trkpt>
      <trkpt lat="45.94638" lon="4.73946">
        <ele>187</ele>
        <time>2017-05-26T08:20:47Z</time>
      </trkpt>
      <trkpt lat="45.94641" lon="4.73951">
        <ele>187</ele>
        <time>2017-05-26T08:20:48Z</time>
      </trkpt>
      <trkpt lat="45.94645" lon="4.73955">
        <ele>187</ele>
        <time>2017-05-26T08:20:49Z</time>
      </trkpt>
      <trkpt lat="45.94648" lon="4.7396">
        <ele>187</ele>
        <time>2017-05-26T08:20:50Z</time>
      </trkpt>
      <trkpt lat="45.94652" lon="4.73965">
        <ele>187</ele>
        <time>2017-05-26T08:20:51Z</time>
      </trkpt>
      <trkpt lat="45.94655" lon="4.7397">
        <ele>187</ele>
        <time>2017-05-26T08:20:52Z</time>
      </trkpt>
      <trkpt lat="45.94659" lon="4.73975">
        <ele>187</ele>
        <time>2017-05-26T08:20:53Z</time>
      </trkpt>
      <trkpt lat="45.94662" lon="4.73979">
        <ele>187</ele>
        <time>2017-05-26T08:20:54Z</time>
      </trkpt>
      <trkpt lat="45.94668" lon="4.73988">
        <ele>187</ele>
        <time>2017-05-26T08:20:56Z</time>
      </trkpt>
      <trkpt lat="45.9467" lon="4.73992">
        <ele>187</ele>
        <time>2017-05-26T08:20:57Z</time>
      </trkpt>
      <trkpt lat="45.94677" lon="4.74">
        <ele>187</ele>
        <time>2017-05-26T08:20:59Z</time>
      </trkpt>
      <trkpt lat="45.9468" lon="4.74004">
        <ele>187</ele>
        <time>2017-05-26T08:21:00Z</time>
      </trkpt>
      <trkpt lat="45.94683" lon="4.74008">
        <ele>187</ele>
        <time>2017-05-26T08:21:01Z</time>
      </trkpt>
      <trkpt lat="45.94687" lon="4.74013">
        <ele>187</ele>
        <time>2017-05-26T08:21:02Z</time>
      </trkpt>
      <trkpt lat="45.9469" lon="4.74017">
        <ele>187</ele>
        <time>2017-05-26T08:21:03Z</time>
      </trkpt>
      <trkpt lat="45.94694" lon="4.74022">
        <ele>187</ele>
        <time>2017-05-26T08:21:04Z</time>
      </trkpt>
      <trkpt lat="45.947" lon="4.74029">
        <ele>187</ele>
        <time>2017-05-26T08:21:06Z</time>
      </trkpt>
      <trkpt lat="45.94702" lon="4.74033">
        <ele>187</ele>
        <time>2017-05-26T08:21:07Z</time>
      </trkpt>
      <trkpt lat="45.94705" lon="4.74037">
        <ele>187</ele>
        <time>2017-05-26T08:21:08Z</time>
      </trkpt>
      <trkpt lat="45.94709" lon="4.74042">
        <ele>187</ele>
        <time>2017-05-26T08:21:09Z</time>
      </trkpt>
      <trkpt lat="45.94716" lon="4.7405">
        <ele>187</ele>
        <time>2017-05-26T08:21:11Z</time>
      </trkpt>
      <trkpt lat="45.94719" lon="4.74054">
        <ele>187</ele>
        <time>2017-05-26T08:21:12Z</time>
      </trkpt>
      <trkpt lat="45.94725" lon="4.74062">
        <ele>188</ele>
        <time>2017-05-26T08:21:14Z</time>
      </trkpt>
      <trkpt lat="45.94729" lon="4.74067">
        <ele>188</ele>
        <time>2017-05-26T08:21:15Z</time>
      </trkpt>
      <trkpt lat="45.94732" lon="4.74071">
        <ele>188</ele>
        <time>2017-05-26T08:21:16Z</time>
      </trkpt>
      <trkpt lat="45.94736" lon="4.74076">
        <ele>188</ele>
        <time>2017-05-26T08:21:17Z</time>
      </trkpt>
      <trkpt lat="45.9474" lon="4.7408">
        <ele>188</ele>
        <time>2017-05-26T08:21:18Z</time>
      </trkpt>
      <trkpt lat="45.94743" lon="4.74085">
        <ele>188</ele>
        <time>2017-05-26T08:21:19Z</time>
      </trkpt>
      <trkpt lat="45.94747" lon="4.7409">
        <ele>188</ele>
        <time>2017-05-26T08:21:20Z</time>
      </trkpt>
      <trkpt lat="45.9475" lon="4.74094">
        <ele>189</ele>
        <time>2017-05-26T08:21:21Z</time>
      </trkpt>
      <trkpt lat="45.94756" lon="4.74102">
        <ele>189</ele>
        <time>2017-05-26T08:21:23Z</time>
      </trkpt>
      <trkpt lat="45.94759" lon="4.74106">
        <ele>189</ele>
        <time>2017-05-26T08:21:24Z</time>
      </trkpt>
      <trkpt lat="45.94765" lon="4.74114">
        <ele>189</ele>
        <time>2017-05-26T08:21:26Z</time>
      </trkpt>
      <trkpt lat="45.94768" lon="4.74119">
        <ele>189</ele>
        <time>2017-05-26T08:21:27Z</time>
      </trkpt>
      <trkpt lat="45.94774" lon="4.74128">
        <ele>189</ele>
        <time>2017-05-26T08:21:29Z</time>
      </trkpt>
      <trkpt lat="45.94778" lon="4.74132">
        <ele>189</ele>
        <time>2017-05-26T08:21:30Z</time>
      </trkpt>
      <trkpt lat="45.94783" lon="4.7414">
        <ele>189</ele>
        <time>2017-05-26T08:21:32Z</time>
      </trkpt>
      <trkpt lat="45.94786" lon="4.74145">
        <ele>189</ele>
        <time>2017-05-26T08:21:33Z</time>
      </trkpt>
      <trkpt lat="45.94791" lon="4.74154">
        <ele>189</ele>
        <time>2017-05-26T08:21:35Z</time>
      </trkpt>
      <trkpt lat="45.94794" lon="4.7416">
        <ele>189</ele>
        <time>2017-05-26T08:21:36Z</time>
      </trkpt>
      <trkpt lat="45.94797" lon="4.74165">
        <ele>189</ele>
        <time>2017-05-26T08:21:37Z</time>
      </trkpt>
      <trkpt lat="45.94801" lon="4.7417">
        <ele>189</ele>
        <time>2017-05-26T08:21:38Z</time>
      </trkpt>
      <trkpt lat="45.94804" lon="4.74175">
        <ele>189</ele>
        <time>2017-05-26T08:21:39Z</time>
      </trkpt>
      <trkpt lat="45.94808" lon="4.74179">
        <ele>189</ele>
        <time>2017-05-26T08:21:40Z</time>
      </trkpt>
      <trkpt lat="45.94811" lon="4.74184">
        <ele>189</ele>
        <time>2017-05-26T08:21:41Z</time>
      </trkpt>
      <trkpt lat="45.94814" lon="4.7419">
        <ele>189</ele>
        <time>2017-05-26T08:21:42Z</time>
      </trkpt>
      <trkpt lat="45.94819" lon="4.742">
        <ele>189</ele>
        <time>2017-05-26T08:21:44Z</time>
      </trkpt>
      <trkpt lat="45.94821" lon="4.74206">
        <ele>188</ele>
        <time>2017-05-26T08:21:45Z</time>
      </trkpt>
      <trkpt lat="45.94824" lon="4.74211">
        <ele>188</ele>
        <time>2017-05-26T08:21:46Z</time>
      </trkpt>
      <trkpt lat="45.94827" lon="4.74216">
        <ele>188</ele>
        <time>2017-05-26T08:21:47Z</time>
      </trkpt>
      <trkpt lat="45.9483" lon="4.74222">
        <ele>188</ele>
        <time>2017-05-26T08:21:48Z</time>
      </trkpt>
      <trkpt lat="45.94833" lon="4.74227">
        <ele>189</ele>
        <time>2017-05-26T08:21:49Z</time>
      </trkpt>
      <trkpt lat="45.94835" lon="4.74233">
        <ele>190</ele>
        <time>2017-05-26T08:21:50Z</time>
      </trkpt>
      <trkpt lat="45.94838" lon="4.74239">
        <ele>190</ele>
        <time>2017-05-26T08:21:51Z</time>
      </trkpt>
      <trkpt lat="45.94841" lon="4.74245">
        <ele>189</ele>
        <time>2017-05-26T08:21:52Z</time>
      </trkpt>
      <trkpt lat="45.94845" lon="4.7425">
        <ele>190</ele>
        <time>2017-05-26T08:21:53Z</time>
      </trkpt>
      <trkpt lat="45.94848" lon="4.74256">
        <ele>190</ele>
        <time>2017-05-26T08:21:54Z</time>
      </trkpt>
      <trkpt lat="45.94851" lon="4.74262">
        <ele>190</ele>
        <time>2017-05-26T08:21:55Z</time>
      </trkpt>
      <trkpt lat="45.94855" lon="4.74267">
        <ele>190</ele>
        <time>2017-05-26T08:21:56Z</time>
      </trkpt>
      <trkpt lat="45.94857" lon="4.74272">
        <ele>190</ele>
        <time>2017-05-26T08:21:57Z</time>
      </trkpt>
      <trkpt lat="45.94863" lon="4.74282">
        <ele>191</ele>
        <time>2017-05-26T08:21:59Z</time>
      </trkpt>
      <trkpt lat="45.94865" lon="4.74287">
        <ele>191</ele>
        <time>2017-05-26T08:22:00Z</time>
      </trkpt>
      <trkpt lat="45.9487" lon="4.74297">
        <ele>191</ele>
        <time>2017-05-26T08:22:02Z</time>
      </trkpt>
      <trkpt lat="45.94872" lon="4.74303">
        <ele>191</ele>
        <time>2017-05-26T08:22:03Z</time>
      </trkpt>
      <trkpt lat="45.94874" lon="4.74308">
        <ele>191</ele>
        <time>2017-05-26T08:22:04Z</time>
      </trkpt>
      <trkpt lat="45.94877" lon="4.74314">
        <ele>191</ele>
        <time>2017-05-26T08:22:05Z</time>
      </trkpt>
      <trkpt lat="45.9488" lon="4.7432">
        <ele>191</ele>
        <time>2017-05-26T08:22:06Z</time>
      </trkpt>
      <trkpt lat="45.94883" lon="4.74327">
        <ele>191</ele>
        <time>2017-05-26T08:22:07Z</time>
      </trkpt>
      <trkpt lat="45.94886" lon="4.74333">
        <ele>191</ele>
        <time>2017-05-26T08:22:08Z</time>
      </trkpt>
      <trkpt lat="45.94889" lon="4.7434">
        <ele>191</ele>
        <time>2017-05-26T08:22:09Z</time>
      </trkpt>
      <trkpt lat="45.94893" lon="4.74347">
        <ele>191</ele>
        <time>2017-05-26T08:22:10Z</time>
      </trkpt>
      <trkpt lat="45.94896" lon="4.74353">
        <ele>191</ele>
        <time>2017-05-26T08:22:11Z</time>
      </trkpt>
      <trkpt lat="45.949" lon="4.74359">
        <ele>191</ele>
        <time>2017-05-26T08:22:12Z</time>
      </trkpt>
      <trkpt lat="45.94903" lon="4.74365">
        <ele>191</ele>
        <time>2017-05-26T08:22:13Z</time>
      </trkpt>
      <trkpt lat="45.94906" lon="4.74371">
        <ele>191</ele>
        <time>2017-05-26T08:22:14Z</time>
      </trkpt>
      <trkpt lat="45.94909" lon="4.74376">
        <ele>191</ele>
        <time>2017-05-26T08:22:15Z</time>
      </trkpt>
      <trkpt lat="45.94911" lon="4.74381">
        <ele>191</ele>
        <time>2017-05-26T08:22:16Z</time>
      </trkpt>
      <trkpt lat="45.94914" lon="4.74386">
        <ele>191</ele>
        <time>2017-05-26T08:22:17Z</time>
      </trkpt>
      <trkpt lat="45.94917" lon="4.74391">
        <ele>192</ele>
        <time>2017-05-26T08:22:18Z</time>
      </trkpt>
      <trkpt lat="45.9492" lon="4.74397">
        <ele>192</ele>
        <time>2017-05-26T08:22:19Z</time>
      </trkpt>
      <trkpt lat="45.94925" lon="4.74407">
        <ele>192</ele>
        <time>2017-05-26T08:22:21Z</time>
      </trkpt>
      <trkpt lat="45.94928" lon="4.74411">
        <ele>192</ele>
        <time>2017-05-26T08:22:22Z</time>
      </trkpt>
      <trkpt lat="45.94934" lon="4.74421">
        <ele>192</ele>
        <time>2017-05-26T08:22:24Z</time>
      </trkpt>
      <trkpt lat="45.94936" lon="4.74426">
        <ele>192</ele>
        <time>2017-05-26T08:22:25Z</time>
      </trkpt>
      <trkpt lat="45.94942" lon="4.74436">
        <ele>192</ele>
        <time>2017-05-26T08:22:27Z</time>
      </trkpt>
      <trkpt lat="45.94944" lon="4.74441">
        <ele>192</ele>
        <time>2017-05-26T08:22:28Z</time>
      </trkpt>
      <trkpt lat="45.94949" lon="4.74451">
        <ele>192</ele>
        <time>2017-05-26T08:22:30Z</time>
      </trkpt>
      <trkpt lat="45.94952" lon="4.74457">
        <ele>192</ele>
        <time>2017-05-26T08:22:31Z</time>
      </trkpt>
      <trkpt lat="45.94957" lon="4.74467">
        <ele>193</ele>
        <time>2017-05-26T08:22:33Z</time>
      </trkpt>
      <trkpt lat="45.94959" lon="4.74472">
        <ele>193</ele>
        <time>2017-05-26T08:22:34Z</time>
      </trkpt>
      <trkpt lat="45.94964" lon="4.74482">
        <ele>193</ele>
        <time>2017-05-26T08:22:36Z</time>
      </trkpt>
      <trkpt lat="45.94966" lon="4.74487">
        <ele>193</ele>
        <time>2017-05-26T08:22:37Z</time>
      </trkpt>
      <trkpt lat="45.94971" lon="4.74496">
        <ele>193</ele>
        <time>2017-05-26T08:22:39Z</time>
      </trkpt>
      <trkpt lat="45.94974" lon="4.74501">
        <ele>193</ele>
        <time>2017-05-26T08:22:40Z</time>
      </trkpt>
      <trkpt lat="45.94979" lon="4.7451">
        <ele>193</ele>
        <time>2017-05-26T08:22:42Z</time>
      </trkpt>
      <trkpt lat="45.94981" lon="4.74515">
        <ele>193</ele>
        <time>2017-05-26T08:22:43Z</time>
      </trkpt>
      <trkpt lat="45.94987" lon="4.74525">
        <ele>193</ele>
        <time>2017-05-26T08:22:45Z</time>
      </trkpt>
      <trkpt lat="45.94989" lon="4.7453">
        <ele>193</ele>
        <time>2017-05-26T08:22:46Z</time>
      </trkpt>
      <trkpt lat="45.94992" lon="4.74535">
        <ele>193</ele>
        <time>2017-05-26T08:22:47Z</time>
      </trkpt>
      <trkpt lat="45.94995" lon="4.74541">
        <ele>193</ele>
        <time>2017-05-26T08:22:48Z</time>
      </trkpt>
      <trkpt lat="45.94998" lon="4.74547">
        <ele>193</ele>
        <time>2017-05-26T08:22:49Z</time>
      </trkpt>
      <trkpt lat="45.95001" lon="4.74552">
        <ele>194</ele>
        <time>2017-05-26T08:22:50Z</time>
      </trkpt>
      <trkpt lat="45.95006" lon="4.74563">
        <ele>194</ele>
        <time>2017-05-26T08:22:52Z</time>
      </trkpt>
      <trkpt lat="45.95008" lon="4.74568">
        <ele>194</ele>
        <time>2017-05-26T08:22:53Z</time>
      </trkpt>
      <trkpt lat="45.95011" lon="4.74574">
        <ele>194</ele>
        <time>2017-05-26T08:22:54Z</time>
      </trkpt>
      <trkpt lat="45.95013" lon="4.74579">
        <ele>194</ele>
        <time>2017-05-26T08:22:55Z</time>
      </trkpt>
      <trkpt lat="45.95018" lon="4.74589">
        <ele>194</ele>
        <time>2017-05-26T08:22:57Z</time>
      </trkpt>
      <trkpt lat="45.95021" lon="4.74593">
        <ele>194</ele>
        <time>2017-05-26T08:22:58Z</time>
      </trkpt>
      <trkpt lat="45.95026" lon="4.74604">
        <ele>194</ele>
        <time>2017-05-26T08:23:00Z</time>
      </trkpt>
      <trkpt lat="45.95029" lon="4.74609">
        <ele>194</ele>
        <time>2017-05-26T08:23:01Z</time>
      </trkpt>
      <trkpt lat="45.95031" lon="4.74614">
        <ele>194</ele>
        <time>2017-05-26T08:23:02Z</time>
      </trkpt>
      <trkpt lat="45.95034" lon="4.74619">
        <ele>194</ele>
        <time>2017-05-26T08:23:03Z</time>
      </trkpt>
      <trkpt lat="45.95037" lon="4.74625">
        <ele>194</ele>
        <time>2017-05-26T08:23:04Z</time>
      </trkpt>
      <trkpt lat="45.9504" lon="4.74631">
        <ele>194</ele>
        <time>2017-05-26T08:23:05Z</time>
      </trkpt>
      <trkpt lat="45.95044" lon="4.74637">
        <ele>194</ele>
        <time>2017-05-26T08:23:06Z</time>
      </trkpt>
      <trkpt lat="45.95047" lon="4.74642">
        <ele>194</ele>
        <time>2017-05-26T08:23:07Z</time>
      </trkpt>
      <trkpt lat="45.9505" lon="4.74647">
        <ele>194</ele>
        <time>2017-05-26T08:23:08Z</time>
      </trkpt>
      <trkpt lat="45.95053" lon="4.74653">
        <ele>194</ele>
        <time>2017-05-26T08:23:09Z</time>
      </trkpt>
      <trkpt lat="45.95056" lon="4.74658">
        <ele>194</ele>
        <time>2017-05-26T08:23:10Z</time>
      </trkpt>
      <trkpt lat="45.95059" lon="4.74664">
        <ele>194</ele>
        <time>2017-05-26T08:23:11Z</time>
      </trkpt>
      <trkpt lat="45.95061" lon="4.7467">
        <ele>194</ele>
        <time>2017-05-26T08:23:12Z</time>
      </trkpt>
      <trkpt lat="45.95064" lon="4.74675">
        <ele>194</ele>
        <time>2017-05-26T08:23:13Z</time>
      </trkpt>
      <trkpt lat="45.95067" lon="4.74681">
        <ele>194</ele>
        <time>2017-05-26T08:23:14Z</time>
      </trkpt>
      <trkpt lat="45.95071" lon="4.74687">
        <ele>194</ele>
        <time>2017-05-26T08:23:15Z</time>
      </trkpt>
      <trkpt lat="45.95075" lon="4.74693">
        <ele>194</ele>
        <time>2017-05-26T08:23:16Z</time>
      </trkpt>
      <trkpt lat="45.95078" lon="4.74698">
        <ele>194</ele>
        <time>2017-05-26T08:23:17Z</time>
      </trkpt>
      <trkpt lat="45.95081" lon="4.74704">
        <ele>194</ele>
        <time>2017-05-26T08:23:18Z</time>
      </trkpt>
      <trkpt lat="45.95084" lon="4.74709">
        <ele>194</ele>
        <time>2017-05-26T08:23:19Z</time>
      </trkpt>
      <trkpt lat="45.95087" lon="4.74714">
        <ele>194</ele>
        <time>2017-05-26T08:23:20Z</time>
      </trkpt>
      <trkpt lat="45.9509" lon="4.74719">
        <ele>194</ele>
        <time>2017-05-26T08:23:21Z</time>
      </trkpt>
      <trkpt lat="45.95094" lon="4.74725">
        <ele>194</ele>
        <time>2017-05-26T08:23:22Z</time>
      </trkpt>
      <trkpt lat="45.95097" lon="4.7473">
        <ele>194</ele>
        <time>2017-05-26T08:23:23Z</time>
      </trkpt>
      <trkpt lat="45.95101" lon="4.74736">
        <ele>194</ele>
        <time>2017-05-26T08:23:24Z</time>
      </trkpt>
      <trkpt lat="45.95104" lon="4.74742">
        <ele>194</ele>
        <time>2017-05-26T08:23:25Z</time>
      </trkpt>
      <trkpt lat="45.95108" lon="4.74747">
        <ele>194</ele>
        <time>2017-05-26T08:23:26Z</time>
      </trkpt>
      <trkpt lat="45.95111" lon="4.74753">
        <ele>194</ele>
        <time>2017-05-26T08:23:27Z</time>
      </trkpt>
      <trkpt lat="45.95114" lon="4.74758">
        <ele>194</ele>
        <time>2017-05-26T08:23:28Z</time>
      </trkpt>
      <trkpt lat="45.95118" lon="4.74764">
        <ele>194</ele>
        <time>2017-05-26T08:23:29Z</time>
      </trkpt>
      <trkpt lat="45.95121" lon="4.74769">
        <ele>194</ele>
        <time>2017-05-26T08:23:30Z</time>
      </trkpt>
      <trkpt lat="45.95124" lon="4.74773">
        <ele>194</ele>
        <time>2017-05-26T08:23:31Z</time>
      </trkpt>
      <trkpt lat="45.95129" lon="4.74783">
        <ele>194</ele>
        <time>2017-05-26T08:23:33Z</time>
      </trkpt>
      <trkpt lat="45.95132" lon="4.74788">
        <ele>194</ele>
        <time>2017-05-26T08:23:34Z</time>
      </trkpt>
      <trkpt lat="45.95135" lon="4.74794">
        <ele>194</ele>
        <time>2017-05-26T08:23:35Z</time>
      </trkpt>
      <trkpt lat="45.95138" lon="4.74799">
        <ele>194</ele>
        <time>2017-05-26T08:23:36Z</time>
      </trkpt>
      <trkpt lat="45.95141" lon="4.74804">
        <ele>194</ele>
        <time>2017-05-26T08:23:37Z</time>
      </trkpt>
      <trkpt lat="45.95145" lon="4.74809">
        <ele>194</ele>
        <time>2017-05-26T08:23:38Z</time>
      </trkpt>
      <trkpt lat="45.95148" lon="4.74815">
        <ele>194</ele>
        <time>2017-05-26T08:23:39Z</time>
      </trkpt>
      <trkpt lat="45.95151" lon="4.74819">
        <ele>194</ele>
        <time>2017-05-26T08:23:40Z</time>
      </trkpt>
      <trkpt lat="45.95154" lon="4.74824">
        <ele>194</ele>
        <time>2017-05-26T08:23:41Z</time>
      </trkpt>
      <trkpt lat="45.95157" lon="4.74829">
        <ele>194</ele>
        <time>2017-05-26T08:23:42Z</time>
      </trkpt>
      <trkpt lat="45.9516" lon="4.74834">
        <ele>194</ele>
        <time>2017-05-26T08:23:43Z</time>
      </trkpt>
      <trkpt lat="45.95164" lon="4.74839">
        <ele>194</ele>
        <time>2017-05-26T08:23:44Z</time>
      </trkpt>
      <trkpt lat="45.95167" lon="4.74843">
        <ele>194</ele>
        <time>2017-05-26T08:23:45Z</time>
      </trkpt>
      <trkpt lat="45.95171" lon="4.74848">
        <ele>194</ele>
        <time>2017-05-26T08:23:46Z</time>
      </trkpt>
      <trkpt lat="45.95174" lon="4.74852">
        <ele>194</ele>
        <time>2017-05-26T08:23:47Z</time>
      </trkpt>
      <trkpt lat="45.95178" lon="4.74857">
        <ele>194</ele>
        <time>2017-05-26T08:23:48Z</time>
      </trkpt>
      <trkpt lat="45.95181" lon="4.74863">
        <ele>194</ele>
        <time>2017-05-26T08:23:49Z</time>
      </trkpt>
      <trkpt lat="45.95184" lon="4.74868">
        <ele>194</ele>
        <time>2017-05-26T08:23:50Z</time>
      </trkpt>
      <trkpt lat="45.95187" lon="4.74873">
        <ele>194</ele>
        <time>2017-05-26T08:23:51Z</time>
      </trkpt>
      <trkpt lat="45.9519" lon="4.74878">
        <ele>194</ele>
        <time>2017-05-26T08:23:52Z</time>
      </trkpt>
      <trkpt lat="45.95193" lon="4.74883">
        <ele>194</ele>
        <time>2017-05-26T08:23:53Z</time>
      </trkpt>
      <trkpt lat="45.95197" lon="4.74888">
        <ele>194</ele>
        <time>2017-05-26T08:23:54Z</time>
      </trkpt>
      <trkpt lat="45.95201" lon="4.74893">
        <ele>194</ele>
        <time>2017-05-26T08:23:55Z</time>
      </trkpt>
      <trkpt lat="45.95204" lon="4.74898">
        <ele>194</ele>
        <time>2017-05-26T08:23:56Z</time>
      </trkpt>
      <trkpt lat="45.95207" lon="4.74903">
        <ele>194</ele>
        <time>2017-05-26T08:23:57Z</time>
      </trkpt>
      <trkpt lat="45.95211" lon="4.74908">
        <ele>193</ele>
        <time>2017-05-26T08:23:58Z</time>
      </trkpt>
      <trkpt lat="45.95215" lon="4.74915">
        <ele>193</ele>
        <time>2017-05-26T08:23:59Z</time>
      </trkpt>
      <trkpt lat="45.95219" lon="4.74922">
        <ele>192</ele>
        <time>2017-05-26T08:24:00Z</time>
      </trkpt>
      <trkpt lat="45.95223" lon="4.74929">
        <ele>192</ele>
        <time>2017-05-26T08:24:01Z</time>
      </trkpt>
      <trkpt lat="45.95227" lon="4.74935">
        <ele>192</ele>
        <time>2017-05-26T08:24:02Z</time>
      </trkpt>
      <trkpt lat="45.95232" lon="4.74943">
        <ele>192</ele>
        <time>2017-05-26T08:24:03Z</time>
      </trkpt>
      <trkpt lat="45.95236" lon="4.74951">
        <ele>192</ele>
        <time>2017-05-26T08:24:04Z</time>
      </trkpt>
      <trkpt lat="45.95241" lon="4.74958">
        <ele>192</ele>
        <time>2017-05-26T08:24:05Z</time>
      </trkpt>
      <trkpt lat="45.95245" lon="4.74965">
        <ele>191</ele>
        <time>2017-05-26T08:24:06Z</time>
      </trkpt>
      <trkpt lat="45.95249" lon="4.74973">
        <ele>191</ele>
        <time>2017-05-26T08:24:07Z</time>
      </trkpt>
      <trkpt lat="45.95254" lon="4.7498">
        <ele>192</ele>
        <time>2017-05-26T08:24:08Z</time>
      </trkpt>
      <trkpt lat="45.95258" lon="4.74986">
        <ele>192</ele>
        <time>2017-05-26T08:24:09Z</time>
      </trkpt>
      <trkpt lat="45.95262" lon="4.74993">
        <ele>192</ele>
        <time>2017-05-26T08:24:10Z</time>
      </trkpt>
      <trkpt lat="45.95266" lon="4.74999">
        <ele>192</ele>
        <time>2017-05-26T08:24:11Z</time>
      </trkpt>
      <trkpt lat="45.9527" lon="4.75005">
        <ele>191</ele>
        <time>2017-05-26T08:24:12Z</time>
      </trkpt>
      <trkpt lat="45.95274" lon="4.75011">
        <ele>191</ele>
        <time>2017-05-26T08:24:13Z</time>
      </trkpt>
      <trkpt lat="45.95278" lon="4.75018">
        <ele>191</ele>
        <time>2017-05-26T08:24:14Z</time>
      </trkpt>
      <trkpt lat="45.95282" lon="4.75024">
        <ele>191</ele>
        <time>2017-05-26T08:24:15Z</time>
      </trkpt>
      <trkpt lat="45.95286" lon="4.7503">
        <ele>191</ele>
        <time>2017-05-26T08:24:16Z</time>
      </trkpt>
      <trkpt lat="45.9529" lon="4.75037">
        <ele>191</ele>
        <time>2017-05-26T08:24:17Z</time>
      </trkpt>
      <trkpt lat="45.95295" lon="4.75044">
        <ele>191</ele>
        <time>2017-05-26T08:24:18Z</time>
      </trkpt>
      <trkpt lat="45.95299" lon="4.7505">
        <ele>191</ele>
        <time>2017-05-26T08:24:19Z</time>
      </trkpt>
      <trkpt lat="45.95304" lon="4.75057">
        <ele>191</ele>
        <time>2017-05-26T08:24:20Z</time>
      </trkpt>
      <trkpt lat="45.95308" lon="4.75064">
        <ele>192</ele>
        <time>2017-05-26T08:24:21Z</time>
      </trkpt>
      <trkpt lat="45.95312" lon="4.75071">
        <ele>192</ele>
        <time>2017-05-26T08:24:22Z</time>
      </trkpt>
      <trkpt lat="45.95316" lon="4.75077">
        <ele>192</ele>
        <time>2017-05-26T08:24:23Z</time>
      </trkpt>
      <trkpt lat="45.95321" lon="4.75084">
        <ele>191</ele>
        <time>2017-05-26T08:24:24Z</time>
      </trkpt>
      <trkpt lat="45.95325" lon="4.7509">
        <ele>191</ele>
        <time>2017-05-26T08:24:25Z</time>
      </trkpt>
      <trkpt lat="45.95329" lon="4.75096">
        <ele>191</ele>
        <time>2017-05-26T08:24:26Z</time>
      </trkpt>
      <trkpt lat="45.95332" lon="4.75102">
        <ele>190</ele>
        <time>2017-05-26T08:24:27Z</time>
      </trkpt>
      <trkpt lat="45.95336" lon="4.75108">
        <ele>192</ele>
        <time>2017-05-26T08:24:28Z</time>
      </trkpt>
      <trkpt lat="45.9534" lon="4.75114">
        <ele>192</ele>
        <time>2017-05-26T08:24:29Z</time>
      </trkpt>
      <trkpt lat="45.95343" lon="4.7512">
        <ele>191</ele>
        <time>2017-05-26T08:24:30Z</time>
      </trkpt>
      <trkpt lat="45.95347" lon="4.75126">
        <ele>191</ele>
        <time>2017-05-26T08:24:31Z</time>
      </trkpt>
      <trkpt lat="45.95351" lon="4.75132">
        <ele>191</ele>
        <time>2017-05-26T08:24:32Z</time>
      </trkpt>
      <trkpt lat="45.95355" lon="4.75139">
        <ele>191</ele>
        <time>2017-05-26T08:24:33Z</time>
      </trkpt>
      <trkpt lat="45.95359" lon="4.75145">
        <ele>191</ele>
        <time>2017-05-26T08:24:34Z</time>
      </trkpt>
      <trkpt lat="45.95363" lon="4.75152">
        <ele>191</ele>
        <time>2017-05-26T08:24:35Z</time>
      </trkpt>
      <trkpt lat="45.95368" lon="4.75158">
        <ele>191</ele>
        <time>2017-05-26T08:24:36Z</time>
      </trkpt>
      <trkpt lat="45.95372" lon="4.75164">
        <ele>191</ele>
        <time>2017-05-26T08:24:37Z</time>
      </trkpt>
      <trkpt lat="45.95376" lon="4.7517">
        <ele>189</ele>
        <time>2017-05-26T08:24:38Z</time>
      </trkpt>
      <trkpt lat="45.9538" lon="4.75176">
        <ele>189</ele>
        <time>2017-05-26T08:24:39Z</time>
      </trkpt>
      <trkpt lat="45.95384" lon="4.75182">
        <ele>189</ele>
        <time>2017-05-26T08:24:40Z</time>
      </trkpt>
      <trkpt lat="45.95387" lon="4.75188">
        <ele>189</ele>
        <time>2017-05-26T08:24:41Z</time>
      </trkpt>
      <trkpt lat="45.95391" lon="4.75195">
        <ele>189</ele>
        <time>2017-05-26T08:24:42Z</time>
      </trkpt>
      <trkpt lat="45.95395" lon="4.75201">
        <ele>189</ele>
        <time>2017-05-26T08:24:43Z</time>
      </trkpt>
      <trkpt lat="45.95398" lon="4.75207">
        <ele>189</ele>
        <time>2017-05-26T08:24:44Z</time>
      </trkpt>
      <trkpt lat="45.95402" lon="4.75213">
        <ele>189</ele>
        <time>2017-05-26T08:24:45Z</time>
      </trkpt>
      <trkpt lat="45.95406" lon="4.75219">
        <ele>188</ele>
        <time>2017-05-26T08:24:46Z</time>
      </trkpt>
      <trkpt lat="45.95411" lon="4.75226">
        <ele>189</ele>
        <time>2017-05-26T08:24:47Z</time>
      </trkpt>
      <trkpt lat="45.95414" lon="4.75233">
        <ele>189</ele>
        <time>2017-05-26T08:24:48Z</time>
      </trkpt>
      <trkpt lat="45.95418" lon="4.75239">
        <ele>190</ele>
        <time>2017-05-26T08:24:49Z</time>
      </trkpt>
      <trkpt lat="45.95421" lon="4.75245">
        <ele>190</ele>
        <time>2017-05-26T08:24:50Z</time>
      </trkpt>
      <trkpt lat="45.95425" lon="4.75252">
        <ele>189</ele>
        <time>2017-05-26T08:24:51Z</time>
      </trkpt>
      <trkpt lat="45.95428" lon="4.75258">
        <ele>189</ele>
        <time>2017-05-26T08:24:52Z</time>
      </trkpt>
      <trkpt lat="45.95432" lon="4.75265">
        <ele>189</ele>
        <time>2017-05-26T08:24:53Z</time>
      </trkpt>
      <trkpt lat="45.95436" lon="4.75272">
        <ele>189</ele>
        <time>2017-05-26T08:24:54Z</time>
      </trkpt>
      <trkpt lat="45.9544" lon="4.75279">
        <ele>188</ele>
        <time>2017-05-26T08:24:55Z</time>
      </trkpt>
      <trkpt lat="45.95443" lon="4.75287">
        <ele>188</ele>
        <time>2017-05-26T08:24:56Z</time>
      </trkpt>
      <trkpt lat="45.95447" lon="4.75295">
        <ele>188</ele>
        <time>2017-05-26T08:24:57Z</time>
      </trkpt>
      <trkpt lat="45.9545" lon="4.75302">
        <ele>188</ele>
        <time>2017-05-26T08:24:58Z</time>
      </trkpt>
      <trkpt lat="45.95453" lon="4.75309">
        <ele>188</ele>
        <time>2017-05-26T08:24:59Z</time>
      </trkpt>
      <trkpt lat="45.95457" lon="4.75317">
        <ele>188</ele>
        <time>2017-05-26T08:25:00Z</time>
      </trkpt>
      <trkpt lat="45.95461" lon="4.75325">
        <ele>188</ele>
        <time>2017-05-26T08:25:01Z</time>
      </trkpt>
      <trkpt lat="45.95465" lon="4.75332">
        <ele>188</ele>
        <time>2017-05-26T08:25:02Z</time>
      </trkpt>
      <trkpt lat="45.95469" lon="4.7534">
        <ele>186</ele>
        <time>2017-05-26T08:25:03Z</time>
      </trkpt>
      <trkpt lat="45.95474" lon="4.75347">
        <ele>186</ele>
        <time>2017-05-26T08:25:04Z</time>
      </trkpt>
      <trkpt lat="45.95478" lon="4.75354">
        <ele>186</ele>
        <time>2017-05-26T08:25:05Z</time>
      </trkpt>
      <trkpt lat="45.95482" lon="4.75362">
        <ele>186</ele>
        <time>2017-05-26T08:25:06Z</time>
      </trkpt>
      <trkpt lat="45.95486" lon="4.75369">
        <ele>185</ele>
        <time>2017-05-26T08:25:07Z</time>
      </trkpt>
      <trkpt lat="45.95489" lon="4.75377">
        <ele>185</ele>
        <time>2017-05-26T08:25:08Z</time>
      </trkpt>
      <trkpt lat="45.95493" lon="4.75385">
        <ele>185</ele>
        <time>2017-05-26T08:25:09Z</time>
      </trkpt>
      <trkpt lat="45.95496" lon="4.75393">
        <ele>185</ele>
        <time>2017-05-26T08:25:10Z</time>
      </trkpt>
      <trkpt lat="45.955" lon="4.75402">
        <ele>185</ele>
        <time>2017-05-26T08:25:11Z</time>
      </trkpt>
      <trkpt lat="45.95502" lon="4.75411">
        <ele>186</ele>
        <time>2017-05-26T08:25:12Z</time>
      </trkpt>
      <trkpt lat="45.95504" lon="4.75421">
        <ele>186</ele>
        <time>2017-05-26T08:25:13Z</time>
      </trkpt>
      <trkpt lat="45.95506" lon="4.75431">
        <ele>186</ele>
        <time>2017-05-26T08:25:14Z</time>
      </trkpt>
      <trkpt lat="45.95508" lon="4.75441">
        <ele>186</ele>
        <time>2017-05-26T08:25:15Z</time>
      </trkpt>
      <trkpt lat="45.95508" lon="4.75451">
        <ele>187</ele>
        <time>2017-05-26T08:25:16Z</time>
      </trkpt>
      <trkpt lat="45.95507" lon="4.75462">
        <ele>186</ele>
        <time>2017-05-26T08:25:17Z</time>
      </trkpt>
      <trkpt lat="45.95506" lon="4.75472">
        <ele>186</ele>
        <time>2017-05-26T08:25:18Z</time>
      </trkpt>
      <trkpt lat="45.95507" lon="4.75481">
        <ele>186</ele>
        <time>2017-05-26T08:25:19Z</time>
      </trkpt>
      <trkpt lat="45.95509" lon="4.7549">
        <ele>185</ele>
        <time>2017-05-26T08:25:20Z</time>
      </trkpt>
      <trkpt lat="45.95514" lon="4.75497">
        <ele>186</ele>
        <time>2017-05-26T08:25:21Z</time>
      </trkpt>
      <trkpt lat="45.9552" lon="4.75501">
        <ele>185</ele>
        <time>2017-05-26T08:25:22Z</time>
      </trkpt>
      <trkpt lat="45.95525" lon="4.75505">
        <ele>185</ele>
        <time>2017-05-26T08:25:23Z</time>
      </trkpt>
      <trkpt lat="45.9553" lon="4.7551">
        <ele>185</ele>
        <time>2017-05-26T08:25:24Z</time>
      </trkpt>
      <trkpt lat="45.95535" lon="4.75515">
        <ele>186</ele>
        <time>2017-05-26T08:25:25Z</time>
      </trkpt>
      <trkpt lat="45.95539" lon="4.7552">
        <ele>186</ele>
        <time>2017-05-26T08:25:26Z</time>
      </trkpt>
      <trkpt lat="45.95544" lon="4.75524">
        <ele>186</ele>
        <time>2017-05-26T08:25:27Z</time>
      </trkpt>
      <trkpt lat="45.95548" lon="4.75528">
        <ele>186</ele>
        <time>2017-05-26T08:25:28Z</time>
      </trkpt>
      <trkpt lat="45.95552" lon="4.75532">
        <ele>186</ele>
        <time>2017-05-26T08:25:29Z</time>
      </trkpt>
      <trkpt lat="45.95557" lon="4.75536">
        <ele>186</ele>
        <time>2017-05-26T08:25:30Z</time>
      </trkpt>
      <trkpt lat="45.95561" lon="4.75541">
        <ele>186</ele>
        <time>2017-05-26T08:25:31Z</time>
      </trkpt>
      <trkpt lat="45.95566" lon="4.75545">
        <ele>186</ele>
        <time>2017-05-26T08:25:32Z</time>
      </trkpt>
      <trkpt lat="45.9557" lon="4.7555">
        <ele>186</ele>
        <time>2017-05-26T08:25:33Z</time>
      </trkpt>
      <trkpt lat="45.95574" lon="4.75555">
        <ele>186</ele>
        <time>2017-05-26T08:25:34Z</time>
      </trkpt>
      <trkpt lat="45.95578" lon="4.7556">
        <ele>186</ele>
        <time>2017-05-26T08:25:35Z</time>
      </trkpt>
      <trkpt lat="45.95582" lon="4.75566">
        <ele>186</ele>
        <time>2017-05-26T08:25:36Z</time>
      </trkpt>
      <trkpt lat="45.95585" lon="4.75571">
        <ele>187</ele>
        <time>2017-05-26T08:25:37Z</time>
      </trkpt>
      <trkpt lat="45.95589" lon="4.75577">
        <ele>187</ele>
        <time>2017-05-26T08:25:38Z</time>
      </trkpt>
      <trkpt lat="45.95592" lon="4.75584">
        <ele>187</ele>
        <time>2017-05-26T08:25:39Z</time>
      </trkpt>
      <trkpt lat="45.95595" lon="4.7559">
        <ele>187</ele>
        <time>2017-05-26T08:25:40Z</time>
      </trkpt>
      <trkpt lat="45.95598" lon="4.75597">
        <ele>187</ele>
        <time>2017-05-26T08:25:41Z</time>
      </trkpt>
      <trkpt lat="45.95601" lon="4.75604">
        <ele>187</ele>
        <time>2017-05-26T08:25:42Z</time>
      </trkpt>
      <trkpt lat="45.95604" lon="4.75611">
        <ele>187</ele>
        <time>2017-05-26T08:25:43Z</time>
      </trkpt>
      <trkpt lat="45.95607" lon="4.75618">
        <ele>188</ele>
        <time>2017-05-26T08:25:44Z</time>
      </trkpt>
      <trkpt lat="45.95609" lon="4.75625">
        <ele>188</ele>
        <time>2017-05-26T08:25:45Z</time>
      </trkpt>
      <trkpt lat="45.95611" lon="4.75632">
        <ele>188</ele>
        <time>2017-05-26T08:25:46Z</time>
      </trkpt>
      <trkpt lat="45.95613" lon="4.75639">
        <ele>188</ele>
        <time>2017-05-26T08:25:47Z</time>
      </trkpt>
      <trkpt lat="45.95614" lon="4.75646">
        <ele>188</ele>
        <time>2017-05-26T08:25:48Z</time>
      </trkpt>
      <trkpt lat="45.95616" lon="4.75652">
        <ele>188</ele>
        <time>2017-05-26T08:25:49Z</time>
      </trkpt>
      <trkpt lat="45.95617" lon="4.75659">
        <ele>188</ele>
        <time>2017-05-26T08:25:50Z</time>
      </trkpt>
      <trkpt lat="45.95619" lon="4.75666">
        <ele>188</ele>
        <time>2017-05-26T08:25:51Z</time>
      </trkpt>
      <trkpt lat="45.9562" lon="4.75673">
        <ele>187</ele>
        <time>2017-05-26T08:25:52Z</time>
      </trkpt>
      <trkpt lat="45.95621" lon="4.7568">
        <ele>187</ele>
        <time>2017-05-26T08:25:53Z</time>
      </trkpt>
      <trkpt lat="45.95622" lon="4.75687">
        <ele>187</ele>
        <time>2017-05-26T08:25:54Z</time>
      </trkpt>
      <trkpt lat="45.95622" lon="4.75694">
        <ele>187</ele>
        <time>2017-05-26T08:25:55Z</time>
      </trkpt>
      <trkpt lat="45.95623" lon="4.75702">
        <ele>187</ele>
        <time>2017-05-26T08:25:56Z</time>
      </trkpt>
      <trkpt lat="45.95624" lon="4.75708">
        <ele>187</ele>
        <time>2017-05-26T08:25:57Z</time>
      </trkpt>
      <trkpt lat="45.95625" lon="4.75715">
        <ele>187</ele>
        <time>2017-05-26T08:25:58Z</time>
      </trkpt>
      <trkpt lat="45.95627" lon="4.75722">
        <ele>187</ele>
        <time>2017-05-26T08:25:59Z</time>
      </trkpt>
      <trkpt lat="45.95628" lon="4.75729">
        <ele>187</ele>
        <time>2017-05-26T08:26:00Z</time>
      </trkpt>
      <trkpt lat="45.95629" lon="4.75736">
        <ele>187</ele>
        <time>2017-05-26T08:26:01Z</time>
      </trkpt>
      <trkpt lat="45.95629" lon="4.75743">
        <ele>187</ele>
        <time>2017-05-26T08:26:02Z</time>
      </trkpt>
      <trkpt lat="45.9563" lon="4.75749">
        <ele>187</ele>
        <time>2017-05-26T08:26:03Z</time>
      </trkpt>
      <trkpt lat="45.95631" lon="4.75756">
        <ele>186</ele>
        <time>2017-05-26T08:26:04Z</time>
      </trkpt>
      <trkpt lat="45.95632" lon="4.75763">
        <ele>186</ele>
        <time>2017-05-26T08:26:05Z</time>
      </trkpt>
      <trkpt lat="45.95633" lon="4.7577">
        <ele>186</ele>
        <time>2017-05-26T08:26:06Z</time>
      </trkpt>
      <trkpt lat="45.95634" lon="4.75777">
        <ele>185</ele>
        <time>2017-05-26T08:26:07Z</time>
      </trkpt>
      <trkpt lat="45.95635" lon="4.75783">
        <ele>185</ele>
        <time>2017-05-26T08:26:08Z</time>
      </trkpt>
      <trkpt lat="45.95637" lon="4.7579">
        <ele>185</ele>
        <time>2017-05-26T08:26:09Z</time>
      </trkpt>
      <trkpt lat="45.95638" lon="4.75797">
        <ele>185</ele>
        <time>2017-05-26T08:26:10Z</time>
      </trkpt>
      <trkpt lat="45.95639" lon="4.75805">
        <ele>185</ele>
        <time>2017-05-26T08:26:11Z</time>
      </trkpt>
      <trkpt lat="45.95641" lon="4.75812">
        <ele>185</ele>
        <time>2017-05-26T08:26:12Z</time>
      </trkpt>
      <trkpt lat="45.95642" lon="4.7582">
        <ele>185</ele>
        <time>2017-05-26T08:26:13Z</time>
      </trkpt>
      <trkpt lat="45.95644" lon="4.75828">
        <ele>185</ele>
        <time>2017-05-26T08:26:14Z</time>
      </trkpt>
      <trkpt lat="45.95646" lon="4.75836">
        <ele>184</ele>
        <time>2017-05-26T08:26:15Z</time>
      </trkpt>
      <trkpt lat="45.95648" lon="4.75843">
        <ele>184</ele>
        <time>2017-05-26T08:26:16Z</time>
      </trkpt>
      <trkpt lat="45.9565" lon="4.75851">
        <ele>184</ele>
        <time>2017-05-26T08:26:17Z</time>
      </trkpt>
      <trkpt lat="45.95652" lon="4.75859">
        <ele>184</ele>
        <time>2017-05-26T08:26:18Z</time>
      </trkpt>
      <trkpt lat="45.95654" lon="4.75867">
        <ele>184</ele>
        <time>2017-05-26T08:26:19Z</time>
      </trkpt>
      <trkpt lat="45.95657" lon="4.75876">
        <ele>184</ele>
        <time>2017-05-26T08:26:20Z</time>
      </trkpt>
      <trkpt lat="45.9566" lon="4.75885">
        <ele>184</ele>
        <time>2017-05-26T08:26:21Z</time>
      </trkpt>
      <trkpt lat="45.95663" lon="4.75893">
        <ele>184</ele>
        <time>2017-05-26T08:26:22Z</time>
      </trkpt>
      <trkpt lat="45.95666" lon="4.75902">
        <ele>184</ele>
        <time>2017-05-26T08:26:23Z</time>
      </trkpt>
      <trkpt lat="45.9567" lon="4.75911">
        <ele>185</ele>
        <time>2017-05-26T08:26:24Z</time>
      </trkpt>
      <trkpt lat="45.95673" lon="4.75919">
        <ele>184</ele>
        <time>2017-05-26T08:26:25Z</time>
      </trkpt>
      <trkpt lat="45.95677" lon="4.75927">
        <ele>185</ele>
        <time>2017-05-26T08:26:26Z</time>
      </trkpt>
      <trkpt lat="45.9568" lon="4.75935">
        <ele>185</ele>
        <time>2017-05-26T08:26:27Z</time>
      </trkpt>
      <trkpt lat="45.95684" lon="4.75943">
        <ele>185</ele>
        <time>2017-05-26T08:26:28Z</time>
      </trkpt>
      <trkpt lat="45.95687" lon="4.7595">
        <ele>185</ele>
        <time>2017-05-26T08:26:29Z</time>
      </trkpt>
      <trkpt lat="45.9569" lon="4.75957">
        <ele>185</ele>
        <time>2017-05-26T08:26:30Z</time>
      </trkpt>
      <trkpt lat="45.95693" lon="4.75965">
        <ele>185</ele>
        <time>2017-05-26T08:26:31Z</time>
      </trkpt>
      <trkpt lat="45.95697" lon="4.75972">
        <ele>185</ele>
        <time>2017-05-26T08:26:32Z</time>
      </trkpt>
      <trkpt lat="45.957" lon="4.75978">
        <ele>185</ele>
        <time>2017-05-26T08:26:33Z</time>
      </trkpt>
      <trkpt lat="45.95703" lon="4.75985">
        <ele>185</ele>
        <time>2017-05-26T08:26:34Z</time>
      </trkpt>
      <trkpt lat="45.95706" lon="4.75992">
        <ele>185</ele>
        <time>2017-05-26T08:26:35Z</time>
      </trkpt>
      <trkpt lat="45.95708" lon="4.75998">
        <ele>185</ele>
        <time>2017-05-26T08:26:36Z</time>
      </trkpt>
      <trkpt lat="45.95711" lon="4.76004">
        <ele>184</ele>
        <time>2017-05-26T08:26:37Z</time>
      </trkpt>
      <trkpt lat="45.95714" lon="4.7601">
        <ele>184</ele>
        <time>2017-05-26T08:26:38Z</time>
      </trkpt>
      <trkpt lat="45.95717" lon="4.76015">
        <ele>184</ele>
        <time>2017-05-26T08:26:39Z</time>
      </trkpt>
      <trkpt lat="45.95719" lon="4.76021">
        <ele>184</ele>
        <time>2017-05-26T08:26:40Z</time>
      </trkpt>
      <trkpt lat="45.95722" lon="4.76026">
        <ele>184</ele>
        <time>2017-05-26T08:26:41Z</time>
      </trkpt>
      <trkpt lat="45.95725" lon="4.76033">
        <ele>184</ele>
        <time>2017-05-26T08:26:42Z</time>
      </trkpt>
      <trkpt lat="45.95728" lon="4.76039">
        <ele>184</ele>
        <time>2017-05-26T08:26:43Z</time>
      </trkpt>
      <trkpt lat="45.95731" lon="4.76046">
        <ele>184</ele>
        <time>2017-05-26T08:26:44Z</time>
      </trkpt>
      <trkpt lat="45.95734" lon="4.76053">
        <ele>184</ele>
        <time>2017-05-26T08:26:45Z</time>
      </trkpt>
      <trkpt lat="45.95738" lon="4.7606">
        <ele>184</ele>
        <time>2017-05-26T08:26:46Z</time>
      </trkpt>
      <trkpt lat="45.95741" lon="4.76068">
        <ele>185</ele>
        <time>2017-05-26T08:26:47Z</time>
      </trkpt>
      <trkpt lat="45.95744" lon="4.76076">
        <ele>185</ele>
        <time>2017-05-26T08:26:48Z</time>
      </trkpt>
      <trkpt lat="45.95747" lon="4.76084">
        <ele>185</ele>
        <time>2017-05-26T08:26:49Z</time>
      </trkpt>
      <trkpt lat="45.9575" lon="4.76092">
        <ele>185</ele>
        <time>2017-05-26T08:26:50Z</time>
      </trkpt>
      <trkpt lat="45.95752" lon="4.761">
        <ele>186</ele>
        <time>2017-05-26T08:26:51Z</time>
      </trkpt>
      <trkpt lat="45.95754" lon="4.76108">
        <ele>186</ele>
        <time>2017-05-26T08:26:52Z</time>
      </trkpt>
      <trkpt lat="45.95755" lon="4.76115">
        <ele>186</ele>
        <time>2017-05-26T08:26:53Z</time>
      </trkpt>
      <trkpt lat="45.95756" lon="4.76123">
        <ele>186</ele>
        <time>2017-05-26T08:26:54Z</time>
      </trkpt>
      <trkpt lat="45.95757" lon="4.76131">
        <ele>186</ele>
        <time>2017-05-26T08:26:55Z</time>
      </trkpt>
      <trkpt lat="45.95758" lon="4.76138">
        <ele>186</ele>
        <time>2017-05-26T08:26:56Z</time>
      </trkpt>
      <trkpt lat="45.95759" lon="4.76146">
        <ele>186</ele>
        <time>2017-05-26T08:26:57Z</time>
      </trkpt>
      <trkpt lat="45.95759" lon="4.76154">
        <ele>186</ele>
        <time>2017-05-26T08:26:58Z</time>
      </trkpt>
      <trkpt lat="45.9576" lon="4.76162">
        <ele>186</ele>
        <time>2017-05-26T08:26:59Z</time>
      </trkpt>
      <trkpt lat="45.9576" lon="4.7617">
        <ele>185</ele>
        <time>2017-05-26T08:27:00Z</time>
      </trkpt>
      <trkpt lat="45.9576" lon="4.76179">
        <ele>185</ele>
        <time>2017-05-26T08:27:01Z</time>
      </trkpt>
      <trkpt lat="45.9576" lon="4.76188">
        <ele>186</ele>
        <time>2017-05-26T08:27:02Z</time>
      </trkpt>
      <trkpt lat="45.95761" lon="4.76197">
        <ele>186</ele>
        <time>2017-05-26T08:27:03Z</time>
      </trkpt>
      <trkpt lat="45.95761" lon="4.76207">
        <ele>186</ele>
        <time>2017-05-26T08:27:04Z</time>
      </trkpt>
      <trkpt lat="45.95762" lon="4.76216">
        <ele>186</ele>
        <time>2017-05-26T08:27:05Z</time>
      </trkpt>
      <trkpt lat="45.95762" lon="4.76225">
        <ele>186</ele>
        <time>2017-05-26T08:27:06Z</time>
      </trkpt>
      <trkpt lat="45.95763" lon="4.76234">
        <ele>186</ele>
        <time>2017-05-26T08:27:07Z</time>
      </trkpt>
      <trkpt lat="45.95763" lon="4.76242">
        <ele>185</ele>
        <time>2017-05-26T08:27:08Z</time>
      </trkpt>
      <trkpt lat="45.95764" lon="4.7625">
        <ele>185</ele>
        <time>2017-05-26T08:27:09Z</time>
      </trkpt>
      <trkpt lat="45.95764" lon="4.76258">
        <ele>185</ele>
        <time>2017-05-26T08:27:10Z</time>
      </trkpt>
      <trkpt lat="45.95764" lon="4.76265">
        <ele>185</ele>
        <time>2017-05-26T08:27:11Z</time>
      </trkpt>
      <trkpt lat="45.95765" lon="4.76273">
        <ele>185</ele>
        <time>2017-05-26T08:27:12Z</time>
      </trkpt>
      <trkpt lat="45.95765" lon="4.7628">
        <ele>186</ele>
        <time>2017-05-26T08:27:13Z</time>
      </trkpt>
      <trkpt lat="45.95766" lon="4.76286">
        <ele>186</ele>
        <time>2017-05-26T08:27:14Z</time>
      </trkpt>
      <trkpt lat="45.95766" lon="4.76293">
        <ele>186</ele>
        <time>2017-05-26T08:27:15Z</time>
      </trkpt>
      <trkpt lat="45.95766" lon="4.76299">
        <ele>186</ele>
        <time>2017-05-26T08:27:16Z</time>
      </trkpt>
      <trkpt lat="45.95766" lon="4.76306">
        <ele>185</ele>
        <time>2017-05-26T08:27:17Z</time>
      </trkpt>
      <trkpt lat="45.95766" lon="4.76313">
        <ele>185</ele>
        <time>2017-05-26T08:27:18Z</time>
      </trkpt>
      <trkpt lat="45.95767" lon="4.76319">
        <ele>185</ele>
        <time>2017-05-26T08:27:19Z</time>
      </trkpt>
      <trkpt lat="45.95767" lon="4.76326">
        <ele>185</ele>
        <time>2017-05-26T08:27:20Z</time>
      </trkpt>
      <trkpt lat="45.95767" lon="4.76333">
        <ele>185</ele>
        <time>2017-05-26T08:27:21Z</time>
      </trkpt>
      <trkpt lat="45.95767" lon="4.76339">
        <ele>186</ele>
        <time>2017-05-26T08:27:22Z</time>
      </trkpt>
      <trkpt lat="45.95767" lon="4.76346">
        <ele>186</ele>
        <time>2017-05-26T08:27:23Z</time>
      </trkpt>
      <trkpt lat="45.95767" lon="4.76353">
        <ele>186</ele>
        <time>2017-05-26T08:27:24Z</time>
      </trkpt>
      <trkpt lat="45.95768" lon="4.76361">
        <ele>186</ele>
        <time>2017-05-26T08:27:25Z</time>
      </trkpt>
      <trkpt lat="45.95769" lon="4.76368">
        <ele>186</ele>
        <time>2017-05-26T08:27:26Z</time>
      </trkpt>
      <trkpt lat="45.95769" lon="4.76376">
        <ele>186</ele>
        <time>2017-05-26T08:27:27Z</time>
      </trkpt>
      <trkpt lat="45.9577" lon="4.76385">
        <ele>186</ele>
        <time>2017-05-26T08:27:28Z</time>
      </trkpt>
      <trkpt lat="45.9577" lon="4.76394">
        <ele>186</ele>
        <time>2017-05-26T08:27:29Z</time>
      </trkpt>
      <trkpt lat="45.95771" lon="4.76402">
        <ele>186</ele>
        <time>2017-05-26T08:27:30Z</time>
      </trkpt>
      <trkpt lat="45.95772" lon="4.7641">
        <ele>186</ele>
        <time>2017-05-26T08:27:31Z</time>
      </trkpt>
      <trkpt lat="45.95773" lon="4.76417">
        <ele>186</ele>
        <time>2017-05-26T08:27:32Z</time>
      </trkpt>
      <trkpt lat="45.95774" lon="4.76424">
        <ele>186</ele>
        <time>2017-05-26T08:27:33Z</time>
      </trkpt>
      <trkpt lat="45.95775" lon="4.76431">
        <ele>186</ele>
        <time>2017-05-26T08:27:34Z</time>
      </trkpt>
      <trkpt lat="45.95776" lon="4.76438">
        <ele>186</ele>
        <time>2017-05-26T08:27:35Z</time>
      </trkpt>
      <trkpt lat="45.95777" lon="4.76445">
        <ele>186</ele>
        <time>2017-05-26T08:27:36Z</time>
      </trkpt>
      <trkpt lat="45.95778" lon="4.76452">
        <ele>186</ele>
        <time>2017-05-26T08:27:37Z</time>
      </trkpt>
      <trkpt lat="45.95779" lon="4.7646">
        <ele>186</ele>
        <time>2017-05-26T08:27:38Z</time>
      </trkpt>
      <trkpt lat="45.9578" lon="4.76467">
        <ele>186</ele>
        <time>2017-05-26T08:27:39Z</time>
      </trkpt>
      <trkpt lat="45.95781" lon="4.76474">
        <ele>186</ele>
        <time>2017-05-26T08:27:40Z</time>
      </trkpt>
      <trkpt lat="45.95782" lon="4.76481">
        <ele>186</ele>
        <time>2017-05-26T08:27:41Z</time>
      </trkpt>
      <trkpt lat="45.95783" lon="4.76487">
        <ele>186</ele>
        <time>2017-05-26T08:27:42Z</time>
      </trkpt>
      <trkpt lat="45.95785" lon="4.765">
        <ele>186</ele>
        <time>2017-05-26T08:27:44Z</time>
      </trkpt>
      <trkpt lat="45.95786" lon="4.76506">
        <ele>187</ele>
        <time>2017-05-26T08:27:45Z</time>
      </trkpt>
      <trkpt lat="45.95787" lon="4.76513">
        <ele>187</ele>
        <time>2017-05-26T08:27:46Z</time>
      </trkpt>
      <trkpt lat="45.95788" lon="4.76519">
        <ele>187</ele>
        <time>2017-05-26T08:27:47Z</time>
      </trkpt>
      <trkpt lat="45.9579" lon="4.76526">
        <ele>187</ele>
        <time>2017-05-26T08:27:48Z</time>
      </trkpt>
      <trkpt lat="45.95791" lon="4.76532">
        <ele>187</ele>
        <time>2017-05-26T08:27:49Z</time>
      </trkpt>
      <trkpt lat="45.95791" lon="4.76539">
        <ele>187</ele>
        <time>2017-05-26T08:27:50Z</time>
      </trkpt>
      <trkpt lat="45.95793" lon="4.76545">
        <ele>187</ele>
        <time>2017-05-26T08:27:51Z</time>
      </trkpt>
      <trkpt lat="45.95794" lon="4.76551">
        <ele>187</ele>
        <time>2017-05-26T08:27:52Z</time>
      </trkpt>
      <trkpt lat="45.95795" lon="4.76558">
        <ele>187</ele>
        <time>2017-05-26T08:27:53Z</time>
      </trkpt>
      <trkpt lat="45.95796" lon="4.76565">
        <ele>187</ele>
        <time>2017-05-26T08:27:54Z</time>
      </trkpt>
      <trkpt lat="45.95797" lon="4.76572">
        <ele>187</ele>
        <time>2017-05-26T08:27:55Z</time>
      </trkpt>
      <trkpt lat="45.95798" lon="4.76578">
        <ele>187</ele>
        <time>2017-05-26T08:27:56Z</time>
      </trkpt>
      <trkpt lat="45.95799" lon="4.76585">
        <ele>187</ele>
        <time>2017-05-26T08:27:57Z</time>
      </trkpt>
      <trkpt lat="45.958" lon="4.76592">
        <ele>187</ele>
        <time>2017-05-26T08:27:58Z</time>
      </trkpt>
      <trkpt lat="45.95801" lon="4.76599">
        <ele>187</ele>
        <time>2017-05-26T08:27:59Z</time>
      </trkpt>
      <trkpt lat="45.95802" lon="4.76605">
        <ele>187</ele>
        <time>2017-05-26T08:28:00Z</time>
      </trkpt>
      <trkpt lat="45.95803" lon="4.76612">
        <ele>188</ele>
        <time>2017-05-26T08:28:01Z</time>
      </trkpt>
      <trkpt lat="45.95804" lon="4.76618">
        <ele>188</ele>
        <time>2017-05-26T08:28:02Z</time>
      </trkpt>
      <trkpt lat="45.95806" lon="4.76625">
        <ele>188</ele>
        <time>2017-05-26T08:28:03Z</time>
      </trkpt>
      <trkpt lat="45.95807" lon="4.76632">
        <ele>188</ele>
        <time>2017-05-26T08:28:04Z</time>
      </trkpt>
      <trkpt lat="45.95808" lon="4.76639">
        <ele>188</ele>
        <time>2017-05-26T08:28:05Z</time>
      </trkpt>
      <trkpt lat="45.95809" lon="4.76647">
        <ele>188</ele>
        <time>2017-05-26T08:28:06Z</time>
      </trkpt>
      <trkpt lat="45.9581" lon="4.76655">
        <ele>188</ele>
        <time>2017-05-26T08:28:07Z</time>
      </trkpt>
      <trkpt lat="45.95811" lon="4.76662">
        <ele>188</ele>
        <time>2017-05-26T08:28:08Z</time>
      </trkpt>
      <trkpt lat="45.95812" lon="4.76669">
        <ele>189</ele>
        <time>2017-05-26T08:28:09Z</time>
      </trkpt>
      <trkpt lat="45.95813" lon="4.76675">
        <ele>189</ele>
        <time>2017-05-26T08:28:10Z</time>
      </trkpt>
      <trkpt lat="45.95815" lon="4.76682">
        <ele>189</ele>
        <time>2017-05-26T08:28:11Z</time>
      </trkpt>
      <trkpt lat="45.95817" lon="4.76694">
        <ele>189</ele>
        <time>2017-05-26T08:28:13Z</time>
      </trkpt>
      <trkpt lat="45.95817" lon="4.767">
        <ele>189</ele>
        <time>2017-05-26T08:28:14Z</time>
      </trkpt>
      <trkpt lat="45.95818" lon="4.76706">
        <ele>189</ele>
        <time>2017-05-26T08:28:15Z</time>
      </trkpt>
      <trkpt lat="45.95819" lon="4.76713">
        <ele>189</ele>
        <time>2017-05-26T08:28:16Z</time>
      </trkpt>
      <trkpt lat="45.95819" lon="4.76721">
        <ele>189</ele>
        <time>2017-05-26T08:28:17Z</time>
      </trkpt>
      <trkpt lat="45.9582" lon="4.76729">
        <ele>190</ele>
        <time>2017-05-26T08:28:18Z</time>
      </trkpt>
      <trkpt lat="45.95821" lon="4.76738">
        <ele>190</ele>
        <time>2017-05-26T08:28:19Z</time>
      </trkpt>
      <trkpt lat="45.95822" lon="4.76745">
        <ele>190</ele>
        <time>2017-05-26T08:28:20Z</time>
      </trkpt>
      <trkpt lat="45.95823" lon="4.76752">
        <ele>191</ele>
        <time>2017-05-26T08:28:21Z</time>
      </trkpt>
      <trkpt lat="45.95824" lon="4.76759">
        <ele>190</ele>
        <time>2017-05-26T08:28:22Z</time>
      </trkpt>
      <trkpt lat="45.95825" lon="4.76772">
        <ele>190</ele>
        <time>2017-05-26T08:28:24Z</time>
      </trkpt>
      <trkpt lat="45.95826" lon="4.76778">
        <ele>190</ele>
        <time>2017-05-26T08:28:25Z</time>
      </trkpt>
      <trkpt lat="45.95828" lon="4.76789">
        <ele>190</ele>
        <time>2017-05-26T08:28:27Z</time>
      </trkpt>
      <trkpt lat="45.95829" lon="4.76795">
        <ele>190</ele>
        <time>2017-05-26T08:28:28Z</time>
      </trkpt>
      <trkpt lat="45.95829" lon="4.76801">
        <ele>190</ele>
        <time>2017-05-26T08:28:29Z</time>
      </trkpt>
      <trkpt lat="45.95829" lon="4.76808">
        <ele>190</ele>
        <time>2017-05-26T08:28:30Z</time>
      </trkpt>
      <trkpt lat="45.95829" lon="4.76815">
        <ele>190</ele>
        <time>2017-05-26T08:28:31Z</time>
      </trkpt>
      <trkpt lat="45.95828" lon="4.76821">
        <ele>190</ele>
        <time>2017-05-26T08:28:32Z</time>
      </trkpt>
      <trkpt lat="45.95827" lon="4.76828">
        <ele>190</ele>
        <time>2017-05-26T08:28:33Z</time>
      </trkpt>
      <trkpt lat="45.95826" lon="4.76835">
        <ele>190</ele>
        <time>2017-05-26T08:28:34Z</time>
      </trkpt>
      <trkpt lat="45.95825" lon="4.76842">
        <ele>190</ele>
        <time>2017-05-26T08:28:35Z</time>
      </trkpt>
      <trkpt lat="45.95824" lon="4.76849">
        <ele>190</ele>
        <time>2017-05-26T08:28:36Z</time>
      </trkpt>
      <trkpt lat="45.95823" lon="4.76857">
        <ele>189</ele>
        <time>2017-05-26T08:28:37Z</time>
      </trkpt>
      <trkpt lat="45.95821" lon="4.76864">
        <ele>189</ele>
        <time>2017-05-26T08:28:38Z</time>
      </trkpt>
      <trkpt lat="45.9582" lon="4.76872">
        <ele>189</ele>
        <time>2017-05-26T08:28:39Z</time>
      </trkpt>
      <trkpt lat="45.95818" lon="4.76879">
        <ele>189</ele>
        <time>2017-05-26T08:28:40Z</time>
      </trkpt>
      <trkpt lat="45.95817" lon="4.76886">
        <ele>189</ele>
        <time>2017-05-26T08:28:41Z</time>
      </trkpt>
      <trkpt lat="45.95816" lon="4.76893">
        <ele>189</ele>
        <time>2017-05-26T08:28:42Z</time>
      </trkpt>
      <trkpt lat="45.95814" lon="4.76899">
        <ele>189</ele>
        <time>2017-05-26T08:28:43Z</time>
      </trkpt>
      <trkpt lat="45.95813" lon="4.76906">
        <ele>189</ele>
        <time>2017-05-26T08:28:44Z</time>
      </trkpt>
      <trkpt lat="45.95811" lon="4.76912">
        <ele>189</ele>
        <time>2017-05-26T08:28:45Z</time>
      </trkpt>
      <trkpt lat="45.9581" lon="4.76919">
        <ele>189</ele>
        <time>2017-05-26T08:28:46Z</time>
      </trkpt>
      <trkpt lat="45.95809" lon="4.76926">
        <ele>189</ele>
        <time>2017-05-26T08:28:47Z</time>
      </trkpt>
      <trkpt lat="45.95807" lon="4.76934">
        <ele>189</ele>
        <time>2017-05-26T08:28:48Z</time>
      </trkpt>
      <trkpt lat="45.95806" lon="4.76941">
        <ele>189</ele>
        <time>2017-05-26T08:28:49Z</time>
      </trkpt>
      <trkpt lat="45.95804" lon="4.76949">
        <ele>189</ele>
        <time>2017-05-26T08:28:50Z</time>
      </trkpt>
      <trkpt lat="45.95802" lon="4.76958">
        <ele>189</ele>
        <time>2017-05-26T08:28:51Z</time>
      </trkpt>
      <trkpt lat="45.95801" lon="4.76966">
        <ele>189</ele>
        <time>2017-05-26T08:28:52Z</time>
      </trkpt>
      <trkpt lat="45.958" lon="4.76975">
        <ele>189</ele>
        <time>2017-05-26T08:28:53Z</time>
      </trkpt>
      <trkpt lat="45.95799" lon="4.76984">
        <ele>189</ele>
        <time>2017-05-26T08:28:54Z</time>
      </trkpt>
      <trkpt lat="45.95799" lon="4.76993">
        <ele>189</ele>
        <time>2017-05-26T08:28:55Z</time>
      </trkpt>
      <trkpt lat="45.95799" lon="4.77002">
        <ele>190</ele>
        <time>2017-05-26T08:28:56Z</time>
      </trkpt>
      <trkpt lat="45.958" lon="4.7701">
        <ele>190</ele>
        <time>2017-05-26T08:28:57Z</time>
      </trkpt>
      <trkpt lat="45.95802" lon="4.77017">
        <ele>190</ele>
        <time>2017-05-26T08:28:58Z</time>
      </trkpt>
      <trkpt lat="45.95803" lon="4.77024">
        <ele>190</ele>
        <time>2017-05-26T08:28:59Z</time>
      </trkpt>
      <trkpt lat="45.95806" lon="4.7703">
        <ele>190</ele>
        <time>2017-05-26T08:29:00Z</time>
      </trkpt>
      <trkpt lat="45.95808" lon="4.77036">
        <ele>190</ele>
        <time>2017-05-26T08:29:01Z</time>
      </trkpt>
      <trkpt lat="45.95811" lon="4.77042">
        <ele>190</ele>
        <time>2017-05-26T08:29:02Z</time>
      </trkpt>
      <trkpt lat="45.95814" lon="4.77048">
        <ele>190</ele>
        <time>2017-05-26T08:29:03Z</time>
      </trkpt>
      <trkpt lat="45.95817" lon="4.77053">
        <ele>190</ele>
        <time>2017-05-26T08:29:04Z</time>
      </trkpt>
      <trkpt lat="45.95819" lon="4.77059">
        <ele>190</ele>
        <time>2017-05-26T08:29:05Z</time>
      </trkpt>
      <trkpt lat="45.95821" lon="4.77065">
        <ele>191</ele>
        <time>2017-05-26T08:29:06Z</time>
      </trkpt>
      <trkpt lat="45.95824" lon="4.7707">
        <ele>191</ele>
        <time>2017-05-26T08:29:07Z</time>
      </trkpt>
      <trkpt lat="45.95826" lon="4.77077">
        <ele>191</ele>
        <time>2017-05-26T08:29:08Z</time>
      </trkpt>
      <trkpt lat="45.95829" lon="4.77083">
        <ele>192</ele>
        <time>2017-05-26T08:29:09Z</time>
      </trkpt>
      <trkpt lat="45.95831" lon="4.7709">
        <ele>191</ele>
        <time>2017-05-26T08:29:10Z</time>
      </trkpt>
      <trkpt lat="45.95833" lon="4.77098">
        <ele>191</ele>
        <time>2017-05-26T08:29:11Z</time>
      </trkpt>
      <trkpt lat="45.95835" lon="4.77106">
        <ele>193</ele>
        <time>2017-05-26T08:29:12Z</time>
      </trkpt>
      <trkpt lat="45.95837" lon="4.77114">
        <ele>193</ele>
        <time>2017-05-26T08:29:13Z</time>
      </trkpt>
      <trkpt lat="45.9584" lon="4.77123">
        <ele>193</ele>
        <time>2017-05-26T08:29:14Z</time>
      </trkpt>
      <trkpt lat="45.95842" lon="4.7713">
        <ele>193</ele>
        <time>2017-05-26T08:29:15Z</time>
      </trkpt>
      <trkpt lat="45.95844" lon="4.77137">
        <ele>193</ele>
        <time>2017-05-26T08:29:16Z</time>
      </trkpt>
      <trkpt lat="45.95846" lon="4.77144">
        <ele>192</ele>
        <time>2017-05-26T08:29:17Z</time>
      </trkpt>
      <trkpt lat="45.95848" lon="4.77151">
        <ele>192</ele>
        <time>2017-05-26T08:29:18Z</time>
      </trkpt>
      <trkpt lat="45.9585" lon="4.77157">
        <ele>192</ele>
        <time>2017-05-26T08:29:19Z</time>
      </trkpt>
      <trkpt lat="45.95852" lon="4.77163">
        <ele>192</ele>
        <time>2017-05-26T08:29:20Z</time>
      </trkpt>
      <trkpt lat="45.95855" lon="4.77174">
        <ele>192</ele>
        <time>2017-05-26T08:29:22Z</time>
      </trkpt>
      <trkpt lat="45.95857" lon="4.7718">
        <ele>192</ele>
        <time>2017-05-26T08:29:23Z</time>
      </trkpt>
      <trkpt lat="45.9586" lon="4.77192">
        <ele>192</ele>
        <time>2017-05-26T08:29:25Z</time>
      </trkpt>
      <trkpt lat="45.95862" lon="4.77198">
        <ele>192</ele>
        <time>2017-05-26T08:29:26Z</time>
      </trkpt>
      <trkpt lat="45.95863" lon="4.77204">
        <ele>193</ele>
        <time>2017-05-26T08:29:27Z</time>
      </trkpt>
      <trkpt lat="45.95864" lon="4.77211">
        <ele>193</ele>
        <time>2017-05-26T08:29:28Z</time>
      </trkpt>
      <trkpt lat="45.95866" lon="4.77217">
        <ele>193</ele>
        <time>2017-05-26T08:29:29Z</time>
      </trkpt>
      <trkpt lat="45.95867" lon="4.77224">
        <ele>193</ele>
        <time>2017-05-26T08:29:30Z</time>
      </trkpt>
      <trkpt lat="45.95868" lon="4.77231">
        <ele>193</ele>
        <time>2017-05-26T08:29:31Z</time>
      </trkpt>
      <trkpt lat="45.9587" lon="4.77238">
        <ele>193</ele>
        <time>2017-05-26T08:29:32Z</time>
      </trkpt>
      <trkpt lat="45.95872" lon="4.77245">
        <ele>193</ele>
        <time>2017-05-26T08:29:33Z</time>
      </trkpt>
      <trkpt lat="45.95873" lon="4.77253">
        <ele>193</ele>
        <time>2017-05-26T08:29:34Z</time>
      </trkpt>
      <trkpt lat="45.95875" lon="4.7726">
        <ele>193</ele>
        <time>2017-05-26T08:29:35Z</time>
      </trkpt>
      <trkpt lat="45.95876" lon="4.77268">
        <ele>193</ele>
        <time>2017-05-26T08:29:36Z</time>
      </trkpt>
      <trkpt lat="45.95878" lon="4.77275">
        <ele>193</ele>
        <time>2017-05-26T08:29:37Z</time>
      </trkpt>
      <trkpt lat="45.95879" lon="4.77282">
        <ele>193</ele>
        <time>2017-05-26T08:29:38Z</time>
      </trkpt>
      <trkpt lat="45.95881" lon="4.77288">
        <ele>193</ele>
        <time>2017-05-26T08:29:39Z</time>
      </trkpt>
      <trkpt lat="45.95883" lon="4.77295">
        <ele>193</ele>
        <time>2017-05-26T08:29:40Z</time>
      </trkpt>
      <trkpt lat="45.95884" lon="4.77301">
        <ele>193</ele>
        <time>2017-05-26T08:29:41Z</time>
      </trkpt>
      <trkpt lat="45.95885" lon="4.77308">
        <ele>193</ele>
        <time>2017-05-26T08:29:42Z</time>
      </trkpt>
      <trkpt lat="45.95887" lon="4.77314">
        <ele>193</ele>
        <time>2017-05-26T08:29:43Z</time>
      </trkpt>
      <trkpt lat="45.95888" lon="4.7732">
        <ele>193</ele>
        <time>2017-05-26T08:29:44Z</time>
      </trkpt>
      <trkpt lat="45.95892" lon="4.7733">
        <ele>193</ele>
        <time>2017-05-26T08:29:46Z</time>
      </trkpt>
      <trkpt lat="45.95894" lon="4.77335">
        <ele>193</ele>
        <time>2017-05-26T08:29:47Z</time>
      </trkpt>
      <trkpt lat="45.95897" lon="4.77346">
        <ele>193</ele>
        <time>2017-05-26T08:29:49Z</time>
      </trkpt>
      <trkpt lat="45.95899" lon="4.77352">
        <ele>193</ele>
        <time>2017-05-26T08:29:50Z</time>
      </trkpt>
      <trkpt lat="45.95901" lon="4.77359">
        <ele>193</ele>
        <time>2017-05-26T08:29:51Z</time>
      </trkpt>
      <trkpt lat="45.95904" lon="4.77366">
        <ele>193</ele>
        <time>2017-05-26T08:29:52Z</time>
      </trkpt>
      <trkpt lat="45.95906" lon="4.77373">
        <ele>193</ele>
        <time>2017-05-26T08:29:53Z</time>
      </trkpt>
      <trkpt lat="45.95908" lon="4.77381">
        <ele>193</ele>
        <time>2017-05-26T08:29:54Z</time>
      </trkpt>
      <trkpt lat="45.95911" lon="4.77388">
        <ele>193</ele>
        <time>2017-05-26T08:29:55Z</time>
      </trkpt>
      <trkpt lat="45.95913" lon="4.77397">
        <ele>193</ele>
        <time>2017-05-26T08:29:56Z</time>
      </trkpt>
      <trkpt lat="45.95915" lon="4.77404">
        <ele>193</ele>
        <time>2017-05-26T08:29:57Z</time>
      </trkpt>
      <trkpt lat="45.95918" lon="4.77411">
        <ele>195</ele>
        <time>2017-05-26T08:29:58Z</time>
      </trkpt>
      <trkpt lat="45.9592" lon="4.77417">
        <ele>194</ele>
        <time>2017-05-26T08:29:59Z</time>
      </trkpt>
      <trkpt lat="45.95922" lon="4.77423">
        <ele>195</ele>
        <time>2017-05-26T08:30:00Z</time>
      </trkpt>
      <trkpt lat="45.95925" lon="4.77429">
        <ele>195</ele>
        <time>2017-05-26T08:30:01Z</time>
      </trkpt>
      <trkpt lat="45.95927" lon="4.77435">
        <ele>195</ele>
        <time>2017-05-26T08:30:02Z</time>
      </trkpt>
      <trkpt lat="45.95929" lon="4.77441">
        <ele>195</ele>
        <time>2017-05-26T08:30:03Z</time>
      </trkpt>
      <trkpt lat="45.95932" lon="4.77448">
        <ele>195</ele>
        <time>2017-05-26T08:30:04Z</time>
      </trkpt>
      <trkpt lat="45.95934" lon="4.77454">
        <ele>195</ele>
        <time>2017-05-26T08:30:05Z</time>
      </trkpt>
      <trkpt lat="45.95936" lon="4.77462">
        <ele>195</ele>
        <time>2017-05-26T08:30:06Z</time>
      </trkpt>
      <trkpt lat="45.95938" lon="4.77469">
        <ele>195</ele>
        <time>2017-05-26T08:30:07Z</time>
      </trkpt>
      <trkpt lat="45.95941" lon="4.77477">
        <ele>195</ele>
        <time>2017-05-26T08:30:08Z</time>
      </trkpt>
      <trkpt lat="45.95944" lon="4.77485">
        <ele>195</ele>
        <time>2017-05-26T08:30:09Z</time>
      </trkpt>
      <trkpt lat="45.95947" lon="4.77492">
        <ele>195</ele>
        <time>2017-05-26T08:30:10Z</time>
      </trkpt>
      <trkpt lat="45.9595" lon="4.77499">
        <ele>195</ele>
        <time>2017-05-26T08:30:11Z</time>
      </trkpt>
      <trkpt lat="45.95953" lon="4.77506">
        <ele>195</ele>
        <time>2017-05-26T08:30:12Z</time>
      </trkpt>
      <trkpt lat="45.95956" lon="4.77512">
        <ele>195</ele>
        <time>2017-05-26T08:30:13Z</time>
      </trkpt>
      <trkpt lat="45.95959" lon="4.77517">
        <ele>195</ele>
        <time>2017-05-26T08:30:14Z</time>
      </trkpt>
      <trkpt lat="45.95961" lon="4.77522">
        <ele>195</ele>
        <time>2017-05-26T08:30:15Z</time>
      </trkpt>
      <trkpt lat="45.95964" lon="4.77528">
        <ele>195</ele>
        <time>2017-05-26T08:30:16Z</time>
      </trkpt>
      <trkpt lat="45.95967" lon="4.77533">
        <ele>195</ele>
        <time>2017-05-26T08:30:17Z</time>
      </trkpt>
      <trkpt lat="45.95971" lon="4.77538">
        <ele>195</ele>
        <time>2017-05-26T08:30:18Z</time>
      </trkpt>
      <trkpt lat="45.95976" lon="4.77548">
        <ele>195</ele>
        <time>2017-05-26T08:30:20Z</time>
      </trkpt>
      <trkpt lat="45.95978" lon="4.77552">
        <ele>195</ele>
        <time>2017-05-26T08:30:21Z</time>
      </trkpt>
      <trkpt lat="45.95981" lon="4.77563">
        <ele>196</ele>
        <time>2017-05-26T08:30:23Z</time>
      </trkpt>
      <trkpt lat="45.95983" lon="4.7757">
        <ele>196</ele>
        <time>2017-05-26T08:30:24Z</time>
      </trkpt>
      <trkpt lat="45.95985" lon="4.77576">
        <ele>196</ele>
        <time>2017-05-26T08:30:25Z</time>
      </trkpt>
      <trkpt lat="45.95987" lon="4.77582">
        <ele>196</ele>
        <time>2017-05-26T08:30:26Z</time>
      </trkpt>
      <trkpt lat="45.9599" lon="4.77589">
        <ele>196</ele>
        <time>2017-05-26T08:30:27Z</time>
      </trkpt>
      <trkpt lat="45.95992" lon="4.77595">
        <ele>195</ele>
        <time>2017-05-26T08:30:28Z</time>
      </trkpt>
      <trkpt lat="45.95997" lon="4.77604">
        <ele>195</ele>
        <time>2017-05-26T08:30:30Z</time>
      </trkpt>
      <trkpt lat="45.96" lon="4.77606">
        <ele>198</ele>
        <time>2017-05-26T08:30:31Z</time>
      </trkpt>
      <trkpt lat="45.96007" lon="4.77612">
        <ele>199</ele>
        <time>2017-05-26T08:30:33Z</time>
      </trkpt>
      <trkpt lat="45.9601" lon="4.77616">
        <ele>199</ele>
        <time>2017-05-26T08:30:34Z</time>
      </trkpt>
      <trkpt lat="45.96013" lon="4.7762">
        <ele>199</ele>
        <time>2017-05-26T08:30:35Z</time>
      </trkpt>
      <trkpt lat="45.96017" lon="4.77625">
        <ele>199</ele>
        <time>2017-05-26T08:30:36Z</time>
      </trkpt>
      <trkpt lat="45.96021" lon="4.77629">
        <ele>199</ele>
        <time>2017-05-26T08:30:37Z</time>
      </trkpt>
      <trkpt lat="45.96025" lon="4.77634">
        <ele>199</ele>
        <time>2017-05-26T08:30:38Z</time>
      </trkpt>
      <trkpt lat="45.96028" lon="4.77638">
        <ele>199</ele>
        <time>2017-05-26T08:30:39Z</time>
      </trkpt>
      <trkpt lat="45.96032" lon="4.77642">
        <ele>199</ele>
        <time>2017-05-26T08:30:40Z</time>
      </trkpt>
      <trkpt lat="45.96038" lon="4.7765">
        <ele>199</ele>
        <time>2017-05-26T08:30:42Z</time>
      </trkpt>
      <trkpt lat="45.96041" lon="4.77654">
        <ele>199</ele>
        <time>2017-05-26T08:30:43Z</time>
      </trkpt>
      <trkpt lat="45.96047" lon="4.77662">
        <ele>199</ele>
        <time>2017-05-26T08:30:45Z</time>
      </trkpt>
      <trkpt lat="45.9605" lon="4.77666">
        <ele>200</ele>
        <time>2017-05-26T08:30:46Z</time>
      </trkpt>
      <trkpt lat="45.96055" lon="4.77674">
        <ele>197</ele>
        <time>2017-05-26T08:30:48Z</time>
      </trkpt>
      <trkpt lat="45.96059" lon="4.77678">
        <ele>197</ele>
        <time>2017-05-26T08:30:49Z</time>
      </trkpt>
      <trkpt lat="45.96065" lon="4.77687">
        <ele>197</ele>
        <time>2017-05-26T08:30:51Z</time>
      </trkpt>
      <trkpt lat="45.96068" lon="4.77691">
        <ele>197</ele>
        <time>2017-05-26T08:30:52Z</time>
      </trkpt>
      <trkpt lat="45.96074" lon="4.777">
        <ele>197</ele>
        <time>2017-05-26T08:30:54Z</time>
      </trkpt>
      <trkpt lat="45.96077" lon="4.77705">
        <ele>197</ele>
        <time>2017-05-26T08:30:55Z</time>
      </trkpt>
      <trkpt lat="45.96083" lon="4.77715">
        <ele>196</ele>
        <time>2017-05-26T08:30:57Z</time>
      </trkpt>
      <trkpt lat="45.96086" lon="4.7772">
        <ele>199</ele>
        <time>2017-05-26T08:30:58Z</time>
      </trkpt>
      <trkpt lat="45.96089" lon="4.77725">
        <ele>199</ele>
        <time>2017-05-26T08:30:59Z</time>
      </trkpt>
      <trkpt lat="45.96092" lon="4.7773">
        <ele>198</ele>
        <time>2017-05-26T08:31:00Z</time>
      </trkpt>
      <trkpt lat="45.96095" lon="4.77736">
        <ele>198</ele>
        <time>2017-05-26T08:31:01Z</time>
      </trkpt>
      <trkpt lat="45.96098" lon="4.7774">
        <ele>198</ele>
        <time>2017-05-26T08:31:02Z</time>
      </trkpt>
      <trkpt lat="45.96101" lon="4.77745">
        <ele>198</ele>
        <time>2017-05-26T08:31:03Z</time>
      </trkpt>
      <trkpt lat="45.96104" lon="4.7775">
        <ele>198</ele>
        <time>2017-05-26T08:31:04Z</time>
      </trkpt>
      <trkpt lat="45.9611" lon="4.77759">
        <ele>197</ele>
        <time>2017-05-26T08:31:06Z</time>
      </trkpt>
      <trkpt lat="45.96113" lon="4.77764">
        <ele>197</ele>
        <time>2017-05-26T08:31:07Z</time>
      </trkpt>
      <trkpt lat="45.96118" lon="4.77773">
        <ele>197</ele>
        <time>2017-05-26T08:31:09Z</time>
      </trkpt>
      <trkpt lat="45.9612" lon="4.77776">
        <ele>197</ele>
        <time>2017-05-26T08:31:10Z</time>
      </trkpt>
      <trkpt lat="45.96124" lon="4.77784">
        <ele>197</ele>
        <time>2017-05-26T08:31:12Z</time>
      </trkpt>
      <trkpt lat="45.96127" lon="4.7779">
        <ele>197</ele>
        <time>2017-05-26T08:31:13Z</time>
      </trkpt>
      <trkpt lat="45.9613" lon="4.77794">
        <ele>197</ele>
        <time>2017-05-26T08:31:14Z</time>
      </trkpt>
      <trkpt lat="45.96134" lon="4.778">
        <ele>197</ele>
        <time>2017-05-26T08:31:15Z</time>
      </trkpt>
      <trkpt lat="45.96138" lon="4.77805">
        <ele>198</ele>
        <time>2017-05-26T08:31:16Z</time>
      </trkpt>
      <trkpt lat="45.96141" lon="4.77811">
        <ele>198</ele>
        <time>2017-05-26T08:31:17Z</time>
      </trkpt>
      <trkpt lat="45.96146" lon="4.77821">
        <ele>198</ele>
        <time>2017-05-26T08:31:19Z</time>
      </trkpt>
      <trkpt lat="45.96149" lon="4.77827">
        <ele>198</ele>
        <time>2017-05-26T08:31:20Z</time>
      </trkpt>
      <trkpt lat="45.96153" lon="4.77832">
        <ele>198</ele>
        <time>2017-05-26T08:31:21Z</time>
      </trkpt>
      <trkpt lat="45.96156" lon="4.77838">
        <ele>197</ele>
        <time>2017-05-26T08:31:22Z</time>
      </trkpt>
      <trkpt lat="45.96159" lon="4.77843">
        <ele>197</ele>
        <time>2017-05-26T08:31:23Z</time>
      </trkpt>
      <trkpt lat="45.96161" lon="4.77848">
        <ele>197</ele>
        <time>2017-05-26T08:31:24Z</time>
      </trkpt>
      <trkpt lat="45.96165" lon="4.77853">
        <ele>196</ele>
        <time>2017-05-26T08:31:25Z</time>
      </trkpt>
      <trkpt lat="45.96168" lon="4.77858">
        <ele>201</ele>
        <time>2017-05-26T08:31:26Z</time>
      </trkpt>
      <trkpt lat="45.96171" lon="4.77863">
        <ele>201</ele>
        <time>2017-05-26T08:31:27Z</time>
      </trkpt>
      <trkpt lat="45.96174" lon="4.77868">
        <ele>201</ele>
        <time>2017-05-26T08:31:28Z</time>
      </trkpt>
      <trkpt lat="45.96177" lon="4.77873">
        <ele>201</ele>
        <time>2017-05-26T08:31:29Z</time>
      </trkpt>
      <trkpt lat="45.96181" lon="4.77878">
        <ele>201</ele>
        <time>2017-05-26T08:31:30Z</time>
      </trkpt>
      <trkpt lat="45.96186" lon="4.77887">
        <ele>201</ele>
        <time>2017-05-26T08:31:32Z</time>
      </trkpt>
      <trkpt lat="45.96189" lon="4.77892">
        <ele>201</ele>
        <time>2017-05-26T08:31:33Z</time>
      </trkpt>
      <trkpt lat="45.96192" lon="4.77897">
        <ele>201</ele>
        <time>2017-05-26T08:31:34Z</time>
      </trkpt>
      <trkpt lat="45.96196" lon="4.77901">
        <ele>201</ele>
        <time>2017-05-26T08:31:35Z</time>
      </trkpt>
      <trkpt lat="45.96201" lon="4.7791">
        <ele>201</ele>
        <time>2017-05-26T08:31:37Z</time>
      </trkpt>
      <trkpt lat="45.96205" lon="4.77915">
        <ele>202</ele>
        <time>2017-05-26T08:31:38Z</time>
      </trkpt>
      <trkpt lat="45.96208" lon="4.77919">
        <ele>199</ele>
        <time>2017-05-26T08:31:39Z</time>
      </trkpt>
      <trkpt lat="45.96211" lon="4.77925">
        <ele>199</ele>
        <time>2017-05-26T08:31:40Z</time>
      </trkpt>
      <trkpt lat="45.96213" lon="4.7793">
        <ele>199</ele>
        <time>2017-05-26T08:31:41Z</time>
      </trkpt>
      <trkpt lat="45.96216" lon="4.77935">
        <ele>199</ele>
        <time>2017-05-26T08:31:42Z</time>
      </trkpt>
      <trkpt lat="45.96219" lon="4.7794">
        <ele>199</ele>
        <time>2017-05-26T08:31:43Z</time>
      </trkpt>
      <trkpt lat="45.96222" lon="4.77945">
        <ele>199</ele>
        <time>2017-05-26T08:31:44Z</time>
      </trkpt>
      <trkpt lat="45.96226" lon="4.7795">
        <ele>199</ele>
        <time>2017-05-26T08:31:45Z</time>
      </trkpt>
      <trkpt lat="45.9623" lon="4.77954">
        <ele>199</ele>
        <time>2017-05-26T08:31:46Z</time>
      </trkpt>
      <trkpt lat="45.96234" lon="4.77958">
        <ele>199</ele>
        <time>2017-05-26T08:31:47Z</time>
      </trkpt>
      <trkpt lat="45.96238" lon="4.77961">
        <ele>199</ele>
        <time>2017-05-26T08:31:48Z</time>
      </trkpt>
      <trkpt lat="45.96242" lon="4.77964">
        <ele>199</ele>
        <time>2017-05-26T08:31:49Z</time>
      </trkpt>
      <trkpt lat="45.96246" lon="4.77968">
        <ele>198</ele>
        <time>2017-05-26T08:31:50Z</time>
      </trkpt>
      <trkpt lat="45.96251" lon="4.77972">
        <ele>203</ele>
        <time>2017-05-26T08:31:51Z</time>
      </trkpt>
      <trkpt lat="45.96256" lon="4.77976">
        <ele>202</ele>
        <time>2017-05-26T08:31:52Z</time>
      </trkpt>
      <trkpt lat="45.9626" lon="4.7798">
        <ele>202</ele>
        <time>2017-05-26T08:31:53Z</time>
      </trkpt>
      <trkpt lat="45.96264" lon="4.77983">
        <ele>202</ele>
        <time>2017-05-26T08:31:54Z</time>
      </trkpt>
      <trkpt lat="45.96269" lon="4.77987">
        <ele>202</ele>
        <time>2017-05-26T08:31:55Z</time>
      </trkpt>
      <trkpt lat="45.96273" lon="4.7799">
        <ele>202</ele>
        <time>2017-05-26T08:31:56Z</time>
      </trkpt>
      <trkpt lat="45.96277" lon="4.77994">
        <ele>203</ele>
        <time>2017-05-26T08:31:57Z</time>
      </trkpt>
      <trkpt lat="45.9628" lon="4.77998">
        <ele>203</ele>
        <time>2017-05-26T08:31:58Z</time>
      </trkpt>
      <trkpt lat="45.96283" lon="4.78003">
        <ele>198</ele>
        <time>2017-05-26T08:31:59Z</time>
      </trkpt>
      <trkpt lat="45.96287" lon="4.78007">
        <ele>199</ele>
        <time>2017-05-26T08:32:00Z</time>
      </trkpt>
      <trkpt lat="45.96291" lon="4.78012">
        <ele>199</ele>
        <time>2017-05-26T08:32:01Z</time>
      </trkpt>
      <trkpt lat="45.96295" lon="4.78016">
        <ele>199</ele>
        <time>2017-05-26T08:32:02Z</time>
      </trkpt>
      <trkpt lat="45.96299" lon="4.7802">
        <ele>199</ele>
        <time>2017-05-26T08:32:03Z</time>
      </trkpt>
      <trkpt lat="45.96303" lon="4.78023">
        <ele>199</ele>
        <time>2017-05-26T08:32:04Z</time>
      </trkpt>
      <trkpt lat="45.96309" lon="4.7803">
        <ele>199</ele>
        <time>2017-05-26T08:32:06Z</time>
      </trkpt>
      <trkpt lat="45.96313" lon="4.78034">
        <ele>199</ele>
        <time>2017-05-26T08:32:07Z</time>
      </trkpt>
      <trkpt lat="45.96316" lon="4.78038">
        <ele>199</ele>
        <time>2017-05-26T08:32:08Z</time>
      </trkpt>
      <trkpt lat="45.9632" lon="4.78042">
        <ele>199</ele>
        <time>2017-05-26T08:32:09Z</time>
      </trkpt>
      <trkpt lat="45.96324" lon="4.78047">
        <ele>199</ele>
        <time>2017-05-26T08:32:10Z</time>
      </trkpt>
      <trkpt lat="45.96328" lon="4.78052">
        <ele>199</ele>
        <time>2017-05-26T08:32:11Z</time>
      </trkpt>
      <trkpt lat="45.96332" lon="4.78058">
        <ele>199</ele>
        <time>2017-05-26T08:32:12Z</time>
      </trkpt>
      <trkpt lat="45.96337" lon="4.78063">
        <ele>201</ele>
        <time>2017-05-26T08:32:13Z</time>
      </trkpt>
      <trkpt lat="45.96342" lon="4.78068">
        <ele>201</ele>
        <time>2017-05-26T08:32:14Z</time>
      </trkpt>
      <trkpt lat="45.96346" lon="4.78073">
        <ele>201</ele>
        <time>2017-05-26T08:32:15Z</time>
      </trkpt>
      <trkpt lat="45.96351" lon="4.78079">
        <ele>201</ele>
        <time>2017-05-26T08:32:16Z</time>
      </trkpt>
      <trkpt lat="45.96355" lon="4.78084">
        <ele>199</ele>
        <time>2017-05-26T08:32:17Z</time>
      </trkpt>
      <trkpt lat="45.96359" lon="4.78089">
        <ele>199</ele>
        <time>2017-05-26T08:32:18Z</time>
      </trkpt>
      <trkpt lat="45.96364" lon="4.78092">
        <ele>199</ele>
        <time>2017-05-26T08:32:19Z</time>
      </trkpt>
      <trkpt lat="45.96371" lon="4.78098">
        <ele>199</ele>
        <time>2017-05-26T08:32:21Z</time>
      </trkpt>
      <trkpt lat="45.96374" lon="4.78102">
        <ele>199</ele>
        <time>2017-05-26T08:32:22Z</time>
      </trkpt>
      <trkpt lat="45.96382" lon="4.78108">
        <ele>200</ele>
        <time>2017-05-26T08:32:24Z</time>
      </trkpt>
      <trkpt lat="45.96386" lon="4.78111">
        <ele>200</ele>
        <time>2017-05-26T08:32:25Z</time>
      </trkpt>
      <trkpt lat="45.96393" lon="4.78119">
        <ele>200</ele>
        <time>2017-05-26T08:32:27Z</time>
      </trkpt>
      <trkpt lat="45.96396" lon="4.78123">
        <ele>200</ele>
        <time>2017-05-26T08:32:28Z</time>
      </trkpt>
      <trkpt lat="45.96403" lon="4.7813">
        <ele>199</ele>
        <time>2017-05-26T08:32:30Z</time>
      </trkpt>
      <trkpt lat="45.96407" lon="4.78134">
        <ele>199</ele>
        <time>2017-05-26T08:32:31Z</time>
      </trkpt>
      <trkpt lat="45.96414" lon="4.78141">
        <ele>199</ele>
        <time>2017-05-26T08:32:33Z</time>
      </trkpt>
      <trkpt lat="45.96417" lon="4.78146">
        <ele>202</ele>
        <time>2017-05-26T08:32:34Z</time>
      </trkpt>
      <trkpt lat="45.96421" lon="4.78151">
        <ele>202</ele>
        <time>2017-05-26T08:32:35Z</time>
      </trkpt>
      <trkpt lat="45.96425" lon="4.78155">
        <ele>201</ele>
        <time>2017-05-26T08:32:36Z</time>
      </trkpt>
      <trkpt lat="45.96429" lon="4.78159">
        <ele>201</ele>
        <time>2017-05-26T08:32:37Z</time>
      </trkpt>
      <trkpt lat="45.96433" lon="4.78162">
        <ele>202</ele>
        <time>2017-05-26T08:32:38Z</time>
      </trkpt>
      <trkpt lat="45.9644" lon="4.78169">
        <ele>199</ele>
        <time>2017-05-26T08:32:40Z</time>
      </trkpt>
      <trkpt lat="45.96444" lon="4.78173">
        <ele>199</ele>
        <time>2017-05-26T08:32:41Z</time>
      </trkpt>
      <trkpt lat="45.96448" lon="4.78176">
        <ele>199</ele>
        <time>2017-05-26T08:32:42Z</time>
      </trkpt>
      <trkpt lat="45.96451" lon="4.7818">
        <ele>199</ele>
        <time>2017-05-26T08:32:43Z</time>
      </trkpt>
      <trkpt lat="45.96455" lon="4.78184">
        <ele>200</ele>
        <time>2017-05-26T08:32:44Z</time>
      </trkpt>
      <trkpt lat="45.96459" lon="4.78187">
        <ele>200</ele>
        <time>2017-05-26T08:32:45Z</time>
      </trkpt>
      <trkpt lat="45.96463" lon="4.78191">
        <ele>200</ele>
        <time>2017-05-26T08:32:46Z</time>
      </trkpt>
      <trkpt lat="45.96468" lon="4.78194">
        <ele>200</ele>
        <time>2017-05-26T08:32:47Z</time>
      </trkpt>
      <trkpt lat="45.96476" lon="4.78197">
        <ele>200</ele>
        <time>2017-05-26T08:32:49Z</time>
      </trkpt>
      <trkpt lat="45.9648" lon="4.78198">
        <ele>200</ele>
        <time>2017-05-26T08:32:50Z</time>
      </trkpt>
      <trkpt lat="45.96485" lon="4.782">
        <ele>200</ele>
        <time>2017-05-26T08:32:51Z</time>
      </trkpt>
      <trkpt lat="45.9649" lon="4.78203">
        <ele>200</ele>
        <time>2017-05-26T08:32:52Z</time>
      </trkpt>
      <trkpt lat="45.96495" lon="4.78209">
        <ele>200</ele>
        <time>2017-05-26T08:32:53Z</time>
      </trkpt>
      <trkpt lat="45.96499" lon="4.78215">
        <ele>200</ele>
        <time>2017-05-26T08:32:54Z</time>
      </trkpt>
      <trkpt lat="45.96503" lon="4.78221">
        <ele>204</ele>
        <time>2017-05-26T08:32:55Z</time>
      </trkpt>
      <trkpt lat="45.96506" lon="4.78228">
        <ele>203</ele>
        <time>2017-05-26T08:32:56Z</time>
      </trkpt>
      <trkpt lat="45.9651" lon="4.78234">
        <ele>203</ele>
        <time>2017-05-26T08:32:57Z</time>
      </trkpt>
      <trkpt lat="45.96514" lon="4.7824">
        <ele>202</ele>
        <time>2017-05-26T08:32:58Z</time>
      </trkpt>
      <trkpt lat="45.96517" lon="4.78246">
        <ele>202</ele>
        <time>2017-05-26T08:32:59Z</time>
      </trkpt>
      <trkpt lat="45.9652" lon="4.78251">
        <ele>199</ele>
        <time>2017-05-26T08:33:00Z</time>
      </trkpt>
      <trkpt lat="45.96524" lon="4.78256">
        <ele>199</ele>
        <time>2017-05-26T08:33:01Z</time>
      </trkpt>
      <trkpt lat="45.96528" lon="4.78261">
        <ele>200</ele>
        <time>2017-05-26T08:33:02Z</time>
      </trkpt>
      <trkpt lat="45.96531" lon="4.78266">
        <ele>200</ele>
        <time>2017-05-26T08:33:03Z</time>
      </trkpt>
      <trkpt lat="45.96534" lon="4.78271">
        <ele>200</ele>
        <time>2017-05-26T08:33:04Z</time>
      </trkpt>
      <trkpt lat="45.96537" lon="4.78276">
        <ele>200</ele>
        <time>2017-05-26T08:33:05Z</time>
      </trkpt>
      <trkpt lat="45.96541" lon="4.78281">
        <ele>200</ele>
        <time>2017-05-26T08:33:06Z</time>
      </trkpt>
      <trkpt lat="45.96545" lon="4.78286">
        <ele>200</ele>
        <time>2017-05-26T08:33:07Z</time>
      </trkpt>
      <trkpt lat="45.96549" lon="4.7829">
        <ele>200</ele>
        <time>2017-05-26T08:33:08Z</time>
      </trkpt>
      <trkpt lat="45.96553" lon="4.78294">
        <ele>200</ele>
        <time>2017-05-26T08:33:09Z</time>
      </trkpt>
      <trkpt lat="45.96558" lon="4.78299">
        <ele>200</ele>
        <time>2017-05-26T08:33:10Z</time>
      </trkpt>
      <trkpt lat="45.96562" lon="4.78303">
        <ele>200</ele>
        <time>2017-05-26T08:33:11Z</time>
      </trkpt>
      <trkpt lat="45.96567" lon="4.78307">
        <ele>200</ele>
        <time>2017-05-26T08:33:12Z</time>
      </trkpt>
      <trkpt lat="45.96571" lon="4.78311">
        <ele>199</ele>
        <time>2017-05-26T08:33:13Z</time>
      </trkpt>
      <trkpt lat="45.96575" lon="4.78316">
        <ele>199</ele>
        <time>2017-05-26T08:33:14Z</time>
      </trkpt>
      <trkpt lat="45.96579" lon="4.7832">
        <ele>199</ele>
        <time>2017-05-26T08:33:15Z</time>
      </trkpt>
      <trkpt lat="45.96583" lon="4.78323">
        <ele>199</ele>
        <time>2017-05-26T08:33:16Z</time>
      </trkpt>
      <trkpt lat="45.96587" lon="4.78327">
        <ele>200</ele>
        <time>2017-05-26T08:33:17Z</time>
      </trkpt>
      <trkpt lat="45.96591" lon="4.78331">
        <ele>200</ele>
        <time>2017-05-26T08:33:18Z</time>
      </trkpt>
      <trkpt lat="45.96596" lon="4.78336">
        <ele>199</ele>
        <time>2017-05-26T08:33:19Z</time>
      </trkpt>
      <trkpt lat="45.966" lon="4.7834">
        <ele>200</ele>
        <time>2017-05-26T08:33:20Z</time>
      </trkpt>
      <trkpt lat="45.96605" lon="4.78344">
        <ele>200</ele>
        <time>2017-05-26T08:33:21Z</time>
      </trkpt>
      <trkpt lat="45.9661" lon="4.78349">
        <ele>200</ele>
        <time>2017-05-26T08:33:22Z</time>
      </trkpt>
      <trkpt lat="45.96614" lon="4.78353">
        <ele>201</ele>
        <time>2017-05-26T08:33:23Z</time>
      </trkpt>
      <trkpt lat="45.96619" lon="4.78358">
        <ele>201</ele>
        <time>2017-05-26T08:33:24Z</time>
      </trkpt>
      <trkpt lat="45.96624" lon="4.78362">
        <ele>201</ele>
        <time>2017-05-26T08:33:25Z</time>
      </trkpt>
      <trkpt lat="45.96629" lon="4.78366">
        <ele>201</ele>
        <time>2017-05-26T08:33:26Z</time>
      </trkpt>
      <trkpt lat="45.96633" lon="4.78371">
        <ele>201</ele>
        <time>2017-05-26T08:33:27Z</time>
      </trkpt>
      <trkpt lat="45.96637" lon="4.78374">
        <ele>201</ele>
        <time>2017-05-26T08:33:28Z</time>
      </trkpt>
      <trkpt lat="45.96641" lon="4.78378">
        <ele>201</ele>
        <time>2017-05-26T08:33:29Z</time>
      </trkpt>
      <trkpt lat="45.96645" lon="4.78382">
        <ele>201</ele>
        <time>2017-05-26T08:33:30Z</time>
      </trkpt>
      <trkpt lat="45.96652" lon="4.78388">
        <ele>201</ele>
        <time>2017-05-26T08:33:32Z</time>
      </trkpt>
      <trkpt lat="45.96655" lon="4.78392">
        <ele>201</ele>
        <time>2017-05-26T08:33:33Z</time>
      </trkpt>
      <trkpt lat="45.96659" lon="4.78395">
        <ele>201</ele>
        <time>2017-05-26T08:33:34Z</time>
      </trkpt>
      <trkpt lat="45.96663" lon="4.78398">
        <ele>201</ele>
        <time>2017-05-26T08:33:35Z</time>
      </trkpt>
      <trkpt lat="45.96667" lon="4.78402">
        <ele>203</ele>
        <time>2017-05-26T08:33:36Z</time>
      </trkpt>
      <trkpt lat="45.96671" lon="4.78407">
        <ele>203</ele>
        <time>2017-05-26T08:33:37Z</time>
      </trkpt>
      <trkpt lat="45.96676" lon="4.78411">
        <ele>203</ele>
        <time>2017-05-26T08:33:38Z</time>
      </trkpt>
      <trkpt lat="45.9668" lon="4.78416">
        <ele>203</ele>
        <time>2017-05-26T08:33:39Z</time>
      </trkpt>
      <trkpt lat="45.96684" lon="4.7842">
        <ele>202</ele>
        <time>2017-05-26T08:33:40Z</time>
      </trkpt>
      <trkpt lat="45.96689" lon="4.78424">
        <ele>202</ele>
        <time>2017-05-26T08:33:41Z</time>
      </trkpt>
      <trkpt lat="45.96695" lon="4.78431">
        <ele>202</ele>
        <time>2017-05-26T08:33:43Z</time>
      </trkpt>
      <trkpt lat="45.96699" lon="4.78434">
        <ele>203</ele>
        <time>2017-05-26T08:33:44Z</time>
      </trkpt>
      <trkpt lat="45.96702" lon="4.78438">
        <ele>203</ele>
        <time>2017-05-26T08:33:45Z</time>
      </trkpt>
      <trkpt lat="45.96706" lon="4.78442">
        <ele>203</ele>
        <time>2017-05-26T08:33:46Z</time>
      </trkpt>
      <trkpt lat="45.9671" lon="4.78447">
        <ele>203</ele>
        <time>2017-05-26T08:33:47Z</time>
      </trkpt>
      <trkpt lat="45.96714" lon="4.78452">
        <ele>203</ele>
        <time>2017-05-26T08:33:48Z</time>
      </trkpt>
      <trkpt lat="45.96718" lon="4.78456">
        <ele>203</ele>
        <time>2017-05-26T08:33:49Z</time>
      </trkpt>
      <trkpt lat="45.96723" lon="4.78461">
        <ele>203</ele>
        <time>2017-05-26T08:33:50Z</time>
      </trkpt>
      <trkpt lat="45.96728" lon="4.78466">
        <ele>203</ele>
        <time>2017-05-26T08:33:51Z</time>
      </trkpt>
      <trkpt lat="45.96733" lon="4.7847">
        <ele>203</ele>
        <time>2017-05-26T08:33:52Z</time>
      </trkpt>
      <trkpt lat="45.96737" lon="4.78474">
        <ele>203</ele>
        <time>2017-05-26T08:33:53Z</time>
      </trkpt>
      <trkpt lat="45.96742" lon="4.78478">
        <ele>203</ele>
        <time>2017-05-26T08:33:54Z</time>
      </trkpt>
      <trkpt lat="45.96746" lon="4.78483">
        <ele>203</ele>
        <time>2017-05-26T08:33:55Z</time>
      </trkpt>
      <trkpt lat="45.9675" lon="4.78487">
        <ele>204</ele>
        <time>2017-05-26T08:33:56Z</time>
      </trkpt>
      <trkpt lat="45.96754" lon="4.78492">
        <ele>204</ele>
        <time>2017-05-26T08:33:57Z</time>
      </trkpt>
      <trkpt lat="45.96758" lon="4.78497">
        <ele>204</ele>
        <time>2017-05-26T08:33:58Z</time>
      </trkpt>
      <trkpt lat="45.96762" lon="4.78503">
        <ele>203</ele>
        <time>2017-05-26T08:33:59Z</time>
      </trkpt>
      <trkpt lat="45.96766" lon="4.78507">
        <ele>203</ele>
        <time>2017-05-26T08:34:00Z</time>
      </trkpt>
      <trkpt lat="45.96769" lon="4.78513">
        <ele>203</ele>
        <time>2017-05-26T08:34:01Z</time>
      </trkpt>
      <trkpt lat="45.96772" lon="4.78518">
        <ele>203</ele>
        <time>2017-05-26T08:34:02Z</time>
      </trkpt>
      <trkpt lat="45.96776" lon="4.78523">
        <ele>203</ele>
        <time>2017-05-26T08:34:03Z</time>
      </trkpt>
      <trkpt lat="45.96779" lon="4.78528">
        <ele>203</ele>
        <time>2017-05-26T08:34:04Z</time>
      </trkpt>
      <trkpt lat="45.96781" lon="4.78533">
        <ele>203</ele>
        <time>2017-05-26T08:34:05Z</time>
      </trkpt>
      <trkpt lat="45.96785" lon="4.78538">
        <ele>203</ele>
        <time>2017-05-26T08:34:06Z</time>
      </trkpt>
      <trkpt lat="45.96788" lon="4.78543">
        <ele>203</ele>
        <time>2017-05-26T08:34:07Z</time>
      </trkpt>
      <trkpt lat="45.96791" lon="4.78548">
        <ele>203</ele>
        <time>2017-05-26T08:34:08Z</time>
      </trkpt>
      <trkpt lat="45.96794" lon="4.78553">
        <ele>203</ele>
        <time>2017-05-26T08:34:09Z</time>
      </trkpt>
      <trkpt lat="45.96797" lon="4.78558">
        <ele>203</ele>
        <time>2017-05-26T08:34:10Z</time>
      </trkpt>
      <trkpt lat="45.968" lon="4.78562">
        <ele>203</ele>
        <time>2017-05-26T08:34:11Z</time>
      </trkpt>
      <trkpt lat="45.96804" lon="4.78567">
        <ele>203</ele>
        <time>2017-05-26T08:34:12Z</time>
      </trkpt>
      <trkpt lat="45.96807" lon="4.78572">
        <ele>203</ele>
        <time>2017-05-26T08:34:13Z</time>
      </trkpt>
      <trkpt lat="45.96811" lon="4.78577">
        <ele>203</ele>
        <time>2017-05-26T08:34:14Z</time>
      </trkpt>
      <trkpt lat="45.96815" lon="4.78583">
        <ele>203</ele>
        <time>2017-05-26T08:34:15Z</time>
      </trkpt>
      <trkpt lat="45.96818" lon="4.78588">
        <ele>202</ele>
        <time>2017-05-26T08:34:16Z</time>
      </trkpt>
      <trkpt lat="45.96821" lon="4.78594">
        <ele>202</ele>
        <time>2017-05-26T08:34:17Z</time>
      </trkpt>
      <trkpt lat="45.96823" lon="4.78601">
        <ele>202</ele>
        <time>2017-05-26T08:34:18Z</time>
      </trkpt>
      <trkpt lat="45.96826" lon="4.78608">
        <ele>202</ele>
        <time>2017-05-26T08:34:19Z</time>
      </trkpt>
      <trkpt lat="45.96828" lon="4.78615">
        <ele>202</ele>
        <time>2017-05-26T08:34:20Z</time>
      </trkpt>
      <trkpt lat="45.9683" lon="4.78622">
        <ele>201</ele>
        <time>2017-05-26T08:34:21Z</time>
      </trkpt>
      <trkpt lat="45.96832" lon="4.78629">
        <ele>201</ele>
        <time>2017-05-26T08:34:22Z</time>
      </trkpt>
      <trkpt lat="45.96835" lon="4.78636">
        <ele>203</ele>
        <time>2017-05-26T08:34:23Z</time>
      </trkpt>
      <trkpt lat="45.96838" lon="4.78642">
        <ele>203</ele>
        <time>2017-05-26T08:34:24Z</time>
      </trkpt>
      <trkpt lat="45.96841" lon="4.78648">
        <ele>203</ele>
        <time>2017-05-26T08:34:25Z</time>
      </trkpt>
      <trkpt lat="45.96844" lon="4.78654">
        <ele>202</ele>
        <time>2017-05-26T08:34:26Z</time>
      </trkpt>
      <trkpt lat="45.96847" lon="4.78659">
        <ele>202</ele>
        <time>2017-05-26T08:34:27Z</time>
      </trkpt>
      <trkpt lat="45.9685" lon="4.78665">
        <ele>202</ele>
        <time>2017-05-26T08:34:28Z</time>
      </trkpt>
      <trkpt lat="45.96854" lon="4.78676">
        <ele>202</ele>
        <time>2017-05-26T08:34:30Z</time>
      </trkpt>
      <trkpt lat="45.96857" lon="4.78681">
        <ele>202</ele>
        <time>2017-05-26T08:34:31Z</time>
      </trkpt>
      <trkpt lat="45.96861" lon="4.7869">
        <ele>202</ele>
        <time>2017-05-26T08:34:33Z</time>
      </trkpt>
      <trkpt lat="45.96863" lon="4.78694">
        <ele>202</ele>
        <time>2017-05-26T08:34:34Z</time>
      </trkpt>
      <trkpt lat="45.96867" lon="4.78703">
        <ele>202</ele>
        <time>2017-05-26T08:34:36Z</time>
      </trkpt>
      <trkpt lat="45.96869" lon="4.78706">
        <ele>202</ele>
        <time>2017-05-26T08:34:37Z</time>
      </trkpt>
      <trkpt lat="45.96873" lon="4.78717">
        <ele>202</ele>
        <time>2017-05-26T08:34:40Z</time>
      </trkpt>
      <trkpt lat="45.96876" lon="4.78722">
        <ele>202</ele>
        <time>2017-05-26T08:34:41Z</time>
      </trkpt>
      <trkpt lat="45.96878" lon="4.78727">
        <ele>202</ele>
        <time>2017-05-26T08:34:42Z</time>
      </trkpt>
      <trkpt lat="45.96881" lon="4.78733">
        <ele>202</ele>
        <time>2017-05-26T08:34:43Z</time>
      </trkpt>
      <trkpt lat="45.96883" lon="4.78739">
        <ele>202</ele>
        <time>2017-05-26T08:34:44Z</time>
      </trkpt>
      <trkpt lat="45.96886" lon="4.78746">
        <ele>202</ele>
        <time>2017-05-26T08:34:45Z</time>
      </trkpt>
      <trkpt lat="45.96889" lon="4.78753">
        <ele>201</ele>
        <time>2017-05-26T08:34:46Z</time>
      </trkpt>
      <trkpt lat="45.96892" lon="4.7876">
        <ele>201</ele>
        <time>2017-05-26T08:34:47Z</time>
      </trkpt>
      <trkpt lat="45.96895" lon="4.78766">
        <ele>201</ele>
        <time>2017-05-26T08:34:48Z</time>
      </trkpt>
      <trkpt lat="45.96897" lon="4.78772">
        <ele>201</ele>
        <time>2017-05-26T08:34:49Z</time>
      </trkpt>
      <trkpt lat="45.969" lon="4.78778">
        <ele>201</ele>
        <time>2017-05-26T08:34:50Z</time>
      </trkpt>
      <trkpt lat="45.96902" lon="4.78783">
        <ele>201</ele>
        <time>2017-05-26T08:34:51Z</time>
      </trkpt>
      <trkpt lat="45.96905" lon="4.78789">
        <ele>201</ele>
        <time>2017-05-26T08:34:52Z</time>
      </trkpt>
      <trkpt lat="45.96908" lon="4.78794">
        <ele>201</ele>
        <time>2017-05-26T08:34:53Z</time>
      </trkpt>
      <trkpt lat="45.96912" lon="4.78804">
        <ele>200</ele>
        <time>2017-05-26T08:34:55Z</time>
      </trkpt>
      <trkpt lat="45.96915" lon="4.7881">
        <ele>200</ele>
        <time>2017-05-26T08:34:56Z</time>
      </trkpt>
      <trkpt lat="45.96919" lon="4.78815">
        <ele>202</ele>
        <time>2017-05-26T08:34:57Z</time>
      </trkpt>
      <trkpt lat="45.96922" lon="4.7882">
        <ele>202</ele>
        <time>2017-05-26T08:34:58Z</time>
      </trkpt>
      <trkpt lat="45.96925" lon="4.78825">
        <ele>202</ele>
        <time>2017-05-26T08:34:59Z</time>
      </trkpt>
      <trkpt lat="45.96929" lon="4.7883">
        <ele>202</ele>
        <time>2017-05-26T08:35:00Z</time>
      </trkpt>
      <trkpt lat="45.96933" lon="4.78835">
        <ele>201</ele>
        <time>2017-05-26T08:35:01Z</time>
      </trkpt>
      <trkpt lat="45.96937" lon="4.7884">
        <ele>202</ele>
        <time>2017-05-26T08:35:02Z</time>
      </trkpt>
      <trkpt lat="45.96941" lon="4.78845">
        <ele>202</ele>
        <time>2017-05-26T08:35:03Z</time>
      </trkpt>
      <trkpt lat="45.96945" lon="4.78849">
        <ele>202</ele>
        <time>2017-05-26T08:35:04Z</time>
      </trkpt>
      <trkpt lat="45.96949" lon="4.78854">
        <ele>202</ele>
        <time>2017-05-26T08:35:05Z</time>
      </trkpt>
      <trkpt lat="45.96953" lon="4.78858">
        <ele>203</ele>
        <time>2017-05-26T08:35:06Z</time>
      </trkpt>
      <trkpt lat="45.96956" lon="4.78862">
        <ele>203</ele>
        <time>2017-05-26T08:35:07Z</time>
      </trkpt>
      <trkpt lat="45.9696" lon="4.78867">
        <ele>203</ele>
        <time>2017-05-26T08:35:08Z</time>
      </trkpt>
      <trkpt lat="45.96963" lon="4.78871">
        <ele>203</ele>
        <time>2017-05-26T08:35:09Z</time>
      </trkpt>
      <trkpt lat="45.96967" lon="4.78875">
        <ele>203</ele>
        <time>2017-05-26T08:35:10Z</time>
      </trkpt>
      <trkpt lat="45.96974" lon="4.78883">
        <ele>203</ele>
        <time>2017-05-26T08:35:12Z</time>
      </trkpt>
      <trkpt lat="45.96977" lon="4.78886">
        <ele>203</ele>
        <time>2017-05-26T08:35:13Z</time>
      </trkpt>
      <trkpt lat="45.96984" lon="4.78894">
        <ele>203</ele>
        <time>2017-05-26T08:35:15Z</time>
      </trkpt>
      <trkpt lat="45.96988" lon="4.78898">
        <ele>203</ele>
        <time>2017-05-26T08:35:16Z</time>
      </trkpt>
      <trkpt lat="45.96991" lon="4.78903">
        <ele>203</ele>
        <time>2017-05-26T08:35:17Z</time>
      </trkpt>
      <trkpt lat="45.96995" lon="4.78908">
        <ele>204</ele>
        <time>2017-05-26T08:35:18Z</time>
      </trkpt>
      <trkpt lat="45.96999" lon="4.78912">
        <ele>204</ele>
        <time>2017-05-26T08:35:19Z</time>
      </trkpt>
      <trkpt lat="45.97003" lon="4.78917">
        <ele>204</ele>
        <time>2017-05-26T08:35:20Z</time>
      </trkpt>
      <trkpt lat="45.97008" lon="4.78922">
        <ele>204</ele>
        <time>2017-05-26T08:35:21Z</time>
      </trkpt>
      <trkpt lat="45.97011" lon="4.78928">
        <ele>205</ele>
        <time>2017-05-26T08:35:22Z</time>
      </trkpt>
      <trkpt lat="45.97015" lon="4.78933">
        <ele>205</ele>
        <time>2017-05-26T08:35:23Z</time>
      </trkpt>
      <trkpt lat="45.97018" lon="4.78938">
        <ele>205</ele>
        <time>2017-05-26T08:35:24Z</time>
      </trkpt>
      <trkpt lat="45.97024" lon="4.78946">
        <ele>205</ele>
        <time>2017-05-26T08:35:26Z</time>
      </trkpt>
      <trkpt lat="45.97027" lon="4.7895">
        <ele>205</ele>
        <time>2017-05-26T08:35:27Z</time>
      </trkpt>
      <trkpt lat="45.97032" lon="4.78959">
        <ele>205</ele>
        <time>2017-05-26T08:35:29Z</time>
      </trkpt>
      <trkpt lat="45.97034" lon="4.78964">
        <ele>205</ele>
        <time>2017-05-26T08:35:30Z</time>
      </trkpt>
      <trkpt lat="45.97037" lon="4.78969">
        <ele>205</ele>
        <time>2017-05-26T08:35:31Z</time>
      </trkpt>
      <trkpt lat="45.9704" lon="4.78975">
        <ele>205</ele>
        <time>2017-05-26T08:35:32Z</time>
      </trkpt>
      <trkpt lat="45.97042" lon="4.78981">
        <ele>205</ele>
        <time>2017-05-26T08:35:33Z</time>
      </trkpt>
      <trkpt lat="45.97045" lon="4.78987">
        <ele>205</ele>
        <time>2017-05-26T08:35:34Z</time>
      </trkpt>
      <trkpt lat="45.97047" lon="4.78993">
        <ele>204</ele>
        <time>2017-05-26T08:35:35Z</time>
      </trkpt>
      <trkpt lat="45.97049" lon="4.79">
        <ele>204</ele>
        <time>2017-05-26T08:35:36Z</time>
      </trkpt>
      <trkpt lat="45.97052" lon="4.79006">
        <ele>203</ele>
        <time>2017-05-26T08:35:37Z</time>
      </trkpt>
      <trkpt lat="45.97054" lon="4.79013">
        <ele>203</ele>
        <time>2017-05-26T08:35:38Z</time>
      </trkpt>
      <trkpt lat="45.97056" lon="4.79019">
        <ele>203</ele>
        <time>2017-05-26T08:35:39Z</time>
      </trkpt>
      <trkpt lat="45.97058" lon="4.79027">
        <ele>203</ele>
        <time>2017-05-26T08:35:40Z</time>
      </trkpt>
      <trkpt lat="45.9706" lon="4.79034">
        <ele>203</ele>
        <time>2017-05-26T08:35:41Z</time>
      </trkpt>
      <trkpt lat="45.97062" lon="4.79041">
        <ele>203</ele>
        <time>2017-05-26T08:35:42Z</time>
      </trkpt>
      <trkpt lat="45.97063" lon="4.79047">
        <ele>203</ele>
        <time>2017-05-26T08:35:43Z</time>
      </trkpt>
      <trkpt lat="45.97065" lon="4.79054">
        <ele>203</ele>
        <time>2017-05-26T08:35:44Z</time>
      </trkpt>
      <trkpt lat="45.97067" lon="4.79061">
        <ele>203</ele>
        <time>2017-05-26T08:35:45Z</time>
      </trkpt>
      <trkpt lat="45.97068" lon="4.79068">
        <ele>203</ele>
        <time>2017-05-26T08:35:46Z</time>
      </trkpt>
      <trkpt lat="45.9707" lon="4.79075">
        <ele>204</ele>
        <time>2017-05-26T08:35:47Z</time>
      </trkpt>
      <trkpt lat="45.97072" lon="4.79082">
        <ele>204</ele>
        <time>2017-05-26T08:35:48Z</time>
      </trkpt>
      <trkpt lat="45.97074" lon="4.79089">
        <ele>204</ele>
        <time>2017-05-26T08:35:49Z</time>
      </trkpt>
      <trkpt lat="45.97075" lon="4.79096">
        <ele>204</ele>
        <time>2017-05-26T08:35:50Z</time>
      </trkpt>
      <trkpt lat="45.97079" lon="4.79107">
        <ele>204</ele>
        <time>2017-05-26T08:35:52Z</time>
      </trkpt>
      <trkpt lat="45.97081" lon="4.79112">
        <ele>204</ele>
        <time>2017-05-26T08:35:53Z</time>
      </trkpt>
      <trkpt lat="45.97085" lon="4.79123">
        <ele>206</ele>
        <time>2017-05-26T08:35:55Z</time>
      </trkpt>
      <trkpt lat="45.97088" lon="4.79128">
        <ele>206</ele>
        <time>2017-05-26T08:35:56Z</time>
      </trkpt>
      <trkpt lat="45.97092" lon="4.79133">
        <ele>206</ele>
        <time>2017-05-26T08:35:57Z</time>
      </trkpt>
      <trkpt lat="45.97095" lon="4.79139">
        <ele>206</ele>
        <time>2017-05-26T08:35:58Z</time>
      </trkpt>
      <trkpt lat="45.97099" lon="4.79144">
        <ele>206</ele>
        <time>2017-05-26T08:35:59Z</time>
      </trkpt>
      <trkpt lat="45.97102" lon="4.79149">
        <ele>206</ele>
        <time>2017-05-26T08:36:00Z</time>
      </trkpt>
      <trkpt lat="45.97105" lon="4.79154">
        <ele>206</ele>
        <time>2017-05-26T08:36:01Z</time>
      </trkpt>
      <trkpt lat="45.97107" lon="4.79159">
        <ele>206</ele>
        <time>2017-05-26T08:36:02Z</time>
      </trkpt>
      <trkpt lat="45.9711" lon="4.79165">
        <ele>206</ele>
        <time>2017-05-26T08:36:03Z</time>
      </trkpt>
      <trkpt lat="45.97112" lon="4.79171">
        <ele>205</ele>
        <time>2017-05-26T08:36:04Z</time>
      </trkpt>
      <trkpt lat="45.97114" lon="4.79177">
        <ele>206</ele>
        <time>2017-05-26T08:36:05Z</time>
      </trkpt>
      <trkpt lat="45.97117" lon="4.79183">
        <ele>206</ele>
        <time>2017-05-26T08:36:06Z</time>
      </trkpt>
      <trkpt lat="45.97121" lon="4.79194">
        <ele>206</ele>
        <time>2017-05-26T08:36:08Z</time>
      </trkpt>
      <trkpt lat="45.97123" lon="4.792">
        <ele>206</ele>
        <time>2017-05-26T08:36:09Z</time>
      </trkpt>
      <trkpt lat="45.97125" lon="4.79206">
        <ele>206</ele>
        <time>2017-05-26T08:36:10Z</time>
      </trkpt>
      <trkpt lat="45.97128" lon="4.79212">
        <ele>206</ele>
        <time>2017-05-26T08:36:11Z</time>
      </trkpt>
      <trkpt lat="45.97131" lon="4.79218">
        <ele>205</ele>
        <time>2017-05-26T08:36:12Z</time>
      </trkpt>
      <trkpt lat="45.97134" lon="4.79225">
        <ele>205</ele>
        <time>2017-05-26T08:36:13Z</time>
      </trkpt>
      <trkpt lat="45.97136" lon="4.79231">
        <ele>205</ele>
        <time>2017-05-26T08:36:14Z</time>
      </trkpt>
      <trkpt lat="45.97139" lon="4.79237">
        <ele>205</ele>
        <time>2017-05-26T08:36:15Z</time>
      </trkpt>
      <trkpt lat="45.97142" lon="4.79243">
        <ele>205</ele>
        <time>2017-05-26T08:36:16Z</time>
      </trkpt>
      <trkpt lat="45.97144" lon="4.79248">
        <ele>205</ele>
        <time>2017-05-26T08:36:17Z</time>
      </trkpt>
      <trkpt lat="45.97148" lon="4.79258">
        <ele>204</ele>
        <time>2017-05-26T08:36:19Z</time>
      </trkpt>
      <trkpt lat="45.9715" lon="4.79263">
        <ele>204</ele>
        <time>2017-05-26T08:36:20Z</time>
      </trkpt>
      <trkpt lat="45.97154" lon="4.79273">
        <ele>204</ele>
        <time>2017-05-26T08:36:22Z</time>
      </trkpt>
      <trkpt lat="45.97156" lon="4.79278">
        <ele>204</ele>
        <time>2017-05-26T08:36:23Z</time>
      </trkpt>
      <trkpt lat="45.97159" lon="4.79289">
        <ele>204</ele>
        <time>2017-05-26T08:36:25Z</time>
      </trkpt>
      <trkpt lat="45.97162" lon="4.79295">
        <ele>204</ele>
        <time>2017-05-26T08:36:26Z</time>
      </trkpt>
      <trkpt lat="45.97165" lon="4.79306">
        <ele>204</ele>
        <time>2017-05-26T08:36:28Z</time>
      </trkpt>
      <trkpt lat="45.97168" lon="4.79313">
        <ele>207</ele>
        <time>2017-05-26T08:36:29Z</time>
      </trkpt>
      <trkpt lat="45.9717" lon="4.79319">
        <ele>206</ele>
        <time>2017-05-26T08:36:30Z</time>
      </trkpt>
      <trkpt lat="45.97174" lon="4.79325">
        <ele>206</ele>
        <time>2017-05-26T08:36:31Z</time>
      </trkpt>
      <trkpt lat="45.97177" lon="4.79331">
        <ele>206</ele>
        <time>2017-05-26T08:36:32Z</time>
      </trkpt>
      <trkpt lat="45.9718" lon="4.79337">
        <ele>206</ele>
        <time>2017-05-26T08:36:33Z</time>
      </trkpt>
      <trkpt lat="45.97184" lon="4.79344">
        <ele>207</ele>
        <time>2017-05-26T08:36:34Z</time>
      </trkpt>
      <trkpt lat="45.97187" lon="4.79351">
        <ele>207</ele>
        <time>2017-05-26T08:36:35Z</time>
      </trkpt>
      <trkpt lat="45.97189" lon="4.79358">
        <ele>207</ele>
        <time>2017-05-26T08:36:36Z</time>
      </trkpt>
      <trkpt lat="45.97192" lon="4.79366">
        <ele>207</ele>
        <time>2017-05-26T08:36:37Z</time>
      </trkpt>
      <trkpt lat="45.97194" lon="4.79372">
        <ele>207</ele>
        <time>2017-05-26T08:36:38Z</time>
      </trkpt>
      <trkpt lat="45.97197" lon="4.79379">
        <ele>207</ele>
        <time>2017-05-26T08:36:39Z</time>
      </trkpt>
      <trkpt lat="45.972" lon="4.79385">
        <ele>207</ele>
        <time>2017-05-26T08:36:40Z</time>
      </trkpt>
      <trkpt lat="45.97202" lon="4.7939">
        <ele>207</ele>
        <time>2017-05-26T08:36:41Z</time>
      </trkpt>
      <trkpt lat="45.97205" lon="4.79402">
        <ele>208</ele>
        <time>2017-05-26T08:36:43Z</time>
      </trkpt>
      <trkpt lat="45.97207" lon="4.79407">
        <ele>208</ele>
        <time>2017-05-26T08:36:44Z</time>
      </trkpt>
      <trkpt lat="45.9721" lon="4.79416">
        <ele>208</ele>
        <time>2017-05-26T08:36:46Z</time>
      </trkpt>
      <trkpt lat="45.97212" lon="4.7942">
        <ele>208</ele>
        <time>2017-05-26T08:36:47Z</time>
      </trkpt>
      <trkpt lat="45.97215" lon="4.79429">
        <ele>208</ele>
        <time>2017-05-26T08:36:49Z</time>
      </trkpt>
      <trkpt lat="45.97218" lon="4.79433">
        <ele>208</ele>
        <time>2017-05-26T08:36:50Z</time>
      </trkpt>
      <trkpt lat="45.97222" lon="4.79444">
        <ele>209</ele>
        <time>2017-05-26T08:36:52Z</time>
      </trkpt>
      <trkpt lat="45.97225" lon="4.7945">
        <ele>209</ele>
        <time>2017-05-26T08:36:53Z</time>
      </trkpt>
      <trkpt lat="45.97228" lon="4.79456">
        <ele>209</ele>
        <time>2017-05-26T08:36:54Z</time>
      </trkpt>
      <trkpt lat="45.9723" lon="4.79462">
        <ele>209</ele>
        <time>2017-05-26T08:36:55Z</time>
      </trkpt>
      <trkpt lat="45.97232" lon="4.79469">
        <ele>209</ele>
        <time>2017-05-26T08:36:56Z</time>
      </trkpt>
      <trkpt lat="45.97234" lon="4.79476">
        <ele>209</ele>
        <time>2017-05-26T08:36:57Z</time>
      </trkpt>
      <trkpt lat="45.97236" lon="4.79483">
        <ele>209</ele>
        <time>2017-05-26T08:36:58Z</time>
      </trkpt>
      <trkpt lat="45.97238" lon="4.7949">
        <ele>210</ele>
        <time>2017-05-26T08:36:59Z</time>
      </trkpt>
      <trkpt lat="45.9724" lon="4.79496">
        <ele>210</ele>
        <time>2017-05-26T08:37:00Z</time>
      </trkpt>
      <trkpt lat="45.97241" lon="4.79502">
        <ele>210</ele>
        <time>2017-05-26T08:37:01Z</time>
      </trkpt>
      <trkpt lat="45.97244" lon="4.79513">
        <ele>210</ele>
        <time>2017-05-26T08:37:03Z</time>
      </trkpt>
      <trkpt lat="45.97245" lon="4.79519">
        <ele>210</ele>
        <time>2017-05-26T08:37:04Z</time>
      </trkpt>
      <trkpt lat="45.97247" lon="4.7953">
        <ele>210</ele>
        <time>2017-05-26T08:37:06Z</time>
      </trkpt>
      <trkpt lat="45.97248" lon="4.79536">
        <ele>210</ele>
        <time>2017-05-26T08:37:07Z</time>
      </trkpt>
      <trkpt lat="45.97249" lon="4.79546">
        <ele>210</ele>
        <time>2017-05-26T08:37:09Z</time>
      </trkpt>
      <trkpt lat="45.9725" lon="4.79552">
        <ele>214</ele>
        <time>2017-05-26T08:37:10Z</time>
      </trkpt>
      <trkpt lat="45.97252" lon="4.79563">
        <ele>213</ele>
        <time>2017-05-26T08:37:12Z</time>
      </trkpt>
      <trkpt lat="45.97253" lon="4.79568">
        <ele>213</ele>
        <time>2017-05-26T08:37:13Z</time>
      </trkpt>
      <trkpt lat="45.97255" lon="4.79581">
        <ele>211</ele>
        <time>2017-05-26T08:37:15Z</time>
      </trkpt>
      <trkpt lat="45.97256" lon="4.79587">
        <ele>211</ele>
        <time>2017-05-26T08:37:16Z</time>
      </trkpt>
      <trkpt lat="45.97255" lon="4.79599">
        <ele>212</ele>
        <time>2017-05-26T08:37:18Z</time>
      </trkpt>
      <trkpt lat="45.97255" lon="4.79606">
        <ele>213</ele>
        <time>2017-05-26T08:37:19Z</time>
      </trkpt>
      <trkpt lat="45.97255" lon="4.79612">
        <ele>213</ele>
        <time>2017-05-26T08:37:20Z</time>
      </trkpt>
      <trkpt lat="45.97255" lon="4.79619">
        <ele>213</ele>
        <time>2017-05-26T08:37:21Z</time>
      </trkpt>
      <trkpt lat="45.97256" lon="4.79625">
        <ele>213</ele>
        <time>2017-05-26T08:37:22Z</time>
      </trkpt>
      <trkpt lat="45.97256" lon="4.79632">
        <ele>213</ele>
        <time>2017-05-26T08:37:23Z</time>
      </trkpt>
      <trkpt lat="45.97257" lon="4.79638">
        <ele>212</ele>
        <time>2017-05-26T08:37:24Z</time>
      </trkpt>
      <trkpt lat="45.97256" lon="4.79645">
        <ele>212</ele>
        <time>2017-05-26T08:37:25Z</time>
      </trkpt>
      <trkpt lat="45.97255" lon="4.79652">
        <ele>211</ele>
        <time>2017-05-26T08:37:26Z</time>
      </trkpt>
      <trkpt lat="45.97252" lon="4.79659">
        <ele>210</ele>
        <time>2017-05-26T08:37:27Z</time>
      </trkpt>
      <trkpt lat="45.9725" lon="4.79666">
        <ele>208</ele>
        <time>2017-05-26T08:37:28Z</time>
      </trkpt>
      <trkpt lat="45.97249" lon="4.79673">
        <ele>208</ele>
        <time>2017-05-26T08:37:29Z</time>
      </trkpt>
      <trkpt lat="45.97249" lon="4.7968">
        <ele>208</ele>
        <time>2017-05-26T08:37:30Z</time>
      </trkpt>
      <trkpt lat="45.97248" lon="4.79687">
        <ele>208</ele>
        <time>2017-05-26T08:37:31Z</time>
      </trkpt>
      <trkpt lat="45.97247" lon="4.79693">
        <ele>208</ele>
        <time>2017-05-26T08:37:32Z</time>
      </trkpt>
      <trkpt lat="45.97246" lon="4.79699">
        <ele>208</ele>
        <time>2017-05-26T08:37:33Z</time>
      </trkpt>
      <trkpt lat="45.97245" lon="4.79712">
        <ele>209</ele>
        <time>2017-05-26T08:37:35Z</time>
      </trkpt>
      <trkpt lat="45.97244" lon="4.79717">
        <ele>209</ele>
        <time>2017-05-26T08:37:36Z</time>
      </trkpt>
      <trkpt lat="45.97242" lon="4.79729">
        <ele>209</ele>
        <time>2017-05-26T08:37:38Z</time>
      </trkpt>
      <trkpt lat="45.97242" lon="4.79735">
        <ele>209</ele>
        <time>2017-05-26T08:37:39Z</time>
      </trkpt>
      <trkpt lat="45.9724" lon="4.79747">
        <ele>209</ele>
        <time>2017-05-26T08:37:41Z</time>
      </trkpt>
      <trkpt lat="45.9724" lon="4.79752">
        <ele>209</ele>
        <time>2017-05-26T08:37:42Z</time>
      </trkpt>
      <trkpt lat="45.97239" lon="4.79764">
        <ele>209</ele>
        <time>2017-05-26T08:37:44Z</time>
      </trkpt>
      <trkpt lat="45.97239" lon="4.7977">
        <ele>210</ele>
        <time>2017-05-26T08:37:45Z</time>
      </trkpt>
      <trkpt lat="45.97238" lon="4.79777">
        <ele>210</ele>
        <time>2017-05-26T08:37:46Z</time>
      </trkpt>
      <trkpt lat="45.97237" lon="4.79785">
        <ele>210</ele>
        <time>2017-05-26T08:37:47Z</time>
      </trkpt>
      <trkpt lat="45.97237" lon="4.79793">
        <ele>210</ele>
        <time>2017-05-26T08:37:48Z</time>
      </trkpt>
      <trkpt lat="45.97237" lon="4.79801">
        <ele>210</ele>
        <time>2017-05-26T08:37:49Z</time>
      </trkpt>
      <trkpt lat="45.97237" lon="4.7981">
        <ele>210</ele>
        <time>2017-05-26T08:37:50Z</time>
      </trkpt>
      <trkpt lat="45.97237" lon="4.79818">
        <ele>211</ele>
        <time>2017-05-26T08:37:51Z</time>
      </trkpt>
      <trkpt lat="45.97237" lon="4.79826">
        <ele>211</ele>
        <time>2017-05-26T08:37:52Z</time>
      </trkpt>
      <trkpt lat="45.97237" lon="4.79833">
        <ele>211</ele>
        <time>2017-05-26T08:37:53Z</time>
      </trkpt>
      <trkpt lat="45.97237" lon="4.79841">
        <ele>211</ele>
        <time>2017-05-26T08:37:54Z</time>
      </trkpt>
      <trkpt lat="45.97237" lon="4.79848">
        <ele>211</ele>
        <time>2017-05-26T08:37:55Z</time>
      </trkpt>
      <trkpt lat="45.97238" lon="4.79855">
        <ele>211</ele>
        <time>2017-05-26T08:37:56Z</time>
      </trkpt>
      <trkpt lat="45.9724" lon="4.79861">
        <ele>211</ele>
        <time>2017-05-26T08:37:57Z</time>
      </trkpt>
      <trkpt lat="45.97244" lon="4.79872">
        <ele>211</ele>
        <time>2017-05-26T08:37:59Z</time>
      </trkpt>
      <trkpt lat="45.97246" lon="4.79877">
        <ele>211</ele>
        <time>2017-05-26T08:38:00Z</time>
      </trkpt>
      <trkpt lat="45.97249" lon="4.79886">
        <ele>211</ele>
        <time>2017-05-26T08:38:02Z</time>
      </trkpt>
      <trkpt lat="45.9725" lon="4.79891">
        <ele>211</ele>
        <time>2017-05-26T08:38:03Z</time>
      </trkpt>
      <trkpt lat="45.97254" lon="4.79903">
        <ele>213</ele>
        <time>2017-05-26T08:38:06Z</time>
      </trkpt>
      <trkpt lat="45.97252" lon="4.79907">
        <ele>213</ele>
        <time>2017-05-26T08:38:07Z</time>
      </trkpt>
      <trkpt lat="45.97248" lon="4.79916">
        <ele>212</ele>
        <time>2017-05-26T08:38:10Z</time>
      </trkpt>
      <trkpt lat="45.97245" lon="4.79918">
        <ele>212</ele>
        <time>2017-05-26T08:38:11Z</time>
      </trkpt>
      <trkpt lat="45.97236" lon="4.79918">
        <ele>211</ele>
        <time>2017-05-26T08:38:13Z</time>
      </trkpt>
      <trkpt lat="45.97231" lon="4.7992">
        <ele>211</ele>
        <time>2017-05-26T08:38:14Z</time>
      </trkpt>
      <trkpt lat="45.97226" lon="4.79922">
        <ele>211</ele>
        <time>2017-05-26T08:38:15Z</time>
      </trkpt>
      <trkpt lat="45.9722" lon="4.79923">
        <ele>211</ele>
        <time>2017-05-26T08:38:16Z</time>
      </trkpt>
      <trkpt lat="45.97215" lon="4.79923">
        <ele>211</ele>
        <time>2017-05-26T08:38:17Z</time>
      </trkpt>
      <trkpt lat="45.9721" lon="4.79923">
        <ele>211</ele>
        <time>2017-05-26T08:38:18Z</time>
      </trkpt>
      <trkpt lat="45.97205" lon="4.79924">
        <ele>211</ele>
        <time>2017-05-26T08:38:19Z</time>
      </trkpt>
      <trkpt lat="45.97201" lon="4.79924">
        <ele>211</ele>
        <time>2017-05-26T08:38:20Z</time>
      </trkpt>
      <trkpt lat="45.97196" lon="4.79925">
        <ele>211</ele>
        <time>2017-05-26T08:38:21Z</time>
      </trkpt>
      <trkpt lat="45.97191" lon="4.79925">
        <ele>211</ele>
        <time>2017-05-26T08:38:22Z</time>
      </trkpt>
      <trkpt lat="45.97183" lon="4.79925">
        <ele>210</ele>
        <time>2017-05-26T08:38:24Z</time>
      </trkpt>
      <trkpt lat="45.97179" lon="4.79926">
        <ele>210</ele>
        <time>2017-05-26T08:38:25Z</time>
      </trkpt>
      <trkpt lat="45.97172" lon="4.79928">
        <ele>210</ele>
        <time>2017-05-26T08:38:27Z</time>
      </trkpt>
      <trkpt lat="45.97168" lon="4.79929">
        <ele>210</ele>
        <time>2017-05-26T08:38:28Z</time>
      </trkpt>
      <trkpt lat="45.97159" lon="4.79929">
        <ele>210</ele>
        <time>2017-05-26T08:38:30Z</time>
      </trkpt>
      <trkpt lat="45.97155" lon="4.79929">
        <ele>210</ele>
        <time>2017-05-26T08:38:31Z</time>
      </trkpt>
      <trkpt lat="45.9715" lon="4.79929">
        <ele>211</ele>
        <time>2017-05-26T08:38:32Z</time>
      </trkpt>
      <trkpt lat="45.97145" lon="4.79929">
        <ele>211</ele>
        <time>2017-05-26T08:38:33Z</time>
      </trkpt>
      <trkpt lat="45.9714" lon="4.7993">
        <ele>211</ele>
        <time>2017-05-26T08:38:34Z</time>
      </trkpt>
      <trkpt lat="45.97136" lon="4.79931">
        <ele>211</ele>
        <time>2017-05-26T08:38:35Z</time>
      </trkpt>
      <trkpt lat="45.97128" lon="4.79934">
        <ele>211</ele>
        <time>2017-05-26T08:38:37Z</time>
      </trkpt>
      <trkpt lat="45.97124" lon="4.79936">
        <ele>211</ele>
        <time>2017-05-26T08:38:38Z</time>
      </trkpt>
      <trkpt lat="45.97116" lon="4.7994">
        <ele>211</ele>
        <time>2017-05-26T08:38:40Z</time>
      </trkpt>
      <trkpt lat="45.97112" lon="4.79942">
        <ele>211</ele>
        <time>2017-05-26T08:38:41Z</time>
      </trkpt>
      <trkpt lat="45.97103" lon="4.79946">
        <ele>211</ele>
        <time>2017-05-26T08:38:43Z</time>
      </trkpt>
      <trkpt lat="45.97099" lon="4.79948">
        <ele>211</ele>
        <time>2017-05-26T08:38:44Z</time>
      </trkpt>
      <trkpt lat="45.97091" lon="4.79952">
        <ele>211</ele>
        <time>2017-05-26T08:38:46Z</time>
      </trkpt>
      <trkpt lat="45.97086" lon="4.79954">
        <ele>211</ele>
        <time>2017-05-26T08:38:47Z</time>
      </trkpt>
      <trkpt lat="45.97078" lon="4.79957">
        <ele>213</ele>
        <time>2017-05-26T08:38:49Z</time>
      </trkpt>
      <trkpt lat="45.97074" lon="4.79959">
        <ele>213</ele>
        <time>2017-05-26T08:38:50Z</time>
      </trkpt>
      <trkpt lat="45.97065" lon="4.7996">
        <ele>213</ele>
        <time>2017-05-26T08:38:52Z</time>
      </trkpt>
      <trkpt lat="45.9706" lon="4.7996">
        <ele>213</ele>
        <time>2017-05-26T08:38:53Z</time>
      </trkpt>
      <trkpt lat="45.97056" lon="4.7996">
        <ele>213</ele>
        <time>2017-05-26T08:38:54Z</time>
      </trkpt>
      <trkpt lat="45.97051" lon="4.7996">
        <ele>213</ele>
        <time>2017-05-26T08:38:55Z</time>
      </trkpt>
      <trkpt lat="45.97045" lon="4.79959">
        <ele>213</ele>
        <time>2017-05-26T08:38:56Z</time>
      </trkpt>
      <trkpt lat="45.9704" lon="4.79958">
        <ele>213</ele>
        <time>2017-05-26T08:38:57Z</time>
      </trkpt>
      <trkpt lat="45.97035" lon="4.79956">
        <ele>213</ele>
        <time>2017-05-26T08:38:58Z</time>
      </trkpt>
      <trkpt lat="45.97029" lon="4.79956">
        <ele>213</ele>
        <time>2017-05-26T08:38:59Z</time>
      </trkpt>
      <trkpt lat="45.97023" lon="4.79955">
        <ele>213</ele>
        <time>2017-05-26T08:39:00Z</time>
      </trkpt>
      <trkpt lat="45.97017" lon="4.79954">
        <ele>213</ele>
        <time>2017-05-26T08:39:01Z</time>
      </trkpt>
      <trkpt lat="45.97012" lon="4.79952">
        <ele>213</ele>
        <time>2017-05-26T08:39:02Z</time>
      </trkpt>
      <trkpt lat="45.97006" lon="4.79951">
        <ele>213</ele>
        <time>2017-05-26T08:39:03Z</time>
      </trkpt>
      <trkpt lat="45.97001" lon="4.79951">
        <ele>213</ele>
        <time>2017-05-26T08:39:04Z</time>
      </trkpt>
      <trkpt lat="45.96996" lon="4.79949">
        <ele>213</ele>
        <time>2017-05-26T08:39:05Z</time>
      </trkpt>
      <trkpt lat="45.9699" lon="4.79948">
        <ele>213</ele>
        <time>2017-05-26T08:39:06Z</time>
      </trkpt>
      <trkpt lat="45.96985" lon="4.79948">
        <ele>213</ele>
        <time>2017-05-26T08:39:07Z</time>
      </trkpt>
      <trkpt lat="45.9698" lon="4.79946">
        <ele>213</ele>
        <time>2017-05-26T08:39:08Z</time>
      </trkpt>
      <trkpt lat="45.96975" lon="4.79945">
        <ele>213</ele>
        <time>2017-05-26T08:39:09Z</time>
      </trkpt>
      <trkpt lat="45.9697" lon="4.79944">
        <ele>213</ele>
        <time>2017-05-26T08:39:10Z</time>
      </trkpt>
      <trkpt lat="45.96965" lon="4.79943">
        <ele>213</ele>
        <time>2017-05-26T08:39:11Z</time>
      </trkpt>
      <trkpt lat="45.9696" lon="4.79943">
        <ele>213</ele>
        <time>2017-05-26T08:39:12Z</time>
      </trkpt>
      <trkpt lat="45.96955" lon="4.79942">
        <ele>213</ele>
        <time>2017-05-26T08:39:13Z</time>
      </trkpt>
      <trkpt lat="45.96948" lon="4.79944">
        <ele>213</ele>
        <time>2017-05-26T08:39:15Z</time>
      </trkpt>
      <trkpt lat="45.96944" lon="4.79949">
        <ele>213</ele>
        <time>2017-05-26T08:39:16Z</time>
      </trkpt>
      <trkpt lat="45.96944" lon="4.79957">
        <ele>213</ele>
        <time>2017-05-26T08:39:17Z</time>
      </trkpt>
      <trkpt lat="45.96945" lon="4.79963">
        <ele>213</ele>
        <time>2017-05-26T08:39:18Z</time>
      </trkpt>
      <trkpt lat="45.9695" lon="4.79973">
        <ele>213</ele>
        <time>2017-05-26T08:39:20Z</time>
      </trkpt>
      <trkpt lat="45.96953" lon="4.79978">
        <ele>213</ele>
        <time>2017-05-26T08:39:21Z</time>
      </trkpt>
      <trkpt lat="45.96957" lon="4.79983">
        <ele>213</ele>
        <time>2017-05-26T08:39:22Z</time>
      </trkpt>
      <trkpt lat="45.9696" lon="4.79988">
        <ele>213</ele>
        <time>2017-05-26T08:39:23Z</time>
      </trkpt>
      <trkpt lat="45.96964" lon="4.79993">
        <ele>213</ele>
        <time>2017-05-26T08:39:24Z</time>
      </trkpt>
      <trkpt lat="45.96967" lon="4.79998">
        <ele>213</ele>
        <time>2017-05-26T08:39:25Z</time>
      </trkpt>
      <trkpt lat="45.96972" lon="4.80008">
        <ele>214</ele>
        <time>2017-05-26T08:39:27Z</time>
      </trkpt>
      <trkpt lat="45.96975" lon="4.80012">
        <ele>214</ele>
        <time>2017-05-26T08:39:28Z</time>
      </trkpt>
      <trkpt lat="45.9698" lon="4.80021">
        <ele>214</ele>
        <time>2017-05-26T08:39:30Z</time>
      </trkpt>
      <trkpt lat="45.96983" lon="4.80024">
        <ele>214</ele>
        <time>2017-05-26T08:39:31Z</time>
      </trkpt>
      <trkpt lat="45.96989" lon="4.80031">
        <ele>214</ele>
        <time>2017-05-26T08:39:33Z</time>
      </trkpt>
      <trkpt lat="45.96992" lon="4.80035">
        <ele>214</ele>
        <time>2017-05-26T08:39:34Z</time>
      </trkpt>
      <trkpt lat="45.97" lon="4.80041">
        <ele>214</ele>
        <time>2017-05-26T08:39:36Z</time>
      </trkpt>
      <trkpt lat="45.97004" lon="4.80043">
        <ele>214</ele>
        <time>2017-05-26T08:39:37Z</time>
      </trkpt>
      <trkpt lat="45.97008" lon="4.80045">
        <ele>214</ele>
        <time>2017-05-26T08:39:38Z</time>
      </trkpt>
      <trkpt lat="45.97012" lon="4.80048">
        <ele>214</ele>
        <time>2017-05-26T08:39:39Z</time>
      </trkpt>
      <trkpt lat="45.97017" lon="4.80057">
        <ele>214</ele>
        <time>2017-05-26T08:39:41Z</time>
      </trkpt>
      <trkpt lat="45.97018" lon="4.80062">
        <ele>215</ele>
        <time>2017-05-26T08:39:42Z</time>
      </trkpt>
      <trkpt lat="45.97018" lon="4.80071">
        <ele>215</ele>
        <time>2017-05-26T08:39:44Z</time>
      </trkpt>
      <trkpt lat="45.97019" lon="4.80076">
        <ele>215</ele>
        <time>2017-05-26T08:39:45Z</time>
      </trkpt>
      <trkpt lat="45.97024" lon="4.80084">
        <ele>216</ele>
        <time>2017-05-26T08:39:47Z</time>
      </trkpt>
      <trkpt lat="45.97027" lon="4.80088">
        <ele>216</ele>
        <time>2017-05-26T08:39:48Z</time>
      </trkpt>
      <trkpt lat="45.97033" lon="4.80097">
        <ele>216</ele>
        <time>2017-05-26T08:39:50Z</time>
      </trkpt>
      <trkpt lat="45.97036" lon="4.80101">
        <ele>216</ele>
        <time>2017-05-26T08:39:51Z</time>
      </trkpt>
      <trkpt lat="45.97041" lon="4.80109">
        <ele>217</ele>
        <time>2017-05-26T08:39:53Z</time>
      </trkpt>
      <trkpt lat="45.97044" lon="4.80112">
        <ele>217</ele>
        <time>2017-05-26T08:39:54Z</time>
      </trkpt>
      <trkpt lat="45.9705" lon="4.8012">
        <ele>217</ele>
        <time>2017-05-26T08:39:56Z</time>
      </trkpt>
      <trkpt lat="45.97053" lon="4.80124">
        <ele>217</ele>
        <time>2017-05-26T08:39:57Z</time>
      </trkpt>
      <trkpt lat="45.97058" lon="4.8013">
        <ele>217</ele>
        <time>2017-05-26T08:39:59Z</time>
      </trkpt>
      <trkpt lat="45.97061" lon="4.80134">
        <ele>217</ele>
        <time>2017-05-26T08:40:00Z</time>
      </trkpt>
      <trkpt lat="45.97065" lon="4.8014">
        <ele>218</ele>
        <time>2017-05-26T08:40:02Z</time>
      </trkpt>
      <trkpt lat="45.97068" lon="4.80143">
        <ele>218</ele>
        <time>2017-05-26T08:40:03Z</time>
      </trkpt>
      <trkpt lat="45.97073" lon="4.8015">
        <ele>218</ele>
        <time>2017-05-26T08:40:05Z</time>
      </trkpt>
      <trkpt lat="45.97076" lon="4.80154">
        <ele>219</ele>
        <time>2017-05-26T08:40:06Z</time>
      </trkpt>
      <trkpt lat="45.97082" lon="4.80163">
        <ele>220</ele>
        <time>2017-05-26T08:40:08Z</time>
      </trkpt>
      <trkpt lat="45.97085" lon="4.80167">
        <ele>220</ele>
        <time>2017-05-26T08:40:09Z</time>
      </trkpt>
      <trkpt lat="45.97091" lon="4.80177">
        <ele>220</ele>
        <time>2017-05-26T08:40:11Z</time>
      </trkpt>
      <trkpt lat="45.97094" lon="4.8018">
        <ele>220</ele>
        <time>2017-05-26T08:40:12Z</time>
      </trkpt>
      <trkpt lat="45.97099" lon="4.80188">
        <ele>220</ele>
        <time>2017-05-26T08:40:14Z</time>
      </trkpt>
      <trkpt lat="45.97101" lon="4.80192">
        <ele>220</ele>
        <time>2017-05-26T08:40:15Z</time>
      </trkpt>
      <trkpt lat="45.97105" lon="4.80197">
        <ele>220</ele>
        <time>2017-05-26T08:40:16Z</time>
      </trkpt>
      <trkpt lat="45.97108" lon="4.80202">
        <ele>220</ele>
        <time>2017-05-26T08:40:17Z</time>
      </trkpt>
      <trkpt lat="45.97112" lon="4.80207">
        <ele>220</ele>
        <time>2017-05-26T08:40:18Z</time>
      </trkpt>
      <trkpt lat="45.97115" lon="4.80212">
        <ele>220</ele>
        <time>2017-05-26T08:40:19Z</time>
      </trkpt>
      <trkpt lat="45.97117" lon="4.80217">
        <ele>221</ele>
        <time>2017-05-26T08:40:20Z</time>
      </trkpt>
      <trkpt lat="45.9712" lon="4.80223">
        <ele>221</ele>
        <time>2017-05-26T08:40:21Z</time>
      </trkpt>
      <trkpt lat="45.97125" lon="4.80233">
        <ele>221</ele>
        <time>2017-05-26T08:40:23Z</time>
      </trkpt>
      <trkpt lat="45.97126" lon="4.80239">
        <ele>221</ele>
        <time>2017-05-26T08:40:24Z</time>
      </trkpt>
      <trkpt lat="45.97131" lon="4.80248">
        <ele>221</ele>
        <time>2017-05-26T08:40:26Z</time>
      </trkpt>
      <trkpt lat="45.97133" lon="4.80253">
        <ele>224</ele>
        <time>2017-05-26T08:40:27Z</time>
      </trkpt>
      <trkpt lat="45.97136" lon="4.80261">
        <ele>224</ele>
        <time>2017-05-26T08:40:29Z</time>
      </trkpt>
      <trkpt lat="45.97138" lon="4.80265">
        <ele>224</ele>
        <time>2017-05-26T08:40:30Z</time>
      </trkpt>
      <trkpt lat="45.97141" lon="4.80273">
        <ele>224</ele>
        <time>2017-05-26T08:40:32Z</time>
      </trkpt>
      <trkpt lat="45.97142" lon="4.80277">
        <ele>224</ele>
        <time>2017-05-26T08:40:33Z</time>
      </trkpt>
      <trkpt lat="45.97145" lon="4.80287">
        <ele>224</ele>
        <time>2017-05-26T08:40:36Z</time>
      </trkpt>
      <trkpt lat="45.97146" lon="4.80289">
        <ele>224</ele>
        <time>2017-05-26T08:40:37Z</time>
      </trkpt>
      <trkpt lat="45.9715" lon="4.803">
        <ele>224</ele>
        <time>2017-05-26T08:40:40Z</time>
      </trkpt>
      <trkpt lat="45.97152" lon="4.80304">
        <ele>224</ele>
        <time>2017-05-26T08:40:41Z</time>
      </trkpt>
      <trkpt lat="45.97156" lon="4.80313">
        <ele>224</ele>
        <time>2017-05-26T08:40:43Z</time>
      </trkpt>
      <trkpt lat="45.97158" lon="4.80317">
        <ele>224</ele>
        <time>2017-05-26T08:40:44Z</time>
      </trkpt>
      <trkpt lat="45.97161" lon="4.80326">
        <ele>224</ele>
        <time>2017-05-26T08:40:46Z</time>
      </trkpt>
      <trkpt lat="45.97165" lon="4.80332">
        <ele>223</ele>
        <time>2017-05-26T08:40:47Z</time>
      </trkpt>
      <trkpt lat="45.97168" lon="4.80338">
        <ele>223</ele>
        <time>2017-05-26T08:40:48Z</time>
      </trkpt>
      <trkpt lat="45.9717" lon="4.80344">
        <ele>222</ele>
        <time>2017-05-26T08:40:49Z</time>
      </trkpt>
      <trkpt lat="45.97175" lon="4.80354">
        <ele>222</ele>
        <time>2017-05-26T08:40:51Z</time>
      </trkpt>
      <trkpt lat="45.97176" lon="4.8036">
        <ele>222</ele>
        <time>2017-05-26T08:40:52Z</time>
      </trkpt>
      <trkpt lat="45.97177" lon="4.80369">
        <ele>222</ele>
        <time>2017-05-26T08:40:54Z</time>
      </trkpt>
      <trkpt lat="45.97179" lon="4.80375">
        <ele>222</ele>
        <time>2017-05-26T08:40:55Z</time>
      </trkpt>
      <trkpt lat="45.97182" lon="4.80386">
        <ele>222</ele>
        <time>2017-05-26T08:40:57Z</time>
      </trkpt>
      <trkpt lat="45.97185" lon="4.80392">
        <ele>222</ele>
        <time>2017-05-26T08:40:58Z</time>
      </trkpt>
      <trkpt lat="45.97186" lon="4.80398">
        <ele>223</ele>
        <time>2017-05-26T08:40:59Z</time>
      </trkpt>
      <trkpt lat="45.97188" lon="4.80405">
        <ele>223</ele>
        <time>2017-05-26T08:41:00Z</time>
      </trkpt>
      <trkpt lat="45.97191" lon="4.80411">
        <ele>223</ele>
        <time>2017-05-26T08:41:01Z</time>
      </trkpt>
      <trkpt lat="45.97193" lon="4.80417">
        <ele>224</ele>
        <time>2017-05-26T08:41:02Z</time>
      </trkpt>
      <trkpt lat="45.97197" lon="4.80429">
        <ele>224</ele>
        <time>2017-05-26T08:41:04Z</time>
      </trkpt>
      <trkpt lat="45.97198" lon="4.80434">
        <ele>224</ele>
        <time>2017-05-26T08:41:05Z</time>
      </trkpt>
      <trkpt lat="45.97201" lon="4.80444">
        <ele>225</ele>
        <time>2017-05-26T08:41:07Z</time>
      </trkpt>
      <trkpt lat="45.97202" lon="4.80449">
        <ele>225</ele>
        <time>2017-05-26T08:41:08Z</time>
      </trkpt>
      <trkpt lat="45.97204" lon="4.80455">
        <ele>225</ele>
        <time>2017-05-26T08:41:09Z</time>
      </trkpt>
      <trkpt lat="45.97206" lon="4.80461">
        <ele>225</ele>
        <time>2017-05-26T08:41:10Z</time>
      </trkpt>
      <trkpt lat="45.97207" lon="4.80467">
        <ele>225</ele>
        <time>2017-05-26T08:41:11Z</time>
      </trkpt>
      <trkpt lat="45.97209" lon="4.80473">
        <ele>225</ele>
        <time>2017-05-26T08:41:12Z</time>
      </trkpt>
      <trkpt lat="45.9721" lon="4.8048">
        <ele>225</ele>
        <time>2017-05-26T08:41:13Z</time>
      </trkpt>
      <trkpt lat="45.97212" lon="4.80487">
        <ele>225</ele>
        <time>2017-05-26T08:41:14Z</time>
      </trkpt>
      <trkpt lat="45.97214" lon="4.80493">
        <ele>225</ele>
        <time>2017-05-26T08:41:15Z</time>
      </trkpt>
      <trkpt lat="45.97216" lon="4.80499">
        <ele>225</ele>
        <time>2017-05-26T08:41:16Z</time>
      </trkpt>
      <trkpt lat="45.97218" lon="4.80509">
        <ele>227</ele>
        <time>2017-05-26T08:41:18Z</time>
      </trkpt>
      <trkpt lat="45.97219" lon="4.80513">
        <ele>227</ele>
        <time>2017-05-26T08:41:19Z</time>
      </trkpt>
      <trkpt lat="45.97222" lon="4.80523">
        <ele>227</ele>
        <time>2017-05-26T08:41:21Z</time>
      </trkpt>
      <trkpt lat="45.97223" lon="4.80527">
        <ele>227</ele>
        <time>2017-05-26T08:41:22Z</time>
      </trkpt>
      <trkpt lat="45.97225" lon="4.80539">
        <ele>228</ele>
        <time>2017-05-26T08:41:24Z</time>
      </trkpt>
      <trkpt lat="45.97227" lon="4.80545">
        <ele>228</ele>
        <time>2017-05-26T08:41:25Z</time>
      </trkpt>
      <trkpt lat="45.97228" lon="4.80551">
        <ele>228</ele>
        <time>2017-05-26T08:41:26Z</time>
      </trkpt>
      <trkpt lat="45.97229" lon="4.80558">
        <ele>228</ele>
        <time>2017-05-26T08:41:27Z</time>
      </trkpt>
      <trkpt lat="45.97231" lon="4.80565">
        <ele>228</ele>
        <time>2017-05-26T08:41:28Z</time>
      </trkpt>
      <trkpt lat="45.97232" lon="4.80571">
        <ele>228</ele>
        <time>2017-05-26T08:41:29Z</time>
      </trkpt>
      <trkpt lat="45.97234" lon="4.80581">
        <ele>228</ele>
        <time>2017-05-26T08:41:31Z</time>
      </trkpt>
      <trkpt lat="45.97235" lon="4.80586">
        <ele>228</ele>
        <time>2017-05-26T08:41:32Z</time>
      </trkpt>
      <trkpt lat="45.97236" lon="4.80597">
        <ele>228</ele>
        <time>2017-05-26T08:41:34Z</time>
      </trkpt>
      <trkpt lat="45.97237" lon="4.80602">
        <ele>228</ele>
        <time>2017-05-26T08:41:35Z</time>
      </trkpt>
      <trkpt lat="45.97238" lon="4.80613">
        <ele>229</ele>
        <time>2017-05-26T08:41:37Z</time>
      </trkpt>
      <trkpt lat="45.97238" lon="4.80619">
        <ele>229</ele>
        <time>2017-05-26T08:41:38Z</time>
      </trkpt>
      <trkpt lat="45.97239" lon="4.80629">
        <ele>229</ele>
        <time>2017-05-26T08:41:40Z</time>
      </trkpt>
      <trkpt lat="45.9724" lon="4.80634">
        <ele>229</ele>
        <time>2017-05-26T08:41:41Z</time>
      </trkpt>
      <trkpt lat="45.97241" lon="4.80646">
        <ele>229</ele>
        <time>2017-05-26T08:41:43Z</time>
      </trkpt>
      <trkpt lat="45.97241" lon="4.80652">
        <ele>229</ele>
        <time>2017-05-26T08:41:44Z</time>
      </trkpt>
      <trkpt lat="45.97242" lon="4.80658">
        <ele>228</ele>
        <time>2017-05-26T08:41:45Z</time>
      </trkpt>
      <trkpt lat="45.97243" lon="4.80665">
        <ele>228</ele>
        <time>2017-05-26T08:41:46Z</time>
      </trkpt>
      <trkpt lat="45.97243" lon="4.80677">
        <ele>229</ele>
        <time>2017-05-26T08:41:48Z</time>
      </trkpt>
      <trkpt lat="45.97244" lon="4.80684">
        <ele>229</ele>
        <time>2017-05-26T08:41:49Z</time>
      </trkpt>
      <trkpt lat="45.97244" lon="4.80696">
        <ele>229</ele>
        <time>2017-05-26T08:41:51Z</time>
      </trkpt>
      <trkpt lat="45.97244" lon="4.80702">
        <ele>229</ele>
        <time>2017-05-26T08:41:52Z</time>
      </trkpt>
      <trkpt lat="45.97245" lon="4.80715">
        <ele>229</ele>
        <time>2017-05-26T08:41:54Z</time>
      </trkpt>
      <trkpt lat="45.97245" lon="4.80721">
        <ele>229</ele>
        <time>2017-05-26T08:41:55Z</time>
      </trkpt>
      <trkpt lat="45.97245" lon="4.80728">
        <ele>229</ele>
        <time>2017-05-26T08:41:56Z</time>
      </trkpt>
      <trkpt lat="45.97245" lon="4.80735">
        <ele>229</ele>
        <time>2017-05-26T08:41:57Z</time>
      </trkpt>
      <trkpt lat="45.97246" lon="4.80743">
        <ele>228</ele>
        <time>2017-05-26T08:41:58Z</time>
      </trkpt>
      <trkpt lat="45.97246" lon="4.80751">
        <ele>228</ele>
        <time>2017-05-26T08:41:59Z</time>
      </trkpt>
      <trkpt lat="45.97247" lon="4.80758">
        <ele>228</ele>
        <time>2017-05-26T08:42:00Z</time>
      </trkpt>
      <trkpt lat="45.97247" lon="4.80765">
        <ele>228</ele>
        <time>2017-05-26T08:42:01Z</time>
      </trkpt>
      <trkpt lat="45.97246" lon="4.80772">
        <ele>229</ele>
        <time>2017-05-26T08:42:02Z</time>
      </trkpt>
      <trkpt lat="45.97247" lon="4.80779">
        <ele>229</ele>
        <time>2017-05-26T08:42:03Z</time>
      </trkpt>
      <trkpt lat="45.97247" lon="4.80786">
        <ele>229</ele>
        <time>2017-05-26T08:42:04Z</time>
      </trkpt>
      <trkpt lat="45.97247" lon="4.80792">
        <ele>229</ele>
        <time>2017-05-26T08:42:05Z</time>
      </trkpt>
      <trkpt lat="45.97248" lon="4.80799">
        <ele>229</ele>
        <time>2017-05-26T08:42:06Z</time>
      </trkpt>
      <trkpt lat="45.97249" lon="4.80805">
        <ele>228</ele>
        <time>2017-05-26T08:42:07Z</time>
      </trkpt>
      <trkpt lat="45.97251" lon="4.80813">
        <ele>227</ele>
        <time>2017-05-26T08:42:08Z</time>
      </trkpt>
      <trkpt lat="45.97253" lon="4.8082">
        <ele>227</ele>
        <time>2017-05-26T08:42:09Z</time>
      </trkpt>
      <trkpt lat="45.97255" lon="4.80827">
        <ele>227</ele>
        <time>2017-05-26T08:42:10Z</time>
      </trkpt>
      <trkpt lat="45.97258" lon="4.80833">
        <ele>227</ele>
        <time>2017-05-26T08:42:11Z</time>
      </trkpt>
      <trkpt lat="45.97262" lon="4.80839">
        <ele>227</ele>
        <time>2017-05-26T08:42:12Z</time>
      </trkpt>
      <trkpt lat="45.97265" lon="4.80843">
        <ele>227</ele>
        <time>2017-05-26T08:42:13Z</time>
      </trkpt>
      <trkpt lat="45.97268" lon="4.80848">
        <ele>227</ele>
        <time>2017-05-26T08:42:14Z</time>
      </trkpt>
      <trkpt lat="45.97272" lon="4.80851">
        <ele>227</ele>
        <time>2017-05-26T08:42:15Z</time>
      </trkpt>
      <trkpt lat="45.97279" lon="4.80856">
        <ele>228</ele>
        <time>2017-05-26T08:42:17Z</time>
      </trkpt>
      <trkpt lat="45.97283" lon="4.80857">
        <ele>228</ele>
        <time>2017-05-26T08:42:18Z</time>
      </trkpt>
      <trkpt lat="45.97291" lon="4.80858">
        <ele>228</ele>
        <time>2017-05-26T08:42:20Z</time>
      </trkpt>
      <trkpt lat="45.97295" lon="4.8086">
        <ele>228</ele>
        <time>2017-05-26T08:42:21Z</time>
      </trkpt>
      <trkpt lat="45.973" lon="4.80861">
        <ele>228</ele>
        <time>2017-05-26T08:42:22Z</time>
      </trkpt>
      <trkpt lat="45.97305" lon="4.80863">
        <ele>228</ele>
        <time>2017-05-26T08:42:23Z</time>
      </trkpt>
      <trkpt lat="45.97309" lon="4.80865">
        <ele>228</ele>
        <time>2017-05-26T08:42:24Z</time>
      </trkpt>
      <trkpt lat="45.97314" lon="4.80868">
        <ele>228</ele>
        <time>2017-05-26T08:42:25Z</time>
      </trkpt>
      <trkpt lat="45.97321" lon="4.80876">
        <ele>228</ele>
        <time>2017-05-26T08:42:27Z</time>
      </trkpt>
      <trkpt lat="45.97324" lon="4.80879">
        <ele>228</ele>
        <time>2017-05-26T08:42:28Z</time>
      </trkpt>
      <trkpt lat="45.97329" lon="4.80888">
        <ele>228</ele>
        <time>2017-05-26T08:42:30Z</time>
      </trkpt>
      <trkpt lat="45.97331" lon="4.80892">
        <ele>229</ele>
        <time>2017-05-26T08:42:31Z</time>
      </trkpt>
      <trkpt lat="45.97335" lon="4.80902">
        <ele>230</ele>
        <time>2017-05-26T08:42:33Z</time>
      </trkpt>
      <trkpt lat="45.97337" lon="4.80908">
        <ele>230</ele>
        <time>2017-05-26T08:42:34Z</time>
      </trkpt>
      <trkpt lat="45.97339" lon="4.80914">
        <ele>230</ele>
        <time>2017-05-26T08:42:35Z</time>
      </trkpt>
      <trkpt lat="45.97341" lon="4.8092">
        <ele>230</ele>
        <time>2017-05-26T08:42:36Z</time>
      </trkpt>
      <trkpt lat="45.97342" lon="4.80927">
        <ele>231</ele>
        <time>2017-05-26T08:42:37Z</time>
      </trkpt>
      <trkpt lat="45.97344" lon="4.80933">
        <ele>231</ele>
        <time>2017-05-26T08:42:38Z</time>
      </trkpt>
      <trkpt lat="45.97345" lon="4.80945">
        <ele>231</ele>
        <time>2017-05-26T08:42:40Z</time>
      </trkpt>
      <trkpt lat="45.97346" lon="4.80951">
        <ele>231</ele>
        <time>2017-05-26T08:42:41Z</time>
      </trkpt>
      <trkpt lat="45.97347" lon="4.80954">
        <ele>231</ele>
        <time>2017-05-26T08:42:42Z</time>
      </trkpt>
      <trkpt lat="45.97348" lon="4.80956">
        <ele>231</ele>
        <time>2017-05-26T08:42:43Z</time>
      </trkpt>
      <trkpt lat="45.97348" lon="4.8096">
        <ele>231</ele>
        <time>2017-05-26T08:42:50Z</time>
      </trkpt>
      <trkpt lat="45.97349" lon="4.80962">
        <ele>231</ele>
        <time>2017-05-26T08:42:51Z</time>
      </trkpt>
      <trkpt lat="45.97351" lon="4.80973">
        <ele>232</ele>
        <time>2017-05-26T08:42:54Z</time>
      </trkpt>
      <trkpt lat="45.97352" lon="4.80978">
        <ele>232</ele>
        <time>2017-05-26T08:42:55Z</time>
      </trkpt>
      <trkpt lat="45.97354" lon="4.8099">
        <ele>232</ele>
        <time>2017-05-26T08:42:57Z</time>
      </trkpt>
      <trkpt lat="45.97355" lon="4.80997">
        <ele>232</ele>
        <time>2017-05-26T08:42:58Z</time>
      </trkpt>
      <trkpt lat="45.97357" lon="4.81003">
        <ele>233</ele>
        <time>2017-05-26T08:42:59Z</time>
      </trkpt>
      <trkpt lat="45.97358" lon="4.81009">
        <ele>233</ele>
        <time>2017-05-26T08:43:00Z</time>
      </trkpt>
      <trkpt lat="45.97359" lon="4.81016">
        <ele>233</ele>
        <time>2017-05-26T08:43:01Z</time>
      </trkpt>
      <trkpt lat="45.9736" lon="4.81022">
        <ele>233</ele>
        <time>2017-05-26T08:43:02Z</time>
      </trkpt>
      <trkpt lat="45.97361" lon="4.81029">
        <ele>233</ele>
        <time>2017-05-26T08:43:03Z</time>
      </trkpt>
      <trkpt lat="45.97363" lon="4.81036">
        <ele>233</ele>
        <time>2017-05-26T08:43:04Z</time>
      </trkpt>
      <trkpt lat="45.97364" lon="4.81042">
        <ele>233</ele>
        <time>2017-05-26T08:43:05Z</time>
      </trkpt>
      <trkpt lat="45.97365" lon="4.81049">
        <ele>233</ele>
        <time>2017-05-26T08:43:06Z</time>
      </trkpt>
      <trkpt lat="45.97367" lon="4.81056">
        <ele>233</ele>
        <time>2017-05-26T08:43:07Z</time>
      </trkpt>
      <trkpt lat="45.97369" lon="4.81062">
        <ele>233</ele>
        <time>2017-05-26T08:43:08Z</time>
      </trkpt>
      <trkpt lat="45.97373" lon="4.81073">
        <ele>233</ele>
        <time>2017-05-26T08:43:10Z</time>
      </trkpt>
      <trkpt lat="45.97374" lon="4.81078">
        <ele>233</ele>
        <time>2017-05-26T08:43:11Z</time>
      </trkpt>
      <trkpt lat="45.97377" lon="4.81088">
        <ele>235</ele>
        <time>2017-05-26T08:43:13Z</time>
      </trkpt>
      <trkpt lat="45.97378" lon="4.81093">
        <ele>235</ele>
        <time>2017-05-26T08:43:14Z</time>
      </trkpt>
      <trkpt lat="45.97379" lon="4.81104">
        <ele>235</ele>
        <time>2017-05-26T08:43:16Z</time>
      </trkpt>
      <trkpt lat="45.9738" lon="4.8111">
        <ele>235</ele>
        <time>2017-05-26T08:43:17Z</time>
      </trkpt>
      <trkpt lat="45.97382" lon="4.81123">
        <ele>235</ele>
        <time>2017-05-26T08:43:19Z</time>
      </trkpt>
      <trkpt lat="45.97383" lon="4.81129">
        <ele>235</ele>
        <time>2017-05-26T08:43:20Z</time>
      </trkpt>
      <trkpt lat="45.97383" lon="4.81141">
        <ele>236</ele>
        <time>2017-05-26T08:43:22Z</time>
      </trkpt>
      <trkpt lat="45.97384" lon="4.81146">
        <ele>236</ele>
        <time>2017-05-26T08:43:23Z</time>
      </trkpt>
      <trkpt lat="45.97385" lon="4.81157">
        <ele>236</ele>
        <time>2017-05-26T08:43:25Z</time>
      </trkpt>
      <trkpt lat="45.97384" lon="4.81163">
        <ele>236</ele>
        <time>2017-05-26T08:43:26Z</time>
      </trkpt>
      <trkpt lat="45.97385" lon="4.81175">
        <ele>237</ele>
        <time>2017-05-26T08:43:28Z</time>
      </trkpt>
      <trkpt lat="45.97385" lon="4.81181">
        <ele>237</ele>
        <time>2017-05-26T08:43:29Z</time>
      </trkpt>
      <trkpt lat="45.97385" lon="4.81192">
        <ele>237</ele>
        <time>2017-05-26T08:43:31Z</time>
      </trkpt>
      <trkpt lat="45.97384" lon="4.81198">
        <ele>237</ele>
        <time>2017-05-26T08:43:32Z</time>
      </trkpt>
      <trkpt lat="45.97384" lon="4.81208">
        <ele>237</ele>
        <time>2017-05-26T08:43:34Z</time>
      </trkpt>
      <trkpt lat="45.97384" lon="4.81212">
        <ele>237</ele>
        <time>2017-05-26T08:43:35Z</time>
      </trkpt>
      <trkpt lat="45.97383" lon="4.81221">
        <ele>237</ele>
        <time>2017-05-26T08:43:37Z</time>
      </trkpt>
      <trkpt lat="45.97383" lon="4.81227">
        <ele>237</ele>
        <time>2017-05-26T08:43:38Z</time>
      </trkpt>
      <trkpt lat="45.97383" lon="4.81233">
        <ele>237</ele>
        <time>2017-05-26T08:43:39Z</time>
      </trkpt>
      <trkpt lat="45.97383" lon="4.8124">
        <ele>237</ele>
        <time>2017-05-26T08:43:40Z</time>
      </trkpt>
      <trkpt lat="45.97383" lon="4.81246">
        <ele>237</ele>
        <time>2017-05-26T08:43:41Z</time>
      </trkpt>
      <trkpt lat="45.97383" lon="4.81253">
        <ele>238</ele>
        <time>2017-05-26T08:43:42Z</time>
      </trkpt>
      <trkpt lat="45.97381" lon="4.81265">
        <ele>238</ele>
        <time>2017-05-26T08:43:44Z</time>
      </trkpt>
      <trkpt lat="45.9738" lon="4.81271">
        <ele>238</ele>
        <time>2017-05-26T08:43:45Z</time>
      </trkpt>
      <trkpt lat="45.9738" lon="4.81282">
        <ele>238</ele>
        <time>2017-05-26T08:43:47Z</time>
      </trkpt>
      <trkpt lat="45.97379" lon="4.81286">
        <ele>238</ele>
        <time>2017-05-26T08:43:48Z</time>
      </trkpt>
      <trkpt lat="45.97377" lon="4.81296">
        <ele>238</ele>
        <time>2017-05-26T08:43:50Z</time>
      </trkpt>
      <trkpt lat="45.97376" lon="4.81302">
        <ele>238</ele>
        <time>2017-05-26T08:43:51Z</time>
      </trkpt>
      <trkpt lat="45.97374" lon="4.81314">
        <ele>238</ele>
        <time>2017-05-26T08:43:53Z</time>
      </trkpt>
      <trkpt lat="45.97374" lon="4.81319">
        <ele>238</ele>
        <time>2017-05-26T08:43:54Z</time>
      </trkpt>
      <trkpt lat="45.97374" lon="4.81331">
        <ele>238</ele>
        <time>2017-05-26T08:43:56Z</time>
      </trkpt>
      <trkpt lat="45.97374" lon="4.81335">
        <ele>239</ele>
        <time>2017-05-26T08:43:57Z</time>
      </trkpt>
      <trkpt lat="45.97373" lon="4.81348">
        <ele>239</ele>
        <time>2017-05-26T08:44:00Z</time>
      </trkpt>
      <trkpt lat="45.97373" lon="4.81352">
        <ele>239</ele>
        <time>2017-05-26T08:44:01Z</time>
      </trkpt>
      <trkpt lat="45.97373" lon="4.81362">
        <ele>239</ele>
        <time>2017-05-26T08:44:04Z</time>
      </trkpt>
      <trkpt lat="45.97374" lon="4.81366">
        <ele>239</ele>
        <time>2017-05-26T08:44:05Z</time>
      </trkpt>
      <trkpt lat="45.97376" lon="4.81375">
        <ele>239</ele>
        <time>2017-05-26T08:44:07Z</time>
      </trkpt>
      <trkpt lat="45.97377" lon="4.8138">
        <ele>239</ele>
        <time>2017-05-26T08:44:08Z</time>
      </trkpt>
      <trkpt lat="45.97381" lon="4.81391">
        <ele>239</ele>
        <time>2017-05-26T08:44:10Z</time>
      </trkpt>
      <trkpt lat="45.97384" lon="4.81396">
        <ele>240</ele>
        <time>2017-05-26T08:44:11Z</time>
      </trkpt>
      <trkpt lat="45.97387" lon="4.81405">
        <ele>240</ele>
        <time>2017-05-26T08:44:13Z</time>
      </trkpt>
      <trkpt lat="45.97389" lon="4.81409">
        <ele>240</ele>
        <time>2017-05-26T08:44:14Z</time>
      </trkpt>
      <trkpt lat="45.97394" lon="4.81415">
        <ele>240</ele>
        <time>2017-05-26T08:44:16Z</time>
      </trkpt>
      <trkpt lat="45.97396" lon="4.81419">
        <ele>241</ele>
        <time>2017-05-26T08:44:17Z</time>
      </trkpt>
      <trkpt lat="45.974" lon="4.81427">
        <ele>241</ele>
        <time>2017-05-26T08:44:19Z</time>
      </trkpt>
      <trkpt lat="45.97402" lon="4.81431">
        <ele>241</ele>
        <time>2017-05-26T08:44:20Z</time>
      </trkpt>
      <trkpt lat="45.97407" lon="4.81438">
        <ele>241</ele>
        <time>2017-05-26T08:44:22Z</time>
      </trkpt>
      <trkpt lat="45.97409" lon="4.81441">
        <ele>241</ele>
        <time>2017-05-26T08:44:23Z</time>
      </trkpt>
      <trkpt lat="45.97414" lon="4.81446">
        <ele>241</ele>
        <time>2017-05-26T08:44:25Z</time>
      </trkpt>
      <trkpt lat="45.97416" lon="4.81449">
        <ele>241</ele>
        <time>2017-05-26T08:44:26Z</time>
      </trkpt>
      <trkpt lat="45.97422" lon="4.81458">
        <ele>243</ele>
        <time>2017-05-26T08:44:29Z</time>
      </trkpt>
      <trkpt lat="45.97424" lon="4.81462">
        <ele>243</ele>
        <time>2017-05-26T08:44:30Z</time>
      </trkpt>
      <trkpt lat="45.97427" lon="4.81474">
        <ele>243</ele>
        <time>2017-05-26T08:44:33Z</time>
      </trkpt>
      <trkpt lat="45.97428" lon="4.81477">
        <ele>243</ele>
        <time>2017-05-26T08:44:34Z</time>
      </trkpt>
      <trkpt lat="45.9743" lon="4.81489">
        <ele>243</ele>
        <time>2017-05-26T08:44:37Z</time>
      </trkpt>
      <trkpt lat="45.9743" lon="4.81493">
        <ele>243</ele>
        <time>2017-05-26T08:44:38Z</time>
      </trkpt>
      <trkpt lat="45.97431" lon="4.81502">
        <ele>244</ele>
        <time>2017-05-26T08:44:40Z</time>
      </trkpt>
      <trkpt lat="45.97432" lon="4.81507">
        <ele>244</ele>
        <time>2017-05-26T08:44:41Z</time>
      </trkpt>
      <trkpt lat="45.97432" lon="4.81514">
        <ele>244</ele>
        <time>2017-05-26T08:44:42Z</time>
      </trkpt>
      <trkpt lat="45.97431" lon="4.81521">
        <ele>245</ele>
        <time>2017-05-26T08:44:43Z</time>
      </trkpt>
      <trkpt lat="45.97431" lon="4.81528">
        <ele>245</ele>
        <time>2017-05-26T08:44:44Z</time>
      </trkpt>
      <trkpt lat="45.97431" lon="4.81535">
        <ele>245</ele>
        <time>2017-05-26T08:44:45Z</time>
      </trkpt>
      <trkpt lat="45.97433" lon="4.81546">
        <ele>246</ele>
        <time>2017-05-26T08:44:47Z</time>
      </trkpt>
      <trkpt lat="45.97432" lon="4.81552">
        <ele>246</ele>
        <time>2017-05-26T08:44:48Z</time>
      </trkpt>
      <trkpt lat="45.97433" lon="4.81561">
        <ele>246</ele>
        <time>2017-05-26T08:44:50Z</time>
      </trkpt>
      <trkpt lat="45.97433" lon="4.81565">
        <ele>246</ele>
        <time>2017-05-26T08:44:51Z</time>
      </trkpt>
      <trkpt lat="45.97432" lon="4.81573">
        <ele>246</ele>
        <time>2017-05-26T08:44:53Z</time>
      </trkpt>
      <trkpt lat="45.97432" lon="4.81578">
        <ele>246</ele>
        <time>2017-05-26T08:44:54Z</time>
      </trkpt>
      <trkpt lat="45.97434" lon="4.8159">
        <ele>247</ele>
        <time>2017-05-26T08:44:56Z</time>
      </trkpt>
      <trkpt lat="45.97434" lon="4.81596">
        <ele>247</ele>
        <time>2017-05-26T08:44:57Z</time>
      </trkpt>
      <trkpt lat="45.97434" lon="4.81608">
        <ele>248</ele>
        <time>2017-05-26T08:44:59Z</time>
      </trkpt>
      <trkpt lat="45.97434" lon="4.81613">
        <ele>248</ele>
        <time>2017-05-26T08:45:00Z</time>
      </trkpt>
      <trkpt lat="45.97433" lon="4.81623">
        <ele>248</ele>
        <time>2017-05-26T08:45:02Z</time>
      </trkpt>
      <trkpt lat="45.97433" lon="4.81627">
        <ele>248</ele>
        <time>2017-05-26T08:45:03Z</time>
      </trkpt>
      <trkpt lat="45.97432" lon="4.81639">
        <ele>248</ele>
        <time>2017-05-26T08:45:06Z</time>
      </trkpt>
      <trkpt lat="45.97433" lon="4.81643">
        <ele>248</ele>
        <time>2017-05-26T08:45:07Z</time>
      </trkpt>
      <trkpt lat="45.97434" lon="4.81652">
        <ele>248</ele>
        <time>2017-05-26T08:45:09Z</time>
      </trkpt>
      <trkpt lat="45.97434" lon="4.81656">
        <ele>248</ele>
        <time>2017-05-26T08:45:10Z</time>
      </trkpt>
      <trkpt lat="45.97434" lon="4.81666">
        <ele>248</ele>
        <time>2017-05-26T08:45:12Z</time>
      </trkpt>
      <trkpt lat="45.97434" lon="4.81672">
        <ele>249</ele>
        <time>2017-05-26T08:45:13Z</time>
      </trkpt>
      <trkpt lat="45.97433" lon="4.81683">
        <ele>249</ele>
        <time>2017-05-26T08:45:15Z</time>
      </trkpt>
      <trkpt lat="45.97433" lon="4.81688">
        <ele>249</ele>
        <time>2017-05-26T08:45:16Z</time>
      </trkpt>
      <trkpt lat="45.97433" lon="4.81699">
        <ele>250</ele>
        <time>2017-05-26T08:45:19Z</time>
      </trkpt>
      <trkpt lat="45.97433" lon="4.81703">
        <ele>250</ele>
        <time>2017-05-26T08:45:20Z</time>
      </trkpt>
      <trkpt lat="45.97433" lon="4.81711">
        <ele>250</ele>
        <time>2017-05-26T08:45:22Z</time>
      </trkpt>
      <trkpt lat="45.97433" lon="4.81716">
        <ele>250</ele>
        <time>2017-05-26T08:45:23Z</time>
      </trkpt>
      <trkpt lat="45.97432" lon="4.81726">
        <ele>250</ele>
        <time>2017-05-26T08:45:25Z</time>
      </trkpt>
      <trkpt lat="45.97432" lon="4.81732">
        <ele>250</ele>
        <time>2017-05-26T08:45:26Z</time>
      </trkpt>
      <trkpt lat="45.97431" lon="4.81743">
        <ele>250</ele>
        <time>2017-05-26T08:45:28Z</time>
      </trkpt>
      <trkpt lat="45.97431" lon="4.81747">
        <ele>250</ele>
        <time>2017-05-26T08:45:29Z</time>
      </trkpt>
      <trkpt lat="45.97432" lon="4.8176">
        <ele>251</ele>
        <time>2017-05-26T08:45:33Z</time>
      </trkpt>
      <trkpt lat="45.97432" lon="4.81763">
        <ele>251</ele>
        <time>2017-05-26T08:45:34Z</time>
      </trkpt>
      <trkpt lat="45.97433" lon="4.81772">
        <ele>251</ele>
        <time>2017-05-26T08:45:36Z</time>
      </trkpt>
      <trkpt lat="45.97433" lon="4.81776">
        <ele>251</ele>
        <time>2017-05-26T08:45:37Z</time>
      </trkpt>
      <trkpt lat="45.97432" lon="4.81785">
        <ele>251</ele>
        <time>2017-05-26T08:45:39Z</time>
      </trkpt>
      <trkpt lat="45.97431" lon="4.8179">
        <ele>252</ele>
        <time>2017-05-26T08:45:40Z</time>
      </trkpt>
      <trkpt lat="45.97431" lon="4.818">
        <ele>252</ele>
        <time>2017-05-26T08:45:42Z</time>
      </trkpt>
      <trkpt lat="45.97432" lon="4.81804">
        <ele>252</ele>
        <time>2017-05-26T08:45:43Z</time>
      </trkpt>
      <trkpt lat="45.97433" lon="4.81814">
        <ele>252</ele>
        <time>2017-05-26T08:45:46Z</time>
      </trkpt>
      <trkpt lat="45.97434" lon="4.81817">
        <ele>252</ele>
        <time>2017-05-26T08:45:47Z</time>
      </trkpt>
      <trkpt lat="45.97436" lon="4.81827">
        <ele>252</ele>
        <time>2017-05-26T08:45:50Z</time>
      </trkpt>
      <trkpt lat="45.97436" lon="4.81831">
        <ele>252</ele>
        <time>2017-05-26T08:45:51Z</time>
      </trkpt>
      <trkpt lat="45.97436" lon="4.8184">
        <ele>252</ele>
        <time>2017-05-26T08:45:53Z</time>
      </trkpt>
      <trkpt lat="45.97437" lon="4.81845">
        <ele>253</ele>
        <time>2017-05-26T08:45:54Z</time>
      </trkpt>
      <trkpt lat="45.97438" lon="4.81855">
        <ele>253</ele>
        <time>2017-05-26T08:45:56Z</time>
      </trkpt>
      <trkpt lat="45.9744" lon="4.8186">
        <ele>253</ele>
        <time>2017-05-26T08:45:57Z</time>
      </trkpt>
      <trkpt lat="45.97441" lon="4.81872">
        <ele>253</ele>
        <time>2017-05-26T08:45:59Z</time>
      </trkpt>
      <trkpt lat="45.97442" lon="4.81877">
        <ele>253</ele>
        <time>2017-05-26T08:46:00Z</time>
      </trkpt>
      <trkpt lat="45.97442" lon="4.81889">
        <ele>253</ele>
        <time>2017-05-26T08:46:03Z</time>
      </trkpt>
      <trkpt lat="45.97443" lon="4.81892">
        <ele>253</ele>
        <time>2017-05-26T08:46:04Z</time>
      </trkpt>
      <trkpt lat="45.97444" lon="4.81902">
        <ele>253</ele>
        <time>2017-05-26T08:46:07Z</time>
      </trkpt>
      <trkpt lat="45.97445" lon="4.81907">
        <ele>253</ele>
        <time>2017-05-26T08:46:08Z</time>
      </trkpt>
      <trkpt lat="45.97446" lon="4.81916">
        <ele>253</ele>
        <time>2017-05-26T08:46:10Z</time>
      </trkpt>
      <trkpt lat="45.97447" lon="4.81922">
        <ele>254</ele>
        <time>2017-05-26T08:46:11Z</time>
      </trkpt>
      <trkpt lat="45.97448" lon="4.81933">
        <ele>255</ele>
        <time>2017-05-26T08:46:13Z</time>
      </trkpt>
      <trkpt lat="45.97448" lon="4.81939">
        <ele>255</ele>
        <time>2017-05-26T08:46:14Z</time>
      </trkpt>
      <trkpt lat="45.97449" lon="4.81949">
        <ele>255</ele>
        <time>2017-05-26T08:46:16Z</time>
      </trkpt>
      <trkpt lat="45.97449" lon="4.81953">
        <ele>255</ele>
        <time>2017-05-26T08:46:17Z</time>
      </trkpt>
      <trkpt lat="45.9745" lon="4.81963">
        <ele>255</ele>
        <time>2017-05-26T08:46:20Z</time>
      </trkpt>
      <trkpt lat="45.97451" lon="4.81967">
        <ele>255</ele>
        <time>2017-05-26T08:46:21Z</time>
      </trkpt>
      <trkpt lat="45.97453" lon="4.81976">
        <ele>255</ele>
        <time>2017-05-26T08:46:23Z</time>
      </trkpt>
      <trkpt lat="45.97454" lon="4.81981">
        <ele>255</ele>
        <time>2017-05-26T08:46:24Z</time>
      </trkpt>
      <trkpt lat="45.97454" lon="4.81993">
        <ele>255</ele>
        <time>2017-05-26T08:46:28Z</time>
      </trkpt>
      <trkpt lat="45.97455" lon="4.81995">
        <ele>255</ele>
        <time>2017-05-26T08:46:29Z</time>
      </trkpt>
      <trkpt lat="45.97456" lon="4.82005">
        <ele>257</ele>
        <time>2017-05-26T08:46:32Z</time>
      </trkpt>
      <trkpt lat="45.97456" lon="4.82009">
        <ele>257</ele>
        <time>2017-05-26T08:46:33Z</time>
      </trkpt>
      <trkpt lat="45.97457" lon="4.8202">
        <ele>257</ele>
        <time>2017-05-26T08:46:36Z</time>
      </trkpt>
      <trkpt lat="45.97457" lon="4.82022">
        <ele>257</ele>
        <time>2017-05-26T08:46:37Z</time>
      </trkpt>
      <trkpt lat="45.97458" lon="4.82033">
        <ele>258</ele>
        <time>2017-05-26T08:46:40Z</time>
      </trkpt>
      <trkpt lat="45.97458" lon="4.82037">
        <ele>258</ele>
        <time>2017-05-26T08:46:41Z</time>
      </trkpt>
      <trkpt lat="45.9746" lon="4.82047">
        <ele>258</ele>
        <time>2017-05-26T08:46:43Z</time>
      </trkpt>
      <trkpt lat="45.9746" lon="4.82053">
        <ele>258</ele>
        <time>2017-05-26T08:46:44Z</time>
      </trkpt>
      <trkpt lat="45.9746" lon="4.82065">
        <ele>258</ele>
        <time>2017-05-26T08:46:46Z</time>
      </trkpt>
      <trkpt lat="45.9746" lon="4.82071">
        <ele>258</ele>
        <time>2017-05-26T08:46:47Z</time>
      </trkpt>
      <trkpt lat="45.97459" lon="4.82082">
        <ele>258</ele>
        <time>2017-05-26T08:46:49Z</time>
      </trkpt>
      <trkpt lat="45.97458" lon="4.82087">
        <ele>260</ele>
        <time>2017-05-26T08:46:50Z</time>
      </trkpt>
      <trkpt lat="45.97455" lon="4.82098">
        <ele>260</ele>
        <time>2017-05-26T08:46:53Z</time>
      </trkpt>
      <trkpt lat="45.97453" lon="4.82102">
        <ele>260</ele>
        <time>2017-05-26T08:46:54Z</time>
      </trkpt>
      <trkpt lat="45.9745" lon="4.82111">
        <ele>260</ele>
        <time>2017-05-26T08:46:56Z</time>
      </trkpt>
      <trkpt lat="45.97447" lon="4.82116">
        <ele>260</ele>
        <time>2017-05-26T08:46:57Z</time>
      </trkpt>
      <trkpt lat="45.97443" lon="4.82126">
        <ele>260</ele>
        <time>2017-05-26T08:46:59Z</time>
      </trkpt>
      <trkpt lat="45.9744" lon="4.82131">
        <ele>260</ele>
        <time>2017-05-26T08:47:00Z</time>
      </trkpt>
      <trkpt lat="45.97435" lon="4.82138">
        <ele>261</ele>
        <time>2017-05-26T08:47:02Z</time>
      </trkpt>
      <trkpt lat="45.97433" lon="4.8214">
        <ele>261</ele>
        <time>2017-05-26T08:47:03Z</time>
      </trkpt>
      <trkpt lat="45.97427" lon="4.82147">
        <ele>261</ele>
        <time>2017-05-26T08:47:06Z</time>
      </trkpt>
      <trkpt lat="45.97426" lon="4.8215">
        <ele>261</ele>
        <time>2017-05-26T08:47:07Z</time>
      </trkpt>
      <trkpt lat="45.97419" lon="4.82158">
        <ele>261</ele>
        <time>2017-05-26T08:47:10Z</time>
      </trkpt>
      <trkpt lat="45.97416" lon="4.82161">
        <ele>261</ele>
        <time>2017-05-26T08:47:11Z</time>
      </trkpt>
      <trkpt lat="45.9741" lon="4.82169">
        <ele>261</ele>
        <time>2017-05-26T08:47:13Z</time>
      </trkpt>
      <trkpt lat="45.97407" lon="4.82173">
        <ele>262</ele>
        <time>2017-05-26T08:47:14Z</time>
      </trkpt>
      <trkpt lat="45.97403" lon="4.82181">
        <ele>262</ele>
        <time>2017-05-26T08:47:16Z</time>
      </trkpt>
      <trkpt lat="45.97401" lon="4.82184">
        <ele>262</ele>
        <time>2017-05-26T08:47:17Z</time>
      </trkpt>
      <trkpt lat="45.97396" lon="4.82191">
        <ele>262</ele>
        <time>2017-05-26T08:47:20Z</time>
      </trkpt>
      <trkpt lat="45.97395" lon="4.82194">
        <ele>262</ele>
        <time>2017-05-26T08:47:21Z</time>
      </trkpt>
      <trkpt lat="45.97392" lon="4.82203">
        <ele>263</ele>
        <time>2017-05-26T08:47:23Z</time>
      </trkpt>
      <trkpt lat="45.9739" lon="4.82207">
        <ele>263</ele>
        <time>2017-05-26T08:47:24Z</time>
      </trkpt>
      <trkpt lat="45.97386" lon="4.82217">
        <ele>263</ele>
        <time>2017-05-26T08:47:26Z</time>
      </trkpt>
      <trkpt lat="45.97385" lon="4.82223">
        <ele>263</ele>
        <time>2017-05-26T08:47:27Z</time>
      </trkpt>
      <trkpt lat="45.97383" lon="4.82235">
        <ele>263</ele>
        <time>2017-05-26T08:47:29Z</time>
      </trkpt>
      <trkpt lat="45.97382" lon="4.82242">
        <ele>263</ele>
        <time>2017-05-26T08:47:30Z</time>
      </trkpt>
      <trkpt lat="45.9738" lon="4.82254">
        <ele>263</ele>
        <time>2017-05-26T08:47:32Z</time>
      </trkpt>
      <trkpt lat="45.9738" lon="4.82259">
        <ele>263</ele>
        <time>2017-05-26T08:47:33Z</time>
      </trkpt>
      <trkpt lat="45.9738" lon="4.82269">
        <ele>263</ele>
        <time>2017-05-26T08:47:35Z</time>
      </trkpt>
      <trkpt lat="45.9738" lon="4.82274">
        <ele>263</ele>
        <time>2017-05-26T08:47:36Z</time>
      </trkpt>
      <trkpt lat="45.97379" lon="4.82284">
        <ele>263</ele>
        <time>2017-05-26T08:47:38Z</time>
      </trkpt>
      <trkpt lat="45.97379" lon="4.82289">
        <ele>263</ele>
        <time>2017-05-26T08:47:39Z</time>
      </trkpt>
      <trkpt lat="45.97379" lon="4.82299">
        <ele>263</ele>
        <time>2017-05-26T08:47:41Z</time>
      </trkpt>
      <trkpt lat="45.97378" lon="4.82303">
        <ele>263</ele>
        <time>2017-05-26T08:47:42Z</time>
      </trkpt>
      <trkpt lat="45.97378" lon="4.82312">
        <ele>263</ele>
        <time>2017-05-26T08:47:44Z</time>
      </trkpt>
      <trkpt lat="45.97378" lon="4.82317">
        <ele>263</ele>
        <time>2017-05-26T08:47:45Z</time>
      </trkpt>
      <trkpt lat="45.97377" lon="4.82327">
        <ele>263</ele>
        <time>2017-05-26T08:47:47Z</time>
      </trkpt>
      <trkpt lat="45.97377" lon="4.82332">
        <ele>263</ele>
        <time>2017-05-26T08:47:48Z</time>
      </trkpt>
      <trkpt lat="45.97377" lon="4.82343">
        <ele>263</ele>
        <time>2017-05-26T08:47:50Z</time>
      </trkpt>
      <trkpt lat="45.97377" lon="4.82348">
        <ele>263</ele>
        <time>2017-05-26T08:47:51Z</time>
      </trkpt>
      <trkpt lat="45.97377" lon="4.82358">
        <ele>263</ele>
        <time>2017-05-26T08:47:53Z</time>
      </trkpt>
      <trkpt lat="45.97376" lon="4.82363">
        <ele>263</ele>
        <time>2017-05-26T08:47:54Z</time>
      </trkpt>
      <trkpt lat="45.97376" lon="4.82374">
        <ele>263</ele>
        <time>2017-05-26T08:47:56Z</time>
      </trkpt>
      <trkpt lat="45.97376" lon="4.82379">
        <ele>263</ele>
        <time>2017-05-26T08:47:57Z</time>
      </trkpt>
      <trkpt lat="45.97376" lon="4.82389">
        <ele>263</ele>
        <time>2017-05-26T08:47:59Z</time>
      </trkpt>
      <trkpt lat="45.97376" lon="4.82394">
        <ele>263</ele>
        <time>2017-05-26T08:48:00Z</time>
      </trkpt>
      <trkpt lat="45.97376" lon="4.82405">
        <ele>263</ele>
        <time>2017-05-26T08:48:02Z</time>
      </trkpt>
      <trkpt lat="45.97376" lon="4.82411">
        <ele>263</ele>
        <time>2017-05-26T08:48:03Z</time>
      </trkpt>
      <trkpt lat="45.97376" lon="4.82424">
        <ele>262</ele>
        <time>2017-05-26T08:48:05Z</time>
      </trkpt>
      <trkpt lat="45.97376" lon="4.82431">
        <ele>262</ele>
        <time>2017-05-26T08:48:06Z</time>
      </trkpt>
      <trkpt lat="45.97376" lon="4.82438">
        <ele>262</ele>
        <time>2017-05-26T08:48:07Z</time>
      </trkpt>
      <trkpt lat="45.97376" lon="4.82445">
        <ele>262</ele>
        <time>2017-05-26T08:48:08Z</time>
      </trkpt>
      <trkpt lat="45.97376" lon="4.82452">
        <ele>262</ele>
        <time>2017-05-26T08:48:09Z</time>
      </trkpt>
      <trkpt lat="45.97377" lon="4.82459">
        <ele>262</ele>
        <time>2017-05-26T08:48:10Z</time>
      </trkpt>
      <trkpt lat="45.97377" lon="4.82465">
        <ele>262</ele>
        <time>2017-05-26T08:48:11Z</time>
      </trkpt>
      <trkpt lat="45.97377" lon="4.82472">
        <ele>262</ele>
        <time>2017-05-26T08:48:12Z</time>
      </trkpt>
      <trkpt lat="45.97378" lon="4.82479">
        <ele>262</ele>
        <time>2017-05-26T08:48:13Z</time>
      </trkpt>
      <trkpt lat="45.97378" lon="4.82485">
        <ele>262</ele>
        <time>2017-05-26T08:48:14Z</time>
      </trkpt>
      <trkpt lat="45.97378" lon="4.82492">
        <ele>262</ele>
        <time>2017-05-26T08:48:15Z</time>
      </trkpt>
      <trkpt lat="45.97378" lon="4.82498">
        <ele>262</ele>
        <time>2017-05-26T08:48:16Z</time>
      </trkpt>
      <trkpt lat="45.97378" lon="4.82505">
        <ele>262</ele>
        <time>2017-05-26T08:48:17Z</time>
      </trkpt>
      <trkpt lat="45.97379" lon="4.82511">
        <ele>262</ele>
        <time>2017-05-26T08:48:18Z</time>
      </trkpt>
      <trkpt lat="45.9738" lon="4.82523">
        <ele>262</ele>
        <time>2017-05-26T08:48:20Z</time>
      </trkpt>
      <trkpt lat="45.97381" lon="4.82529">
        <ele>262</ele>
        <time>2017-05-26T08:48:21Z</time>
      </trkpt>
      <trkpt lat="45.97382" lon="4.8254">
        <ele>262</ele>
        <time>2017-05-26T08:48:23Z</time>
      </trkpt>
      <trkpt lat="45.97383" lon="4.82546">
        <ele>262</ele>
        <time>2017-05-26T08:48:24Z</time>
      </trkpt>
      <trkpt lat="45.97384" lon="4.82559">
        <ele>262</ele>
        <time>2017-05-26T08:48:26Z</time>
      </trkpt>
      <trkpt lat="45.97385" lon="4.82565">
        <ele>262</ele>
        <time>2017-05-26T08:48:27Z</time>
      </trkpt>
      <trkpt lat="45.97386" lon="4.82572">
        <ele>262</ele>
        <time>2017-05-26T08:48:28Z</time>
      </trkpt>
      <trkpt lat="45.97386" lon="4.82578">
        <ele>262</ele>
        <time>2017-05-26T08:48:29Z</time>
      </trkpt>
      <trkpt lat="45.97387" lon="4.82585">
        <ele>262</ele>
        <time>2017-05-26T08:48:30Z</time>
      </trkpt>
      <trkpt lat="45.97388" lon="4.82591">
        <ele>262</ele>
        <time>2017-05-26T08:48:31Z</time>
      </trkpt>
      <trkpt lat="45.9739" lon="4.82603">
        <ele>262</ele>
        <time>2017-05-26T08:48:33Z</time>
      </trkpt>
      <trkpt lat="45.97391" lon="4.82608">
        <ele>262</ele>
        <time>2017-05-26T08:48:34Z</time>
      </trkpt>
      <trkpt lat="45.97392" lon="4.82619">
        <ele>262</ele>
        <time>2017-05-26T08:48:36Z</time>
      </trkpt>
      <trkpt lat="45.97393" lon="4.82624">
        <ele>262</ele>
        <time>2017-05-26T08:48:37Z</time>
      </trkpt>
      <trkpt lat="45.97395" lon="4.82635">
        <ele>262</ele>
        <time>2017-05-26T08:48:39Z</time>
      </trkpt>
      <trkpt lat="45.97397" lon="4.8264">
        <ele>262</ele>
        <time>2017-05-26T08:48:40Z</time>
      </trkpt>
      <trkpt lat="45.97398" lon="4.82646">
        <ele>262</ele>
        <time>2017-05-26T08:48:41Z</time>
      </trkpt>
      <trkpt lat="45.97399" lon="4.82653">
        <ele>262</ele>
        <time>2017-05-26T08:48:42Z</time>
      </trkpt>
      <trkpt lat="45.974" lon="4.8266">
        <ele>262</ele>
        <time>2017-05-26T08:48:43Z</time>
      </trkpt>
      <trkpt lat="45.97401" lon="4.82668">
        <ele>263</ele>
        <time>2017-05-26T08:48:44Z</time>
      </trkpt>
      <trkpt lat="45.97402" lon="4.82676">
        <ele>263</ele>
        <time>2017-05-26T08:48:45Z</time>
      </trkpt>
      <trkpt lat="45.97403" lon="4.82683">
        <ele>263</ele>
        <time>2017-05-26T08:48:46Z</time>
      </trkpt>
      <trkpt lat="45.97404" lon="4.8269">
        <ele>263</ele>
        <time>2017-05-26T08:48:47Z</time>
      </trkpt>
      <trkpt lat="45.97405" lon="4.82697">
        <ele>262</ele>
        <time>2017-05-26T08:48:48Z</time>
      </trkpt>
      <trkpt lat="45.97406" lon="4.82703">
        <ele>262</ele>
        <time>2017-05-26T08:48:49Z</time>
      </trkpt>
      <trkpt lat="45.97407" lon="4.8271">
        <ele>262</ele>
        <time>2017-05-26T08:48:50Z</time>
      </trkpt>
      <trkpt lat="45.97409" lon="4.82721">
        <ele>263</ele>
        <time>2017-05-26T08:48:52Z</time>
      </trkpt>
      <trkpt lat="45.9741" lon="4.82726">
        <ele>263</ele>
        <time>2017-05-26T08:48:53Z</time>
      </trkpt>
      <trkpt lat="45.97412" lon="4.82737">
        <ele>263</ele>
        <time>2017-05-26T08:48:55Z</time>
      </trkpt>
      <trkpt lat="45.97413" lon="4.82743">
        <ele>263</ele>
        <time>2017-05-26T08:48:56Z</time>
      </trkpt>
      <trkpt lat="45.97414" lon="4.8275">
        <ele>263</ele>
        <time>2017-05-26T08:48:57Z</time>
      </trkpt>
      <trkpt lat="45.97416" lon="4.82757">
        <ele>263</ele>
        <time>2017-05-26T08:48:58Z</time>
      </trkpt>
      <trkpt lat="45.97417" lon="4.82765">
        <ele>264</ele>
        <time>2017-05-26T08:48:59Z</time>
      </trkpt>
      <trkpt lat="45.97419" lon="4.82772">
        <ele>264</ele>
        <time>2017-05-26T08:49:00Z</time>
      </trkpt>
      <trkpt lat="45.9742" lon="4.8278">
        <ele>265</ele>
        <time>2017-05-26T08:49:01Z</time>
      </trkpt>
      <trkpt lat="45.97421" lon="4.82788">
        <ele>265</ele>
        <time>2017-05-26T08:49:02Z</time>
      </trkpt>
      <trkpt lat="45.97422" lon="4.82795">
        <ele>265</ele>
        <time>2017-05-26T08:49:03Z</time>
      </trkpt>
      <trkpt lat="45.97423" lon="4.82802">
        <ele>265</ele>
        <time>2017-05-26T08:49:04Z</time>
      </trkpt>
      <trkpt lat="45.97425" lon="4.82813">
        <ele>265</ele>
        <time>2017-05-26T08:49:06Z</time>
      </trkpt>
      <trkpt lat="45.97426" lon="4.82818">
        <ele>266</ele>
        <time>2017-05-26T08:49:07Z</time>
      </trkpt>
      <trkpt lat="45.97427" lon="4.82827">
        <ele>266</ele>
        <time>2017-05-26T08:49:09Z</time>
      </trkpt>
      <trkpt lat="45.97428" lon="4.82832">
        <ele>266</ele>
        <time>2017-05-26T08:49:10Z</time>
      </trkpt>
      <trkpt lat="45.97429" lon="4.82844">
        <ele>267</ele>
        <time>2017-05-26T08:49:12Z</time>
      </trkpt>
      <trkpt lat="45.9743" lon="4.82851">
        <ele>267</ele>
        <time>2017-05-26T08:49:13Z</time>
      </trkpt>
      <trkpt lat="45.97431" lon="4.82858">
        <ele>267</ele>
        <time>2017-05-26T08:49:14Z</time>
      </trkpt>
      <trkpt lat="45.97433" lon="4.82865">
        <ele>267</ele>
        <time>2017-05-26T08:49:15Z</time>
      </trkpt>
      <trkpt lat="45.97434" lon="4.82873">
        <ele>267</ele>
        <time>2017-05-26T08:49:16Z</time>
      </trkpt>
      <trkpt lat="45.97435" lon="4.8288">
        <ele>267</ele>
        <time>2017-05-26T08:49:17Z</time>
      </trkpt>
      <trkpt lat="45.97435" lon="4.82887">
        <ele>267</ele>
        <time>2017-05-26T08:49:18Z</time>
      </trkpt>
      <trkpt lat="45.97436" lon="4.82893">
        <ele>267</ele>
        <time>2017-05-26T08:49:19Z</time>
      </trkpt>
      <trkpt lat="45.97437" lon="4.82903">
        <ele>267</ele>
        <time>2017-05-26T08:49:21Z</time>
      </trkpt>
      <trkpt lat="45.97438" lon="4.82908">
        <ele>267</ele>
        <time>2017-05-26T08:49:22Z</time>
      </trkpt>
      <trkpt lat="45.9744" lon="4.8292">
        <ele>268</ele>
        <time>2017-05-26T08:49:24Z</time>
      </trkpt>
      <trkpt lat="45.97441" lon="4.82926">
        <ele>268</ele>
        <time>2017-05-26T08:49:25Z</time>
      </trkpt>
      <trkpt lat="45.97442" lon="4.82933">
        <ele>268</ele>
        <time>2017-05-26T08:49:26Z</time>
      </trkpt>
      <trkpt lat="45.97443" lon="4.8294">
        <ele>269</ele>
        <time>2017-05-26T08:49:27Z</time>
      </trkpt>
      <trkpt lat="45.97444" lon="4.82947">
        <ele>269</ele>
        <time>2017-05-26T08:49:28Z</time>
      </trkpt>
      <trkpt lat="45.97445" lon="4.82954">
        <ele>269</ele>
        <time>2017-05-26T08:49:29Z</time>
      </trkpt>
      <trkpt lat="45.97448" lon="4.82966">
        <ele>269</ele>
        <time>2017-05-26T08:49:31Z</time>
      </trkpt>
      <trkpt lat="45.97449" lon="4.82972">
        <ele>269</ele>
        <time>2017-05-26T08:49:32Z</time>
      </trkpt>
      <trkpt lat="45.97451" lon="4.8298">
        <ele>269</ele>
        <time>2017-05-26T08:49:34Z</time>
      </trkpt>
      <trkpt lat="45.97452" lon="4.82984">
        <ele>269</ele>
        <time>2017-05-26T08:49:35Z</time>
      </trkpt>
      <trkpt lat="45.97456" lon="4.82992">
        <ele>269</ele>
        <time>2017-05-26T08:49:37Z</time>
      </trkpt>
      <trkpt lat="45.97458" lon="4.82997">
        <ele>269</ele>
        <time>2017-05-26T08:49:38Z</time>
      </trkpt>
      <trkpt lat="45.9746" lon="4.83009">
        <ele>270</ele>
        <time>2017-05-26T08:49:40Z</time>
      </trkpt>
      <trkpt lat="45.97462" lon="4.83015">
        <ele>270</ele>
        <time>2017-05-26T08:49:41Z</time>
      </trkpt>
      <trkpt lat="45.97464" lon="4.83022">
        <ele>270</ele>
        <time>2017-05-26T08:49:42Z</time>
      </trkpt>
      <trkpt lat="45.97466" lon="4.83029">
        <ele>271</ele>
        <time>2017-05-26T08:49:43Z</time>
      </trkpt>
      <trkpt lat="45.97468" lon="4.83036">
        <ele>271</ele>
        <time>2017-05-26T08:49:44Z</time>
      </trkpt>
      <trkpt lat="45.9747" lon="4.83043">
        <ele>271</ele>
        <time>2017-05-26T08:49:45Z</time>
      </trkpt>
      <trkpt lat="45.97472" lon="4.83054">
        <ele>271</ele>
        <time>2017-05-26T08:49:47Z</time>
      </trkpt>
      <trkpt lat="45.97474" lon="4.83059">
        <ele>271</ele>
        <time>2017-05-26T08:49:48Z</time>
      </trkpt>
      <trkpt lat="45.97476" lon="4.83068">
        <ele>271</ele>
        <time>2017-05-26T08:49:50Z</time>
      </trkpt>
      <trkpt lat="45.97477" lon="4.83072">
        <ele>271</ele>
        <time>2017-05-26T08:49:51Z</time>
      </trkpt>
      <trkpt lat="45.97479" lon="4.83079">
        <ele>271</ele>
        <time>2017-05-26T08:49:53Z</time>
      </trkpt>
      <trkpt lat="45.9748" lon="4.83084">
        <ele>272</ele>
        <time>2017-05-26T08:49:54Z</time>
      </trkpt>
      <trkpt lat="45.97483" lon="4.83094">
        <ele>272</ele>
        <time>2017-05-26T08:49:56Z</time>
      </trkpt>
      <trkpt lat="45.97484" lon="4.831">
        <ele>272</ele>
        <time>2017-05-26T08:49:57Z</time>
      </trkpt>
      <trkpt lat="45.97485" lon="4.83106">
        <ele>272</ele>
        <time>2017-05-26T08:49:58Z</time>
      </trkpt>
      <trkpt lat="45.97487" lon="4.83113">
        <ele>272</ele>
        <time>2017-05-26T08:49:59Z</time>
      </trkpt>
      <trkpt lat="45.97489" lon="4.83119">
        <ele>273</ele>
        <time>2017-05-26T08:50:00Z</time>
      </trkpt>
      <trkpt lat="45.9749" lon="4.83125">
        <ele>273</ele>
        <time>2017-05-26T08:50:01Z</time>
      </trkpt>
      <trkpt lat="45.97493" lon="4.83135">
        <ele>273</ele>
        <time>2017-05-26T08:50:03Z</time>
      </trkpt>
      <trkpt lat="45.97494" lon="4.83139">
        <ele>273</ele>
        <time>2017-05-26T08:50:04Z</time>
      </trkpt>
      <trkpt lat="45.97497" lon="4.8315">
        <ele>273</ele>
        <time>2017-05-26T08:50:07Z</time>
      </trkpt>
      <trkpt lat="45.97499" lon="4.83154">
        <ele>273</ele>
        <time>2017-05-26T08:50:08Z</time>
      </trkpt>
      <trkpt lat="45.97503" lon="4.83165">
        <ele>274</ele>
        <time>2017-05-26T08:50:10Z</time>
      </trkpt>
      <trkpt lat="45.97505" lon="4.83171">
        <ele>274</ele>
        <time>2017-05-26T08:50:11Z</time>
      </trkpt>
      <trkpt lat="45.97507" lon="4.83176">
        <ele>274</ele>
        <time>2017-05-26T08:50:12Z</time>
      </trkpt>
      <trkpt lat="45.9751" lon="4.83183">
        <ele>275</ele>
        <time>2017-05-26T08:50:13Z</time>
      </trkpt>
      <trkpt lat="45.97513" lon="4.83194">
        <ele>275</ele>
        <time>2017-05-26T08:50:15Z</time>
      </trkpt>
      <trkpt lat="45.97515" lon="4.83199">
        <ele>275</ele>
        <time>2017-05-26T08:50:16Z</time>
      </trkpt>
      <trkpt lat="45.97518" lon="4.83208">
        <ele>275</ele>
        <time>2017-05-26T08:50:18Z</time>
      </trkpt>
      <trkpt lat="45.97519" lon="4.83212">
        <ele>275</ele>
        <time>2017-05-26T08:50:19Z</time>
      </trkpt>
      <trkpt lat="45.97523" lon="4.8322">
        <ele>275</ele>
        <time>2017-05-26T08:50:21Z</time>
      </trkpt>
      <trkpt lat="45.97525" lon="4.83225">
        <ele>275</ele>
        <time>2017-05-26T08:50:22Z</time>
      </trkpt>
      <trkpt lat="45.97528" lon="4.83235">
        <ele>275</ele>
        <time>2017-05-26T08:50:24Z</time>
      </trkpt>
      <trkpt lat="45.97529" lon="4.83242">
        <ele>275</ele>
        <time>2017-05-26T08:50:25Z</time>
      </trkpt>
      <trkpt lat="45.97531" lon="4.83248">
        <ele>275</ele>
        <time>2017-05-26T08:50:26Z</time>
      </trkpt>
      <trkpt lat="45.97532" lon="4.83255">
        <ele>276</ele>
        <time>2017-05-26T08:50:27Z</time>
      </trkpt>
      <trkpt lat="45.97533" lon="4.83262">
        <ele>276</ele>
        <time>2017-05-26T08:50:28Z</time>
      </trkpt>
      <trkpt lat="45.97534" lon="4.83268">
        <ele>276</ele>
        <time>2017-05-26T08:50:29Z</time>
      </trkpt>
      <trkpt lat="45.97535" lon="4.8328">
        <ele>276</ele>
        <time>2017-05-26T08:50:31Z</time>
      </trkpt>
      <trkpt lat="45.97536" lon="4.83286">
        <ele>276</ele>
        <time>2017-05-26T08:50:32Z</time>
      </trkpt>
      <trkpt lat="45.97536" lon="4.83295">
        <ele>276</ele>
        <time>2017-05-26T08:50:34Z</time>
      </trkpt>
      <trkpt lat="45.97536" lon="4.83299">
        <ele>276</ele>
        <time>2017-05-26T08:50:35Z</time>
      </trkpt>
      <trkpt lat="45.97537" lon="4.83308">
        <ele>276</ele>
        <time>2017-05-26T08:50:37Z</time>
      </trkpt>
      <trkpt lat="45.97537" lon="4.83314">
        <ele>276</ele>
        <time>2017-05-26T08:50:38Z</time>
      </trkpt>
      <trkpt lat="45.97537" lon="4.83325">
        <ele>276</ele>
        <time>2017-05-26T08:50:40Z</time>
      </trkpt>
      <trkpt lat="45.97537" lon="4.83331">
        <ele>276</ele>
        <time>2017-05-26T08:50:41Z</time>
      </trkpt>
      <trkpt lat="45.97537" lon="4.83337">
        <ele>277</ele>
        <time>2017-05-26T08:50:42Z</time>
      </trkpt>
      <trkpt lat="45.97538" lon="4.83344">
        <ele>277</ele>
        <time>2017-05-26T08:50:43Z</time>
      </trkpt>
      <trkpt lat="45.97538" lon="4.8335">
        <ele>277</ele>
        <time>2017-05-26T08:50:44Z</time>
      </trkpt>
      <trkpt lat="45.97539" lon="4.83357">
        <ele>277</ele>
        <time>2017-05-26T08:50:45Z</time>
      </trkpt>
      <trkpt lat="45.97539" lon="4.83368">
        <ele>277</ele>
        <time>2017-05-26T08:50:47Z</time>
      </trkpt>
      <trkpt lat="45.97539" lon="4.83373">
        <ele>277</ele>
        <time>2017-05-26T08:50:48Z</time>
      </trkpt>
      <trkpt lat="45.97539" lon="4.83382">
        <ele>277</ele>
        <time>2017-05-26T08:50:50Z</time>
      </trkpt>
      <trkpt lat="45.97539" lon="4.83387">
        <ele>277</ele>
        <time>2017-05-26T08:50:51Z</time>
      </trkpt>
      <trkpt lat="45.97539" lon="4.83396">
        <ele>277</ele>
        <time>2017-05-26T08:50:53Z</time>
      </trkpt>
      <trkpt lat="45.97539" lon="4.83401">
        <ele>277</ele>
        <time>2017-05-26T08:50:54Z</time>
      </trkpt>
      <trkpt lat="45.9754" lon="4.8341">
        <ele>277</ele>
        <time>2017-05-26T08:50:56Z</time>
      </trkpt>
      <trkpt lat="45.9754" lon="4.83414">
        <ele>277</ele>
        <time>2017-05-26T08:50:57Z</time>
      </trkpt>
      <trkpt lat="45.9754" lon="4.83424">
        <ele>276</ele>
        <time>2017-05-26T08:50:59Z</time>
      </trkpt>
      <trkpt lat="45.9754" lon="4.8343">
        <ele>276</ele>
        <time>2017-05-26T08:51:00Z</time>
      </trkpt>
      <trkpt lat="45.9754" lon="4.83442">
        <ele>276</ele>
        <time>2017-05-26T08:51:02Z</time>
      </trkpt>
      <trkpt lat="45.9754" lon="4.83448">
        <ele>276</ele>
        <time>2017-05-26T08:51:03Z</time>
      </trkpt>
      <trkpt lat="45.9754" lon="4.83459">
        <ele>276</ele>
        <time>2017-05-26T08:51:05Z</time>
      </trkpt>
      <trkpt lat="45.9754" lon="4.83465">
        <ele>276</ele>
        <time>2017-05-26T08:51:06Z</time>
      </trkpt>
      <trkpt lat="45.97539" lon="4.83475">
        <ele>276</ele>
        <time>2017-05-26T08:51:08Z</time>
      </trkpt>
      <trkpt lat="45.97539" lon="4.8348">
        <ele>276</ele>
        <time>2017-05-26T08:51:09Z</time>
      </trkpt>
      <trkpt lat="45.97538" lon="4.83489">
        <ele>276</ele>
        <time>2017-05-26T08:51:11Z</time>
      </trkpt>
      <trkpt lat="45.97538" lon="4.83494">
        <ele>276</ele>
        <time>2017-05-26T08:51:12Z</time>
      </trkpt>
      <trkpt lat="45.97539" lon="4.83505">
        <ele>276</ele>
        <time>2017-05-26T08:51:15Z</time>
      </trkpt>
      <trkpt lat="45.9754" lon="4.83509">
        <ele>276</ele>
        <time>2017-05-26T08:51:16Z</time>
      </trkpt>
      <trkpt lat="45.97539" lon="4.83521">
        <ele>276</ele>
        <time>2017-05-26T08:51:19Z</time>
      </trkpt>
      <trkpt lat="45.97538" lon="4.83526">
        <ele>276</ele>
        <time>2017-05-26T08:51:20Z</time>
      </trkpt>
      <trkpt lat="45.97538" lon="4.83536">
        <ele>276</ele>
        <time>2017-05-26T08:51:22Z</time>
      </trkpt>
      <trkpt lat="45.97538" lon="4.83541">
        <ele>276</ele>
        <time>2017-05-26T08:51:23Z</time>
      </trkpt>
      <trkpt lat="45.97538" lon="4.83551">
        <ele>276</ele>
        <time>2017-05-26T08:51:25Z</time>
      </trkpt>
      <trkpt lat="45.97538" lon="4.83556">
        <ele>276</ele>
        <time>2017-05-26T08:51:26Z</time>
      </trkpt>
      <trkpt lat="45.97537" lon="4.83567">
        <ele>276</ele>
        <time>2017-05-26T08:51:28Z</time>
      </trkpt>
      <trkpt lat="45.97537" lon="4.83572">
        <ele>276</ele>
        <time>2017-05-26T08:51:29Z</time>
      </trkpt>
      <trkpt lat="45.97537" lon="4.83583">
        <ele>276</ele>
        <time>2017-05-26T08:51:31Z</time>
      </trkpt>
      <trkpt lat="45.97537" lon="4.83588">
        <ele>277</ele>
        <time>2017-05-26T08:51:32Z</time>
      </trkpt>
      <trkpt lat="45.97536" lon="4.83598">
        <ele>277</ele>
        <time>2017-05-26T08:51:34Z</time>
      </trkpt>
      <trkpt lat="45.97536" lon="4.83603">
        <ele>277</ele>
        <time>2017-05-26T08:51:35Z</time>
      </trkpt>
      <trkpt lat="45.97536" lon="4.83613">
        <ele>277</ele>
        <time>2017-05-26T08:51:37Z</time>
      </trkpt>
      <trkpt lat="45.97536" lon="4.83618">
        <ele>277</ele>
        <time>2017-05-26T08:51:38Z</time>
      </trkpt>
      <trkpt lat="45.97537" lon="4.83627">
        <ele>277</ele>
        <time>2017-05-26T08:51:40Z</time>
      </trkpt>
      <trkpt lat="45.97537" lon="4.83631">
        <ele>277</ele>
        <time>2017-05-26T08:51:41Z</time>
      </trkpt>
      <trkpt lat="45.97536" lon="4.83641">
        <ele>277</ele>
        <time>2017-05-26T08:51:43Z</time>
      </trkpt>
      <trkpt lat="45.97536" lon="4.83646">
        <ele>277</ele>
        <time>2017-05-26T08:51:44Z</time>
      </trkpt>
      <trkpt lat="45.97537" lon="4.83657">
        <ele>277</ele>
        <time>2017-05-26T08:51:46Z</time>
      </trkpt>
      <trkpt lat="45.97537" lon="4.83662">
        <ele>277</ele>
        <time>2017-05-26T08:51:47Z</time>
      </trkpt>
      <trkpt lat="45.97538" lon="4.83675">
        <ele>278</ele>
        <time>2017-05-26T08:51:49Z</time>
      </trkpt>
      <trkpt lat="45.97538" lon="4.83681">
        <ele>278</ele>
        <time>2017-05-26T08:51:50Z</time>
      </trkpt>
      <trkpt lat="45.97538" lon="4.83692">
        <ele>278</ele>
        <time>2017-05-26T08:51:52Z</time>
      </trkpt>
      <trkpt lat="45.97539" lon="4.83698">
        <ele>278</ele>
        <time>2017-05-26T08:51:53Z</time>
      </trkpt>
      <trkpt lat="45.9754" lon="4.8371">
        <ele>278</ele>
        <time>2017-05-26T08:51:55Z</time>
      </trkpt>
      <trkpt lat="45.9754" lon="4.83715">
        <ele>278</ele>
        <time>2017-05-26T08:51:56Z</time>
      </trkpt>
      <trkpt lat="45.97541" lon="4.83727">
        <ele>278</ele>
        <time>2017-05-26T08:51:58Z</time>
      </trkpt>
      <trkpt lat="45.97541" lon="4.83732">
        <ele>278</ele>
        <time>2017-05-26T08:51:59Z</time>
      </trkpt>
      <trkpt lat="45.97541" lon="4.83745">
        <ele>278</ele>
        <time>2017-05-26T08:52:01Z</time>
      </trkpt>
      <trkpt lat="45.97542" lon="4.83751">
        <ele>279</ele>
        <time>2017-05-26T08:52:02Z</time>
      </trkpt>
      <trkpt lat="45.97542" lon="4.83758">
        <ele>278</ele>
        <time>2017-05-26T08:52:03Z</time>
      </trkpt>
      <trkpt lat="45.97542" lon="4.83764">
        <ele>278</ele>
        <time>2017-05-26T08:52:04Z</time>
      </trkpt>
      <trkpt lat="45.97542" lon="4.83771">
        <ele>278</ele>
        <time>2017-05-26T08:52:05Z</time>
      </trkpt>
      <trkpt lat="45.97542" lon="4.83778">
        <ele>278</ele>
        <time>2017-05-26T08:52:06Z</time>
      </trkpt>
      <trkpt lat="45.97542" lon="4.83785">
        <ele>278</ele>
        <time>2017-05-26T08:52:07Z</time>
      </trkpt>
      <trkpt lat="45.97542" lon="4.83792">
        <ele>278</ele>
        <time>2017-05-26T08:52:08Z</time>
      </trkpt>
      <trkpt lat="45.97542" lon="4.83804">
        <ele>278</ele>
        <time>2017-05-26T08:52:10Z</time>
      </trkpt>
      <trkpt lat="45.97542" lon="4.83809">
        <ele>279</ele>
        <time>2017-05-26T08:52:11Z</time>
      </trkpt>
      <trkpt lat="45.97541" lon="4.83821">
        <ele>279</ele>
        <time>2017-05-26T08:52:13Z</time>
      </trkpt>
      <trkpt lat="45.9754" lon="4.83827">
        <ele>279</ele>
        <time>2017-05-26T08:52:14Z</time>
      </trkpt>
      <trkpt lat="45.97539" lon="4.83839">
        <ele>278</ele>
        <time>2017-05-26T08:52:16Z</time>
      </trkpt>
      <trkpt lat="45.97538" lon="4.83845">
        <ele>278</ele>
        <time>2017-05-26T08:52:17Z</time>
      </trkpt>
      <trkpt lat="45.97537" lon="4.83857">
        <ele>278</ele>
        <time>2017-05-26T08:52:19Z</time>
      </trkpt>
      <trkpt lat="45.97536" lon="4.83863">
        <ele>278</ele>
        <time>2017-05-26T08:52:20Z</time>
      </trkpt>
      <trkpt lat="45.97534" lon="4.83875">
        <ele>278</ele>
        <time>2017-05-26T08:52:22Z</time>
      </trkpt>
      <trkpt lat="45.97533" lon="4.83882">
        <ele>278</ele>
        <time>2017-05-26T08:52:23Z</time>
      </trkpt>
      <trkpt lat="45.97532" lon="4.83888">
        <ele>278</ele>
        <time>2017-05-26T08:52:24Z</time>
      </trkpt>
      <trkpt lat="45.9753" lon="4.83895">
        <ele>278</ele>
        <time>2017-05-26T08:52:25Z</time>
      </trkpt>
      <trkpt lat="45.97528" lon="4.83907">
        <ele>277</ele>
        <time>2017-05-26T08:52:27Z</time>
      </trkpt>
      <trkpt lat="45.97527" lon="4.83913">
        <ele>277</ele>
        <time>2017-05-26T08:52:28Z</time>
      </trkpt>
      <trkpt lat="45.97525" lon="4.83924">
        <ele>277</ele>
        <time>2017-05-26T08:52:30Z</time>
      </trkpt>
      <trkpt lat="45.97524" lon="4.8393">
        <ele>277</ele>
        <time>2017-05-26T08:52:31Z</time>
      </trkpt>
      <trkpt lat="45.97521" lon="4.83941">
        <ele>277</ele>
        <time>2017-05-26T08:52:33Z</time>
      </trkpt>
      <trkpt lat="45.97519" lon="4.83948">
        <ele>277</ele>
        <time>2017-05-26T08:52:34Z</time>
      </trkpt>
      <trkpt lat="45.97518" lon="4.83954">
        <ele>277</ele>
        <time>2017-05-26T08:52:35Z</time>
      </trkpt>
      <trkpt lat="45.97516" lon="4.83961">
        <ele>277</ele>
        <time>2017-05-26T08:52:36Z</time>
      </trkpt>
      <trkpt lat="45.97515" lon="4.83969">
        <ele>277</ele>
        <time>2017-05-26T08:52:37Z</time>
      </trkpt>
      <trkpt lat="45.97514" lon="4.83976">
        <ele>277</ele>
        <time>2017-05-26T08:52:38Z</time>
      </trkpt>
      <trkpt lat="45.97512" lon="4.83983">
        <ele>277</ele>
        <time>2017-05-26T08:52:39Z</time>
      </trkpt>
      <trkpt lat="45.9751" lon="4.83991">
        <ele>277</ele>
        <time>2017-05-26T08:52:40Z</time>
      </trkpt>
      <trkpt lat="45.97509" lon="4.83998">
        <ele>277</ele>
        <time>2017-05-26T08:52:41Z</time>
      </trkpt>
      <trkpt lat="45.97507" lon="4.84004">
        <ele>277</ele>
        <time>2017-05-26T08:52:42Z</time>
      </trkpt>
      <trkpt lat="45.97505" lon="4.84016">
        <ele>277</ele>
        <time>2017-05-26T08:52:44Z</time>
      </trkpt>
      <trkpt lat="45.97503" lon="4.84022">
        <ele>277</ele>
        <time>2017-05-26T08:52:45Z</time>
      </trkpt>
      <trkpt lat="45.97501" lon="4.84032">
        <ele>277</ele>
        <time>2017-05-26T08:52:47Z</time>
      </trkpt>
      <trkpt lat="45.975" lon="4.84037">
        <ele>277</ele>
        <time>2017-05-26T08:52:48Z</time>
      </trkpt>
      <trkpt lat="45.97498" lon="4.84048">
        <ele>278</ele>
        <time>2017-05-26T08:52:50Z</time>
      </trkpt>
      <trkpt lat="45.97498" lon="4.84053">
        <ele>278</ele>
        <time>2017-05-26T08:52:51Z</time>
      </trkpt>
      <trkpt lat="45.97496" lon="4.84064">
        <ele>278</ele>
        <time>2017-05-26T08:52:53Z</time>
      </trkpt>
      <trkpt lat="45.97494" lon="4.8407">
        <ele>278</ele>
        <time>2017-05-26T08:52:54Z</time>
      </trkpt>
      <trkpt lat="45.97492" lon="4.84081">
        <ele>278</ele>
        <time>2017-05-26T08:52:56Z</time>
      </trkpt>
      <trkpt lat="45.97491" lon="4.84087">
        <ele>278</ele>
        <time>2017-05-26T08:52:57Z</time>
      </trkpt>
      <trkpt lat="45.97489" lon="4.84099">
        <ele>279</ele>
        <time>2017-05-26T08:52:59Z</time>
      </trkpt>
      <trkpt lat="45.97488" lon="4.84105">
        <ele>279</ele>
        <time>2017-05-26T08:53:00Z</time>
      </trkpt>
      <trkpt lat="45.97485" lon="4.84117">
        <ele>279</ele>
        <time>2017-05-26T08:53:02Z</time>
      </trkpt>
      <trkpt lat="45.97484" lon="4.84123">
        <ele>279</ele>
        <time>2017-05-26T08:53:03Z</time>
      </trkpt>
      <trkpt lat="45.97482" lon="4.84134">
        <ele>279</ele>
        <time>2017-05-26T08:53:05Z</time>
      </trkpt>
      <trkpt lat="45.97481" lon="4.8414">
        <ele>279</ele>
        <time>2017-05-26T08:53:06Z</time>
      </trkpt>
      <trkpt lat="45.97479" lon="4.84152">
        <ele>279</ele>
        <time>2017-05-26T08:53:08Z</time>
      </trkpt>
      <trkpt lat="45.97478" lon="4.84157">
        <ele>279</ele>
        <time>2017-05-26T08:53:09Z</time>
      </trkpt>
      <trkpt lat="45.97476" lon="4.84167">
        <ele>279</ele>
        <time>2017-05-26T08:53:11Z</time>
      </trkpt>
      <trkpt lat="45.97475" lon="4.84172">
        <ele>279</ele>
        <time>2017-05-26T08:53:12Z</time>
      </trkpt>
      <trkpt lat="45.97474" lon="4.84185">
        <ele>279</ele>
        <time>2017-05-26T08:53:14Z</time>
      </trkpt>
      <trkpt lat="45.97473" lon="4.84192">
        <ele>279</ele>
        <time>2017-05-26T08:53:15Z</time>
      </trkpt>
      <trkpt lat="45.97472" lon="4.84199">
        <ele>279</ele>
        <time>2017-05-26T08:53:16Z</time>
      </trkpt>
      <trkpt lat="45.9747" lon="4.84207">
        <ele>279</ele>
        <time>2017-05-26T08:53:17Z</time>
      </trkpt>
      <trkpt lat="45.97469" lon="4.84215">
        <ele>279</ele>
        <time>2017-05-26T08:53:18Z</time>
      </trkpt>
      <trkpt lat="45.97468" lon="4.84223">
        <ele>279</ele>
        <time>2017-05-26T08:53:19Z</time>
      </trkpt>
      <trkpt lat="45.97467" lon="4.8423">
        <ele>279</ele>
        <time>2017-05-26T08:53:20Z</time>
      </trkpt>
      <trkpt lat="45.97466" lon="4.84238">
        <ele>279</ele>
        <time>2017-05-26T08:53:21Z</time>
      </trkpt>
      <trkpt lat="45.97465" lon="4.84245">
        <ele>279</ele>
        <time>2017-05-26T08:53:22Z</time>
      </trkpt>
      <trkpt lat="45.97464" lon="4.84252">
        <ele>278</ele>
        <time>2017-05-26T08:53:23Z</time>
      </trkpt>
      <trkpt lat="45.97463" lon="4.84259">
        <ele>278</ele>
        <time>2017-05-26T08:53:24Z</time>
      </trkpt>
      <trkpt lat="45.97463" lon="4.84265">
        <ele>278</ele>
        <time>2017-05-26T08:53:25Z</time>
      </trkpt>
      <trkpt lat="45.97462" lon="4.84278">
        <ele>278</ele>
        <time>2017-05-26T08:53:27Z</time>
      </trkpt>
      <trkpt lat="45.97461" lon="4.84284">
        <ele>278</ele>
        <time>2017-05-26T08:53:28Z</time>
      </trkpt>
      <trkpt lat="45.97459" lon="4.84296">
        <ele>278</ele>
        <time>2017-05-26T08:53:30Z</time>
      </trkpt>
      <trkpt lat="45.97458" lon="4.84302">
        <ele>278</ele>
        <time>2017-05-26T08:53:31Z</time>
      </trkpt>
      <trkpt lat="45.97457" lon="4.84314">
        <ele>278</ele>
        <time>2017-05-26T08:53:33Z</time>
      </trkpt>
      <trkpt lat="45.97456" lon="4.84321">
        <ele>278</ele>
        <time>2017-05-26T08:53:34Z</time>
      </trkpt>
      <trkpt lat="45.97455" lon="4.84328">
        <ele>278</ele>
        <time>2017-05-26T08:53:35Z</time>
      </trkpt>
      <trkpt lat="45.97455" lon="4.84334">
        <ele>277</ele>
        <time>2017-05-26T08:53:36Z</time>
      </trkpt>
      <trkpt lat="45.97454" lon="4.84341">
        <ele>277</ele>
        <time>2017-05-26T08:53:37Z</time>
      </trkpt>
      <trkpt lat="45.97453" lon="4.84348">
        <ele>277</ele>
        <time>2017-05-26T08:53:38Z</time>
      </trkpt>
      <trkpt lat="45.97453" lon="4.84355">
        <ele>277</ele>
        <time>2017-05-26T08:53:39Z</time>
      </trkpt>
      <trkpt lat="45.97452" lon="4.84361">
        <ele>278</ele>
        <time>2017-05-26T08:53:40Z</time>
      </trkpt>
      <trkpt lat="45.97451" lon="4.84374">
        <ele>278</ele>
        <time>2017-05-26T08:53:42Z</time>
      </trkpt>
      <trkpt lat="45.97451" lon="4.8438">
        <ele>278</ele>
        <time>2017-05-26T08:53:43Z</time>
      </trkpt>
      <trkpt lat="45.97449" lon="4.84393">
        <ele>278</ele>
        <time>2017-05-26T08:53:45Z</time>
      </trkpt>
      <trkpt lat="45.97448" lon="4.84399">
        <ele>278</ele>
        <time>2017-05-26T08:53:46Z</time>
      </trkpt>
      <trkpt lat="45.97447" lon="4.84406">
        <ele>278</ele>
        <time>2017-05-26T08:53:47Z</time>
      </trkpt>
      <trkpt lat="45.97447" lon="4.84412">
        <ele>278</ele>
        <time>2017-05-26T08:53:48Z</time>
      </trkpt>
      <trkpt lat="45.97446" lon="4.84419">
        <ele>278</ele>
        <time>2017-05-26T08:53:49Z</time>
      </trkpt>
      <trkpt lat="45.97445" lon="4.84426">
        <ele>278</ele>
        <time>2017-05-26T08:53:50Z</time>
      </trkpt>
      <trkpt lat="45.97445" lon="4.84433">
        <ele>278</ele>
        <time>2017-05-26T08:53:51Z</time>
      </trkpt>
      <trkpt lat="45.97444" lon="4.8444">
        <ele>278</ele>
        <time>2017-05-26T08:53:52Z</time>
      </trkpt>
      <trkpt lat="45.97443" lon="4.84447">
        <ele>278</ele>
        <time>2017-05-26T08:53:53Z</time>
      </trkpt>
      <trkpt lat="45.97442" lon="4.84453">
        <ele>278</ele>
        <time>2017-05-26T08:53:54Z</time>
      </trkpt>
      <trkpt lat="45.97441" lon="4.8446">
        <ele>277</ele>
        <time>2017-05-26T08:53:55Z</time>
      </trkpt>
      <trkpt lat="45.97441" lon="4.84466">
        <ele>277</ele>
        <time>2017-05-26T08:53:56Z</time>
      </trkpt>
      <trkpt lat="45.9744" lon="4.84472">
        <ele>277</ele>
        <time>2017-05-26T08:53:57Z</time>
      </trkpt>
      <trkpt lat="45.97439" lon="4.84479">
        <ele>277</ele>
        <time>2017-05-26T08:53:58Z</time>
      </trkpt>
      <trkpt lat="45.97438" lon="4.84486">
        <ele>277</ele>
        <time>2017-05-26T08:53:59Z</time>
      </trkpt>
      <trkpt lat="45.97437" lon="4.84492">
        <ele>277</ele>
        <time>2017-05-26T08:54:00Z</time>
      </trkpt>
      <trkpt lat="45.97436" lon="4.84505">
        <ele>277</ele>
        <time>2017-05-26T08:54:02Z</time>
      </trkpt>
      <trkpt lat="45.97435" lon="4.84511">
        <ele>277</ele>
        <time>2017-05-26T08:54:03Z</time>
      </trkpt>
      <trkpt lat="45.97433" lon="4.84523">
        <ele>277</ele>
        <time>2017-05-26T08:54:05Z</time>
      </trkpt>
      <trkpt lat="45.97432" lon="4.8453">
        <ele>277</ele>
        <time>2017-05-26T08:54:06Z</time>
      </trkpt>
      <trkpt lat="45.97432" lon="4.84536">
        <ele>277</ele>
        <time>2017-05-26T08:54:07Z</time>
      </trkpt>
      <trkpt lat="45.97431" lon="4.84543">
        <ele>277</ele>
        <time>2017-05-26T08:54:08Z</time>
      </trkpt>
      <trkpt lat="45.9743" lon="4.84551">
        <ele>277</ele>
        <time>2017-05-26T08:54:09Z</time>
      </trkpt>
      <trkpt lat="45.97429" lon="4.84558">
        <ele>277</ele>
        <time>2017-05-26T08:54:10Z</time>
      </trkpt>
      <trkpt lat="45.97428" lon="4.84566">
        <ele>277</ele>
        <time>2017-05-26T08:54:11Z</time>
      </trkpt>
      <trkpt lat="45.97426" lon="4.84573">
        <ele>277</ele>
        <time>2017-05-26T08:54:12Z</time>
      </trkpt>
      <trkpt lat="45.97425" lon="4.84581">
        <ele>277</ele>
        <time>2017-05-26T08:54:13Z</time>
      </trkpt>
      <trkpt lat="45.97424" lon="4.84588">
        <ele>277</ele>
        <time>2017-05-26T08:54:14Z</time>
      </trkpt>
      <trkpt lat="45.97423" lon="4.84595">
        <ele>277</ele>
        <time>2017-05-26T08:54:15Z</time>
      </trkpt>
      <trkpt lat="45.97422" lon="4.84601">
        <ele>277</ele>
        <time>2017-05-26T08:54:16Z</time>
      </trkpt>
      <trkpt lat="45.97421" lon="4.84608">
        <ele>276</ele>
        <time>2017-05-26T08:54:17Z</time>
      </trkpt>
      <trkpt lat="45.9742" lon="4.84614">
        <ele>276</ele>
        <time>2017-05-26T08:54:18Z</time>
      </trkpt>
      <trkpt lat="45.97419" lon="4.84621">
        <ele>276</ele>
        <time>2017-05-26T08:54:19Z</time>
      </trkpt>
      <trkpt lat="45.97418" lon="4.84629">
        <ele>276</ele>
        <time>2017-05-26T08:54:20Z</time>
      </trkpt>
      <trkpt lat="45.97416" lon="4.84636">
        <ele>278</ele>
        <time>2017-05-26T08:54:21Z</time>
      </trkpt>
      <trkpt lat="45.97414" lon="4.84643">
        <ele>278</ele>
        <time>2017-05-26T08:54:22Z</time>
      </trkpt>
      <trkpt lat="45.97413" lon="4.84651">
        <ele>277</ele>
        <time>2017-05-26T08:54:23Z</time>
      </trkpt>
      <trkpt lat="45.97411" lon="4.84658">
        <ele>277</ele>
        <time>2017-05-26T08:54:24Z</time>
      </trkpt>
      <trkpt lat="45.9741" lon="4.84665">
        <ele>277</ele>
        <time>2017-05-26T08:54:25Z</time>
      </trkpt>
      <trkpt lat="45.97408" lon="4.84672">
        <ele>277</ele>
        <time>2017-05-26T08:54:26Z</time>
      </trkpt>
      <trkpt lat="45.97406" lon="4.84678">
        <ele>277</ele>
        <time>2017-05-26T08:54:27Z</time>
      </trkpt>
      <trkpt lat="45.97404" lon="4.84684">
        <ele>278</ele>
        <time>2017-05-26T08:54:28Z</time>
      </trkpt>
      <trkpt lat="45.974" lon="4.84695">
        <ele>278</ele>
        <time>2017-05-26T08:54:30Z</time>
      </trkpt>
      <trkpt lat="45.97398" lon="4.84701">
        <ele>278</ele>
        <time>2017-05-26T08:54:31Z</time>
      </trkpt>
      <trkpt lat="45.97394" lon="4.84712">
        <ele>278</ele>
        <time>2017-05-26T08:54:33Z</time>
      </trkpt>
      <trkpt lat="45.97392" lon="4.84718">
        <ele>278</ele>
        <time>2017-05-26T08:54:34Z</time>
      </trkpt>
      <trkpt lat="45.9739" lon="4.84724">
        <ele>278</ele>
        <time>2017-05-26T08:54:35Z</time>
      </trkpt>
      <trkpt lat="45.97388" lon="4.8473">
        <ele>278</ele>
        <time>2017-05-26T08:54:36Z</time>
      </trkpt>
      <trkpt lat="45.97383" lon="4.84741">
        <ele>278</ele>
        <time>2017-05-26T08:54:38Z</time>
      </trkpt>
      <trkpt lat="45.97381" lon="4.84746">
        <ele>278</ele>
        <time>2017-05-26T08:54:39Z</time>
      </trkpt>
      <trkpt lat="45.97377" lon="4.84757">
        <ele>278</ele>
        <time>2017-05-26T08:54:41Z</time>
      </trkpt>
      <trkpt lat="45.97375" lon="4.84762">
        <ele>278</ele>
        <time>2017-05-26T08:54:42Z</time>
      </trkpt>
      <trkpt lat="45.97371" lon="4.84771">
        <ele>278</ele>
        <time>2017-05-26T08:54:44Z</time>
      </trkpt>
      <trkpt lat="45.97369" lon="4.84776">
        <ele>278</ele>
        <time>2017-05-26T08:54:45Z</time>
      </trkpt>
      <trkpt lat="45.97365" lon="4.84786">
        <ele>278</ele>
        <time>2017-05-26T08:54:47Z</time>
      </trkpt>
      <trkpt lat="45.97362" lon="4.84792">
        <ele>278</ele>
        <time>2017-05-26T08:54:48Z</time>
      </trkpt>
      <trkpt lat="45.97358" lon="4.84802">
        <ele>278</ele>
        <time>2017-05-26T08:54:50Z</time>
      </trkpt>
      <trkpt lat="45.97356" lon="4.84807">
        <ele>278</ele>
        <time>2017-05-26T08:54:51Z</time>
      </trkpt>
      <trkpt lat="45.97352" lon="4.84817">
        <ele>278</ele>
        <time>2017-05-26T08:54:53Z</time>
      </trkpt>
      <trkpt lat="45.97349" lon="4.84823">
        <ele>278</ele>
        <time>2017-05-26T08:54:54Z</time>
      </trkpt>
      <trkpt lat="45.97345" lon="4.84834">
        <ele>277</ele>
        <time>2017-05-26T08:54:56Z</time>
      </trkpt>
      <trkpt lat="45.97343" lon="4.84839">
        <ele>277</ele>
        <time>2017-05-26T08:54:57Z</time>
      </trkpt>
      <trkpt lat="45.9734" lon="4.84845">
        <ele>277</ele>
        <time>2017-05-26T08:54:58Z</time>
      </trkpt>
      <trkpt lat="45.97338" lon="4.8485">
        <ele>277</ele>
        <time>2017-05-26T08:54:59Z</time>
      </trkpt>
      <trkpt lat="45.97335" lon="4.84856">
        <ele>277</ele>
        <time>2017-05-26T08:55:00Z</time>
      </trkpt>
      <trkpt lat="45.97333" lon="4.84861">
        <ele>278</ele>
        <time>2017-05-26T08:55:01Z</time>
      </trkpt>
      <trkpt lat="45.9733" lon="4.84867">
        <ele>278</ele>
        <time>2017-05-26T08:55:02Z</time>
      </trkpt>
      <trkpt lat="45.97327" lon="4.84873">
        <ele>278</ele>
        <time>2017-05-26T08:55:03Z</time>
      </trkpt>
      <trkpt lat="45.97324" lon="4.84878">
        <ele>278</ele>
        <time>2017-05-26T08:55:04Z</time>
      </trkpt>
      <trkpt lat="45.97321" lon="4.84883">
        <ele>278</ele>
        <time>2017-05-26T08:55:05Z</time>
      </trkpt>
      <trkpt lat="45.97316" lon="4.84892">
        <ele>278</ele>
        <time>2017-05-26T08:55:07Z</time>
      </trkpt>
      <trkpt lat="45.97313" lon="4.84897">
        <ele>278</ele>
        <time>2017-05-26T08:55:08Z</time>
      </trkpt>
      <trkpt lat="45.9731" lon="4.84902">
        <ele>278</ele>
        <time>2017-05-26T08:55:09Z</time>
      </trkpt>
      <trkpt lat="45.97306" lon="4.84907">
        <ele>278</ele>
        <time>2017-05-26T08:55:10Z</time>
      </trkpt>
      <trkpt lat="45.97302" lon="4.84913">
        <ele>278</ele>
        <time>2017-05-26T08:55:11Z</time>
      </trkpt>
      <trkpt lat="45.97299" lon="4.84919">
        <ele>278</ele>
        <time>2017-05-26T08:55:12Z</time>
      </trkpt>
      <trkpt lat="45.97295" lon="4.84925">
        <ele>278</ele>
        <time>2017-05-26T08:55:13Z</time>
      </trkpt>
      <trkpt lat="45.97291" lon="4.84931">
        <ele>278</ele>
        <time>2017-05-26T08:55:14Z</time>
      </trkpt>
      <trkpt lat="45.97286" lon="4.84938">
        <ele>278</ele>
        <time>2017-05-26T08:55:15Z</time>
      </trkpt>
      <trkpt lat="45.97283" lon="4.84944">
        <ele>278</ele>
        <time>2017-05-26T08:55:16Z</time>
      </trkpt>
      <trkpt lat="45.97279" lon="4.8495">
        <ele>278</ele>
        <time>2017-05-26T08:55:17Z</time>
      </trkpt>
      <trkpt lat="45.97276" lon="4.84956">
        <ele>278</ele>
        <time>2017-05-26T08:55:18Z</time>
      </trkpt>
      <trkpt lat="45.97273" lon="4.84962">
        <ele>278</ele>
        <time>2017-05-26T08:55:19Z</time>
      </trkpt>
      <trkpt lat="45.9727" lon="4.84967">
        <ele>279</ele>
        <time>2017-05-26T08:55:20Z</time>
      </trkpt>
      <trkpt lat="45.97268" lon="4.84973">
        <ele>279</ele>
        <time>2017-05-26T08:55:21Z</time>
      </trkpt>
      <trkpt lat="45.97266" lon="4.84978">
        <ele>279</ele>
        <time>2017-05-26T08:55:22Z</time>
      </trkpt>
      <trkpt lat="45.97261" lon="4.84989">
        <ele>279</ele>
        <time>2017-05-26T08:55:24Z</time>
      </trkpt>
      <trkpt lat="45.97259" lon="4.84994">
        <ele>279</ele>
        <time>2017-05-26T08:55:25Z</time>
      </trkpt>
      <trkpt lat="45.97254" lon="4.85004">
        <ele>279</ele>
        <time>2017-05-26T08:55:27Z</time>
      </trkpt>
      <trkpt lat="45.97251" lon="4.85009">
        <ele>279</ele>
        <time>2017-05-26T08:55:28Z</time>
      </trkpt>
      <trkpt lat="45.97246" lon="4.85019">
        <ele>279</ele>
        <time>2017-05-26T08:55:30Z</time>
      </trkpt>
      <trkpt lat="45.97244" lon="4.85024">
        <ele>279</ele>
        <time>2017-05-26T08:55:31Z</time>
      </trkpt>
      <trkpt lat="45.97239" lon="4.85034">
        <ele>279</ele>
        <time>2017-05-26T08:55:33Z</time>
      </trkpt>
      <trkpt lat="45.97237" lon="4.85039">
        <ele>279</ele>
        <time>2017-05-26T08:55:34Z</time>
      </trkpt>
      <trkpt lat="45.97235" lon="4.85045">
        <ele>279</ele>
        <time>2017-05-26T08:55:35Z</time>
      </trkpt>
      <trkpt lat="45.97232" lon="4.85051">
        <ele>279</ele>
        <time>2017-05-26T08:55:36Z</time>
      </trkpt>
      <trkpt lat="45.97229" lon="4.85057">
        <ele>279</ele>
        <time>2017-05-26T08:55:37Z</time>
      </trkpt>
      <trkpt lat="45.97226" lon="4.85064">
        <ele>279</ele>
        <time>2017-05-26T08:55:38Z</time>
      </trkpt>
      <trkpt lat="45.97223" lon="4.8507">
        <ele>278</ele>
        <time>2017-05-26T08:55:39Z</time>
      </trkpt>
      <trkpt lat="45.9722" lon="4.85077">
        <ele>278</ele>
        <time>2017-05-26T08:55:40Z</time>
      </trkpt>
      <trkpt lat="45.97217" lon="4.85085">
        <ele>278</ele>
        <time>2017-05-26T08:55:41Z</time>
      </trkpt>
      <trkpt lat="45.97213" lon="4.85091">
        <ele>278</ele>
        <time>2017-05-26T08:55:42Z</time>
      </trkpt>
      <trkpt lat="45.9721" lon="4.85098">
        <ele>278</ele>
        <time>2017-05-26T08:55:43Z</time>
      </trkpt>
      <trkpt lat="45.97207" lon="4.85104">
        <ele>278</ele>
        <time>2017-05-26T08:55:44Z</time>
      </trkpt>
      <trkpt lat="45.97204" lon="4.8511">
        <ele>278</ele>
        <time>2017-05-26T08:55:45Z</time>
      </trkpt>
      <trkpt lat="45.97202" lon="4.85117">
        <ele>278</ele>
        <time>2017-05-26T08:55:46Z</time>
      </trkpt>
      <trkpt lat="45.97197" lon="4.85127">
        <ele>278</ele>
        <time>2017-05-26T08:55:48Z</time>
      </trkpt>
      <trkpt lat="45.97195" lon="4.85132">
        <ele>278</ele>
        <time>2017-05-26T08:55:49Z</time>
      </trkpt>
      <trkpt lat="45.9719" lon="4.85142">
        <ele>278</ele>
        <time>2017-05-26T08:55:51Z</time>
      </trkpt>
      <trkpt lat="45.97188" lon="4.85146">
        <ele>278</ele>
        <time>2017-05-26T08:55:52Z</time>
      </trkpt>
      <trkpt lat="45.97184" lon="4.85155">
        <ele>278</ele>
        <time>2017-05-26T08:55:54Z</time>
      </trkpt>
      <trkpt lat="45.97182" lon="4.85159">
        <ele>278</ele>
        <time>2017-05-26T08:55:55Z</time>
      </trkpt>
      <trkpt lat="45.97177" lon="4.85168">
        <ele>278</ele>
        <time>2017-05-26T08:55:57Z</time>
      </trkpt>
      <trkpt lat="45.97175" lon="4.85173">
        <ele>278</ele>
        <time>2017-05-26T08:55:58Z</time>
      </trkpt>
      <trkpt lat="45.97173" lon="4.85178">
        <ele>278</ele>
        <time>2017-05-26T08:55:59Z</time>
      </trkpt>
      <trkpt lat="45.9717" lon="4.85184">
        <ele>278</ele>
        <time>2017-05-26T08:56:00Z</time>
      </trkpt>
      <trkpt lat="45.97167" lon="4.85189">
        <ele>278</ele>
        <time>2017-05-26T08:56:01Z</time>
      </trkpt>
      <trkpt lat="45.97164" lon="4.85196">
        <ele>279</ele>
        <time>2017-05-26T08:56:02Z</time>
      </trkpt>
      <trkpt lat="45.97161" lon="4.85202">
        <ele>279</ele>
        <time>2017-05-26T08:56:03Z</time>
      </trkpt>
      <trkpt lat="45.97158" lon="4.85209">
        <ele>279</ele>
        <time>2017-05-26T08:56:04Z</time>
      </trkpt>
      <trkpt lat="45.97155" lon="4.85215">
        <ele>279</ele>
        <time>2017-05-26T08:56:05Z</time>
      </trkpt>
      <trkpt lat="45.97151" lon="4.85221">
        <ele>279</ele>
        <time>2017-05-26T08:56:06Z</time>
      </trkpt>
      <trkpt lat="45.97149" lon="4.85227">
        <ele>279</ele>
        <time>2017-05-26T08:56:07Z</time>
      </trkpt>
      <trkpt lat="45.97146" lon="4.85233">
        <ele>279</ele>
        <time>2017-05-26T08:56:08Z</time>
      </trkpt>
      <trkpt lat="45.97141" lon="4.85243">
        <ele>279</ele>
        <time>2017-05-26T08:56:10Z</time>
      </trkpt>
      <trkpt lat="45.97139" lon="4.85248">
        <ele>279</ele>
        <time>2017-05-26T08:56:11Z</time>
      </trkpt>
      <trkpt lat="45.97135" lon="4.85256">
        <ele>279</ele>
        <time>2017-05-26T08:56:13Z</time>
      </trkpt>
      <trkpt lat="45.97132" lon="4.8526">
        <ele>279</ele>
        <time>2017-05-26T08:56:14Z</time>
      </trkpt>
      <trkpt lat="45.97128" lon="4.85268">
        <ele>279</ele>
        <time>2017-05-26T08:56:16Z</time>
      </trkpt>
      <trkpt lat="45.97126" lon="4.85273">
        <ele>279</ele>
        <time>2017-05-26T08:56:17Z</time>
      </trkpt>
      <trkpt lat="45.97121" lon="4.85283">
        <ele>280</ele>
        <time>2017-05-26T08:56:19Z</time>
      </trkpt>
      <trkpt lat="45.97118" lon="4.85288">
        <ele>280</ele>
        <time>2017-05-26T08:56:20Z</time>
      </trkpt>
      <trkpt lat="45.97116" lon="4.85294">
        <ele>280</ele>
        <time>2017-05-26T08:56:21Z</time>
      </trkpt>
      <trkpt lat="45.97113" lon="4.85301">
        <ele>280</ele>
        <time>2017-05-26T08:56:22Z</time>
      </trkpt>
      <trkpt lat="45.9711" lon="4.85307">
        <ele>280</ele>
        <time>2017-05-26T08:56:23Z</time>
      </trkpt>
      <trkpt lat="45.97107" lon="4.85314">
        <ele>280</ele>
        <time>2017-05-26T08:56:24Z</time>
      </trkpt>
      <trkpt lat="45.97105" lon="4.85321">
        <ele>280</ele>
        <time>2017-05-26T08:56:25Z</time>
      </trkpt>
      <trkpt lat="45.97102" lon="4.85328">
        <ele>280</ele>
        <time>2017-05-26T08:56:26Z</time>
      </trkpt>
      <trkpt lat="45.97099" lon="4.85335">
        <ele>280</ele>
        <time>2017-05-26T08:56:27Z</time>
      </trkpt>
      <trkpt lat="45.97097" lon="4.85341">
        <ele>280</ele>
        <time>2017-05-26T08:56:28Z</time>
      </trkpt>
      <trkpt lat="45.97095" lon="4.85348">
        <ele>280</ele>
        <time>2017-05-26T08:56:29Z</time>
      </trkpt>
      <trkpt lat="45.97093" lon="4.85354">
        <ele>280</ele>
        <time>2017-05-26T08:56:30Z</time>
      </trkpt>
      <trkpt lat="45.9709" lon="4.85365">
        <ele>280</ele>
        <time>2017-05-26T08:56:32Z</time>
      </trkpt>
      <trkpt lat="45.97088" lon="4.8537">
        <ele>280</ele>
        <time>2017-05-26T08:56:33Z</time>
      </trkpt>
      <trkpt lat="45.97085" lon="4.8538">
        <ele>280</ele>
        <time>2017-05-26T08:56:35Z</time>
      </trkpt>
      <trkpt lat="45.97083" lon="4.85385">
        <ele>281</ele>
        <time>2017-05-26T08:56:36Z</time>
      </trkpt>
      <trkpt lat="45.9708" lon="4.85396">
        <ele>281</ele>
        <time>2017-05-26T08:56:38Z</time>
      </trkpt>
      <trkpt lat="45.97078" lon="4.85401">
        <ele>281</ele>
        <time>2017-05-26T08:56:39Z</time>
      </trkpt>
      <trkpt lat="45.97076" lon="4.8541">
        <ele>281</ele>
        <time>2017-05-26T08:56:41Z</time>
      </trkpt>
      <trkpt lat="45.97073" lon="4.85415">
        <ele>281</ele>
        <time>2017-05-26T08:56:42Z</time>
      </trkpt>
      <trkpt lat="45.97069" lon="4.85426">
        <ele>281</ele>
        <time>2017-05-26T08:56:44Z</time>
      </trkpt>
      <trkpt lat="45.97067" lon="4.85432">
        <ele>281</ele>
        <time>2017-05-26T08:56:45Z</time>
      </trkpt>
      <trkpt lat="45.97065" lon="4.85439">
        <ele>281</ele>
        <time>2017-05-26T08:56:46Z</time>
      </trkpt>
      <trkpt lat="45.97063" lon="4.85445">
        <ele>281</ele>
        <time>2017-05-26T08:56:47Z</time>
      </trkpt>
      <trkpt lat="45.97061" lon="4.85452">
        <ele>281</ele>
        <time>2017-05-26T08:56:48Z</time>
      </trkpt>
      <trkpt lat="45.97058" lon="4.85459">
        <ele>281</ele>
        <time>2017-05-26T08:56:49Z</time>
      </trkpt>
      <trkpt lat="45.97056" lon="4.85465">
        <ele>281</ele>
        <time>2017-05-26T08:56:50Z</time>
      </trkpt>
      <trkpt lat="45.97055" lon="4.85472">
        <ele>281</ele>
        <time>2017-05-26T08:56:51Z</time>
      </trkpt>
      <trkpt lat="45.97051" lon="4.85483">
        <ele>281</ele>
        <time>2017-05-26T08:56:53Z</time>
      </trkpt>
      <trkpt lat="45.97049" lon="4.85488">
        <ele>281</ele>
        <time>2017-05-26T08:56:54Z</time>
      </trkpt>
      <trkpt lat="45.97047" lon="4.85497">
        <ele>281</ele>
        <time>2017-05-26T08:56:56Z</time>
      </trkpt>
      <trkpt lat="45.97046" lon="4.85502">
        <ele>282</ele>
        <time>2017-05-26T08:56:57Z</time>
      </trkpt>
      <trkpt lat="45.97043" lon="4.85511">
        <ele>282</ele>
        <time>2017-05-26T08:56:59Z</time>
      </trkpt>
      <trkpt lat="45.97042" lon="4.85516">
        <ele>282</ele>
        <time>2017-05-26T08:57:00Z</time>
      </trkpt>
      <trkpt lat="45.97038" lon="4.85527">
        <ele>282</ele>
        <time>2017-05-26T08:57:02Z</time>
      </trkpt>
      <trkpt lat="45.97035" lon="4.85533">
        <ele>282</ele>
        <time>2017-05-26T08:57:03Z</time>
      </trkpt>
      <trkpt lat="45.97033" lon="4.85539">
        <ele>282</ele>
        <time>2017-05-26T08:57:04Z</time>
      </trkpt>
      <trkpt lat="45.97031" lon="4.85546">
        <ele>283</ele>
        <time>2017-05-26T08:57:05Z</time>
      </trkpt>
      <trkpt lat="45.97029" lon="4.85553">
        <ele>283</ele>
        <time>2017-05-26T08:57:06Z</time>
      </trkpt>
      <trkpt lat="45.97028" lon="4.8556">
        <ele>283</ele>
        <time>2017-05-26T08:57:07Z</time>
      </trkpt>
      <trkpt lat="45.97025" lon="4.85567">
        <ele>283</ele>
        <time>2017-05-26T08:57:08Z</time>
      </trkpt>
      <trkpt lat="45.97023" lon="4.85574">
        <ele>283</ele>
        <time>2017-05-26T08:57:09Z</time>
      </trkpt>
      <trkpt lat="45.97021" lon="4.85582">
        <ele>283</ele>
        <time>2017-05-26T08:57:10Z</time>
      </trkpt>
      <trkpt lat="45.97019" lon="4.85589">
        <ele>284</ele>
        <time>2017-05-26T08:57:11Z</time>
      </trkpt>
      <trkpt lat="45.97018" lon="4.85595">
        <ele>284</ele>
        <time>2017-05-26T08:57:12Z</time>
      </trkpt>
      <trkpt lat="45.97016" lon="4.85601">
        <ele>284</ele>
        <time>2017-05-26T08:57:13Z</time>
      </trkpt>
      <trkpt lat="45.97012" lon="4.85611">
        <ele>284</ele>
        <time>2017-05-26T08:57:15Z</time>
      </trkpt>
      <trkpt lat="45.97011" lon="4.85616">
        <ele>284</ele>
        <time>2017-05-26T08:57:16Z</time>
      </trkpt>
      <trkpt lat="45.97009" lon="4.85623">
        <ele>284</ele>
        <time>2017-05-26T08:57:17Z</time>
      </trkpt>
      <trkpt lat="45.97007" lon="4.85629">
        <ele>284</ele>
        <time>2017-05-26T08:57:18Z</time>
      </trkpt>
      <trkpt lat="45.97006" lon="4.85635">
        <ele>284</ele>
        <time>2017-05-26T08:57:19Z</time>
      </trkpt>
      <trkpt lat="45.97004" lon="4.85642">
        <ele>284</ele>
        <time>2017-05-26T08:57:20Z</time>
      </trkpt>
      <trkpt lat="45.97003" lon="4.85649">
        <ele>285</ele>
        <time>2017-05-26T08:57:21Z</time>
      </trkpt>
      <trkpt lat="45.97001" lon="4.85655">
        <ele>285</ele>
        <time>2017-05-26T08:57:22Z</time>
      </trkpt>
      <trkpt lat="45.96999" lon="4.85662">
        <ele>286</ele>
        <time>2017-05-26T08:57:23Z</time>
      </trkpt>
      <trkpt lat="45.96998" lon="4.85668">
        <ele>286</ele>
        <time>2017-05-26T08:57:24Z</time>
      </trkpt>
      <trkpt lat="45.96995" lon="4.85679">
        <ele>286</ele>
        <time>2017-05-26T08:57:26Z</time>
      </trkpt>
      <trkpt lat="45.96994" lon="4.85684">
        <ele>285</ele>
        <time>2017-05-26T08:57:27Z</time>
      </trkpt>
      <trkpt lat="45.96991" lon="4.85693">
        <ele>285</ele>
        <time>2017-05-26T08:57:29Z</time>
      </trkpt>
      <trkpt lat="45.9699" lon="4.85698">
        <ele>285</ele>
        <time>2017-05-26T08:57:30Z</time>
      </trkpt>
      <trkpt lat="45.96988" lon="4.85707">
        <ele>285</ele>
        <time>2017-05-26T08:57:32Z</time>
      </trkpt>
      <trkpt lat="45.96987" lon="4.85711">
        <ele>285</ele>
        <time>2017-05-26T08:57:33Z</time>
      </trkpt>
      <trkpt lat="45.96983" lon="4.85723">
        <ele>285</ele>
        <time>2017-05-26T08:57:36Z</time>
      </trkpt>
      <trkpt lat="45.96982" lon="4.85727">
        <ele>285</ele>
        <time>2017-05-26T08:57:37Z</time>
      </trkpt>
      <trkpt lat="45.96981" lon="4.85737">
        <ele>285</ele>
        <time>2017-05-26T08:57:39Z</time>
      </trkpt>
      <trkpt lat="45.9698" lon="4.85741">
        <ele>285</ele>
        <time>2017-05-26T08:57:40Z</time>
      </trkpt>
      <trkpt lat="45.96977" lon="4.85752">
        <ele>285</ele>
        <time>2017-05-26T08:57:42Z</time>
      </trkpt>
      <trkpt lat="45.96976" lon="4.85757">
        <ele>285</ele>
        <time>2017-05-26T08:57:43Z</time>
      </trkpt>
      <trkpt lat="45.96973" lon="4.85767">
        <ele>285</ele>
        <time>2017-05-26T08:57:45Z</time>
      </trkpt>
      <trkpt lat="45.96972" lon="4.85772">
        <ele>285</ele>
        <time>2017-05-26T08:57:46Z</time>
      </trkpt>
      <trkpt lat="45.96969" lon="4.85782">
        <ele>285</ele>
        <time>2017-05-26T08:57:48Z</time>
      </trkpt>
      <trkpt lat="45.96968" lon="4.85787">
        <ele>285</ele>
        <time>2017-05-26T08:57:49Z</time>
      </trkpt>
      <trkpt lat="45.96966" lon="4.85798">
        <ele>285</ele>
        <time>2017-05-26T08:57:51Z</time>
      </trkpt>
      <trkpt lat="45.96965" lon="4.85803">
        <ele>285</ele>
        <time>2017-05-26T08:57:52Z</time>
      </trkpt>
      <trkpt lat="45.96962" lon="4.85812">
        <ele>285</ele>
        <time>2017-05-26T08:57:54Z</time>
      </trkpt>
      <trkpt lat="45.96961" lon="4.85817">
        <ele>285</ele>
        <time>2017-05-26T08:57:55Z</time>
      </trkpt>
      <trkpt lat="45.96958" lon="4.85827">
        <ele>285</ele>
        <time>2017-05-26T08:57:57Z</time>
      </trkpt>
      <trkpt lat="45.96957" lon="4.85831">
        <ele>285</ele>
        <time>2017-05-26T08:57:58Z</time>
      </trkpt>
      <trkpt lat="45.96954" lon="4.85842">
        <ele>285</ele>
        <time>2017-05-26T08:58:00Z</time>
      </trkpt>
      <trkpt lat="45.96952" lon="4.85847">
        <ele>285</ele>
        <time>2017-05-26T08:58:01Z</time>
      </trkpt>
      <trkpt lat="45.9695" lon="4.85854">
        <ele>285</ele>
        <time>2017-05-26T08:58:02Z</time>
      </trkpt>
      <trkpt lat="45.96948" lon="4.85861">
        <ele>285</ele>
        <time>2017-05-26T08:58:03Z</time>
      </trkpt>
      <trkpt lat="45.96946" lon="4.85868">
        <ele>285</ele>
        <time>2017-05-26T08:58:04Z</time>
      </trkpt>
      <trkpt lat="45.96944" lon="4.85875">
        <ele>285</ele>
        <time>2017-05-26T08:58:05Z</time>
      </trkpt>
      <trkpt lat="45.96942" lon="4.85883">
        <ele>285</ele>
        <time>2017-05-26T08:58:06Z</time>
      </trkpt>
      <trkpt lat="45.9694" lon="4.8589">
        <ele>285</ele>
        <time>2017-05-26T08:58:07Z</time>
      </trkpt>
      <trkpt lat="45.96938" lon="4.85896">
        <ele>285</ele>
        <time>2017-05-26T08:58:08Z</time>
      </trkpt>
      <trkpt lat="45.96937" lon="4.85902">
        <ele>285</ele>
        <time>2017-05-26T08:58:09Z</time>
      </trkpt>
      <trkpt lat="45.96934" lon="4.85913">
        <ele>286</ele>
        <time>2017-05-26T08:58:11Z</time>
      </trkpt>
      <trkpt lat="45.96933" lon="4.85917">
        <ele>286</ele>
        <time>2017-05-26T08:58:12Z</time>
      </trkpt>
      <trkpt lat="45.96931" lon="4.85928">
        <ele>286</ele>
        <time>2017-05-26T08:58:14Z</time>
      </trkpt>
      <trkpt lat="45.96929" lon="4.85934">
        <ele>286</ele>
        <time>2017-05-26T08:58:15Z</time>
      </trkpt>
      <trkpt lat="45.96927" lon="4.8594">
        <ele>286</ele>
        <time>2017-05-26T08:58:16Z</time>
      </trkpt>
      <trkpt lat="45.96925" lon="4.85947">
        <ele>286</ele>
        <time>2017-05-26T08:58:17Z</time>
      </trkpt>
      <trkpt lat="45.96924" lon="4.85954">
        <ele>287</ele>
        <time>2017-05-26T08:58:18Z</time>
      </trkpt>
      <trkpt lat="45.96922" lon="4.85961">
        <ele>287</ele>
        <time>2017-05-26T08:58:19Z</time>
      </trkpt>
      <trkpt lat="45.9692" lon="4.85969">
        <ele>287</ele>
        <time>2017-05-26T08:58:20Z</time>
      </trkpt>
      <trkpt lat="45.96918" lon="4.85976">
        <ele>287</ele>
        <time>2017-05-26T08:58:21Z</time>
      </trkpt>
      <trkpt lat="45.96916" lon="4.85982">
        <ele>288</ele>
        <time>2017-05-26T08:58:22Z</time>
      </trkpt>
      <trkpt lat="45.96914" lon="4.85988">
        <ele>288</ele>
        <time>2017-05-26T08:58:23Z</time>
      </trkpt>
      <trkpt lat="45.96912" lon="4.85999">
        <ele>288</ele>
        <time>2017-05-26T08:58:25Z</time>
      </trkpt>
      <trkpt lat="45.96911" lon="4.86004">
        <ele>288</ele>
        <time>2017-05-26T08:58:26Z</time>
      </trkpt>
      <trkpt lat="45.9691" lon="4.86014">
        <ele>289</ele>
        <time>2017-05-26T08:58:28Z</time>
      </trkpt>
      <trkpt lat="45.96909" lon="4.86019">
        <ele>289</ele>
        <time>2017-05-26T08:58:29Z</time>
      </trkpt>
      <trkpt lat="45.96907" lon="4.86031">
        <ele>289</ele>
        <time>2017-05-26T08:58:31Z</time>
      </trkpt>
      <trkpt lat="45.96906" lon="4.86038">
        <ele>289</ele>
        <time>2017-05-26T08:58:32Z</time>
      </trkpt>
      <trkpt lat="45.96905" lon="4.86045">
        <ele>289</ele>
        <time>2017-05-26T08:58:33Z</time>
      </trkpt>
      <trkpt lat="45.96904" lon="4.86052">
        <ele>289</ele>
        <time>2017-05-26T08:58:34Z</time>
      </trkpt>
      <trkpt lat="45.96904" lon="4.8606">
        <ele>288</ele>
        <time>2017-05-26T08:58:35Z</time>
      </trkpt>
      <trkpt lat="45.96903" lon="4.86068">
        <ele>288</ele>
        <time>2017-05-26T08:58:36Z</time>
      </trkpt>
      <trkpt lat="45.96902" lon="4.86075">
        <ele>288</ele>
        <time>2017-05-26T08:58:37Z</time>
      </trkpt>
      <trkpt lat="45.96901" lon="4.86081">
        <ele>288</ele>
        <time>2017-05-26T08:58:38Z</time>
      </trkpt>
      <trkpt lat="45.969" lon="4.86093">
        <ele>288</ele>
        <time>2017-05-26T08:58:40Z</time>
      </trkpt>
      <trkpt lat="45.96899" lon="4.86098">
        <ele>288</ele>
        <time>2017-05-26T08:58:41Z</time>
      </trkpt>
      <trkpt lat="45.96898" lon="4.86108">
        <ele>289</ele>
        <time>2017-05-26T08:58:43Z</time>
      </trkpt>
      <trkpt lat="45.96897" lon="4.86113">
        <ele>289</ele>
        <time>2017-05-26T08:58:44Z</time>
      </trkpt>
      <trkpt lat="45.96895" lon="4.86124">
        <ele>289</ele>
        <time>2017-05-26T08:58:46Z</time>
      </trkpt>
      <trkpt lat="45.96894" lon="4.86131">
        <ele>289</ele>
        <time>2017-05-26T08:58:47Z</time>
      </trkpt>
      <trkpt lat="45.96893" lon="4.86138">
        <ele>289</ele>
        <time>2017-05-26T08:58:48Z</time>
      </trkpt>
      <trkpt lat="45.96892" lon="4.86145">
        <ele>289</ele>
        <time>2017-05-26T08:58:49Z</time>
      </trkpt>
      <trkpt lat="45.96892" lon="4.86153">
        <ele>289</ele>
        <time>2017-05-26T08:58:50Z</time>
      </trkpt>
      <trkpt lat="45.96891" lon="4.8616">
        <ele>289</ele>
        <time>2017-05-26T08:58:51Z</time>
      </trkpt>
      <trkpt lat="45.9689" lon="4.86168">
        <ele>289</ele>
        <time>2017-05-26T08:58:52Z</time>
      </trkpt>
      <trkpt lat="45.96889" lon="4.86175">
        <ele>289</ele>
        <time>2017-05-26T08:58:53Z</time>
      </trkpt>
      <trkpt lat="45.96888" lon="4.86187">
        <ele>289</ele>
        <time>2017-05-26T08:58:55Z</time>
      </trkpt>
      <trkpt lat="45.96887" lon="4.86193">
        <ele>289</ele>
        <time>2017-05-26T08:58:56Z</time>
      </trkpt>
      <trkpt lat="45.96885" lon="4.86204">
        <ele>289</ele>
        <time>2017-05-26T08:58:58Z</time>
      </trkpt>
      <trkpt lat="45.96884" lon="4.86209">
        <ele>289</ele>
        <time>2017-05-26T08:58:59Z</time>
      </trkpt>
      <trkpt lat="45.96883" lon="4.8622">
        <ele>289</ele>
        <time>2017-05-26T08:59:01Z</time>
      </trkpt>
      <trkpt lat="45.96882" lon="4.86226">
        <ele>289</ele>
        <time>2017-05-26T08:59:02Z</time>
      </trkpt>
      <trkpt lat="45.96881" lon="4.86233">
        <ele>289</ele>
        <time>2017-05-26T08:59:03Z</time>
      </trkpt>
      <trkpt lat="45.9688" lon="4.8624">
        <ele>289</ele>
        <time>2017-05-26T08:59:04Z</time>
      </trkpt>
      <trkpt lat="45.96879" lon="4.86247">
        <ele>289</ele>
        <time>2017-05-26T08:59:05Z</time>
      </trkpt>
      <trkpt lat="45.96878" lon="4.86254">
        <ele>288</ele>
        <time>2017-05-26T08:59:06Z</time>
      </trkpt>
      <trkpt lat="45.96877" lon="4.8626">
        <ele>288</ele>
        <time>2017-05-26T08:59:07Z</time>
      </trkpt>
      <trkpt lat="45.96876" lon="4.86267">
        <ele>289</ele>
        <time>2017-05-26T08:59:08Z</time>
      </trkpt>
      <trkpt lat="45.96875" lon="4.86279">
        <ele>289</ele>
        <time>2017-05-26T08:59:10Z</time>
      </trkpt>
      <trkpt lat="45.96874" lon="4.86284">
        <ele>289</ele>
        <time>2017-05-26T08:59:11Z</time>
      </trkpt>
      <trkpt lat="45.96873" lon="4.86296">
        <ele>289</ele>
        <time>2017-05-26T08:59:13Z</time>
      </trkpt>
      <trkpt lat="45.96872" lon="4.86301">
        <ele>289</ele>
        <time>2017-05-26T08:59:14Z</time>
      </trkpt>
      <trkpt lat="45.9687" lon="4.86312">
        <ele>289</ele>
        <time>2017-05-26T08:59:16Z</time>
      </trkpt>
      <trkpt lat="45.9687" lon="4.86317">
        <ele>289</ele>
        <time>2017-05-26T08:59:17Z</time>
      </trkpt>
      <trkpt lat="45.96868" lon="4.86327">
        <ele>289</ele>
        <time>2017-05-26T08:59:19Z</time>
      </trkpt>
      <trkpt lat="45.96868" lon="4.86333">
        <ele>289</ele>
        <time>2017-05-26T08:59:20Z</time>
      </trkpt>
      <trkpt lat="45.96866" lon="4.86345">
        <ele>290</ele>
        <time>2017-05-26T08:59:22Z</time>
      </trkpt>
      <trkpt lat="45.96866" lon="4.86351">
        <ele>290</ele>
        <time>2017-05-26T08:59:23Z</time>
      </trkpt>
      <trkpt lat="45.96864" lon="4.86362">
        <ele>290</ele>
        <time>2017-05-26T08:59:25Z</time>
      </trkpt>
      <trkpt lat="45.96863" lon="4.86368">
        <ele>290</ele>
        <time>2017-05-26T08:59:26Z</time>
      </trkpt>
      <trkpt lat="45.96861" lon="4.8638">
        <ele>290</ele>
        <time>2017-05-26T08:59:28Z</time>
      </trkpt>
      <trkpt lat="45.9686" lon="4.86386">
        <ele>290</ele>
        <time>2017-05-26T08:59:29Z</time>
      </trkpt>
      <trkpt lat="45.96859" lon="4.86397">
        <ele>290</ele>
        <time>2017-05-26T08:59:31Z</time>
      </trkpt>
      <trkpt lat="45.96858" lon="4.86402">
        <ele>290</ele>
        <time>2017-05-26T08:59:32Z</time>
      </trkpt>
      <trkpt lat="45.96857" lon="4.86413">
        <ele>291</ele>
        <time>2017-05-26T08:59:34Z</time>
      </trkpt>
      <trkpt lat="45.96856" lon="4.86418">
        <ele>290</ele>
        <time>2017-05-26T08:59:35Z</time>
      </trkpt>
      <trkpt lat="45.96854" lon="4.8643">
        <ele>290</ele>
        <time>2017-05-26T08:59:37Z</time>
      </trkpt>
      <trkpt lat="45.96853" lon="4.86436">
        <ele>290</ele>
        <time>2017-05-26T08:59:38Z</time>
      </trkpt>
      <trkpt lat="45.96851" lon="4.86448">
        <ele>289</ele>
        <time>2017-05-26T08:59:40Z</time>
      </trkpt>
      <trkpt lat="45.96849" lon="4.86453">
        <ele>289</ele>
        <time>2017-05-26T08:59:41Z</time>
      </trkpt>
      <trkpt lat="45.96847" lon="4.86465">
        <ele>289</ele>
        <time>2017-05-26T08:59:43Z</time>
      </trkpt>
      <trkpt lat="45.96845" lon="4.86471">
        <ele>289</ele>
        <time>2017-05-26T08:59:44Z</time>
      </trkpt>
      <trkpt lat="45.96841" lon="4.86482">
        <ele>289</ele>
        <time>2017-05-26T08:59:46Z</time>
      </trkpt>
      <trkpt lat="45.96839" lon="4.86487">
        <ele>289</ele>
        <time>2017-05-26T08:59:47Z</time>
      </trkpt>
      <trkpt lat="45.96835" lon="4.86497">
        <ele>289</ele>
        <time>2017-05-26T08:59:49Z</time>
      </trkpt>
      <trkpt lat="45.96833" lon="4.86502">
        <ele>289</ele>
        <time>2017-05-26T08:59:50Z</time>
      </trkpt>
      <trkpt lat="45.96828" lon="4.86512">
        <ele>289</ele>
        <time>2017-05-26T08:59:52Z</time>
      </trkpt>
      <trkpt lat="45.96826" lon="4.86517">
        <ele>289</ele>
        <time>2017-05-26T08:59:53Z</time>
      </trkpt>
      <trkpt lat="45.96821" lon="4.86525">
        <ele>289</ele>
        <time>2017-05-26T08:59:55Z</time>
      </trkpt>
      <trkpt lat="45.96819" lon="4.8653">
        <ele>290</ele>
        <time>2017-05-26T08:59:56Z</time>
      </trkpt>
      <trkpt lat="45.96813" lon="4.8654">
        <ele>290</ele>
        <time>2017-05-26T08:59:58Z</time>
      </trkpt>
      <trkpt lat="45.9681" lon="4.86545">
        <ele>290</ele>
        <time>2017-05-26T08:59:59Z</time>
      </trkpt>
      <trkpt lat="45.96804" lon="4.86554">
        <ele>290</ele>
        <time>2017-05-26T09:00:01Z</time>
      </trkpt>
      <trkpt lat="45.96801" lon="4.8656">
        <ele>290</ele>
        <time>2017-05-26T09:00:02Z</time>
      </trkpt>
      <trkpt lat="45.96798" lon="4.86565">
        <ele>290</ele>
        <time>2017-05-26T09:00:03Z</time>
      </trkpt>
      <trkpt lat="45.96794" lon="4.86571">
        <ele>290</ele>
        <time>2017-05-26T09:00:04Z</time>
      </trkpt>
      <trkpt lat="45.9679" lon="4.86577">
        <ele>290</ele>
        <time>2017-05-26T09:00:05Z</time>
      </trkpt>
      <trkpt lat="45.96787" lon="4.86582">
        <ele>290</ele>
        <time>2017-05-26T09:00:06Z</time>
      </trkpt>
      <trkpt lat="45.96784" lon="4.86587">
        <ele>289</ele>
        <time>2017-05-26T09:00:07Z</time>
      </trkpt>
      <trkpt lat="45.9678" lon="4.86592">
        <ele>289</ele>
        <time>2017-05-26T09:00:08Z</time>
      </trkpt>
      <trkpt lat="45.96775" lon="4.86601">
        <ele>289</ele>
        <time>2017-05-26T09:00:10Z</time>
      </trkpt>
      <trkpt lat="45.96772" lon="4.86606">
        <ele>289</ele>
        <time>2017-05-26T09:00:11Z</time>
      </trkpt>
      <trkpt lat="45.96767" lon="4.86614">
        <ele>289</ele>
        <time>2017-05-26T09:00:13Z</time>
      </trkpt>
      <trkpt lat="45.96764" lon="4.86618">
        <ele>289</ele>
        <time>2017-05-26T09:00:14Z</time>
      </trkpt>
      <trkpt lat="45.96758" lon="4.86628">
        <ele>290</ele>
        <time>2017-05-26T09:00:16Z</time>
      </trkpt>
      <trkpt lat="45.96755" lon="4.86633">
        <ele>290</ele>
        <time>2017-05-26T09:00:17Z</time>
      </trkpt>
      <trkpt lat="45.96752" lon="4.86639">
        <ele>290</ele>
        <time>2017-05-26T09:00:18Z</time>
      </trkpt>
      <trkpt lat="45.96748" lon="4.86645">
        <ele>290</ele>
        <time>2017-05-26T09:00:19Z</time>
      </trkpt>
      <trkpt lat="45.96745" lon="4.8665">
        <ele>290</ele>
        <time>2017-05-26T09:00:20Z</time>
      </trkpt>
      <trkpt lat="45.96742" lon="4.86656">
        <ele>290</ele>
        <time>2017-05-26T09:00:21Z</time>
      </trkpt>
      <trkpt lat="45.96739" lon="4.86661">
        <ele>290</ele>
        <time>2017-05-26T09:00:22Z</time>
      </trkpt>
      <trkpt lat="45.96736" lon="4.86667">
        <ele>290</ele>
        <time>2017-05-26T09:00:23Z</time>
      </trkpt>
      <trkpt lat="45.96733" lon="4.86673">
        <ele>290</ele>
        <time>2017-05-26T09:00:24Z</time>
      </trkpt>
      <trkpt lat="45.9673" lon="4.86678">
        <ele>289</ele>
        <time>2017-05-26T09:00:25Z</time>
      </trkpt>
      <trkpt lat="45.96727" lon="4.86683">
        <ele>289</ele>
        <time>2017-05-26T09:00:26Z</time>
      </trkpt>
      <trkpt lat="45.96724" lon="4.86688">
        <ele>289</ele>
        <time>2017-05-26T09:00:27Z</time>
      </trkpt>
      <trkpt lat="45.9672" lon="4.86694">
        <ele>289</ele>
        <time>2017-05-26T09:00:28Z</time>
      </trkpt>
      <trkpt lat="45.96717" lon="4.86699">
        <ele>289</ele>
        <time>2017-05-26T09:00:29Z</time>
      </trkpt>
      <trkpt lat="45.96714" lon="4.86704">
        <ele>289</ele>
        <time>2017-05-26T09:00:30Z</time>
      </trkpt>
      <trkpt lat="45.96711" lon="4.8671">
        <ele>289</ele>
        <time>2017-05-26T09:00:31Z</time>
      </trkpt>
      <trkpt lat="45.96708" lon="4.86715">
        <ele>289</ele>
        <time>2017-05-26T09:00:32Z</time>
      </trkpt>
      <trkpt lat="45.96704" lon="4.8672">
        <ele>289</ele>
        <time>2017-05-26T09:00:33Z</time>
      </trkpt>
      <trkpt lat="45.96701" lon="4.86725">
        <ele>289</ele>
        <time>2017-05-26T09:00:34Z</time>
      </trkpt>
      <trkpt lat="45.96698" lon="4.8673">
        <ele>289</ele>
        <time>2017-05-26T09:00:35Z</time>
      </trkpt>
      <trkpt lat="45.96694" lon="4.86736">
        <ele>289</ele>
        <time>2017-05-26T09:00:36Z</time>
      </trkpt>
      <trkpt lat="45.96692" lon="4.86741">
        <ele>289</ele>
        <time>2017-05-26T09:00:37Z</time>
      </trkpt>
      <trkpt lat="45.96686" lon="4.86751">
        <ele>289</ele>
        <time>2017-05-26T09:00:39Z</time>
      </trkpt>
      <trkpt lat="45.96683" lon="4.86755">
        <ele>289</ele>
        <time>2017-05-26T09:00:40Z</time>
      </trkpt>
      <trkpt lat="45.96678" lon="4.86765">
        <ele>289</ele>
        <time>2017-05-26T09:00:42Z</time>
      </trkpt>
      <trkpt lat="45.96675" lon="4.8677">
        <ele>289</ele>
        <time>2017-05-26T09:00:43Z</time>
      </trkpt>
      <trkpt lat="45.96672" lon="4.86775">
        <ele>289</ele>
        <time>2017-05-26T09:00:44Z</time>
      </trkpt>
      <trkpt lat="45.96669" lon="4.8678">
        <ele>289</ele>
        <time>2017-05-26T09:00:45Z</time>
      </trkpt>
      <trkpt lat="45.96666" lon="4.86785">
        <ele>288</ele>
        <time>2017-05-26T09:00:46Z</time>
      </trkpt>
      <trkpt lat="45.96662" lon="4.8679">
        <ele>288</ele>
        <time>2017-05-26T09:00:47Z</time>
      </trkpt>
      <trkpt lat="45.96659" lon="4.86795">
        <ele>288</ele>
        <time>2017-05-26T09:00:48Z</time>
      </trkpt>
      <trkpt lat="45.96656" lon="4.868">
        <ele>288</ele>
        <time>2017-05-26T09:00:49Z</time>
      </trkpt>
      <trkpt lat="45.96652" lon="4.86806">
        <ele>288</ele>
        <time>2017-05-26T09:00:50Z</time>
      </trkpt>
      <trkpt lat="45.96649" lon="4.86811">
        <ele>288</ele>
        <time>2017-05-26T09:00:51Z</time>
      </trkpt>
      <trkpt lat="45.96645" lon="4.86816">
        <ele>288</ele>
        <time>2017-05-26T09:00:52Z</time>
      </trkpt>
      <trkpt lat="45.96642" lon="4.86822">
        <ele>288</ele>
        <time>2017-05-26T09:00:53Z</time>
      </trkpt>
      <trkpt lat="45.96638" lon="4.86827">
        <ele>288</ele>
        <time>2017-05-26T09:00:54Z</time>
      </trkpt>
      <trkpt lat="45.96635" lon="4.86832">
        <ele>288</ele>
        <time>2017-05-26T09:00:55Z</time>
      </trkpt>
      <trkpt lat="45.96632" lon="4.86837">
        <ele>287</ele>
        <time>2017-05-26T09:00:56Z</time>
      </trkpt>
      <trkpt lat="45.96629" lon="4.86842">
        <ele>287</ele>
        <time>2017-05-26T09:00:57Z</time>
      </trkpt>
      <trkpt lat="45.96626" lon="4.86846">
        <ele>287</ele>
        <time>2017-05-26T09:00:58Z</time>
      </trkpt>
      <trkpt lat="45.96623" lon="4.86851">
        <ele>287</ele>
        <time>2017-05-26T09:00:59Z</time>
      </trkpt>
      <trkpt lat="45.96616" lon="4.8686">
        <ele>287</ele>
        <time>2017-05-26T09:01:01Z</time>
      </trkpt>
      <trkpt lat="45.96612" lon="4.86864">
        <ele>287</ele>
        <time>2017-05-26T09:01:02Z</time>
      </trkpt>
      <trkpt lat="45.96608" lon="4.86869">
        <ele>287</ele>
        <time>2017-05-26T09:01:03Z</time>
      </trkpt>
      <trkpt lat="45.96604" lon="4.86874">
        <ele>287</ele>
        <time>2017-05-26T09:01:04Z</time>
      </trkpt>
      <trkpt lat="45.96601" lon="4.8688">
        <ele>287</ele>
        <time>2017-05-26T09:01:05Z</time>
      </trkpt>
      <trkpt lat="45.96597" lon="4.86885">
        <ele>287</ele>
        <time>2017-05-26T09:01:06Z</time>
      </trkpt>
      <trkpt lat="45.96593" lon="4.8689">
        <ele>286</ele>
        <time>2017-05-26T09:01:07Z</time>
      </trkpt>
      <trkpt lat="45.9659" lon="4.86895">
        <ele>286</ele>
        <time>2017-05-26T09:01:08Z</time>
      </trkpt>
      <trkpt lat="45.96586" lon="4.869">
        <ele>286</ele>
        <time>2017-05-26T09:01:09Z</time>
      </trkpt>
      <trkpt lat="45.96582" lon="4.86906">
        <ele>285</ele>
        <time>2017-05-26T09:01:10Z</time>
      </trkpt>
      <trkpt lat="45.96579" lon="4.86912">
        <ele>285</ele>
        <time>2017-05-26T09:01:11Z</time>
      </trkpt>
      <trkpt lat="45.96576" lon="4.86918">
        <ele>284</ele>
        <time>2017-05-26T09:01:12Z</time>
      </trkpt>
      <trkpt lat="45.96572" lon="4.86923">
        <ele>284</ele>
        <time>2017-05-26T09:01:13Z</time>
      </trkpt>
      <trkpt lat="45.96569" lon="4.86929">
        <ele>284</ele>
        <time>2017-05-26T09:01:14Z</time>
      </trkpt>
      <trkpt lat="45.96565" lon="4.86935">
        <ele>284</ele>
        <time>2017-05-26T09:01:15Z</time>
      </trkpt>
      <trkpt lat="45.96562" lon="4.86942">
        <ele>284</ele>
        <time>2017-05-26T09:01:16Z</time>
      </trkpt>
      <trkpt lat="45.96558" lon="4.86948">
        <ele>283</ele>
        <time>2017-05-26T09:01:17Z</time>
      </trkpt>
      <trkpt lat="45.96554" lon="4.86955">
        <ele>283</ele>
        <time>2017-05-26T09:01:18Z</time>
      </trkpt>
      <trkpt lat="45.9655" lon="4.86961">
        <ele>283</ele>
        <time>2017-05-26T09:01:19Z</time>
      </trkpt>
      <trkpt lat="45.96546" lon="4.86966">
        <ele>283</ele>
        <time>2017-05-26T09:01:20Z</time>
      </trkpt>
      <trkpt lat="45.9654" lon="4.86974">
        <ele>283</ele>
        <time>2017-05-26T09:01:22Z</time>
      </trkpt>
      <trkpt lat="45.96538" lon="4.86977">
        <ele>283</ele>
        <time>2017-05-26T09:01:23Z</time>
      </trkpt>
      <trkpt lat="45.96536" lon="4.86989">
        <ele>283</ele>
        <time>2017-05-26T09:01:26Z</time>
      </trkpt>
      <trkpt lat="45.96536" lon="4.86996">
        <ele>283</ele>
        <time>2017-05-26T09:01:27Z</time>
      </trkpt>
      <trkpt lat="45.96537" lon="4.87008">
        <ele>283</ele>
        <time>2017-05-26T09:01:30Z</time>
      </trkpt>
      <trkpt lat="45.96537" lon="4.87011">
        <ele>283</ele>
        <time>2017-05-26T09:01:31Z</time>
      </trkpt>
      <trkpt lat="45.96541" lon="4.87021">
        <ele>283</ele>
        <time>2017-05-26T09:01:35Z</time>
      </trkpt>
      <trkpt lat="45.96542" lon="4.87022">
        <ele>283</ele>
        <time>2017-05-26T09:01:36Z</time>
      </trkpt>
      <trkpt lat="45.96544" lon="4.87027">
        <ele>283</ele>
        <time>2017-05-26T09:01:46Z</time>
      </trkpt>
      <trkpt lat="45.96545" lon="4.87027">
        <ele>283</ele>
        <time>2017-05-26T09:01:47Z</time>
      </trkpt>
      <trkpt lat="45.96546" lon="4.87029">
        <ele>283</ele>
        <time>2017-05-26T09:01:49Z</time>
      </trkpt>
      <trkpt lat="45.96546" lon="4.8703">
        <ele>283</ele>
        <time>2017-05-26T09:01:50Z</time>
      </trkpt>
      <trkpt lat="45.96539" lon="4.87028">
        <ele>283</ele>
        <time>2017-05-26T09:05:33Z</time>
      </trkpt>
      <trkpt lat="45.96539" lon="4.87028">
        <ele>283</ele>
        <time>2017-05-26T09:05:34Z</time>
      </trkpt>
      <trkpt lat="45.96538" lon="4.87028">
        <ele>283</ele>
        <time>2017-05-26T09:05:40Z</time>
      </trkpt>
      <trkpt lat="45.96538" lon="4.87029">
        <ele>283</ele>
        <time>2017-05-26T09:05:41Z</time>
      </trkpt>
      <trkpt lat="45.96546" lon="4.87027">
        <ele>283</ele>
        <time>2017-05-26T09:06:09Z</time>
      </trkpt>
      <trkpt lat="45.96547" lon="4.87027">
        <ele>283</ele>
        <time>2017-05-26T09:06:10Z</time>
      </trkpt>
      <trkpt lat="45.96553" lon="4.87036">
        <ele>283</ele>
        <time>2017-05-26T09:06:25Z</time>
      </trkpt>
      <trkpt lat="45.96552" lon="4.87039">
        <ele>283</ele>
        <time>2017-05-26T09:06:26Z</time>
      </trkpt>
      <trkpt lat="45.96552" lon="4.8705">
        <ele>283</ele>
        <time>2017-05-26T09:06:30Z</time>
      </trkpt>
      <trkpt lat="45.96553" lon="4.87053">
        <ele>283</ele>
        <time>2017-05-26T09:06:31Z</time>
      </trkpt>
      <trkpt lat="45.96555" lon="4.87063">
        <ele>283</ele>
        <time>2017-05-26T09:06:34Z</time>
      </trkpt>
      <trkpt lat="45.96556" lon="4.87065">
        <ele>283</ele>
        <time>2017-05-26T09:06:35Z</time>
      </trkpt>
      <trkpt lat="45.9655" lon="4.87074">
        <ele>283</ele>
        <time>2017-05-26T09:06:41Z</time>
      </trkpt>
      <trkpt lat="45.96548" lon="4.87074">
        <ele>283</ele>
        <time>2017-05-26T09:06:42Z</time>
      </trkpt>
      <trkpt lat="45.96539" lon="4.87071">
        <ele>283</ele>
        <time>2017-05-26T09:06:47Z</time>
      </trkpt>
      <trkpt lat="45.96538" lon="4.87069">
        <ele>283</ele>
        <time>2017-05-26T09:06:48Z</time>
      </trkpt>
      <trkpt lat="45.96532" lon="4.87063">
        <ele>283</ele>
        <time>2017-05-26T09:06:51Z</time>
      </trkpt>
      <trkpt lat="45.9653" lon="4.8706">
        <ele>283</ele>
        <time>2017-05-26T09:06:52Z</time>
      </trkpt>
      <trkpt lat="45.96525" lon="4.87053">
        <ele>283</ele>
        <time>2017-05-26T09:06:54Z</time>
      </trkpt>
      <trkpt lat="45.96523" lon="4.8705">
        <ele>283</ele>
        <time>2017-05-26T09:06:55Z</time>
      </trkpt>
      <trkpt lat="45.96518" lon="4.87039">
        <ele>283</ele>
        <time>2017-05-26T09:06:59Z</time>
      </trkpt>
      <trkpt lat="45.96517" lon="4.87038">
        <ele>283</ele>
        <time>2017-05-26T09:07:00Z</time>
      </trkpt>
      <trkpt lat="45.96509" lon="4.87035">
        <ele>282</ele>
        <time>2017-05-26T09:07:04Z</time>
      </trkpt>
      <trkpt lat="45.96506" lon="4.87036">
        <ele>282</ele>
        <time>2017-05-26T09:07:05Z</time>
      </trkpt>
      <trkpt lat="45.96501" lon="4.87041">
        <ele>282</ele>
        <time>2017-05-26T09:07:07Z</time>
      </trkpt>
      <trkpt lat="45.96498" lon="4.87044">
        <ele>281</ele>
        <time>2017-05-26T09:07:08Z</time>
      </trkpt>
      <trkpt lat="45.96492" lon="4.87052">
        <ele>281</ele>
        <time>2017-05-26T09:07:10Z</time>
      </trkpt>
      <trkpt lat="45.96489" lon="4.87056">
        <ele>281</ele>
        <time>2017-05-26T09:07:11Z</time>
      </trkpt>
      <trkpt lat="45.96483" lon="4.87064">
        <ele>281</ele>
        <time>2017-05-26T09:07:13Z</time>
      </trkpt>
      <trkpt lat="45.9648" lon="4.87069">
        <ele>281</ele>
        <time>2017-05-26T09:07:14Z</time>
      </trkpt>
      <trkpt lat="45.96474" lon="4.87077">
        <ele>281</ele>
        <time>2017-05-26T09:07:16Z</time>
      </trkpt>
      <trkpt lat="45.96471" lon="4.87081">
        <ele>281</ele>
        <time>2017-05-26T09:07:17Z</time>
      </trkpt>
      <trkpt lat="45.96465" lon="4.87089">
        <ele>282</ele>
        <time>2017-05-26T09:07:19Z</time>
      </trkpt>
      <trkpt lat="45.96462" lon="4.87093">
        <ele>282</ele>
        <time>2017-05-26T09:07:20Z</time>
      </trkpt>
      <trkpt lat="45.96456" lon="4.87101">
        <ele>281</ele>
        <time>2017-05-26T09:07:22Z</time>
      </trkpt>
      <trkpt lat="45.96452" lon="4.87105">
        <ele>281</ele>
        <time>2017-05-26T09:07:23Z</time>
      </trkpt>
      <trkpt lat="45.96446" lon="4.87114">
        <ele>281</ele>
        <time>2017-05-26T09:07:25Z</time>
      </trkpt>
      <trkpt lat="45.96443" lon="4.87117">
        <ele>281</ele>
        <time>2017-05-26T09:07:26Z</time>
      </trkpt>
      <trkpt lat="45.96437" lon="4.87124">
        <ele>281</ele>
        <time>2017-05-26T09:07:28Z</time>
      </trkpt>
      <trkpt lat="45.96434" lon="4.87128">
        <ele>281</ele>
        <time>2017-05-26T09:07:29Z</time>
      </trkpt>
      <trkpt lat="45.96428" lon="4.87135">
        <ele>281</ele>
        <time>2017-05-26T09:07:31Z</time>
      </trkpt>
      <trkpt lat="45.96425" lon="4.87139">
        <ele>281</ele>
        <time>2017-05-26T09:07:32Z</time>
      </trkpt>
      <trkpt lat="45.96419" lon="4.87147">
        <ele>281</ele>
        <time>2017-05-26T09:07:34Z</time>
      </trkpt>
      <trkpt lat="45.96417" lon="4.8715">
        <ele>281</ele>
        <time>2017-05-26T09:07:35Z</time>
      </trkpt>
      <trkpt lat="45.96411" lon="4.87158">
        <ele>281</ele>
        <time>2017-05-26T09:07:37Z</time>
      </trkpt>
      <trkpt lat="45.96409" lon="4.87162">
        <ele>281</ele>
        <time>2017-05-26T09:07:38Z</time>
      </trkpt>
      <trkpt lat="45.96403" lon="4.87169">
        <ele>281</ele>
        <time>2017-05-26T09:07:40Z</time>
      </trkpt>
      <trkpt lat="45.964" lon="4.87174">
        <ele>282</ele>
        <time>2017-05-26T09:07:41Z</time>
      </trkpt>
      <trkpt lat="45.96394" lon="4.87182">
        <ele>282</ele>
        <time>2017-05-26T09:07:43Z</time>
      </trkpt>
      <trkpt lat="45.96391" lon="4.87186">
        <ele>282</ele>
        <time>2017-05-26T09:07:44Z</time>
      </trkpt>
      <trkpt lat="45.96385" lon="4.87195">
        <ele>282</ele>
        <time>2017-05-26T09:07:46Z</time>
      </trkpt>
      <trkpt lat="45.96381" lon="4.87199">
        <ele>282</ele>
        <time>2017-05-26T09:07:47Z</time>
      </trkpt>
      <trkpt lat="45.96375" lon="4.87208">
        <ele>282</ele>
        <time>2017-05-26T09:07:49Z</time>
      </trkpt>
      <trkpt lat="45.96372" lon="4.87212">
        <ele>282</ele>
        <time>2017-05-26T09:07:50Z</time>
      </trkpt>
      <trkpt lat="45.96365" lon="4.87221">
        <ele>282</ele>
        <time>2017-05-26T09:07:52Z</time>
      </trkpt>
      <trkpt lat="45.96362" lon="4.87225">
        <ele>282</ele>
        <time>2017-05-26T09:07:53Z</time>
      </trkpt>
      <trkpt lat="45.96358" lon="4.87229">
        <ele>282</ele>
        <time>2017-05-26T09:07:54Z</time>
      </trkpt>
      <trkpt lat="45.96355" lon="4.87234">
        <ele>282</ele>
        <time>2017-05-26T09:07:55Z</time>
      </trkpt>
      <trkpt lat="45.96352" lon="4.87238">
        <ele>282</ele>
        <time>2017-05-26T09:07:56Z</time>
      </trkpt>
      <trkpt lat="45.96349" lon="4.87243">
        <ele>283</ele>
        <time>2017-05-26T09:07:57Z</time>
      </trkpt>
      <trkpt lat="45.96343" lon="4.87252">
        <ele>283</ele>
        <time>2017-05-26T09:07:59Z</time>
      </trkpt>
      <trkpt lat="45.96339" lon="4.87256">
        <ele>283</ele>
        <time>2017-05-26T09:08:00Z</time>
      </trkpt>
      <trkpt lat="45.96336" lon="4.87261">
        <ele>283</ele>
        <time>2017-05-26T09:08:01Z</time>
      </trkpt>
      <trkpt lat="45.96332" lon="4.87265">
        <ele>283</ele>
        <time>2017-05-26T09:08:02Z</time>
      </trkpt>
      <trkpt lat="45.96329" lon="4.8727">
        <ele>283</ele>
        <time>2017-05-26T09:08:03Z</time>
      </trkpt>
      <trkpt lat="45.96325" lon="4.87275">
        <ele>283</ele>
        <time>2017-05-26T09:08:04Z</time>
      </trkpt>
      <trkpt lat="45.96322" lon="4.8728">
        <ele>283</ele>
        <time>2017-05-26T09:08:05Z</time>
      </trkpt>
      <trkpt lat="45.96318" lon="4.87284">
        <ele>283</ele>
        <time>2017-05-26T09:08:06Z</time>
      </trkpt>
      <trkpt lat="45.96315" lon="4.87289">
        <ele>283</ele>
        <time>2017-05-26T09:08:07Z</time>
      </trkpt>
      <trkpt lat="45.96311" lon="4.87294">
        <ele>283</ele>
        <time>2017-05-26T09:08:08Z</time>
      </trkpt>
      <trkpt lat="45.96308" lon="4.87298">
        <ele>283</ele>
        <time>2017-05-26T09:08:09Z</time>
      </trkpt>
      <trkpt lat="45.96304" lon="4.87303">
        <ele>283</ele>
        <time>2017-05-26T09:08:10Z</time>
      </trkpt>
      <trkpt lat="45.96301" lon="4.87308">
        <ele>283</ele>
        <time>2017-05-26T09:08:11Z</time>
      </trkpt>
      <trkpt lat="45.96297" lon="4.87312">
        <ele>283</ele>
        <time>2017-05-26T09:08:12Z</time>
      </trkpt>
      <trkpt lat="45.96293" lon="4.87317">
        <ele>283</ele>
        <time>2017-05-26T09:08:13Z</time>
      </trkpt>
      <trkpt lat="45.9629" lon="4.87321">
        <ele>283</ele>
        <time>2017-05-26T09:08:14Z</time>
      </trkpt>
      <trkpt lat="45.96283" lon="4.8733">
        <ele>283</ele>
        <time>2017-05-26T09:08:16Z</time>
      </trkpt>
      <trkpt lat="45.9628" lon="4.87334">
        <ele>284</ele>
        <time>2017-05-26T09:08:17Z</time>
      </trkpt>
      <trkpt lat="45.96277" lon="4.87339">
        <ele>283</ele>
        <time>2017-05-26T09:08:18Z</time>
      </trkpt>
      <trkpt lat="45.96273" lon="4.87343">
        <ele>283</ele>
        <time>2017-05-26T09:08:19Z</time>
      </trkpt>
      <trkpt lat="45.9627" lon="4.87348">
        <ele>283</ele>
        <time>2017-05-26T09:08:20Z</time>
      </trkpt>
      <trkpt lat="45.96266" lon="4.87352">
        <ele>283</ele>
        <time>2017-05-26T09:08:21Z</time>
      </trkpt>
      <trkpt lat="45.9626" lon="4.8736">
        <ele>283</ele>
        <time>2017-05-26T09:08:23Z</time>
      </trkpt>
      <trkpt lat="45.96257" lon="4.87364">
        <ele>283</ele>
        <time>2017-05-26T09:08:24Z</time>
      </trkpt>
      <trkpt lat="45.9625" lon="4.87372">
        <ele>283</ele>
        <time>2017-05-26T09:08:26Z</time>
      </trkpt>
      <trkpt lat="45.96247" lon="4.87376">
        <ele>283</ele>
        <time>2017-05-26T09:08:27Z</time>
      </trkpt>
      <trkpt lat="45.96243" lon="4.87381">
        <ele>283</ele>
        <time>2017-05-26T09:08:28Z</time>
      </trkpt>
      <trkpt lat="45.96239" lon="4.87385">
        <ele>283</ele>
        <time>2017-05-26T09:08:29Z</time>
      </trkpt>
      <trkpt lat="45.96233" lon="4.87393">
        <ele>283</ele>
        <time>2017-05-26T09:08:31Z</time>
      </trkpt>
      <trkpt lat="45.96229" lon="4.87398">
        <ele>283</ele>
        <time>2017-05-26T09:08:32Z</time>
      </trkpt>
      <trkpt lat="45.96223" lon="4.87405">
        <ele>283</ele>
        <time>2017-05-26T09:08:34Z</time>
      </trkpt>
      <trkpt lat="45.9622" lon="4.87409">
        <ele>283</ele>
        <time>2017-05-26T09:08:35Z</time>
      </trkpt>
      <trkpt lat="45.96216" lon="4.87413">
        <ele>283</ele>
        <time>2017-05-26T09:08:36Z</time>
      </trkpt>
      <trkpt lat="45.96213" lon="4.87417">
        <ele>284</ele>
        <time>2017-05-26T09:08:37Z</time>
      </trkpt>
      <trkpt lat="45.96209" lon="4.87421">
        <ele>284</ele>
        <time>2017-05-26T09:08:38Z</time>
      </trkpt>
      <trkpt lat="45.96205" lon="4.87425">
        <ele>284</ele>
        <time>2017-05-26T09:08:39Z</time>
      </trkpt>
      <trkpt lat="45.96201" lon="4.87429">
        <ele>284</ele>
        <time>2017-05-26T09:08:40Z</time>
      </trkpt>
      <trkpt lat="45.96198" lon="4.87433">
        <ele>284</ele>
        <time>2017-05-26T09:08:41Z</time>
      </trkpt>
      <trkpt lat="45.96194" lon="4.87438">
        <ele>284</ele>
        <time>2017-05-26T09:08:42Z</time>
      </trkpt>
      <trkpt lat="45.9619" lon="4.87442">
        <ele>284</ele>
        <time>2017-05-26T09:08:43Z</time>
      </trkpt>
      <trkpt lat="45.96187" lon="4.87446">
        <ele>284</ele>
        <time>2017-05-26T09:08:44Z</time>
      </trkpt>
      <trkpt lat="45.96183" lon="4.8745">
        <ele>284</ele>
        <time>2017-05-26T09:08:45Z</time>
      </trkpt>
      <trkpt lat="45.96177" lon="4.87458">
        <ele>284</ele>
        <time>2017-05-26T09:08:47Z</time>
      </trkpt>
      <trkpt lat="45.96173" lon="4.87461">
        <ele>284</ele>
        <time>2017-05-26T09:08:48Z</time>
      </trkpt>
      <trkpt lat="45.96167" lon="4.87468">
        <ele>285</ele>
        <time>2017-05-26T09:08:50Z</time>
      </trkpt>
      <trkpt lat="45.96163" lon="4.87473">
        <ele>285</ele>
        <time>2017-05-26T09:08:51Z</time>
      </trkpt>
      <trkpt lat="45.9616" lon="4.87477">
        <ele>285</ele>
        <time>2017-05-26T09:08:52Z</time>
      </trkpt>
      <trkpt lat="45.96156" lon="4.87482">
        <ele>285</ele>
        <time>2017-05-26T09:08:53Z</time>
      </trkpt>
      <trkpt lat="45.96152" lon="4.87486">
        <ele>285</ele>
        <time>2017-05-26T09:08:54Z</time>
      </trkpt>
      <trkpt lat="45.96147" lon="4.8749">
        <ele>285</ele>
        <time>2017-05-26T09:08:55Z</time>
      </trkpt>
      <trkpt lat="45.96143" lon="4.87495">
        <ele>285</ele>
        <time>2017-05-26T09:08:56Z</time>
      </trkpt>
      <trkpt lat="45.96139" lon="4.875">
        <ele>285</ele>
        <time>2017-05-26T09:08:57Z</time>
      </trkpt>
      <trkpt lat="45.96133" lon="4.87508">
        <ele>286</ele>
        <time>2017-05-26T09:08:59Z</time>
      </trkpt>
      <trkpt lat="45.9613" lon="4.87512">
        <ele>286</ele>
        <time>2017-05-26T09:09:00Z</time>
      </trkpt>
      <trkpt lat="45.96124" lon="4.87518">
        <ele>286</ele>
        <time>2017-05-26T09:09:02Z</time>
      </trkpt>
      <trkpt lat="45.96121" lon="4.87521">
        <ele>286</ele>
        <time>2017-05-26T09:09:03Z</time>
      </trkpt>
      <trkpt lat="45.96116" lon="4.87527">
        <ele>287</ele>
        <time>2017-05-26T09:09:05Z</time>
      </trkpt>
      <trkpt lat="45.96113" lon="4.87531">
        <ele>287</ele>
        <time>2017-05-26T09:09:06Z</time>
      </trkpt>
      <trkpt lat="45.96106" lon="4.87538">
        <ele>287</ele>
        <time>2017-05-26T09:09:08Z</time>
      </trkpt>
      <trkpt lat="45.96102" lon="4.87542">
        <ele>287</ele>
        <time>2017-05-26T09:09:09Z</time>
      </trkpt>
      <trkpt lat="45.96099" lon="4.87546">
        <ele>287</ele>
        <time>2017-05-26T09:09:10Z</time>
      </trkpt>
      <trkpt lat="45.96095" lon="4.87551">
        <ele>287</ele>
        <time>2017-05-26T09:09:11Z</time>
      </trkpt>
      <trkpt lat="45.96091" lon="4.87556">
        <ele>287</ele>
        <time>2017-05-26T09:09:12Z</time>
      </trkpt>
      <trkpt lat="45.96087" lon="4.87561">
        <ele>287</ele>
        <time>2017-05-26T09:09:13Z</time>
      </trkpt>
      <trkpt lat="45.96083" lon="4.87565">
        <ele>288</ele>
        <time>2017-05-26T09:09:14Z</time>
      </trkpt>
      <trkpt lat="45.96079" lon="4.8757">
        <ele>288</ele>
        <time>2017-05-26T09:09:15Z</time>
      </trkpt>
      <trkpt lat="45.96072" lon="4.87577">
        <ele>288</ele>
        <time>2017-05-26T09:09:17Z</time>
      </trkpt>
      <trkpt lat="45.96068" lon="4.87581">
        <ele>288</ele>
        <time>2017-05-26T09:09:18Z</time>
      </trkpt>
      <trkpt lat="45.96063" lon="4.87587">
        <ele>288</ele>
        <time>2017-05-26T09:09:20Z</time>
      </trkpt>
      <trkpt lat="45.9606" lon="4.8759">
        <ele>288</ele>
        <time>2017-05-26T09:09:21Z</time>
      </trkpt>
      <trkpt lat="45.96055" lon="4.87596">
        <ele>288</ele>
        <time>2017-05-26T09:09:23Z</time>
      </trkpt>
      <trkpt lat="45.96052" lon="4.87599">
        <ele>289</ele>
        <time>2017-05-26T09:09:24Z</time>
      </trkpt>
      <trkpt lat="45.96047" lon="4.87605">
        <ele>289</ele>
        <time>2017-05-26T09:09:26Z</time>
      </trkpt>
      <trkpt lat="45.96044" lon="4.87608">
        <ele>289</ele>
        <time>2017-05-26T09:09:27Z</time>
      </trkpt>
      <trkpt lat="45.9604" lon="4.87614">
        <ele>289</ele>
        <time>2017-05-26T09:09:29Z</time>
      </trkpt>
      <trkpt lat="45.96037" lon="4.87617">
        <ele>289</ele>
        <time>2017-05-26T09:09:30Z</time>
      </trkpt>
      <trkpt lat="45.96032" lon="4.87624">
        <ele>289</ele>
        <time>2017-05-26T09:09:32Z</time>
      </trkpt>
      <trkpt lat="45.96029" lon="4.87627">
        <ele>289</ele>
        <time>2017-05-26T09:09:33Z</time>
      </trkpt>
      <trkpt lat="45.96023" lon="4.87633">
        <ele>289</ele>
        <time>2017-05-26T09:09:35Z</time>
      </trkpt>
      <trkpt lat="45.9602" lon="4.87636">
        <ele>289</ele>
        <time>2017-05-26T09:09:36Z</time>
      </trkpt>
      <trkpt lat="45.96014" lon="4.87643">
        <ele>289</ele>
        <time>2017-05-26T09:09:38Z</time>
      </trkpt>
      <trkpt lat="45.96011" lon="4.87647">
        <ele>289</ele>
        <time>2017-05-26T09:09:39Z</time>
      </trkpt>
      <trkpt lat="45.96005" lon="4.87653">
        <ele>289</ele>
        <time>2017-05-26T09:09:41Z</time>
      </trkpt>
      <trkpt lat="45.96002" lon="4.87656">
        <ele>290</ele>
        <time>2017-05-26T09:09:42Z</time>
      </trkpt>
      <trkpt lat="45.95996" lon="4.87663">
        <ele>290</ele>
        <time>2017-05-26T09:09:44Z</time>
      </trkpt>
      <trkpt lat="45.95993" lon="4.87666">
        <ele>290</ele>
        <time>2017-05-26T09:09:45Z</time>
      </trkpt>
      <trkpt lat="45.95987" lon="4.87673">
        <ele>289</ele>
        <time>2017-05-26T09:09:47Z</time>
      </trkpt>
      <trkpt lat="45.95984" lon="4.87676">
        <ele>289</ele>
        <time>2017-05-26T09:09:48Z</time>
      </trkpt>
      <trkpt lat="45.95978" lon="4.87682">
        <ele>289</ele>
        <time>2017-05-26T09:09:50Z</time>
      </trkpt>
      <trkpt lat="45.95976" lon="4.87685">
        <ele>289</ele>
        <time>2017-05-26T09:09:51Z</time>
      </trkpt>
      <trkpt lat="45.9597" lon="4.87691">
        <ele>289</ele>
        <time>2017-05-26T09:09:53Z</time>
      </trkpt>
      <trkpt lat="45.95968" lon="4.87694">
        <ele>289</ele>
        <time>2017-05-26T09:09:54Z</time>
      </trkpt>
      <trkpt lat="45.95962" lon="4.87701">
        <ele>289</ele>
        <time>2017-05-26T09:09:56Z</time>
      </trkpt>
      <trkpt lat="45.9596" lon="4.87704">
        <ele>289</ele>
        <time>2017-05-26T09:09:57Z</time>
      </trkpt>
      <trkpt lat="45.95955" lon="4.87711">
        <ele>289</ele>
        <time>2017-05-26T09:09:59Z</time>
      </trkpt>
      <trkpt lat="45.95953" lon="4.87713">
        <ele>289</ele>
        <time>2017-05-26T09:10:00Z</time>
      </trkpt>
      <trkpt lat="45.95948" lon="4.8772">
        <ele>289</ele>
        <time>2017-05-26T09:10:02Z</time>
      </trkpt>
      <trkpt lat="45.95945" lon="4.87723">
        <ele>289</ele>
        <time>2017-05-26T09:10:03Z</time>
      </trkpt>
      <trkpt lat="45.9594" lon="4.87731">
        <ele>289</ele>
        <time>2017-05-26T09:10:05Z</time>
      </trkpt>
      <trkpt lat="45.95938" lon="4.87734">
        <ele>288</ele>
        <time>2017-05-26T09:10:06Z</time>
      </trkpt>
      <trkpt lat="45.95933" lon="4.87741">
        <ele>288</ele>
        <time>2017-05-26T09:10:08Z</time>
      </trkpt>
      <trkpt lat="45.9593" lon="4.87745">
        <ele>288</ele>
        <time>2017-05-26T09:10:09Z</time>
      </trkpt>
      <trkpt lat="45.95925" lon="4.87753">
        <ele>288</ele>
        <time>2017-05-26T09:10:11Z</time>
      </trkpt>
      <trkpt lat="45.95923" lon="4.87756">
        <ele>288</ele>
        <time>2017-05-26T09:10:12Z</time>
      </trkpt>
      <trkpt lat="45.95917" lon="4.87765">
        <ele>288</ele>
        <time>2017-05-26T09:10:14Z</time>
      </trkpt>
      <trkpt lat="45.95915" lon="4.87769">
        <ele>288</ele>
        <time>2017-05-26T09:10:15Z</time>
      </trkpt>
      <trkpt lat="45.95909" lon="4.87778">
        <ele>288</ele>
        <time>2017-05-26T09:10:17Z</time>
      </trkpt>
      <trkpt lat="45.95906" lon="4.87782">
        <ele>288</ele>
        <time>2017-05-26T09:10:18Z</time>
      </trkpt>
      <trkpt lat="45.95901" lon="4.87791">
        <ele>288</ele>
        <time>2017-05-26T09:10:20Z</time>
      </trkpt>
      <trkpt lat="45.95899" lon="4.87795">
        <ele>288</ele>
        <time>2017-05-26T09:10:21Z</time>
      </trkpt>
      <trkpt lat="45.95893" lon="4.87804">
        <ele>288</ele>
        <time>2017-05-26T09:10:23Z</time>
      </trkpt>
      <trkpt lat="45.9589" lon="4.87808">
        <ele>288</ele>
        <time>2017-05-26T09:10:24Z</time>
      </trkpt>
      <trkpt lat="45.95884" lon="4.87815">
        <ele>288</ele>
        <time>2017-05-26T09:10:26Z</time>
      </trkpt>
      <trkpt lat="45.95881" lon="4.87819">
        <ele>288</ele>
        <time>2017-05-26T09:10:27Z</time>
      </trkpt>
      <trkpt lat="45.95874" lon="4.87824">
        <ele>288</ele>
        <time>2017-05-26T09:10:29Z</time>
      </trkpt>
      <trkpt lat="45.95871" lon="4.87827">
        <ele>288</ele>
        <time>2017-05-26T09:10:30Z</time>
      </trkpt>
      <trkpt lat="45.95864" lon="4.87833">
        <ele>288</ele>
        <time>2017-05-26T09:10:32Z</time>
      </trkpt>
      <trkpt lat="45.9586" lon="4.87835">
        <ele>289</ele>
        <time>2017-05-26T09:10:33Z</time>
      </trkpt>
      <trkpt lat="45.95852" lon="4.87837">
        <ele>289</ele>
        <time>2017-05-26T09:10:35Z</time>
      </trkpt>
      <trkpt lat="45.95848" lon="4.87838">
        <ele>288</ele>
        <time>2017-05-26T09:10:36Z</time>
      </trkpt>
      <trkpt lat="45.9584" lon="4.87839">
        <ele>288</ele>
        <time>2017-05-26T09:10:41Z</time>
      </trkpt>
      <trkpt lat="45.95839" lon="4.87839">
        <ele>288</ele>
        <time>2017-05-26T09:10:42Z</time>
      </trkpt>
      <trkpt lat="45.95838" lon="4.8784">
        <ele>288</ele>
        <time>2017-05-26T09:10:49Z</time>
      </trkpt>
      <trkpt lat="45.95837" lon="4.8784">
        <ele>288</ele>
        <time>2017-05-26T09:10:50Z</time>
      </trkpt>
      <trkpt lat="45.95835" lon="4.87841">
        <ele>288</ele>
        <time>2017-05-26T09:10:51Z</time>
      </trkpt>
      <trkpt lat="45.95828" lon="4.87847">
        <ele>287</ele>
        <time>2017-05-26T09:10:54Z</time>
      </trkpt>
      <trkpt lat="45.95826" lon="4.87851">
        <ele>287</ele>
        <time>2017-05-26T09:10:55Z</time>
      </trkpt>
      <trkpt lat="45.95821" lon="4.87861">
        <ele>287</ele>
        <time>2017-05-26T09:10:58Z</time>
      </trkpt>
      <trkpt lat="45.95819" lon="4.87864">
        <ele>287</ele>
        <time>2017-05-26T09:10:59Z</time>
      </trkpt>
      <trkpt lat="45.95813" lon="4.87869">
        <ele>287</ele>
        <time>2017-05-26T09:11:01Z</time>
      </trkpt>
      <trkpt lat="45.95809" lon="4.87873">
        <ele>287</ele>
        <time>2017-05-26T09:11:02Z</time>
      </trkpt>
      <trkpt lat="45.95803" lon="4.8788">
        <ele>287</ele>
        <time>2017-05-26T09:11:04Z</time>
      </trkpt>
      <trkpt lat="45.95799" lon="4.87883">
        <ele>287</ele>
        <time>2017-05-26T09:11:05Z</time>
      </trkpt>
      <trkpt lat="45.95792" lon="4.8789">
        <ele>286</ele>
        <time>2017-05-26T09:11:07Z</time>
      </trkpt>
      <trkpt lat="45.95788" lon="4.87893">
        <ele>286</ele>
        <time>2017-05-26T09:11:08Z</time>
      </trkpt>
      <trkpt lat="45.95783" lon="4.87895">
        <ele>286</ele>
        <time>2017-05-26T09:11:09Z</time>
      </trkpt>
      <trkpt lat="45.95779" lon="4.87898">
        <ele>286</ele>
        <time>2017-05-26T09:11:10Z</time>
      </trkpt>
      <trkpt lat="45.95775" lon="4.87901">
        <ele>286</ele>
        <time>2017-05-26T09:11:11Z</time>
      </trkpt>
      <trkpt lat="45.9577" lon="4.87904">
        <ele>286</ele>
        <time>2017-05-26T09:11:12Z</time>
      </trkpt>
      <trkpt lat="45.95766" lon="4.87907">
        <ele>286</ele>
        <time>2017-05-26T09:11:13Z</time>
      </trkpt>
      <trkpt lat="45.95761" lon="4.87911">
        <ele>285</ele>
        <time>2017-05-26T09:11:14Z</time>
      </trkpt>
      <trkpt lat="45.95756" lon="4.87914">
        <ele>285</ele>
        <time>2017-05-26T09:11:15Z</time>
      </trkpt>
      <trkpt lat="45.95751" lon="4.87918">
        <ele>285</ele>
        <time>2017-05-26T09:11:16Z</time>
      </trkpt>
      <trkpt lat="45.95745" lon="4.87921">
        <ele>284</ele>
        <time>2017-05-26T09:11:17Z</time>
      </trkpt>
      <trkpt lat="45.9574" lon="4.87926">
        <ele>284</ele>
        <time>2017-05-26T09:11:18Z</time>
      </trkpt>
      <trkpt lat="45.95735" lon="4.8793">
        <ele>284</ele>
        <time>2017-05-26T09:11:19Z</time>
      </trkpt>
      <trkpt lat="45.95729" lon="4.87935">
        <ele>283</ele>
        <time>2017-05-26T09:11:20Z</time>
      </trkpt>
      <trkpt lat="45.95723" lon="4.87939">
        <ele>283</ele>
        <time>2017-05-26T09:11:21Z</time>
      </trkpt>
      <trkpt lat="45.95718" lon="4.87945">
        <ele>283</ele>
        <time>2017-05-26T09:11:22Z</time>
      </trkpt>
      <trkpt lat="45.95712" lon="4.8795">
        <ele>283</ele>
        <time>2017-05-26T09:11:23Z</time>
      </trkpt>
      <trkpt lat="45.95706" lon="4.87955">
        <ele>283</ele>
        <time>2017-05-26T09:11:24Z</time>
      </trkpt>
      <trkpt lat="45.95701" lon="4.87961">
        <ele>283</ele>
        <time>2017-05-26T09:11:25Z</time>
      </trkpt>
      <trkpt lat="45.95695" lon="4.87966">
        <ele>282</ele>
        <time>2017-05-26T09:11:26Z</time>
      </trkpt>
      <trkpt lat="45.95688" lon="4.87972">
        <ele>282</ele>
        <time>2017-05-26T09:11:27Z</time>
      </trkpt>
      <trkpt lat="45.95682" lon="4.87977">
        <ele>282</ele>
        <time>2017-05-26T09:11:28Z</time>
      </trkpt>
      <trkpt lat="45.95675" lon="4.87983">
        <ele>282</ele>
        <time>2017-05-26T09:11:29Z</time>
      </trkpt>
      <trkpt lat="45.95669" lon="4.8799">
        <ele>282</ele>
        <time>2017-05-26T09:11:30Z</time>
      </trkpt>
      <trkpt lat="45.95662" lon="4.87996">
        <ele>280</ele>
        <time>2017-05-26T09:11:31Z</time>
      </trkpt>
      <trkpt lat="45.95655" lon="4.88002">
        <ele>280</ele>
        <time>2017-05-26T09:11:32Z</time>
      </trkpt>
      <trkpt lat="45.95648" lon="4.88009">
        <ele>280</ele>
        <time>2017-05-26T09:11:33Z</time>
      </trkpt>
      <trkpt lat="45.95642" lon="4.88015">
        <ele>279</ele>
        <time>2017-05-26T09:11:34Z</time>
      </trkpt>
      <trkpt lat="45.95635" lon="4.88021">
        <ele>279</ele>
        <time>2017-05-26T09:11:35Z</time>
      </trkpt>
      <trkpt lat="45.95629" lon="4.88026">
        <ele>279</ele>
        <time>2017-05-26T09:11:36Z</time>
      </trkpt>
      <trkpt lat="45.95623" lon="4.88032">
        <ele>278</ele>
        <time>2017-05-26T09:11:37Z</time>
      </trkpt>
      <trkpt lat="45.95616" lon="4.88038">
        <ele>278</ele>
        <time>2017-05-26T09:11:38Z</time>
      </trkpt>
      <trkpt lat="45.9561" lon="4.88044">
        <ele>278</ele>
        <time>2017-05-26T09:11:39Z</time>
      </trkpt>
      <trkpt lat="45.95604" lon="4.8805">
        <ele>278</ele>
        <time>2017-05-26T09:11:40Z</time>
      </trkpt>
      <trkpt lat="45.95597" lon="4.88055">
        <ele>278</ele>
        <time>2017-05-26T09:11:41Z</time>
      </trkpt>
      <trkpt lat="45.95591" lon="4.8806">
        <ele>278</ele>
        <time>2017-05-26T09:11:42Z</time>
      </trkpt>
      <trkpt lat="45.95585" lon="4.88066">
        <ele>278</ele>
        <time>2017-05-26T09:11:43Z</time>
      </trkpt>
      <trkpt lat="45.95578" lon="4.8807">
        <ele>276</ele>
        <time>2017-05-26T09:11:44Z</time>
      </trkpt>
      <trkpt lat="45.95572" lon="4.88075">
        <ele>276</ele>
        <time>2017-05-26T09:11:45Z</time>
      </trkpt>
      <trkpt lat="45.95566" lon="4.8808">
        <ele>276</ele>
        <time>2017-05-26T09:11:46Z</time>
      </trkpt>
      <trkpt lat="45.9556" lon="4.88083">
        <ele>276</ele>
        <time>2017-05-26T09:11:47Z</time>
      </trkpt>
      <trkpt lat="45.95553" lon="4.88087">
        <ele>277</ele>
        <time>2017-05-26T09:11:48Z</time>
      </trkpt>
      <trkpt lat="45.95547" lon="4.8809">
        <ele>277</ele>
        <time>2017-05-26T09:11:49Z</time>
      </trkpt>
      <trkpt lat="45.9554" lon="4.88093">
        <ele>277</ele>
        <time>2017-05-26T09:11:50Z</time>
      </trkpt>
      <trkpt lat="45.95534" lon="4.88096">
        <ele>277</ele>
        <time>2017-05-26T09:11:51Z</time>
      </trkpt>
      <trkpt lat="45.95528" lon="4.88099">
        <ele>277</ele>
        <time>2017-05-26T09:11:52Z</time>
      </trkpt>
      <trkpt lat="45.95522" lon="4.88102">
        <ele>277</ele>
        <time>2017-05-26T09:11:53Z</time>
      </trkpt>
      <trkpt lat="45.95516" lon="4.88104">
        <ele>276</ele>
        <time>2017-05-26T09:11:54Z</time>
      </trkpt>
      <trkpt lat="45.95511" lon="4.88107">
        <ele>276</ele>
        <time>2017-05-26T09:11:55Z</time>
      </trkpt>
      <trkpt lat="45.95505" lon="4.88109">
        <ele>276</ele>
        <time>2017-05-26T09:11:56Z</time>
      </trkpt>
      <trkpt lat="45.95499" lon="4.88111">
        <ele>276</ele>
        <time>2017-05-26T09:11:57Z</time>
      </trkpt>
      <trkpt lat="45.95493" lon="4.88114">
        <ele>276</ele>
        <time>2017-05-26T09:11:58Z</time>
      </trkpt>
      <trkpt lat="45.95488" lon="4.88116">
        <ele>276</ele>
        <time>2017-05-26T09:11:59Z</time>
      </trkpt>
      <trkpt lat="45.95482" lon="4.88119">
        <ele>276</ele>
        <time>2017-05-26T09:12:00Z</time>
      </trkpt>
      <trkpt lat="45.95477" lon="4.88122">
        <ele>276</ele>
        <time>2017-05-26T09:12:01Z</time>
      </trkpt>
      <trkpt lat="45.95471" lon="4.88125">
        <ele>276</ele>
        <time>2017-05-26T09:12:02Z</time>
      </trkpt>
      <trkpt lat="45.95466" lon="4.88127">
        <ele>276</ele>
        <time>2017-05-26T09:12:03Z</time>
      </trkpt>
      <trkpt lat="45.9546" lon="4.88129">
        <ele>276</ele>
        <time>2017-05-26T09:12:04Z</time>
      </trkpt>
      <trkpt lat="45.95455" lon="4.88132">
        <ele>276</ele>
        <time>2017-05-26T09:12:05Z</time>
      </trkpt>
      <trkpt lat="45.9545" lon="4.88134">
        <ele>276</ele>
        <time>2017-05-26T09:12:06Z</time>
      </trkpt>
      <trkpt lat="45.95445" lon="4.88136">
        <ele>276</ele>
        <time>2017-05-26T09:12:07Z</time>
      </trkpt>
      <trkpt lat="45.9544" lon="4.88138">
        <ele>276</ele>
        <time>2017-05-26T09:12:08Z</time>
      </trkpt>
      <trkpt lat="45.95435" lon="4.88141">
        <ele>276</ele>
        <time>2017-05-26T09:12:09Z</time>
      </trkpt>
      <trkpt lat="45.9543" lon="4.88143">
        <ele>276</ele>
        <time>2017-05-26T09:12:10Z</time>
      </trkpt>
      <trkpt lat="45.95425" lon="4.88146">
        <ele>276</ele>
        <time>2017-05-26T09:12:11Z</time>
      </trkpt>
      <trkpt lat="45.9542" lon="4.8815">
        <ele>276</ele>
        <time>2017-05-26T09:12:12Z</time>
      </trkpt>
      <trkpt lat="45.95415" lon="4.88152">
        <ele>276</ele>
        <time>2017-05-26T09:12:13Z</time>
      </trkpt>
      <trkpt lat="45.9541" lon="4.88155">
        <ele>276</ele>
        <time>2017-05-26T09:12:14Z</time>
      </trkpt>
      <trkpt lat="45.95405" lon="4.88156">
        <ele>276</ele>
        <time>2017-05-26T09:12:15Z</time>
      </trkpt>
      <trkpt lat="45.954" lon="4.88157">
        <ele>276</ele>
        <time>2017-05-26T09:12:16Z</time>
      </trkpt>
      <trkpt lat="45.95395" lon="4.88158">
        <ele>276</ele>
        <time>2017-05-26T09:12:17Z</time>
      </trkpt>
      <trkpt lat="45.9539" lon="4.88159">
        <ele>276</ele>
        <time>2017-05-26T09:12:18Z</time>
      </trkpt>
      <trkpt lat="45.95384" lon="4.8816">
        <ele>276</ele>
        <time>2017-05-26T09:12:19Z</time>
      </trkpt>
      <trkpt lat="45.95379" lon="4.88162">
        <ele>276</ele>
        <time>2017-05-26T09:12:20Z</time>
      </trkpt>
      <trkpt lat="45.95374" lon="4.88164">
        <ele>276</ele>
        <time>2017-05-26T09:12:21Z</time>
      </trkpt>
      <trkpt lat="45.95368" lon="4.88165">
        <ele>276</ele>
        <time>2017-05-26T09:12:22Z</time>
      </trkpt>
      <trkpt lat="45.95363" lon="4.88165">
        <ele>276</ele>
        <time>2017-05-26T09:12:23Z</time>
      </trkpt>
      <trkpt lat="45.95357" lon="4.88166">
        <ele>277</ele>
        <time>2017-05-26T09:12:24Z</time>
      </trkpt>
      <trkpt lat="45.95352" lon="4.88166">
        <ele>277</ele>
        <time>2017-05-26T09:12:25Z</time>
      </trkpt>
      <trkpt lat="45.95346" lon="4.88167">
        <ele>277</ele>
        <time>2017-05-26T09:12:26Z</time>
      </trkpt>
      <trkpt lat="45.95341" lon="4.88167">
        <ele>278</ele>
        <time>2017-05-26T09:12:27Z</time>
      </trkpt>
      <trkpt lat="45.95336" lon="4.88167">
        <ele>278</ele>
        <time>2017-05-26T09:12:28Z</time>
      </trkpt>
      <trkpt lat="45.95331" lon="4.88166">
        <ele>278</ele>
        <time>2017-05-26T09:12:29Z</time>
      </trkpt>
      <trkpt lat="45.95325" lon="4.88166">
        <ele>278</ele>
        <time>2017-05-26T09:12:30Z</time>
      </trkpt>
      <trkpt lat="45.9532" lon="4.88166">
        <ele>278</ele>
        <time>2017-05-26T09:12:31Z</time>
      </trkpt>
      <trkpt lat="45.95314" lon="4.88166">
        <ele>278</ele>
        <time>2017-05-26T09:12:32Z</time>
      </trkpt>
      <trkpt lat="45.95309" lon="4.88166">
        <ele>278</ele>
        <time>2017-05-26T09:12:33Z</time>
      </trkpt>
      <trkpt lat="45.95303" lon="4.88166">
        <ele>278</ele>
        <time>2017-05-26T09:12:34Z</time>
      </trkpt>
      <trkpt lat="45.95297" lon="4.88166">
        <ele>279</ele>
        <time>2017-05-26T09:12:35Z</time>
      </trkpt>
      <trkpt lat="45.95292" lon="4.88165">
        <ele>279</ele>
        <time>2017-05-26T09:12:36Z</time>
      </trkpt>
      <trkpt lat="45.95286" lon="4.88164">
        <ele>279</ele>
        <time>2017-05-26T09:12:37Z</time>
      </trkpt>
      <trkpt lat="45.9528" lon="4.88163">
        <ele>279</ele>
        <time>2017-05-26T09:12:38Z</time>
      </trkpt>
      <trkpt lat="45.95274" lon="4.88163">
        <ele>279</ele>
        <time>2017-05-26T09:12:39Z</time>
      </trkpt>
      <trkpt lat="45.95268" lon="4.88163">
        <ele>280</ele>
        <time>2017-05-26T09:12:40Z</time>
      </trkpt>
      <trkpt lat="45.95262" lon="4.88163">
        <ele>280</ele>
        <time>2017-05-26T09:12:41Z</time>
      </trkpt>
      <trkpt lat="45.95256" lon="4.88164">
        <ele>280</ele>
        <time>2017-05-26T09:12:42Z</time>
      </trkpt>
      <trkpt lat="45.95251" lon="4.88164">
        <ele>281</ele>
        <time>2017-05-26T09:12:43Z</time>
      </trkpt>
      <trkpt lat="45.95247" lon="4.88164">
        <ele>281</ele>
        <time>2017-05-26T09:12:44Z</time>
      </trkpt>
      <trkpt lat="45.95238" lon="4.88164">
        <ele>281</ele>
        <time>2017-05-26T09:12:46Z</time>
      </trkpt>
      <trkpt lat="45.95234" lon="4.88164">
        <ele>281</ele>
        <time>2017-05-26T09:12:47Z</time>
      </trkpt>
      <trkpt lat="45.95227" lon="4.88165">
        <ele>282</ele>
        <time>2017-05-26T09:12:49Z</time>
      </trkpt>
      <trkpt lat="45.95223" lon="4.88165">
        <ele>282</ele>
        <time>2017-05-26T09:12:50Z</time>
      </trkpt>
      <trkpt lat="45.95218" lon="4.88165">
        <ele>282</ele>
        <time>2017-05-26T09:12:51Z</time>
      </trkpt>
      <trkpt lat="45.95214" lon="4.88165">
        <ele>282</ele>
        <time>2017-05-26T09:12:52Z</time>
      </trkpt>
      <trkpt lat="45.95209" lon="4.88165">
        <ele>282</ele>
        <time>2017-05-26T09:12:53Z</time>
      </trkpt>
      <trkpt lat="45.95204" lon="4.88165">
        <ele>282</ele>
        <time>2017-05-26T09:12:54Z</time>
      </trkpt>
      <trkpt lat="45.95199" lon="4.88164">
        <ele>283</ele>
        <time>2017-05-26T09:12:55Z</time>
      </trkpt>
      <trkpt lat="45.95194" lon="4.88165">
        <ele>283</ele>
        <time>2017-05-26T09:12:56Z</time>
      </trkpt>
      <trkpt lat="45.95189" lon="4.88166">
        <ele>283</ele>
        <time>2017-05-26T09:12:57Z</time>
      </trkpt>
      <trkpt lat="45.95184" lon="4.88166">
        <ele>283</ele>
        <time>2017-05-26T09:12:58Z</time>
      </trkpt>
      <trkpt lat="45.95177" lon="4.88167">
        <ele>284</ele>
        <time>2017-05-26T09:13:00Z</time>
      </trkpt>
      <trkpt lat="45.95173" lon="4.88166">
        <ele>284</ele>
        <time>2017-05-26T09:13:01Z</time>
      </trkpt>
      <trkpt lat="45.95168" lon="4.88159">
        <ele>284</ele>
        <time>2017-05-26T09:13:03Z</time>
      </trkpt>
      <trkpt lat="45.95167" lon="4.88154">
        <ele>284</ele>
        <time>2017-05-26T09:13:04Z</time>
      </trkpt>
      <trkpt lat="45.9517" lon="4.88144">
        <ele>283</ele>
        <time>2017-05-26T09:13:06Z</time>
      </trkpt>
      <trkpt lat="45.95172" lon="4.88139">
        <ele>283</ele>
        <time>2017-05-26T09:13:07Z</time>
      </trkpt>
      <trkpt lat="45.95175" lon="4.88128">
        <ele>282</ele>
        <time>2017-05-26T09:13:09Z</time>
      </trkpt>
      <trkpt lat="45.95177" lon="4.88123">
        <ele>282</ele>
        <time>2017-05-26T09:13:10Z</time>
      </trkpt>
      <trkpt lat="45.9518" lon="4.88112">
        <ele>282</ele>
        <time>2017-05-26T09:13:12Z</time>
      </trkpt>
      <trkpt lat="45.95181" lon="4.88106">
        <ele>282</ele>
        <time>2017-05-26T09:13:13Z</time>
      </trkpt>
      <trkpt lat="45.95183" lon="4.88094">
        <ele>282</ele>
        <time>2017-05-26T09:13:15Z</time>
      </trkpt>
      <trkpt lat="45.95185" lon="4.88088">
        <ele>282</ele>
        <time>2017-05-26T09:13:16Z</time>
      </trkpt>
      <trkpt lat="45.95188" lon="4.88077">
        <ele>281</ele>
        <time>2017-05-26T09:13:18Z</time>
      </trkpt>
      <trkpt lat="45.9519" lon="4.8807">
        <ele>281</ele>
        <time>2017-05-26T09:13:19Z</time>
      </trkpt>
      <trkpt lat="45.95192" lon="4.88064">
        <ele>281</ele>
        <time>2017-05-26T09:13:20Z</time>
      </trkpt>
      <trkpt lat="45.95194" lon="4.88057">
        <ele>281</ele>
        <time>2017-05-26T09:13:21Z</time>
      </trkpt>
      <trkpt lat="45.95197" lon="4.88051">
        <ele>281</ele>
        <time>2017-05-26T09:13:22Z</time>
      </trkpt>
      <trkpt lat="45.952" lon="4.88044">
        <ele>281</ele>
        <time>2017-05-26T09:13:23Z</time>
      </trkpt>
      <trkpt lat="45.95204" lon="4.88037">
        <ele>281</ele>
        <time>2017-05-26T09:13:24Z</time>
      </trkpt>
      <trkpt lat="45.95208" lon="4.88031">
        <ele>281</ele>
        <time>2017-05-26T09:13:25Z</time>
      </trkpt>
      <trkpt lat="45.95212" lon="4.88025">
        <ele>281</ele>
        <time>2017-05-26T09:13:26Z</time>
      </trkpt>
      <trkpt lat="45.95217" lon="4.88018">
        <ele>281</ele>
        <time>2017-05-26T09:13:27Z</time>
      </trkpt>
      <trkpt lat="45.95221" lon="4.88013">
        <ele>281</ele>
        <time>2017-05-26T09:13:28Z</time>
      </trkpt>
      <trkpt lat="45.95225" lon="4.88008">
        <ele>281</ele>
        <time>2017-05-26T09:13:29Z</time>
      </trkpt>
      <trkpt lat="45.95229" lon="4.88003">
        <ele>280</ele>
        <time>2017-05-26T09:13:30Z</time>
      </trkpt>
      <trkpt lat="45.95233" lon="4.87998">
        <ele>281</ele>
        <time>2017-05-26T09:13:31Z</time>
      </trkpt>
      <trkpt lat="45.95237" lon="4.87993">
        <ele>281</ele>
        <time>2017-05-26T09:13:32Z</time>
      </trkpt>
      <trkpt lat="45.9524" lon="4.87987">
        <ele>281</ele>
        <time>2017-05-26T09:13:33Z</time>
      </trkpt>
      <trkpt lat="45.95244" lon="4.87981">
        <ele>281</ele>
        <time>2017-05-26T09:13:34Z</time>
      </trkpt>
      <trkpt lat="45.95248" lon="4.87975">
        <ele>282</ele>
        <time>2017-05-26T09:13:35Z</time>
      </trkpt>
      <trkpt lat="45.95252" lon="4.87969">
        <ele>280</ele>
        <time>2017-05-26T09:13:36Z</time>
      </trkpt>
      <trkpt lat="45.95255" lon="4.87963">
        <ele>280</ele>
        <time>2017-05-26T09:13:37Z</time>
      </trkpt>
      <trkpt lat="45.95258" lon="4.87957">
        <ele>280</ele>
        <time>2017-05-26T09:13:38Z</time>
      </trkpt>
      <trkpt lat="45.9526" lon="4.87949">
        <ele>280</ele>
        <time>2017-05-26T09:13:39Z</time>
      </trkpt>
      <trkpt lat="45.95262" lon="4.87941">
        <ele>280</ele>
        <time>2017-05-26T09:13:40Z</time>
      </trkpt>
      <trkpt lat="45.95263" lon="4.87933">
        <ele>281</ele>
        <time>2017-05-26T09:13:41Z</time>
      </trkpt>
      <trkpt lat="45.95263" lon="4.87925">
        <ele>281</ele>
        <time>2017-05-26T09:13:42Z</time>
      </trkpt>
      <trkpt lat="45.95263" lon="4.87917">
        <ele>281</ele>
        <time>2017-05-26T09:13:43Z</time>
      </trkpt>
      <trkpt lat="45.95262" lon="4.87909">
        <ele>281</ele>
        <time>2017-05-26T09:13:44Z</time>
      </trkpt>
      <trkpt lat="45.95261" lon="4.87901">
        <ele>281</ele>
        <time>2017-05-26T09:13:45Z</time>
      </trkpt>
      <trkpt lat="45.9526" lon="4.87893">
        <ele>281</ele>
        <time>2017-05-26T09:13:46Z</time>
      </trkpt>
      <trkpt lat="45.95258" lon="4.87885">
        <ele>281</ele>
        <time>2017-05-26T09:13:47Z</time>
      </trkpt>
      <trkpt lat="45.95256" lon="4.87877">
        <ele>281</ele>
        <time>2017-05-26T09:13:48Z</time>
      </trkpt>
      <trkpt lat="45.95254" lon="4.8787">
        <ele>281</ele>
        <time>2017-05-26T09:13:49Z</time>
      </trkpt>
      <trkpt lat="45.95253" lon="4.87863">
        <ele>281</ele>
        <time>2017-05-26T09:13:50Z</time>
      </trkpt>
      <trkpt lat="45.95251" lon="4.87856">
        <ele>281</ele>
        <time>2017-05-26T09:13:51Z</time>
      </trkpt>
      <trkpt lat="45.9525" lon="4.87849">
        <ele>281</ele>
        <time>2017-05-26T09:13:52Z</time>
      </trkpt>
      <trkpt lat="45.95249" lon="4.87842">
        <ele>283</ele>
        <time>2017-05-26T09:13:53Z</time>
      </trkpt>
      <trkpt lat="45.95248" lon="4.87835">
        <ele>282</ele>
        <time>2017-05-26T09:13:54Z</time>
      </trkpt>
      <trkpt lat="45.95247" lon="4.87827">
        <ele>282</ele>
        <time>2017-05-26T09:13:55Z</time>
      </trkpt>
      <trkpt lat="45.95246" lon="4.8782">
        <ele>282</ele>
        <time>2017-05-26T09:13:56Z</time>
      </trkpt>
      <trkpt lat="45.95244" lon="4.87812">
        <ele>282</ele>
        <time>2017-05-26T09:13:57Z</time>
      </trkpt>
      <trkpt lat="45.95243" lon="4.87805">
        <ele>282</ele>
        <time>2017-05-26T09:13:58Z</time>
      </trkpt>
      <trkpt lat="45.95242" lon="4.87797">
        <ele>282</ele>
        <time>2017-05-26T09:13:59Z</time>
      </trkpt>
      <trkpt lat="45.95241" lon="4.87789">
        <ele>282</ele>
        <time>2017-05-26T09:14:00Z</time>
      </trkpt>
      <trkpt lat="45.9524" lon="4.87781">
        <ele>282</ele>
        <time>2017-05-26T09:14:01Z</time>
      </trkpt>
      <trkpt lat="45.95238" lon="4.87774">
        <ele>282</ele>
        <time>2017-05-26T09:14:02Z</time>
      </trkpt>
      <trkpt lat="45.95237" lon="4.87766">
        <ele>282</ele>
        <time>2017-05-26T09:14:03Z</time>
      </trkpt>
      <trkpt lat="45.95236" lon="4.87758">
        <ele>281</ele>
        <time>2017-05-26T09:14:04Z</time>
      </trkpt>
      <trkpt lat="45.95235" lon="4.87751">
        <ele>281</ele>
        <time>2017-05-26T09:14:05Z</time>
      </trkpt>
      <trkpt lat="45.95233" lon="4.87743">
        <ele>280</ele>
        <time>2017-05-26T09:14:06Z</time>
      </trkpt>
      <trkpt lat="45.95231" lon="4.87736">
        <ele>280</ele>
        <time>2017-05-26T09:14:07Z</time>
      </trkpt>
      <trkpt lat="45.95229" lon="4.87729">
        <ele>280</ele>
        <time>2017-05-26T09:14:08Z</time>
      </trkpt>
      <trkpt lat="45.95228" lon="4.87722">
        <ele>280</ele>
        <time>2017-05-26T09:14:09Z</time>
      </trkpt>
      <trkpt lat="45.95227" lon="4.87714">
        <ele>279</ele>
        <time>2017-05-26T09:14:10Z</time>
      </trkpt>
      <trkpt lat="45.95226" lon="4.87706">
        <ele>279</ele>
        <time>2017-05-26T09:14:11Z</time>
      </trkpt>
      <trkpt lat="45.95225" lon="4.87697">
        <ele>279</ele>
        <time>2017-05-26T09:14:12Z</time>
      </trkpt>
      <trkpt lat="45.95224" lon="4.87687">
        <ele>279</ele>
        <time>2017-05-26T09:14:13Z</time>
      </trkpt>
      <trkpt lat="45.95223" lon="4.87678">
        <ele>278</ele>
        <time>2017-05-26T09:14:14Z</time>
      </trkpt>
      <trkpt lat="45.9522" lon="4.87667">
        <ele>278</ele>
        <time>2017-05-26T09:14:15Z</time>
      </trkpt>
      <trkpt lat="45.95218" lon="4.87657">
        <ele>276</ele>
        <time>2017-05-26T09:14:16Z</time>
      </trkpt>
      <trkpt lat="45.95216" lon="4.87646">
        <ele>276</ele>
        <time>2017-05-26T09:14:17Z</time>
      </trkpt>
      <trkpt lat="45.95216" lon="4.87636">
        <ele>276</ele>
        <time>2017-05-26T09:14:18Z</time>
      </trkpt>
      <trkpt lat="45.95214" lon="4.87625">
        <ele>276</ele>
        <time>2017-05-26T09:14:19Z</time>
      </trkpt>
      <trkpt lat="45.95213" lon="4.87615">
        <ele>276</ele>
        <time>2017-05-26T09:14:20Z</time>
      </trkpt>
      <trkpt lat="45.95211" lon="4.87603">
        <ele>276</ele>
        <time>2017-05-26T09:14:21Z</time>
      </trkpt>
      <trkpt lat="45.95211" lon="4.87592">
        <ele>276</ele>
        <time>2017-05-26T09:14:22Z</time>
      </trkpt>
      <trkpt lat="45.9521" lon="4.8758">
        <ele>274</ele>
        <time>2017-05-26T09:14:23Z</time>
      </trkpt>
      <trkpt lat="45.95209" lon="4.87567">
        <ele>274</ele>
        <time>2017-05-26T09:14:24Z</time>
      </trkpt>
      <trkpt lat="45.95208" lon="4.87555">
        <ele>274</ele>
        <time>2017-05-26T09:14:25Z</time>
      </trkpt>
      <trkpt lat="45.95206" lon="4.87543">
        <ele>274</ele>
        <time>2017-05-26T09:14:26Z</time>
      </trkpt>
      <trkpt lat="45.95204" lon="4.87531">
        <ele>274</ele>
        <time>2017-05-26T09:14:27Z</time>
      </trkpt>
      <trkpt lat="45.95201" lon="4.8752">
        <ele>273</ele>
        <time>2017-05-26T09:14:28Z</time>
      </trkpt>
      <trkpt lat="45.95199" lon="4.87508">
        <ele>273</ele>
        <time>2017-05-26T09:14:29Z</time>
      </trkpt>
      <trkpt lat="45.95196" lon="4.87496">
        <ele>272</ele>
        <time>2017-05-26T09:14:30Z</time>
      </trkpt>
      <trkpt lat="45.95194" lon="4.87485">
        <ele>272</ele>
        <time>2017-05-26T09:14:31Z</time>
      </trkpt>
      <trkpt lat="45.95191" lon="4.87474">
        <ele>272</ele>
        <time>2017-05-26T09:14:32Z</time>
      </trkpt>
      <trkpt lat="45.95189" lon="4.87463">
        <ele>272</ele>
        <time>2017-05-26T09:14:33Z</time>
      </trkpt>
      <trkpt lat="45.95186" lon="4.87452">
        <ele>272</ele>
        <time>2017-05-26T09:14:34Z</time>
      </trkpt>
      <trkpt lat="45.95184" lon="4.87441">
        <ele>272</ele>
        <time>2017-05-26T09:14:35Z</time>
      </trkpt>
      <trkpt lat="45.95181" lon="4.87431">
        <ele>271</ele>
        <time>2017-05-26T09:14:36Z</time>
      </trkpt>
      <trkpt lat="45.95178" lon="4.87422">
        <ele>271</ele>
        <time>2017-05-26T09:14:37Z</time>
      </trkpt>
      <trkpt lat="45.95176" lon="4.87413">
        <ele>271</ele>
        <time>2017-05-26T09:14:38Z</time>
      </trkpt>
      <trkpt lat="45.95174" lon="4.87404">
        <ele>271</ele>
        <time>2017-05-26T09:14:39Z</time>
      </trkpt>
      <trkpt lat="45.95172" lon="4.87396">
        <ele>271</ele>
        <time>2017-05-26T09:14:40Z</time>
      </trkpt>
      <trkpt lat="45.95169" lon="4.87389">
        <ele>271</ele>
        <time>2017-05-26T09:14:41Z</time>
      </trkpt>
      <trkpt lat="45.95167" lon="4.8738">
        <ele>271</ele>
        <time>2017-05-26T09:14:42Z</time>
      </trkpt>
      <trkpt lat="45.95166" lon="4.87371">
        <ele>272</ele>
        <time>2017-05-26T09:14:43Z</time>
      </trkpt>
      <trkpt lat="45.95163" lon="4.87363">
        <ele>272</ele>
        <time>2017-05-26T09:14:44Z</time>
      </trkpt>
      <trkpt lat="45.95161" lon="4.87356">
        <ele>272</ele>
        <time>2017-05-26T09:14:45Z</time>
      </trkpt>
      <trkpt lat="45.9516" lon="4.87348">
        <ele>272</ele>
        <time>2017-05-26T09:14:46Z</time>
      </trkpt>
      <trkpt lat="45.95158" lon="4.8734">
        <ele>272</ele>
        <time>2017-05-26T09:14:47Z</time>
      </trkpt>
      <trkpt lat="45.95156" lon="4.87333">
        <ele>272</ele>
        <time>2017-05-26T09:14:48Z</time>
      </trkpt>
      <trkpt lat="45.95155" lon="4.87327">
        <ele>273</ele>
        <time>2017-05-26T09:14:49Z</time>
      </trkpt>
      <trkpt lat="45.95154" lon="4.8732">
        <ele>273</ele>
        <time>2017-05-26T09:14:50Z</time>
      </trkpt>
      <trkpt lat="45.95153" lon="4.87314">
        <ele>273</ele>
        <time>2017-05-26T09:14:51Z</time>
      </trkpt>
      <trkpt lat="45.95152" lon="4.87307">
        <ele>274</ele>
        <time>2017-05-26T09:14:52Z</time>
      </trkpt>
      <trkpt lat="45.9515" lon="4.87299">
        <ele>274</ele>
        <time>2017-05-26T09:14:53Z</time>
      </trkpt>
      <trkpt lat="45.95149" lon="4.87291">
        <ele>274</ele>
        <time>2017-05-26T09:14:54Z</time>
      </trkpt>
      <trkpt lat="45.95147" lon="4.87283">
        <ele>274</ele>
        <time>2017-05-26T09:14:55Z</time>
      </trkpt>
      <trkpt lat="45.95145" lon="4.87275">
        <ele>274</ele>
        <time>2017-05-26T09:14:56Z</time>
      </trkpt>
      <trkpt lat="45.95143" lon="4.87267">
        <ele>274</ele>
        <time>2017-05-26T09:14:57Z</time>
      </trkpt>
      <trkpt lat="45.95142" lon="4.87258">
        <ele>274</ele>
        <time>2017-05-26T09:14:58Z</time>
      </trkpt>
      <trkpt lat="45.9514" lon="4.87249">
        <ele>275</ele>
        <time>2017-05-26T09:14:59Z</time>
      </trkpt>
      <trkpt lat="45.95138" lon="4.8724">
        <ele>275</ele>
        <time>2017-05-26T09:15:00Z</time>
      </trkpt>
      <trkpt lat="45.95137" lon="4.87232">
        <ele>276</ele>
        <time>2017-05-26T09:15:01Z</time>
      </trkpt>
      <trkpt lat="45.95134" lon="4.87223">
        <ele>276</ele>
        <time>2017-05-26T09:15:02Z</time>
      </trkpt>
      <trkpt lat="45.95132" lon="4.87214">
        <ele>276</ele>
        <time>2017-05-26T09:15:03Z</time>
      </trkpt>
      <trkpt lat="45.9513" lon="4.87206">
        <ele>276</ele>
        <time>2017-05-26T09:15:04Z</time>
      </trkpt>
      <trkpt lat="45.95129" lon="4.87197">
        <ele>276</ele>
        <time>2017-05-26T09:15:05Z</time>
      </trkpt>
      <trkpt lat="45.95127" lon="4.87188">
        <ele>276</ele>
        <time>2017-05-26T09:15:06Z</time>
      </trkpt>
      <trkpt lat="45.95125" lon="4.87179">
        <ele>276</ele>
        <time>2017-05-26T09:15:07Z</time>
      </trkpt>
      <trkpt lat="45.95123" lon="4.87171">
        <ele>276</ele>
        <time>2017-05-26T09:15:08Z</time>
      </trkpt>
      <trkpt lat="45.95121" lon="4.87162">
        <ele>277</ele>
        <time>2017-05-26T09:15:09Z</time>
      </trkpt>
      <trkpt lat="45.95117" lon="4.87153">
        <ele>277</ele>
        <time>2017-05-26T09:15:10Z</time>
      </trkpt>
      <trkpt lat="45.95115" lon="4.87144">
        <ele>277</ele>
        <time>2017-05-26T09:15:11Z</time>
      </trkpt>
      <trkpt lat="45.95113" lon="4.87136">
        <ele>277</ele>
        <time>2017-05-26T09:15:12Z</time>
      </trkpt>
      <trkpt lat="45.95111" lon="4.87128">
        <ele>277</ele>
        <time>2017-05-26T09:15:13Z</time>
      </trkpt>
      <trkpt lat="45.9511" lon="4.8712">
        <ele>277</ele>
        <time>2017-05-26T09:15:14Z</time>
      </trkpt>
      <trkpt lat="45.95108" lon="4.87113">
        <ele>277</ele>
        <time>2017-05-26T09:15:15Z</time>
      </trkpt>
      <trkpt lat="45.95106" lon="4.87106">
        <ele>277</ele>
        <time>2017-05-26T09:15:16Z</time>
      </trkpt>
      <trkpt lat="45.95104" lon="4.87098">
        <ele>277</ele>
        <time>2017-05-26T09:15:17Z</time>
      </trkpt>
      <trkpt lat="45.95103" lon="4.87092">
        <ele>277</ele>
        <time>2017-05-26T09:15:18Z</time>
      </trkpt>
      <trkpt lat="45.95101" lon="4.87086">
        <ele>277</ele>
        <time>2017-05-26T09:15:19Z</time>
      </trkpt>
      <trkpt lat="45.95096" lon="4.87075">
        <ele>277</ele>
        <time>2017-05-26T09:15:21Z</time>
      </trkpt>
      <trkpt lat="45.95094" lon="4.8707">
        <ele>277</ele>
        <time>2017-05-26T09:15:22Z</time>
      </trkpt>
      <trkpt lat="45.9509" lon="4.87059">
        <ele>277</ele>
        <time>2017-05-26T09:15:24Z</time>
      </trkpt>
      <trkpt lat="45.95088" lon="4.87054">
        <ele>277</ele>
        <time>2017-05-26T09:15:25Z</time>
      </trkpt>
      <trkpt lat="45.95082" lon="4.87044">
        <ele>277</ele>
        <time>2017-05-26T09:15:27Z</time>
      </trkpt>
      <trkpt lat="45.9508" lon="4.87039">
        <ele>277</ele>
        <time>2017-05-26T09:15:28Z</time>
      </trkpt>
      <trkpt lat="45.95077" lon="4.87034">
        <ele>277</ele>
        <time>2017-05-26T09:15:29Z</time>
      </trkpt>
      <trkpt lat="45.95074" lon="4.87029">
        <ele>277</ele>
        <time>2017-05-26T09:15:30Z</time>
      </trkpt>
      <trkpt lat="45.95071" lon="4.87024">
        <ele>277</ele>
        <time>2017-05-26T09:15:31Z</time>
      </trkpt>
      <trkpt lat="45.95068" lon="4.87018">
        <ele>277</ele>
        <time>2017-05-26T09:15:32Z</time>
      </trkpt>
      <trkpt lat="45.95065" lon="4.87012">
        <ele>277</ele>
        <time>2017-05-26T09:15:33Z</time>
      </trkpt>
      <trkpt lat="45.95062" lon="4.87007">
        <ele>277</ele>
        <time>2017-05-26T09:15:34Z</time>
      </trkpt>
      <trkpt lat="45.95059" lon="4.87001">
        <ele>277</ele>
        <time>2017-05-26T09:15:35Z</time>
      </trkpt>
      <trkpt lat="45.95056" lon="4.86995">
        <ele>276</ele>
        <time>2017-05-26T09:15:36Z</time>
      </trkpt>
      <trkpt lat="45.95053" lon="4.86989">
        <ele>276</ele>
        <time>2017-05-26T09:15:37Z</time>
      </trkpt>
      <trkpt lat="45.9505" lon="4.86982">
        <ele>276</ele>
        <time>2017-05-26T09:15:38Z</time>
      </trkpt>
      <trkpt lat="45.95048" lon="4.86976">
        <ele>276</ele>
        <time>2017-05-26T09:15:39Z</time>
      </trkpt>
      <trkpt lat="45.95046" lon="4.86969">
        <ele>276</ele>
        <time>2017-05-26T09:15:40Z</time>
      </trkpt>
      <trkpt lat="45.95043" lon="4.86963">
        <ele>276</ele>
        <time>2017-05-26T09:15:41Z</time>
      </trkpt>
      <trkpt lat="45.9504" lon="4.86957">
        <ele>276</ele>
        <time>2017-05-26T09:15:42Z</time>
      </trkpt>
      <trkpt lat="45.95039" lon="4.8695">
        <ele>276</ele>
        <time>2017-05-26T09:15:43Z</time>
      </trkpt>
      <trkpt lat="45.95037" lon="4.86944">
        <ele>276</ele>
        <time>2017-05-26T09:15:44Z</time>
      </trkpt>
      <trkpt lat="45.95036" lon="4.86937">
        <ele>276</ele>
        <time>2017-05-26T09:15:45Z</time>
      </trkpt>
      <trkpt lat="45.95033" lon="4.8693">
        <ele>276</ele>
        <time>2017-05-26T09:15:46Z</time>
      </trkpt>
      <trkpt lat="45.95031" lon="4.86923">
        <ele>276</ele>
        <time>2017-05-26T09:15:47Z</time>
      </trkpt>
      <trkpt lat="45.95029" lon="4.86916">
        <ele>275</ele>
        <time>2017-05-26T09:15:48Z</time>
      </trkpt>
      <trkpt lat="45.95027" lon="4.86909">
        <ele>275</ele>
        <time>2017-05-26T09:15:49Z</time>
      </trkpt>
      <trkpt lat="45.95025" lon="4.86902">
        <ele>275</ele>
        <time>2017-05-26T09:15:50Z</time>
      </trkpt>
      <trkpt lat="45.95023" lon="4.86895">
        <ele>275</ele>
        <time>2017-05-26T09:15:51Z</time>
      </trkpt>
      <trkpt lat="45.95021" lon="4.86888">
        <ele>275</ele>
        <time>2017-05-26T09:15:52Z</time>
      </trkpt>
      <trkpt lat="45.95019" lon="4.86881">
        <ele>275</ele>
        <time>2017-05-26T09:15:53Z</time>
      </trkpt>
      <trkpt lat="45.95016" lon="4.86875">
        <ele>275</ele>
        <time>2017-05-26T09:15:54Z</time>
      </trkpt>
      <trkpt lat="45.95013" lon="4.86863">
        <ele>275</ele>
        <time>2017-05-26T09:15:56Z</time>
      </trkpt>
      <trkpt lat="45.95011" lon="4.86858">
        <ele>275</ele>
        <time>2017-05-26T09:15:57Z</time>
      </trkpt>
      <trkpt lat="45.95008" lon="4.86852">
        <ele>275</ele>
        <time>2017-05-26T09:15:58Z</time>
      </trkpt>
      <trkpt lat="45.95006" lon="4.86846">
        <ele>276</ele>
        <time>2017-05-26T09:15:59Z</time>
      </trkpt>
      <trkpt lat="45.95003" lon="4.8684">
        <ele>276</ele>
        <time>2017-05-26T09:16:00Z</time>
      </trkpt>
      <trkpt lat="45.95" lon="4.86833">
        <ele>276</ele>
        <time>2017-05-26T09:16:01Z</time>
      </trkpt>
      <trkpt lat="45.94997" lon="4.86826">
        <ele>276</ele>
        <time>2017-05-26T09:16:02Z</time>
      </trkpt>
      <trkpt lat="45.94994" lon="4.86818">
        <ele>276</ele>
        <time>2017-05-26T09:16:03Z</time>
      </trkpt>
      <trkpt lat="45.9499" lon="4.86811">
        <ele>276</ele>
        <time>2017-05-26T09:16:04Z</time>
      </trkpt>
      <trkpt lat="45.94987" lon="4.86803">
        <ele>276</ele>
        <time>2017-05-26T09:16:05Z</time>
      </trkpt>
      <trkpt lat="45.94982" lon="4.86796">
        <ele>276</ele>
        <time>2017-05-26T09:16:06Z</time>
      </trkpt>
      <trkpt lat="45.94979" lon="4.86789">
        <ele>276</ele>
        <time>2017-05-26T09:16:07Z</time>
      </trkpt>
      <trkpt lat="45.94975" lon="4.86783">
        <ele>275</ele>
        <time>2017-05-26T09:16:08Z</time>
      </trkpt>
      <trkpt lat="45.94972" lon="4.86776">
        <ele>275</ele>
        <time>2017-05-26T09:16:09Z</time>
      </trkpt>
      <trkpt lat="45.94968" lon="4.8677">
        <ele>275</ele>
        <time>2017-05-26T09:16:10Z</time>
      </trkpt>
      <trkpt lat="45.94965" lon="4.86764">
        <ele>275</ele>
        <time>2017-05-26T09:16:11Z</time>
      </trkpt>
      <trkpt lat="45.94961" lon="4.86758">
        <ele>275</ele>
        <time>2017-05-26T09:16:12Z</time>
      </trkpt>
      <trkpt lat="45.94958" lon="4.86752">
        <ele>275</ele>
        <time>2017-05-26T09:16:13Z</time>
      </trkpt>
      <trkpt lat="45.94955" lon="4.86746">
        <ele>275</ele>
        <time>2017-05-26T09:16:14Z</time>
      </trkpt>
      <trkpt lat="45.94952" lon="4.86739">
        <ele>275</ele>
        <time>2017-05-26T09:16:15Z</time>
      </trkpt>
      <trkpt lat="45.9495" lon="4.86733">
        <ele>275</ele>
        <time>2017-05-26T09:16:16Z</time>
      </trkpt>
      <trkpt lat="45.94949" lon="4.86726">
        <ele>275</ele>
        <time>2017-05-26T09:16:17Z</time>
      </trkpt>
      <trkpt lat="45.94947" lon="4.8672">
        <ele>275</ele>
        <time>2017-05-26T09:16:18Z</time>
      </trkpt>
      <trkpt lat="45.94946" lon="4.86714">
        <ele>275</ele>
        <time>2017-05-26T09:16:19Z</time>
      </trkpt>
      <trkpt lat="45.94943" lon="4.86702">
        <ele>276</ele>
        <time>2017-05-26T09:16:21Z</time>
      </trkpt>
      <trkpt lat="45.94942" lon="4.86696">
        <ele>276</ele>
        <time>2017-05-26T09:16:22Z</time>
      </trkpt>
      <trkpt lat="45.94941" lon="4.86684">
        <ele>276</ele>
        <time>2017-05-26T09:16:24Z</time>
      </trkpt>
      <trkpt lat="45.94941" lon="4.86677">
        <ele>276</ele>
        <time>2017-05-26T09:16:25Z</time>
      </trkpt>
      <trkpt lat="45.94941" lon="4.86671">
        <ele>276</ele>
        <time>2017-05-26T09:16:26Z</time>
      </trkpt>
      <trkpt lat="45.94942" lon="4.86664">
        <ele>276</ele>
        <time>2017-05-26T09:16:27Z</time>
      </trkpt>
      <trkpt lat="45.94944" lon="4.86657">
        <ele>276</ele>
        <time>2017-05-26T09:16:28Z</time>
      </trkpt>
      <trkpt lat="45.94945" lon="4.86651">
        <ele>276</ele>
        <time>2017-05-26T09:16:29Z</time>
      </trkpt>
      <trkpt lat="45.94948" lon="4.86645">
        <ele>276</ele>
        <time>2017-05-26T09:16:30Z</time>
      </trkpt>
      <trkpt lat="45.94951" lon="4.86639">
        <ele>276</ele>
        <time>2017-05-26T09:16:31Z</time>
      </trkpt>
      <trkpt lat="45.94955" lon="4.86635">
        <ele>276</ele>
        <time>2017-05-26T09:16:32Z</time>
      </trkpt>
      <trkpt lat="45.94959" lon="4.86631">
        <ele>275</ele>
        <time>2017-05-26T09:16:33Z</time>
      </trkpt>
      <trkpt lat="45.94965" lon="4.86623">
        <ele>275</ele>
        <time>2017-05-26T09:16:35Z</time>
      </trkpt>
      <trkpt lat="45.94966" lon="4.86621">
        <ele>275</ele>
        <time>2017-05-26T09:16:36Z</time>
      </trkpt>
      <trkpt lat="45.94966" lon="4.86621">
        <ele>275</ele>
        <time>2017-05-26T09:16:37Z</time>
      </trkpt>
      <trkpt lat="45.94969" lon="4.8662">
        <ele>275</ele>
        <time>2017-05-26T09:16:40Z</time>
      </trkpt>
      <trkpt lat="45.94971" lon="4.86619">
        <ele>275</ele>
        <time>2017-05-26T09:16:41Z</time>
      </trkpt>
      <trkpt lat="45.94978" lon="4.8662">
        <ele>275</ele>
        <time>2017-05-26T09:16:44Z</time>
      </trkpt>
      <trkpt lat="45.94981" lon="4.8662">
        <ele>275</ele>
        <time>2017-05-26T09:16:45Z</time>
      </trkpt>
      <trkpt lat="45.94988" lon="4.8662">
        <ele>275</ele>
        <time>2017-05-26T09:16:47Z</time>
      </trkpt>
      <trkpt lat="45.94992" lon="4.86618">
        <ele>275</ele>
        <time>2017-05-26T09:16:48Z</time>
      </trkpt>
      <trkpt lat="45.94997" lon="4.86617">
        <ele>275</ele>
        <time>2017-05-26T09:16:49Z</time>
      </trkpt>
      <trkpt lat="45.95002" lon="4.86616">
        <ele>273</ele>
        <time>2017-05-26T09:16:50Z</time>
      </trkpt>
      <trkpt lat="45.95007" lon="4.86615">
        <ele>273</ele>
        <time>2017-05-26T09:16:51Z</time>
      </trkpt>
      <trkpt lat="45.95012" lon="4.86614">
        <ele>273</ele>
        <time>2017-05-26T09:16:52Z</time>
      </trkpt>
      <trkpt lat="45.95018" lon="4.86614">
        <ele>273</ele>
        <time>2017-05-26T09:16:53Z</time>
      </trkpt>
      <trkpt lat="45.95024" lon="4.86613">
        <ele>273</ele>
        <time>2017-05-26T09:16:54Z</time>
      </trkpt>
      <trkpt lat="45.9503" lon="4.86612">
        <ele>273</ele>
        <time>2017-05-26T09:16:55Z</time>
      </trkpt>
      <trkpt lat="45.95036" lon="4.8661">
        <ele>273</ele>
        <time>2017-05-26T09:16:56Z</time>
      </trkpt>
      <trkpt lat="45.95042" lon="4.86608">
        <ele>272</ele>
        <time>2017-05-26T09:16:57Z</time>
      </trkpt>
      <trkpt lat="45.95048" lon="4.86606">
        <ele>272</ele>
        <time>2017-05-26T09:16:58Z</time>
      </trkpt>
      <trkpt lat="45.95055" lon="4.86604">
        <ele>272</ele>
        <time>2017-05-26T09:16:59Z</time>
      </trkpt>
      <trkpt lat="45.95062" lon="4.86602">
        <ele>272</ele>
        <time>2017-05-26T09:17:00Z</time>
      </trkpt>
      <trkpt lat="45.95068" lon="4.866">
        <ele>272</ele>
        <time>2017-05-26T09:17:01Z</time>
      </trkpt>
      <trkpt lat="45.95075" lon="4.86599">
        <ele>272</ele>
        <time>2017-05-26T09:17:02Z</time>
      </trkpt>
      <trkpt lat="45.95082" lon="4.86597">
        <ele>272</ele>
        <time>2017-05-26T09:17:03Z</time>
      </trkpt>
      <trkpt lat="45.9509" lon="4.86595">
        <ele>271</ele>
        <time>2017-05-26T09:17:04Z</time>
      </trkpt>
      <trkpt lat="45.95097" lon="4.86594">
        <ele>271</ele>
        <time>2017-05-26T09:17:05Z</time>
      </trkpt>
      <trkpt lat="45.95105" lon="4.86592">
        <ele>271</ele>
        <time>2017-05-26T09:17:06Z</time>
      </trkpt>
      <trkpt lat="45.95113" lon="4.8659">
        <ele>271</ele>
        <time>2017-05-26T09:17:07Z</time>
      </trkpt>
      <trkpt lat="45.95121" lon="4.86589">
        <ele>270</ele>
        <time>2017-05-26T09:17:08Z</time>
      </trkpt>
      <trkpt lat="45.95129" lon="4.86589">
        <ele>270</ele>
        <time>2017-05-26T09:17:09Z</time>
      </trkpt>
      <trkpt lat="45.95137" lon="4.86588">
        <ele>270</ele>
        <time>2017-05-26T09:17:10Z</time>
      </trkpt>
      <trkpt lat="45.95145" lon="4.86587">
        <ele>270</ele>
        <time>2017-05-26T09:17:11Z</time>
      </trkpt>
      <trkpt lat="45.95153" lon="4.86586">
        <ele>270</ele>
        <time>2017-05-26T09:17:12Z</time>
      </trkpt>
      <trkpt lat="45.95162" lon="4.86586">
        <ele>269</ele>
        <time>2017-05-26T09:17:13Z</time>
      </trkpt>
      <trkpt lat="45.9517" lon="4.86585">
        <ele>269</ele>
        <time>2017-05-26T09:17:14Z</time>
      </trkpt>
      <trkpt lat="45.95178" lon="4.86584">
        <ele>269</ele>
        <time>2017-05-26T09:17:15Z</time>
      </trkpt>
      <trkpt lat="45.95186" lon="4.86584">
        <ele>269</ele>
        <time>2017-05-26T09:17:16Z</time>
      </trkpt>
      <trkpt lat="45.95194" lon="4.86583">
        <ele>269</ele>
        <time>2017-05-26T09:17:17Z</time>
      </trkpt>
      <trkpt lat="45.95201" lon="4.86583">
        <ele>268</ele>
        <time>2017-05-26T09:17:18Z</time>
      </trkpt>
      <trkpt lat="45.95208" lon="4.86584">
        <ele>269</ele>
        <time>2017-05-26T09:17:19Z</time>
      </trkpt>
      <trkpt lat="45.95215" lon="4.86586">
        <ele>269</ele>
        <time>2017-05-26T09:17:20Z</time>
      </trkpt>
      <trkpt lat="45.95222" lon="4.86587">
        <ele>269</ele>
        <time>2017-05-26T09:17:21Z</time>
      </trkpt>
      <trkpt lat="45.95229" lon="4.86588">
        <ele>269</ele>
        <time>2017-05-26T09:17:22Z</time>
      </trkpt>
      <trkpt lat="45.95235" lon="4.86589">
        <ele>269</ele>
        <time>2017-05-26T09:17:23Z</time>
      </trkpt>
      <trkpt lat="45.95241" lon="4.8659">
        <ele>268</ele>
        <time>2017-05-26T09:17:24Z</time>
      </trkpt>
      <trkpt lat="45.95246" lon="4.8659">
        <ele>268</ele>
        <time>2017-05-26T09:17:25Z</time>
      </trkpt>
      <trkpt lat="45.95251" lon="4.8659">
        <ele>268</ele>
        <time>2017-05-26T09:17:26Z</time>
      </trkpt>
      <trkpt lat="45.95259" lon="4.86586">
        <ele>268</ele>
        <time>2017-05-26T09:17:28Z</time>
      </trkpt>
      <trkpt lat="45.95262" lon="4.86583">
        <ele>268</ele>
        <time>2017-05-26T09:17:29Z</time>
      </trkpt>
      <trkpt lat="45.95264" lon="4.86573">
        <ele>267</ele>
        <time>2017-05-26T09:17:31Z</time>
      </trkpt>
      <trkpt lat="45.95263" lon="4.86567">
        <ele>267</ele>
        <time>2017-05-26T09:17:32Z</time>
      </trkpt>
      <trkpt lat="45.95257" lon="4.86558">
        <ele>267</ele>
        <time>2017-05-26T09:17:34Z</time>
      </trkpt>
      <trkpt lat="45.95253" lon="4.86554">
        <ele>267</ele>
        <time>2017-05-26T09:17:35Z</time>
      </trkpt>
      <trkpt lat="45.9525" lon="4.86549">
        <ele>268</ele>
        <time>2017-05-26T09:17:36Z</time>
      </trkpt>
      <trkpt lat="45.95247" lon="4.86544">
        <ele>268</ele>
        <time>2017-05-26T09:17:37Z</time>
      </trkpt>
      <trkpt lat="45.95243" lon="4.86539">
        <ele>268</ele>
        <time>2017-05-26T09:17:38Z</time>
      </trkpt>
      <trkpt lat="45.95239" lon="4.86536">
        <ele>268</ele>
        <time>2017-05-26T09:17:39Z</time>
      </trkpt>
      <trkpt lat="45.95235" lon="4.86532">
        <ele>268</ele>
        <time>2017-05-26T09:17:40Z</time>
      </trkpt>
      <trkpt lat="45.95231" lon="4.86527">
        <ele>268</ele>
        <time>2017-05-26T09:17:41Z</time>
      </trkpt>
      <trkpt lat="45.95227" lon="4.86522">
        <ele>268</ele>
        <time>2017-05-26T09:17:42Z</time>
      </trkpt>
      <trkpt lat="45.95222" lon="4.86517">
        <ele>268</ele>
        <time>2017-05-26T09:17:43Z</time>
      </trkpt>
      <trkpt lat="45.95218" lon="4.86512">
        <ele>268</ele>
        <time>2017-05-26T09:17:44Z</time>
      </trkpt>
      <trkpt lat="45.95213" lon="4.86506">
        <ele>268</ele>
        <time>2017-05-26T09:17:45Z</time>
      </trkpt>
      <trkpt lat="45.95208" lon="4.86501">
        <ele>268</ele>
        <time>2017-05-26T09:17:46Z</time>
      </trkpt>
      <trkpt lat="45.95202" lon="4.86496">
        <ele>268</ele>
        <time>2017-05-26T09:17:47Z</time>
      </trkpt>
      <trkpt lat="45.95197" lon="4.86491">
        <ele>268</ele>
        <time>2017-05-26T09:17:48Z</time>
      </trkpt>
      <trkpt lat="45.95192" lon="4.86484">
        <ele>268</ele>
        <time>2017-05-26T09:17:49Z</time>
      </trkpt>
      <trkpt lat="45.95188" lon="4.86478">
        <ele>268</ele>
        <time>2017-05-26T09:17:50Z</time>
      </trkpt>
      <trkpt lat="45.95184" lon="4.86472">
        <ele>268</ele>
        <time>2017-05-26T09:17:51Z</time>
      </trkpt>
      <trkpt lat="45.95179" lon="4.86467">
        <ele>268</ele>
        <time>2017-05-26T09:17:52Z</time>
      </trkpt>
      <trkpt lat="45.95174" lon="4.86463">
        <ele>268</ele>
        <time>2017-05-26T09:17:53Z</time>
      </trkpt>
      <trkpt lat="45.95169" lon="4.86458">
        <ele>268</ele>
        <time>2017-05-26T09:17:54Z</time>
      </trkpt>
      <trkpt lat="45.95165" lon="4.86452">
        <ele>269</ele>
        <time>2017-05-26T09:17:55Z</time>
      </trkpt>
      <trkpt lat="45.95161" lon="4.86447">
        <ele>269</ele>
        <time>2017-05-26T09:17:56Z</time>
      </trkpt>
      <trkpt lat="45.95157" lon="4.86441">
        <ele>268</ele>
        <time>2017-05-26T09:17:57Z</time>
      </trkpt>
      <trkpt lat="45.95152" lon="4.86437">
        <ele>268</ele>
        <time>2017-05-26T09:17:58Z</time>
      </trkpt>
      <trkpt lat="45.95148" lon="4.86432">
        <ele>268</ele>
        <time>2017-05-26T09:17:59Z</time>
      </trkpt>
      <trkpt lat="45.95144" lon="4.86427">
        <ele>268</ele>
        <time>2017-05-26T09:18:00Z</time>
      </trkpt>
      <trkpt lat="45.95141" lon="4.86422">
        <ele>269</ele>
        <time>2017-05-26T09:18:01Z</time>
      </trkpt>
      <trkpt lat="45.95137" lon="4.86418">
        <ele>269</ele>
        <time>2017-05-26T09:18:02Z</time>
      </trkpt>
      <trkpt lat="45.95134" lon="4.86414">
        <ele>268</ele>
        <time>2017-05-26T09:18:03Z</time>
      </trkpt>
      <trkpt lat="45.95128" lon="4.86406">
        <ele>268</ele>
        <time>2017-05-26T09:18:05Z</time>
      </trkpt>
      <trkpt lat="45.95124" lon="4.86402">
        <ele>269</ele>
        <time>2017-05-26T09:18:06Z</time>
      </trkpt>
      <trkpt lat="45.95121" lon="4.86397">
        <ele>269</ele>
        <time>2017-05-26T09:18:07Z</time>
      </trkpt>
      <trkpt lat="45.95117" lon="4.86393">
        <ele>269</ele>
        <time>2017-05-26T09:18:08Z</time>
      </trkpt>
      <trkpt lat="45.95114" lon="4.86388">
        <ele>269</ele>
        <time>2017-05-26T09:18:09Z</time>
      </trkpt>
      <trkpt lat="45.95109" lon="4.86383">
        <ele>269</ele>
        <time>2017-05-26T09:18:10Z</time>
      </trkpt>
      <trkpt lat="45.95105" lon="4.86378">
        <ele>269</ele>
        <time>2017-05-26T09:18:11Z</time>
      </trkpt>
      <trkpt lat="45.951" lon="4.86373">
        <ele>269</ele>
        <time>2017-05-26T09:18:12Z</time>
      </trkpt>
      <trkpt lat="45.95096" lon="4.86367">
        <ele>269</ele>
        <time>2017-05-26T09:18:13Z</time>
      </trkpt>
      <trkpt lat="45.95092" lon="4.86361">
        <ele>269</ele>
        <time>2017-05-26T09:18:14Z</time>
      </trkpt>
      <trkpt lat="45.95088" lon="4.86356">
        <ele>269</ele>
        <time>2017-05-26T09:18:15Z</time>
      </trkpt>
      <trkpt lat="45.95084" lon="4.86351">
        <ele>269</ele>
        <time>2017-05-26T09:18:16Z</time>
      </trkpt>
      <trkpt lat="45.9508" lon="4.86346">
        <ele>270</ele>
        <time>2017-05-26T09:18:17Z</time>
      </trkpt>
      <trkpt lat="45.95077" lon="4.86342">
        <ele>270</ele>
        <time>2017-05-26T09:18:18Z</time>
      </trkpt>
      <trkpt lat="45.9507" lon="4.86334">
        <ele>270</ele>
        <time>2017-05-26T09:18:20Z</time>
      </trkpt>
      <trkpt lat="45.95066" lon="4.86329">
        <ele>270</ele>
        <time>2017-05-26T09:18:21Z</time>
      </trkpt>
      <trkpt lat="45.95062" lon="4.86324">
        <ele>270</ele>
        <time>2017-05-26T09:18:22Z</time>
      </trkpt>
      <trkpt lat="45.95058" lon="4.86319">
        <ele>271</ele>
        <time>2017-05-26T09:18:23Z</time>
      </trkpt>
      <trkpt lat="45.95054" lon="4.86313">
        <ele>271</ele>
        <time>2017-05-26T09:18:24Z</time>
      </trkpt>
      <trkpt lat="45.9505" lon="4.86308">
        <ele>271</ele>
        <time>2017-05-26T09:18:25Z</time>
      </trkpt>
      <trkpt lat="45.95045" lon="4.86303">
        <ele>271</ele>
        <time>2017-05-26T09:18:26Z</time>
      </trkpt>
      <trkpt lat="45.95041" lon="4.86297">
        <ele>271</ele>
        <time>2017-05-26T09:18:27Z</time>
      </trkpt>
      <trkpt lat="45.95037" lon="4.86292">
        <ele>271</ele>
        <time>2017-05-26T09:18:28Z</time>
      </trkpt>
      <trkpt lat="45.95033" lon="4.86287">
        <ele>271</ele>
        <time>2017-05-26T09:18:29Z</time>
      </trkpt>
      <trkpt lat="45.95029" lon="4.86283">
        <ele>271</ele>
        <time>2017-05-26T09:18:30Z</time>
      </trkpt>
      <trkpt lat="45.95025" lon="4.86279">
        <ele>271</ele>
        <time>2017-05-26T09:18:31Z</time>
      </trkpt>
      <trkpt lat="45.9502" lon="4.86272">
        <ele>271</ele>
        <time>2017-05-26T09:18:33Z</time>
      </trkpt>
      <trkpt lat="45.95017" lon="4.86268">
        <ele>271</ele>
        <time>2017-05-26T09:18:34Z</time>
      </trkpt>
      <trkpt lat="45.95012" lon="4.86261">
        <ele>272</ele>
        <time>2017-05-26T09:18:36Z</time>
      </trkpt>
      <trkpt lat="45.95008" lon="4.86257">
        <ele>272</ele>
        <time>2017-05-26T09:18:37Z</time>
      </trkpt>
      <trkpt lat="45.95005" lon="4.86253">
        <ele>272</ele>
        <time>2017-05-26T09:18:38Z</time>
      </trkpt>
      <trkpt lat="45.95001" lon="4.86249">
        <ele>272</ele>
        <time>2017-05-26T09:18:39Z</time>
      </trkpt>
      <trkpt lat="45.94998" lon="4.86245">
        <ele>272</ele>
        <time>2017-05-26T09:18:40Z</time>
      </trkpt>
      <trkpt lat="45.94994" lon="4.8624">
        <ele>272</ele>
        <time>2017-05-26T09:18:41Z</time>
      </trkpt>
      <trkpt lat="45.9499" lon="4.86235">
        <ele>272</ele>
        <time>2017-05-26T09:18:42Z</time>
      </trkpt>
      <trkpt lat="45.94986" lon="4.8623">
        <ele>272</ele>
        <time>2017-05-26T09:18:43Z</time>
      </trkpt>
      <trkpt lat="45.94983" lon="4.86225">
        <ele>272</ele>
        <time>2017-05-26T09:18:44Z</time>
      </trkpt>
      <trkpt lat="45.94978" lon="4.86221">
        <ele>272</ele>
        <time>2017-05-26T09:18:45Z</time>
      </trkpt>
      <trkpt lat="45.94974" lon="4.86217">
        <ele>272</ele>
        <time>2017-05-26T09:18:46Z</time>
      </trkpt>
      <trkpt lat="45.94971" lon="4.86213">
        <ele>272</ele>
        <time>2017-05-26T09:18:47Z</time>
      </trkpt>
      <trkpt lat="45.94965" lon="4.86206">
        <ele>272</ele>
        <time>2017-05-26T09:18:49Z</time>
      </trkpt>
      <trkpt lat="45.94962" lon="4.86203">
        <ele>272</ele>
        <time>2017-05-26T09:18:50Z</time>
      </trkpt>
      <trkpt lat="45.94956" lon="4.86196">
        <ele>273</ele>
        <time>2017-05-26T09:18:52Z</time>
      </trkpt>
      <trkpt lat="45.94953" lon="4.86192">
        <ele>273</ele>
        <time>2017-05-26T09:18:53Z</time>
      </trkpt>
      <trkpt lat="45.94946" lon="4.86185">
        <ele>273</ele>
        <time>2017-05-26T09:18:55Z</time>
      </trkpt>
      <trkpt lat="45.94943" lon="4.8618">
        <ele>273</ele>
        <time>2017-05-26T09:18:56Z</time>
      </trkpt>
      <trkpt lat="45.94939" lon="4.86175">
        <ele>273</ele>
        <time>2017-05-26T09:18:57Z</time>
      </trkpt>
      <trkpt lat="45.94936" lon="4.8617">
        <ele>273</ele>
        <time>2017-05-26T09:18:58Z</time>
      </trkpt>
      <trkpt lat="45.9493" lon="4.86161">
        <ele>273</ele>
        <time>2017-05-26T09:19:00Z</time>
      </trkpt>
      <trkpt lat="45.94926" lon="4.86157">
        <ele>273</ele>
        <time>2017-05-26T09:19:01Z</time>
      </trkpt>
      <trkpt lat="45.94921" lon="4.8615">
        <ele>273</ele>
        <time>2017-05-26T09:19:03Z</time>
      </trkpt>
      <trkpt lat="45.94919" lon="4.86147">
        <ele>273</ele>
        <time>2017-05-26T09:19:04Z</time>
      </trkpt>
      <trkpt lat="45.94914" lon="4.86138">
        <ele>274</ele>
        <time>2017-05-26T09:19:06Z</time>
      </trkpt>
      <trkpt lat="45.94911" lon="4.86134">
        <ele>274</ele>
        <time>2017-05-26T09:19:07Z</time>
      </trkpt>
      <trkpt lat="45.94907" lon="4.86124">
        <ele>274</ele>
        <time>2017-05-26T09:19:09Z</time>
      </trkpt>
      <trkpt lat="45.94905" lon="4.8612">
        <ele>274</ele>
        <time>2017-05-26T09:19:10Z</time>
      </trkpt>
      <trkpt lat="45.94901" lon="4.86111">
        <ele>274</ele>
        <time>2017-05-26T09:19:12Z</time>
      </trkpt>
      <trkpt lat="45.94899" lon="4.86106">
        <ele>274</ele>
        <time>2017-05-26T09:19:13Z</time>
      </trkpt>
      <trkpt lat="45.94895" lon="4.86095">
        <ele>274</ele>
        <time>2017-05-26T09:19:15Z</time>
      </trkpt>
      <trkpt lat="45.94893" lon="4.86088">
        <ele>274</ele>
        <time>2017-05-26T09:19:16Z</time>
      </trkpt>
      <trkpt lat="45.9489" lon="4.86082">
        <ele>274</ele>
        <time>2017-05-26T09:19:17Z</time>
      </trkpt>
      <trkpt lat="45.94888" lon="4.86075">
        <ele>274</ele>
        <time>2017-05-26T09:19:18Z</time>
      </trkpt>
      <trkpt lat="45.94886" lon="4.86068">
        <ele>274</ele>
        <time>2017-05-26T09:19:19Z</time>
      </trkpt>
      <trkpt lat="45.94884" lon="4.86059">
        <ele>274</ele>
        <time>2017-05-26T09:19:20Z</time>
      </trkpt>
      <trkpt lat="45.94882" lon="4.86051">
        <ele>274</ele>
        <time>2017-05-26T09:19:21Z</time>
      </trkpt>
      <trkpt lat="45.94879" lon="4.86044">
        <ele>274</ele>
        <time>2017-05-26T09:19:22Z</time>
      </trkpt>
      <trkpt lat="45.94877" lon="4.86036">
        <ele>274</ele>
        <time>2017-05-26T09:19:23Z</time>
      </trkpt>
      <trkpt lat="45.94876" lon="4.86029">
        <ele>274</ele>
        <time>2017-05-26T09:19:24Z</time>
      </trkpt>
      <trkpt lat="45.94874" lon="4.86022">
        <ele>274</ele>
        <time>2017-05-26T09:19:25Z</time>
      </trkpt>
      <trkpt lat="45.94873" lon="4.86016">
        <ele>274</ele>
        <time>2017-05-26T09:19:26Z</time>
      </trkpt>
      <trkpt lat="45.9487" lon="4.86004">
        <ele>274</ele>
        <time>2017-05-26T09:19:28Z</time>
      </trkpt>
      <trkpt lat="45.94868" lon="4.85999">
        <ele>275</ele>
        <time>2017-05-26T09:19:29Z</time>
      </trkpt>
      <trkpt lat="45.94865" lon="4.85988">
        <ele>275</ele>
        <time>2017-05-26T09:19:31Z</time>
      </trkpt>
      <trkpt lat="45.94863" lon="4.85982">
        <ele>275</ele>
        <time>2017-05-26T09:19:32Z</time>
      </trkpt>
      <trkpt lat="45.94861" lon="4.85975">
        <ele>275</ele>
        <time>2017-05-26T09:19:33Z</time>
      </trkpt>
      <trkpt lat="45.94859" lon="4.85968">
        <ele>275</ele>
        <time>2017-05-26T09:19:34Z</time>
      </trkpt>
      <trkpt lat="45.94857" lon="4.8596">
        <ele>275</ele>
        <time>2017-05-26T09:19:35Z</time>
      </trkpt>
      <trkpt lat="45.94855" lon="4.85953">
        <ele>275</ele>
        <time>2017-05-26T09:19:36Z</time>
      </trkpt>
      <trkpt lat="45.94853" lon="4.85945">
        <ele>275</ele>
        <time>2017-05-26T09:19:37Z</time>
      </trkpt>
      <trkpt lat="45.94851" lon="4.85937">
        <ele>275</ele>
        <time>2017-05-26T09:19:38Z</time>
      </trkpt>
      <trkpt lat="45.94849" lon="4.85929">
        <ele>275</ele>
        <time>2017-05-26T09:19:39Z</time>
      </trkpt>
      <trkpt lat="45.94847" lon="4.85921">
        <ele>275</ele>
        <time>2017-05-26T09:19:40Z</time>
      </trkpt>
      <trkpt lat="45.94845" lon="4.85914">
        <ele>275</ele>
        <time>2017-05-26T09:19:41Z</time>
      </trkpt>
      <trkpt lat="45.94843" lon="4.85907">
        <ele>275</ele>
        <time>2017-05-26T09:19:42Z</time>
      </trkpt>
      <trkpt lat="45.94841" lon="4.859">
        <ele>276</ele>
        <time>2017-05-26T09:19:43Z</time>
      </trkpt>
      <trkpt lat="45.9484" lon="4.85893">
        <ele>276</ele>
        <time>2017-05-26T09:19:44Z</time>
      </trkpt>
      <trkpt lat="45.94838" lon="4.85887">
        <ele>276</ele>
        <time>2017-05-26T09:19:45Z</time>
      </trkpt>
      <trkpt lat="45.94837" lon="4.85881">
        <ele>276</ele>
        <time>2017-05-26T09:19:46Z</time>
      </trkpt>
      <trkpt lat="45.94834" lon="4.85869">
        <ele>276</ele>
        <time>2017-05-26T09:19:48Z</time>
      </trkpt>
      <trkpt lat="45.94832" lon="4.85864">
        <ele>277</ele>
        <time>2017-05-26T09:19:49Z</time>
      </trkpt>
      <trkpt lat="45.94831" lon="4.85857">
        <ele>277</ele>
        <time>2017-05-26T09:19:50Z</time>
      </trkpt>
      <trkpt lat="45.9483" lon="4.85851">
        <ele>277</ele>
        <time>2017-05-26T09:19:51Z</time>
      </trkpt>
      <trkpt lat="45.94828" lon="4.85844">
        <ele>277</ele>
        <time>2017-05-26T09:19:52Z</time>
      </trkpt>
      <trkpt lat="45.94826" lon="4.85836">
        <ele>277</ele>
        <time>2017-05-26T09:19:53Z</time>
      </trkpt>
      <trkpt lat="45.94824" lon="4.85829">
        <ele>277</ele>
        <time>2017-05-26T09:19:54Z</time>
      </trkpt>
      <trkpt lat="45.94822" lon="4.85821">
        <ele>278</ele>
        <time>2017-05-26T09:19:55Z</time>
      </trkpt>
      <trkpt lat="45.9482" lon="4.85813">
        <ele>278</ele>
        <time>2017-05-26T09:19:56Z</time>
      </trkpt>
      <trkpt lat="45.94818" lon="4.85805">
        <ele>278</ele>
        <time>2017-05-26T09:19:57Z</time>
      </trkpt>
      <trkpt lat="45.94816" lon="4.85797">
        <ele>278</ele>
        <time>2017-05-26T09:19:58Z</time>
      </trkpt>
      <trkpt lat="45.94814" lon="4.8579">
        <ele>278</ele>
        <time>2017-05-26T09:19:59Z</time>
      </trkpt>
      <trkpt lat="45.94813" lon="4.85783">
        <ele>278</ele>
        <time>2017-05-26T09:20:00Z</time>
      </trkpt>
      <trkpt lat="45.94811" lon="4.85776">
        <ele>278</ele>
        <time>2017-05-26T09:20:01Z</time>
      </trkpt>
      <trkpt lat="45.94809" lon="4.8577">
        <ele>278</ele>
        <time>2017-05-26T09:20:02Z</time>
      </trkpt>
      <trkpt lat="45.94807" lon="4.85764">
        <ele>278</ele>
        <time>2017-05-26T09:20:03Z</time>
      </trkpt>
      <trkpt lat="45.94804" lon="4.85753">
        <ele>278</ele>
        <time>2017-05-26T09:20:05Z</time>
      </trkpt>
      <trkpt lat="45.94802" lon="4.85748">
        <ele>279</ele>
        <time>2017-05-26T09:20:06Z</time>
      </trkpt>
      <trkpt lat="45.94801" lon="4.85742">
        <ele>280</ele>
        <time>2017-05-26T09:20:07Z</time>
      </trkpt>
      <trkpt lat="45.94799" lon="4.85735">
        <ele>280</ele>
        <time>2017-05-26T09:20:08Z</time>
      </trkpt>
      <trkpt lat="45.94798" lon="4.85729">
        <ele>280</ele>
        <time>2017-05-26T09:20:09Z</time>
      </trkpt>
      <trkpt lat="45.94796" lon="4.85722">
        <ele>280</ele>
        <time>2017-05-26T09:20:10Z</time>
      </trkpt>
      <trkpt lat="45.94794" lon="4.85714">
        <ele>280</ele>
        <time>2017-05-26T09:20:11Z</time>
      </trkpt>
      <trkpt lat="45.94793" lon="4.85707">
        <ele>280</ele>
        <time>2017-05-26T09:20:12Z</time>
      </trkpt>
      <trkpt lat="45.94791" lon="4.85699">
        <ele>280</ele>
        <time>2017-05-26T09:20:13Z</time>
      </trkpt>
      <trkpt lat="45.94789" lon="4.85692">
        <ele>280</ele>
        <time>2017-05-26T09:20:14Z</time>
      </trkpt>
      <trkpt lat="45.94787" lon="4.85686">
        <ele>280</ele>
        <time>2017-05-26T09:20:15Z</time>
      </trkpt>
      <trkpt lat="45.94785" lon="4.85679">
        <ele>280</ele>
        <time>2017-05-26T09:20:16Z</time>
      </trkpt>
      <trkpt lat="45.94783" lon="4.85673">
        <ele>280</ele>
        <time>2017-05-26T09:20:17Z</time>
      </trkpt>
      <trkpt lat="45.94782" lon="4.85666">
        <ele>281</ele>
        <time>2017-05-26T09:20:18Z</time>
      </trkpt>
      <trkpt lat="45.9478" lon="4.85659">
        <ele>281</ele>
        <time>2017-05-26T09:20:19Z</time>
      </trkpt>
      <trkpt lat="45.94778" lon="4.85652">
        <ele>281</ele>
        <time>2017-05-26T09:20:20Z</time>
      </trkpt>
      <trkpt lat="45.94776" lon="4.85645">
        <ele>281</ele>
        <time>2017-05-26T09:20:21Z</time>
      </trkpt>
      <trkpt lat="45.94774" lon="4.85638">
        <ele>281</ele>
        <time>2017-05-26T09:20:22Z</time>
      </trkpt>
      <trkpt lat="45.94773" lon="4.8563">
        <ele>280</ele>
        <time>2017-05-26T09:20:23Z</time>
      </trkpt>
      <trkpt lat="45.9477" lon="4.85623">
        <ele>280</ele>
        <time>2017-05-26T09:20:24Z</time>
      </trkpt>
      <trkpt lat="45.94768" lon="4.85615">
        <ele>280</ele>
        <time>2017-05-26T09:20:25Z</time>
      </trkpt>
      <trkpt lat="45.94767" lon="4.85607">
        <ele>280</ele>
        <time>2017-05-26T09:20:26Z</time>
      </trkpt>
      <trkpt lat="45.94766" lon="4.85598">
        <ele>280</ele>
        <time>2017-05-26T09:20:27Z</time>
      </trkpt>
      <trkpt lat="45.94764" lon="4.8559">
        <ele>280</ele>
        <time>2017-05-26T09:20:28Z</time>
      </trkpt>
      <trkpt lat="45.94762" lon="4.85581">
        <ele>279</ele>
        <time>2017-05-26T09:20:29Z</time>
      </trkpt>
      <trkpt lat="45.94761" lon="4.85571">
        <ele>279</ele>
        <time>2017-05-26T09:20:30Z</time>
      </trkpt>
      <trkpt lat="45.94759" lon="4.85561">
        <ele>278</ele>
        <time>2017-05-26T09:20:31Z</time>
      </trkpt>
      <trkpt lat="45.94757" lon="4.85551">
        <ele>278</ele>
        <time>2017-05-26T09:20:32Z</time>
      </trkpt>
      <trkpt lat="45.94756" lon="4.8554">
        <ele>278</ele>
        <time>2017-05-26T09:20:33Z</time>
      </trkpt>
      <trkpt lat="45.94754" lon="4.85529">
        <ele>278</ele>
        <time>2017-05-26T09:20:34Z</time>
      </trkpt>
      <trkpt lat="45.94752" lon="4.85517">
        <ele>277</ele>
        <time>2017-05-26T09:20:35Z</time>
      </trkpt>
      <trkpt lat="45.94751" lon="4.85505">
        <ele>276</ele>
        <time>2017-05-26T09:20:36Z</time>
      </trkpt>
      <trkpt lat="45.94749" lon="4.85493">
        <ele>275</ele>
        <time>2017-05-26T09:20:37Z</time>
      </trkpt>
      <trkpt lat="45.94747" lon="4.8548">
        <ele>275</ele>
        <time>2017-05-26T09:20:38Z</time>
      </trkpt>
      <trkpt lat="45.94746" lon="4.85467">
        <ele>274</ele>
        <time>2017-05-26T09:20:39Z</time>
      </trkpt>
      <trkpt lat="45.94744" lon="4.85454">
        <ele>274</ele>
        <time>2017-05-26T09:20:40Z</time>
      </trkpt>
      <trkpt lat="45.94743" lon="4.85441">
        <ele>274</ele>
        <time>2017-05-26T09:20:41Z</time>
      </trkpt>
      <trkpt lat="45.94741" lon="4.85427">
        <ele>273</ele>
        <time>2017-05-26T09:20:42Z</time>
      </trkpt>
      <trkpt lat="45.9474" lon="4.85414">
        <ele>272</ele>
        <time>2017-05-26T09:20:43Z</time>
      </trkpt>
      <trkpt lat="45.94739" lon="4.854">
        <ele>272</ele>
        <time>2017-05-26T09:20:44Z</time>
      </trkpt>
      <trkpt lat="45.94737" lon="4.85386">
        <ele>272</ele>
        <time>2017-05-26T09:20:45Z</time>
      </trkpt>
      <trkpt lat="45.94736" lon="4.85373">
        <ele>271</ele>
        <time>2017-05-26T09:20:46Z</time>
      </trkpt>
      <trkpt lat="45.94734" lon="4.8536">
        <ele>271</ele>
        <time>2017-05-26T09:20:47Z</time>
      </trkpt>
      <trkpt lat="45.94733" lon="4.85347">
        <ele>271</ele>
        <time>2017-05-26T09:20:48Z</time>
      </trkpt>
      <trkpt lat="45.94731" lon="4.85335">
        <ele>271</ele>
        <time>2017-05-26T09:20:49Z</time>
      </trkpt>
      <trkpt lat="45.94729" lon="4.85322">
        <ele>270</ele>
        <time>2017-05-26T09:20:50Z</time>
      </trkpt>
      <trkpt lat="45.94728" lon="4.8531">
        <ele>270</ele>
        <time>2017-05-26T09:20:51Z</time>
      </trkpt>
      <trkpt lat="45.94726" lon="4.85298">
        <ele>270</ele>
        <time>2017-05-26T09:20:52Z</time>
      </trkpt>
      <trkpt lat="45.94725" lon="4.85286">
        <ele>269</ele>
        <time>2017-05-26T09:20:53Z</time>
      </trkpt>
      <trkpt lat="45.94724" lon="4.85275">
        <ele>269</ele>
        <time>2017-05-26T09:20:54Z</time>
      </trkpt>
      <trkpt lat="45.94723" lon="4.85263">
        <ele>269</ele>
        <time>2017-05-26T09:20:55Z</time>
      </trkpt>
      <trkpt lat="45.94721" lon="4.85252">
        <ele>269</ele>
        <time>2017-05-26T09:20:56Z</time>
      </trkpt>
      <trkpt lat="45.94719" lon="4.85241">
        <ele>269</ele>
        <time>2017-05-26T09:20:57Z</time>
      </trkpt>
      <trkpt lat="45.94718" lon="4.85231">
        <ele>269</ele>
        <time>2017-05-26T09:20:58Z</time>
      </trkpt>
      <trkpt lat="45.94717" lon="4.85221">
        <ele>269</ele>
        <time>2017-05-26T09:20:59Z</time>
      </trkpt>
      <trkpt lat="45.94716" lon="4.85211">
        <ele>269</ele>
        <time>2017-05-26T09:21:00Z</time>
      </trkpt>
      <trkpt lat="45.94715" lon="4.85201">
        <ele>269</ele>
        <time>2017-05-26T09:21:01Z</time>
      </trkpt>
      <trkpt lat="45.94714" lon="4.85192">
        <ele>269</ele>
        <time>2017-05-26T09:21:02Z</time>
      </trkpt>
      <trkpt lat="45.94713" lon="4.85183">
        <ele>269</ele>
        <time>2017-05-26T09:21:03Z</time>
      </trkpt>
      <trkpt lat="45.94712" lon="4.85173">
        <ele>269</ele>
        <time>2017-05-26T09:21:04Z</time>
      </trkpt>
      <trkpt lat="45.94711" lon="4.85164">
        <ele>269</ele>
        <time>2017-05-26T09:21:05Z</time>
      </trkpt>
      <trkpt lat="45.94711" lon="4.85155">
        <ele>269</ele>
        <time>2017-05-26T09:21:06Z</time>
      </trkpt>
      <trkpt lat="45.9471" lon="4.85147">
        <ele>269</ele>
        <time>2017-05-26T09:21:07Z</time>
      </trkpt>
      <trkpt lat="45.94709" lon="4.85138">
        <ele>269</ele>
        <time>2017-05-26T09:21:08Z</time>
      </trkpt>
      <trkpt lat="45.94708" lon="4.8513">
        <ele>269</ele>
        <time>2017-05-26T09:21:09Z</time>
      </trkpt>
      <trkpt lat="45.94707" lon="4.85121">
        <ele>269</ele>
        <time>2017-05-26T09:21:10Z</time>
      </trkpt>
      <trkpt lat="45.94706" lon="4.85113">
        <ele>269</ele>
        <time>2017-05-26T09:21:11Z</time>
      </trkpt>
      <trkpt lat="45.94705" lon="4.85105">
        <ele>269</ele>
        <time>2017-05-26T09:21:12Z</time>
      </trkpt>
      <trkpt lat="45.94704" lon="4.85097">
        <ele>269</ele>
        <time>2017-05-26T09:21:13Z</time>
      </trkpt>
      <trkpt lat="45.94703" lon="4.85088">
        <ele>269</ele>
        <time>2017-05-26T09:21:14Z</time>
      </trkpt>
      <trkpt lat="45.94702" lon="4.85079">
        <ele>269</ele>
        <time>2017-05-26T09:21:15Z</time>
      </trkpt>
      <trkpt lat="45.94701" lon="4.8507">
        <ele>269</ele>
        <time>2017-05-26T09:21:16Z</time>
      </trkpt>
      <trkpt lat="45.947" lon="4.85061">
        <ele>269</ele>
        <time>2017-05-26T09:21:17Z</time>
      </trkpt>
      <trkpt lat="45.94699" lon="4.85053">
        <ele>269</ele>
        <time>2017-05-26T09:21:18Z</time>
      </trkpt>
      <trkpt lat="45.94698" lon="4.85045">
        <ele>269</ele>
        <time>2017-05-26T09:21:19Z</time>
      </trkpt>
      <trkpt lat="45.94697" lon="4.85037">
        <ele>269</ele>
        <time>2017-05-26T09:21:20Z</time>
      </trkpt>
      <trkpt lat="45.94697" lon="4.85029">
        <ele>269</ele>
        <time>2017-05-26T09:21:21Z</time>
      </trkpt>
      <trkpt lat="45.94696" lon="4.85021">
        <ele>269</ele>
        <time>2017-05-26T09:21:22Z</time>
      </trkpt>
      <trkpt lat="45.94695" lon="4.85014">
        <ele>269</ele>
        <time>2017-05-26T09:21:23Z</time>
      </trkpt>
      <trkpt lat="45.94694" lon="4.85006">
        <ele>269</ele>
        <time>2017-05-26T09:21:24Z</time>
      </trkpt>
      <trkpt lat="45.94693" lon="4.84999">
        <ele>269</ele>
        <time>2017-05-26T09:21:25Z</time>
      </trkpt>
      <trkpt lat="45.94692" lon="4.84991">
        <ele>269</ele>
        <time>2017-05-26T09:21:26Z</time>
      </trkpt>
      <trkpt lat="45.94692" lon="4.84983">
        <ele>269</ele>
        <time>2017-05-26T09:21:27Z</time>
      </trkpt>
      <trkpt lat="45.94691" lon="4.84975">
        <ele>269</ele>
        <time>2017-05-26T09:21:28Z</time>
      </trkpt>
      <trkpt lat="45.9469" lon="4.84966">
        <ele>269</ele>
        <time>2017-05-26T09:21:29Z</time>
      </trkpt>
      <trkpt lat="45.94689" lon="4.84957">
        <ele>269</ele>
        <time>2017-05-26T09:21:30Z</time>
      </trkpt>
      <trkpt lat="45.94688" lon="4.84948">
        <ele>269</ele>
        <time>2017-05-26T09:21:31Z</time>
      </trkpt>
      <trkpt lat="45.94687" lon="4.84939">
        <ele>269</ele>
        <time>2017-05-26T09:21:32Z</time>
      </trkpt>
      <trkpt lat="45.94686" lon="4.8493">
        <ele>269</ele>
        <time>2017-05-26T09:21:33Z</time>
      </trkpt>
      <trkpt lat="45.94686" lon="4.84921">
        <ele>269</ele>
        <time>2017-05-26T09:21:34Z</time>
      </trkpt>
      <trkpt lat="45.94685" lon="4.84913">
        <ele>269</ele>
        <time>2017-05-26T09:21:35Z</time>
      </trkpt>
      <trkpt lat="45.94684" lon="4.84904">
        <ele>269</ele>
        <time>2017-05-26T09:21:36Z</time>
      </trkpt>
      <trkpt lat="45.94683" lon="4.84896">
        <ele>268</ele>
        <time>2017-05-26T09:21:37Z</time>
      </trkpt>
      <trkpt lat="45.94682" lon="4.84887">
        <ele>268</ele>
        <time>2017-05-26T09:21:38Z</time>
      </trkpt>
      <trkpt lat="45.94681" lon="4.84879">
        <ele>268</ele>
        <time>2017-05-26T09:21:39Z</time>
      </trkpt>
      <trkpt lat="45.9468" lon="4.84871">
        <ele>268</ele>
        <time>2017-05-26T09:21:40Z</time>
      </trkpt>
      <trkpt lat="45.94679" lon="4.84863">
        <ele>268</ele>
        <time>2017-05-26T09:21:41Z</time>
      </trkpt>
      <trkpt lat="45.94679" lon="4.84855">
        <ele>268</ele>
        <time>2017-05-26T09:21:42Z</time>
      </trkpt>
      <trkpt lat="45.94678" lon="4.84847">
        <ele>268</ele>
        <time>2017-05-26T09:21:43Z</time>
      </trkpt>
      <trkpt lat="45.94677" lon="4.8484">
        <ele>268</ele>
        <time>2017-05-26T09:21:44Z</time>
      </trkpt>
      <trkpt lat="45.94676" lon="4.84832">
        <ele>268</ele>
        <time>2017-05-26T09:21:45Z</time>
      </trkpt>
      <trkpt lat="45.94676" lon="4.84824">
        <ele>268</ele>
        <time>2017-05-26T09:21:46Z</time>
      </trkpt>
      <trkpt lat="45.94675" lon="4.84817">
        <ele>268</ele>
        <time>2017-05-26T09:21:47Z</time>
      </trkpt>
      <trkpt lat="45.94674" lon="4.84809">
        <ele>268</ele>
        <time>2017-05-26T09:21:48Z</time>
      </trkpt>
      <trkpt lat="45.94674" lon="4.84802">
        <ele>268</ele>
        <time>2017-05-26T09:21:49Z</time>
      </trkpt>
      <trkpt lat="45.94673" lon="4.84794">
        <ele>268</ele>
        <time>2017-05-26T09:21:50Z</time>
      </trkpt>
      <trkpt lat="45.94673" lon="4.84785">
        <ele>269</ele>
        <time>2017-05-26T09:21:51Z</time>
      </trkpt>
      <trkpt lat="45.94672" lon="4.84776">
        <ele>269</ele>
        <time>2017-05-26T09:21:52Z</time>
      </trkpt>
      <trkpt lat="45.94672" lon="4.84768">
        <ele>269</ele>
        <time>2017-05-26T09:21:53Z</time>
      </trkpt>
      <trkpt lat="45.94671" lon="4.84759">
        <ele>269</ele>
        <time>2017-05-26T09:21:54Z</time>
      </trkpt>
      <trkpt lat="45.94671" lon="4.84751">
        <ele>269</ele>
        <time>2017-05-26T09:21:55Z</time>
      </trkpt>
      <trkpt lat="45.9467" lon="4.84742">
        <ele>269</ele>
        <time>2017-05-26T09:21:56Z</time>
      </trkpt>
      <trkpt lat="45.9467" lon="4.84734">
        <ele>269</ele>
        <time>2017-05-26T09:21:57Z</time>
      </trkpt>
      <trkpt lat="45.94669" lon="4.84726">
        <ele>269</ele>
        <time>2017-05-26T09:21:58Z</time>
      </trkpt>
      <trkpt lat="45.94668" lon="4.84719">
        <ele>269</ele>
        <time>2017-05-26T09:21:59Z</time>
      </trkpt>
      <trkpt lat="45.94667" lon="4.84711">
        <ele>269</ele>
        <time>2017-05-26T09:22:00Z</time>
      </trkpt>
      <trkpt lat="45.94667" lon="4.84704">
        <ele>269</ele>
        <time>2017-05-26T09:22:01Z</time>
      </trkpt>
      <trkpt lat="45.94667" lon="4.84697">
        <ele>269</ele>
        <time>2017-05-26T09:22:02Z</time>
      </trkpt>
      <trkpt lat="45.94667" lon="4.84689">
        <ele>269</ele>
        <time>2017-05-26T09:22:03Z</time>
      </trkpt>
      <trkpt lat="45.94667" lon="4.84682">
        <ele>269</ele>
        <time>2017-05-26T09:22:04Z</time>
      </trkpt>
      <trkpt lat="45.94667" lon="4.84674">
        <ele>269</ele>
        <time>2017-05-26T09:22:05Z</time>
      </trkpt>
      <trkpt lat="45.94666" lon="4.84666">
        <ele>269</ele>
        <time>2017-05-26T09:22:06Z</time>
      </trkpt>
      <trkpt lat="45.94666" lon="4.84658">
        <ele>269</ele>
        <time>2017-05-26T09:22:07Z</time>
      </trkpt>
      <trkpt lat="45.94666" lon="4.84649">
        <ele>269</ele>
        <time>2017-05-26T09:22:08Z</time>
      </trkpt>
      <trkpt lat="45.94666" lon="4.84641">
        <ele>268</ele>
        <time>2017-05-26T09:22:09Z</time>
      </trkpt>
      <trkpt lat="45.94666" lon="4.84632">
        <ele>268</ele>
        <time>2017-05-26T09:22:10Z</time>
      </trkpt>
      <trkpt lat="45.94666" lon="4.84625">
        <ele>268</ele>
        <time>2017-05-26T09:22:11Z</time>
      </trkpt>
      <trkpt lat="45.94665" lon="4.84617">
        <ele>268</ele>
        <time>2017-05-26T09:22:12Z</time>
      </trkpt>
      <trkpt lat="45.94665" lon="4.84609">
        <ele>268</ele>
        <time>2017-05-26T09:22:13Z</time>
      </trkpt>
      <trkpt lat="45.94665" lon="4.84602">
        <ele>268</ele>
        <time>2017-05-26T09:22:14Z</time>
      </trkpt>
      <trkpt lat="45.94665" lon="4.84595">
        <ele>268</ele>
        <time>2017-05-26T09:22:15Z</time>
      </trkpt>
      <trkpt lat="45.94664" lon="4.84588">
        <ele>268</ele>
        <time>2017-05-26T09:22:16Z</time>
      </trkpt>
      <trkpt lat="45.94665" lon="4.84581">
        <ele>268</ele>
        <time>2017-05-26T09:22:17Z</time>
      </trkpt>
      <trkpt lat="45.94665" lon="4.84574">
        <ele>268</ele>
        <time>2017-05-26T09:22:18Z</time>
      </trkpt>
      <trkpt lat="45.94664" lon="4.84567">
        <ele>268</ele>
        <time>2017-05-26T09:22:19Z</time>
      </trkpt>
      <trkpt lat="45.94664" lon="4.84559">
        <ele>268</ele>
        <time>2017-05-26T09:22:20Z</time>
      </trkpt>
      <trkpt lat="45.94663" lon="4.84552">
        <ele>268</ele>
        <time>2017-05-26T09:22:21Z</time>
      </trkpt>
      <trkpt lat="45.94663" lon="4.84544">
        <ele>268</ele>
        <time>2017-05-26T09:22:22Z</time>
      </trkpt>
      <trkpt lat="45.94662" lon="4.84536">
        <ele>268</ele>
        <time>2017-05-26T09:22:23Z</time>
      </trkpt>
      <trkpt lat="45.94661" lon="4.84528">
        <ele>268</ele>
        <time>2017-05-26T09:22:24Z</time>
      </trkpt>
      <trkpt lat="45.9466" lon="4.8452">
        <ele>268</ele>
        <time>2017-05-26T09:22:25Z</time>
      </trkpt>
      <trkpt lat="45.94659" lon="4.84512">
        <ele>268</ele>
        <time>2017-05-26T09:22:26Z</time>
      </trkpt>
      <trkpt lat="45.94658" lon="4.84504">
        <ele>268</ele>
        <time>2017-05-26T09:22:27Z</time>
      </trkpt>
      <trkpt lat="45.94658" lon="4.84497">
        <ele>268</ele>
        <time>2017-05-26T09:22:28Z</time>
      </trkpt>
      <trkpt lat="45.94657" lon="4.8449">
        <ele>268</ele>
        <time>2017-05-26T09:22:29Z</time>
      </trkpt>
      <trkpt lat="45.94656" lon="4.84483">
        <ele>268</ele>
        <time>2017-05-26T09:22:30Z</time>
      </trkpt>
      <trkpt lat="45.94655" lon="4.84476">
        <ele>268</ele>
        <time>2017-05-26T09:22:31Z</time>
      </trkpt>
      <trkpt lat="45.94655" lon="4.84469">
        <ele>268</ele>
        <time>2017-05-26T09:22:32Z</time>
      </trkpt>
      <trkpt lat="45.94654" lon="4.84462">
        <ele>268</ele>
        <time>2017-05-26T09:22:33Z</time>
      </trkpt>
      <trkpt lat="45.94653" lon="4.84455">
        <ele>268</ele>
        <time>2017-05-26T09:22:34Z</time>
      </trkpt>
      <trkpt lat="45.94652" lon="4.84448">
        <ele>268</ele>
        <time>2017-05-26T09:22:35Z</time>
      </trkpt>
      <trkpt lat="45.94651" lon="4.84441">
        <ele>268</ele>
        <time>2017-05-26T09:22:36Z</time>
      </trkpt>
      <trkpt lat="45.9465" lon="4.84434">
        <ele>268</ele>
        <time>2017-05-26T09:22:37Z</time>
      </trkpt>
      <trkpt lat="45.94649" lon="4.84426">
        <ele>268</ele>
        <time>2017-05-26T09:22:38Z</time>
      </trkpt>
      <trkpt lat="45.94647" lon="4.84419">
        <ele>268</ele>
        <time>2017-05-26T09:22:39Z</time>
      </trkpt>
      <trkpt lat="45.94647" lon="4.84411">
        <ele>268</ele>
        <time>2017-05-26T09:22:40Z</time>
      </trkpt>
      <trkpt lat="45.94646" lon="4.84404">
        <ele>268</ele>
        <time>2017-05-26T09:22:41Z</time>
      </trkpt>
      <trkpt lat="45.94646" lon="4.84397">
        <ele>268</ele>
        <time>2017-05-26T09:22:42Z</time>
      </trkpt>
      <trkpt lat="45.94645" lon="4.8439">
        <ele>268</ele>
        <time>2017-05-26T09:22:43Z</time>
      </trkpt>
      <trkpt lat="45.94644" lon="4.84384">
        <ele>268</ele>
        <time>2017-05-26T09:22:44Z</time>
      </trkpt>
      <trkpt lat="45.94644" lon="4.84377">
        <ele>268</ele>
        <time>2017-05-26T09:22:45Z</time>
      </trkpt>
      <trkpt lat="45.94643" lon="4.8437">
        <ele>268</ele>
        <time>2017-05-26T09:22:46Z</time>
      </trkpt>
      <trkpt lat="45.94642" lon="4.84363">
        <ele>268</ele>
        <time>2017-05-26T09:22:47Z</time>
      </trkpt>
      <trkpt lat="45.94641" lon="4.84356">
        <ele>268</ele>
        <time>2017-05-26T09:22:48Z</time>
      </trkpt>
      <trkpt lat="45.9464" lon="4.84349">
        <ele>268</ele>
        <time>2017-05-26T09:22:49Z</time>
      </trkpt>
      <trkpt lat="45.94638" lon="4.84341">
        <ele>268</ele>
        <time>2017-05-26T09:22:50Z</time>
      </trkpt>
      <trkpt lat="45.94637" lon="4.84333">
        <ele>269</ele>
        <time>2017-05-26T09:22:51Z</time>
      </trkpt>
      <trkpt lat="45.94636" lon="4.84324">
        <ele>269</ele>
        <time>2017-05-26T09:22:52Z</time>
      </trkpt>
      <trkpt lat="45.94635" lon="4.84316">
        <ele>269</ele>
        <time>2017-05-26T09:22:53Z</time>
      </trkpt>
      <trkpt lat="45.94634" lon="4.84308">
        <ele>269</ele>
        <time>2017-05-26T09:22:54Z</time>
      </trkpt>
      <trkpt lat="45.94633" lon="4.843">
        <ele>269</ele>
        <time>2017-05-26T09:22:55Z</time>
      </trkpt>
      <trkpt lat="45.94632" lon="4.84292">
        <ele>269</ele>
        <time>2017-05-26T09:22:56Z</time>
      </trkpt>
      <trkpt lat="45.94631" lon="4.84284">
        <ele>269</ele>
        <time>2017-05-26T09:22:57Z</time>
      </trkpt>
      <trkpt lat="45.9463" lon="4.84276">
        <ele>269</ele>
        <time>2017-05-26T09:22:58Z</time>
      </trkpt>
      <trkpt lat="45.94629" lon="4.84269">
        <ele>269</ele>
        <time>2017-05-26T09:22:59Z</time>
      </trkpt>
      <trkpt lat="45.94628" lon="4.84261">
        <ele>269</ele>
        <time>2017-05-26T09:23:00Z</time>
      </trkpt>
      <trkpt lat="45.94627" lon="4.84254">
        <ele>269</ele>
        <time>2017-05-26T09:23:01Z</time>
      </trkpt>
      <trkpt lat="45.94626" lon="4.84246">
        <ele>269</ele>
        <time>2017-05-26T09:23:02Z</time>
      </trkpt>
      <trkpt lat="45.94626" lon="4.84239">
        <ele>269</ele>
        <time>2017-05-26T09:23:03Z</time>
      </trkpt>
      <trkpt lat="45.94625" lon="4.84232">
        <ele>269</ele>
        <time>2017-05-26T09:23:04Z</time>
      </trkpt>
      <trkpt lat="45.94624" lon="4.84224">
        <ele>269</ele>
        <time>2017-05-26T09:23:05Z</time>
      </trkpt>
      <trkpt lat="45.94623" lon="4.84217">
        <ele>269</ele>
        <time>2017-05-26T09:23:06Z</time>
      </trkpt>
      <trkpt lat="45.94622" lon="4.8421">
        <ele>269</ele>
        <time>2017-05-26T09:23:07Z</time>
      </trkpt>
      <trkpt lat="45.94621" lon="4.84202">
        <ele>269</ele>
        <time>2017-05-26T09:23:08Z</time>
      </trkpt>
      <trkpt lat="45.9462" lon="4.84194">
        <ele>269</ele>
        <time>2017-05-26T09:23:09Z</time>
      </trkpt>
      <trkpt lat="45.94619" lon="4.84186">
        <ele>269</ele>
        <time>2017-05-26T09:23:10Z</time>
      </trkpt>
      <trkpt lat="45.94617" lon="4.84178">
        <ele>269</ele>
        <time>2017-05-26T09:23:11Z</time>
      </trkpt>
      <trkpt lat="45.94615" lon="4.8417">
        <ele>269</ele>
        <time>2017-05-26T09:23:12Z</time>
      </trkpt>
      <trkpt lat="45.94614" lon="4.84161">
        <ele>269</ele>
        <time>2017-05-26T09:23:13Z</time>
      </trkpt>
      <trkpt lat="45.94612" lon="4.84153">
        <ele>269</ele>
        <time>2017-05-26T09:23:14Z</time>
      </trkpt>
      <trkpt lat="45.94611" lon="4.84145">
        <ele>269</ele>
        <time>2017-05-26T09:23:15Z</time>
      </trkpt>
      <trkpt lat="45.9461" lon="4.84137">
        <ele>269</ele>
        <time>2017-05-26T09:23:16Z</time>
      </trkpt>
      <trkpt lat="45.94609" lon="4.8413">
        <ele>269</ele>
        <time>2017-05-26T09:23:17Z</time>
      </trkpt>
      <trkpt lat="45.94608" lon="4.84123">
        <ele>269</ele>
        <time>2017-05-26T09:23:18Z</time>
      </trkpt>
      <trkpt lat="45.94607" lon="4.84116">
        <ele>269</ele>
        <time>2017-05-26T09:23:19Z</time>
      </trkpt>
      <trkpt lat="45.94606" lon="4.84108">
        <ele>269</ele>
        <time>2017-05-26T09:23:20Z</time>
      </trkpt>
      <trkpt lat="45.94605" lon="4.84101">
        <ele>269</ele>
        <time>2017-05-26T09:23:21Z</time>
      </trkpt>
      <trkpt lat="45.94604" lon="4.84093">
        <ele>269</ele>
        <time>2017-05-26T09:23:22Z</time>
      </trkpt>
      <trkpt lat="45.94603" lon="4.84085">
        <ele>269</ele>
        <time>2017-05-26T09:23:23Z</time>
      </trkpt>
      <trkpt lat="45.94602" lon="4.84077">
        <ele>269</ele>
        <time>2017-05-26T09:23:24Z</time>
      </trkpt>
      <trkpt lat="45.946" lon="4.84069">
        <ele>269</ele>
        <time>2017-05-26T09:23:25Z</time>
      </trkpt>
      <trkpt lat="45.94599" lon="4.84061">
        <ele>269</ele>
        <time>2017-05-26T09:23:26Z</time>
      </trkpt>
      <trkpt lat="45.94598" lon="4.84053">
        <ele>269</ele>
        <time>2017-05-26T09:23:27Z</time>
      </trkpt>
      <trkpt lat="45.94597" lon="4.84045">
        <ele>269</ele>
        <time>2017-05-26T09:23:28Z</time>
      </trkpt>
      <trkpt lat="45.94596" lon="4.84037">
        <ele>269</ele>
        <time>2017-05-26T09:23:29Z</time>
      </trkpt>
      <trkpt lat="45.94595" lon="4.84029">
        <ele>269</ele>
        <time>2017-05-26T09:23:30Z</time>
      </trkpt>
      <trkpt lat="45.94593" lon="4.84021">
        <ele>269</ele>
        <time>2017-05-26T09:23:31Z</time>
      </trkpt>
      <trkpt lat="45.94592" lon="4.84013">
        <ele>269</ele>
        <time>2017-05-26T09:23:32Z</time>
      </trkpt>
      <trkpt lat="45.94591" lon="4.84004">
        <ele>269</ele>
        <time>2017-05-26T09:23:33Z</time>
      </trkpt>
      <trkpt lat="45.94589" lon="4.83995">
        <ele>269</ele>
        <time>2017-05-26T09:23:34Z</time>
      </trkpt>
      <trkpt lat="45.94587" lon="4.83986">
        <ele>269</ele>
        <time>2017-05-26T09:23:35Z</time>
      </trkpt>
      <trkpt lat="45.94586" lon="4.83977">
        <ele>268</ele>
        <time>2017-05-26T09:23:36Z</time>
      </trkpt>
      <trkpt lat="45.94584" lon="4.83968">
        <ele>268</ele>
        <time>2017-05-26T09:23:37Z</time>
      </trkpt>
      <trkpt lat="45.94583" lon="4.83958">
        <ele>269</ele>
        <time>2017-05-26T09:23:38Z</time>
      </trkpt>
      <trkpt lat="45.94582" lon="4.83949">
        <ele>269</ele>
        <time>2017-05-26T09:23:39Z</time>
      </trkpt>
      <trkpt lat="45.9458" lon="4.83939">
        <ele>269</ele>
        <time>2017-05-26T09:23:40Z</time>
      </trkpt>
      <trkpt lat="45.94579" lon="4.83929">
        <ele>268</ele>
        <time>2017-05-26T09:23:41Z</time>
      </trkpt>
      <trkpt lat="45.94578" lon="4.83919">
        <ele>268</ele>
        <time>2017-05-26T09:23:42Z</time>
      </trkpt>
      <trkpt lat="45.94577" lon="4.83909">
        <ele>268</ele>
        <time>2017-05-26T09:23:43Z</time>
      </trkpt>
      <trkpt lat="45.94576" lon="4.83898">
        <ele>268</ele>
        <time>2017-05-26T09:23:44Z</time>
      </trkpt>
      <trkpt lat="45.94574" lon="4.83888">
        <ele>267</ele>
        <time>2017-05-26T09:23:45Z</time>
      </trkpt>
      <trkpt lat="45.94572" lon="4.83877">
        <ele>267</ele>
        <time>2017-05-26T09:23:46Z</time>
      </trkpt>
      <trkpt lat="45.9457" lon="4.83866">
        <ele>267</ele>
        <time>2017-05-26T09:23:47Z</time>
      </trkpt>
      <trkpt lat="45.94569" lon="4.83854">
        <ele>266</ele>
        <time>2017-05-26T09:23:48Z</time>
      </trkpt>
      <trkpt lat="45.94567" lon="4.83843">
        <ele>266</ele>
        <time>2017-05-26T09:23:49Z</time>
      </trkpt>
      <trkpt lat="45.94565" lon="4.83832">
        <ele>265</ele>
        <time>2017-05-26T09:23:50Z</time>
      </trkpt>
      <trkpt lat="45.94564" lon="4.8382">
        <ele>264</ele>
        <time>2017-05-26T09:23:51Z</time>
      </trkpt>
      <trkpt lat="45.94562" lon="4.83808">
        <ele>264</ele>
        <time>2017-05-26T09:23:52Z</time>
      </trkpt>
      <trkpt lat="45.9456" lon="4.83797">
        <ele>264</ele>
        <time>2017-05-26T09:23:53Z</time>
      </trkpt>
      <trkpt lat="45.94558" lon="4.83785">
        <ele>264</ele>
        <time>2017-05-26T09:23:54Z</time>
      </trkpt>
      <trkpt lat="45.94556" lon="4.83773">
        <ele>264</ele>
        <time>2017-05-26T09:23:55Z</time>
      </trkpt>
      <trkpt lat="45.94554" lon="4.83762">
        <ele>263</ele>
        <time>2017-05-26T09:23:56Z</time>
      </trkpt>
      <trkpt lat="45.94553" lon="4.83751">
        <ele>263</ele>
        <time>2017-05-26T09:23:57Z</time>
      </trkpt>
      <trkpt lat="45.94551" lon="4.8374">
        <ele>262</ele>
        <time>2017-05-26T09:23:58Z</time>
      </trkpt>
      <trkpt lat="45.94549" lon="4.83729">
        <ele>262</ele>
        <time>2017-05-26T09:23:59Z</time>
      </trkpt>
      <trkpt lat="45.94547" lon="4.83719">
        <ele>262</ele>
        <time>2017-05-26T09:24:00Z</time>
      </trkpt>
      <trkpt lat="45.94545" lon="4.83708">
        <ele>262</ele>
        <time>2017-05-26T09:24:01Z</time>
      </trkpt>
      <trkpt lat="45.94543" lon="4.83698">
        <ele>262</ele>
        <time>2017-05-26T09:24:02Z</time>
      </trkpt>
      <trkpt lat="45.94542" lon="4.83688">
        <ele>262</ele>
        <time>2017-05-26T09:24:03Z</time>
      </trkpt>
      <trkpt lat="45.9454" lon="4.83678">
        <ele>262</ele>
        <time>2017-05-26T09:24:04Z</time>
      </trkpt>
      <trkpt lat="45.94539" lon="4.83669">
        <ele>262</ele>
        <time>2017-05-26T09:24:05Z</time>
      </trkpt>
      <trkpt lat="45.94537" lon="4.83659">
        <ele>261</ele>
        <time>2017-05-26T09:24:06Z</time>
      </trkpt>
      <trkpt lat="45.94535" lon="4.8365">
        <ele>261</ele>
        <time>2017-05-26T09:24:07Z</time>
      </trkpt>
      <trkpt lat="45.94534" lon="4.83641">
        <ele>261</ele>
        <time>2017-05-26T09:24:08Z</time>
      </trkpt>
      <trkpt lat="45.94533" lon="4.83633">
        <ele>261</ele>
        <time>2017-05-26T09:24:09Z</time>
      </trkpt>
      <trkpt lat="45.94532" lon="4.83624">
        <ele>261</ele>
        <time>2017-05-26T09:24:10Z</time>
      </trkpt>
      <trkpt lat="45.9453" lon="4.83616">
        <ele>261</ele>
        <time>2017-05-26T09:24:11Z</time>
      </trkpt>
      <trkpt lat="45.94529" lon="4.83609">
        <ele>261</ele>
        <time>2017-05-26T09:24:12Z</time>
      </trkpt>
      <trkpt lat="45.94528" lon="4.83602">
        <ele>261</ele>
        <time>2017-05-26T09:24:13Z</time>
      </trkpt>
      <trkpt lat="45.94527" lon="4.83595">
        <ele>261</ele>
        <time>2017-05-26T09:24:14Z</time>
      </trkpt>
      <trkpt lat="45.94525" lon="4.83588">
        <ele>261</ele>
        <time>2017-05-26T09:24:15Z</time>
      </trkpt>
      <trkpt lat="45.94523" lon="4.83582">
        <ele>261</ele>
        <time>2017-05-26T09:24:16Z</time>
      </trkpt>
      <trkpt lat="45.94519" lon="4.83571">
        <ele>261</ele>
        <time>2017-05-26T09:24:18Z</time>
      </trkpt>
      <trkpt lat="45.94516" lon="4.83566">
        <ele>261</ele>
        <time>2017-05-26T09:24:19Z</time>
      </trkpt>
      <trkpt lat="45.94513" lon="4.8356">
        <ele>261</ele>
        <time>2017-05-26T09:24:20Z</time>
      </trkpt>
      <trkpt lat="45.9451" lon="4.83554">
        <ele>261</ele>
        <time>2017-05-26T09:24:21Z</time>
      </trkpt>
      <trkpt lat="45.94507" lon="4.83549">
        <ele>261</ele>
        <time>2017-05-26T09:24:22Z</time>
      </trkpt>
      <trkpt lat="45.94503" lon="4.83543">
        <ele>262</ele>
        <time>2017-05-26T09:24:23Z</time>
      </trkpt>
      <trkpt lat="45.945" lon="4.83537">
        <ele>262</ele>
        <time>2017-05-26T09:24:24Z</time>
      </trkpt>
      <trkpt lat="45.94497" lon="4.83532">
        <ele>262</ele>
        <time>2017-05-26T09:24:25Z</time>
      </trkpt>
      <trkpt lat="45.94494" lon="4.83526">
        <ele>262</ele>
        <time>2017-05-26T09:24:26Z</time>
      </trkpt>
      <trkpt lat="45.94491" lon="4.83521">
        <ele>262</ele>
        <time>2017-05-26T09:24:27Z</time>
      </trkpt>
      <trkpt lat="45.94487" lon="4.83516">
        <ele>262</ele>
        <time>2017-05-26T09:24:28Z</time>
      </trkpt>
      <trkpt lat="45.94484" lon="4.83511">
        <ele>262</ele>
        <time>2017-05-26T09:24:29Z</time>
      </trkpt>
      <trkpt lat="45.9448" lon="4.83505">
        <ele>262</ele>
        <time>2017-05-26T09:24:30Z</time>
      </trkpt>
      <trkpt lat="45.94477" lon="4.835">
        <ele>263</ele>
        <time>2017-05-26T09:24:31Z</time>
      </trkpt>
      <trkpt lat="45.94473" lon="4.83494">
        <ele>263</ele>
        <time>2017-05-26T09:24:32Z</time>
      </trkpt>
      <trkpt lat="45.94469" lon="4.83488">
        <ele>263</ele>
        <time>2017-05-26T09:24:33Z</time>
      </trkpt>
      <trkpt lat="45.94466" lon="4.83483">
        <ele>263</ele>
        <time>2017-05-26T09:24:34Z</time>
      </trkpt>
      <trkpt lat="45.94462" lon="4.83476">
        <ele>263</ele>
        <time>2017-05-26T09:24:35Z</time>
      </trkpt>
      <trkpt lat="45.94459" lon="4.8347">
        <ele>263</ele>
        <time>2017-05-26T09:24:36Z</time>
      </trkpt>
      <trkpt lat="45.94456" lon="4.83464">
        <ele>263</ele>
        <time>2017-05-26T09:24:37Z</time>
      </trkpt>
      <trkpt lat="45.94453" lon="4.83459">
        <ele>263</ele>
        <time>2017-05-26T09:24:38Z</time>
      </trkpt>
      <trkpt lat="45.9445" lon="4.83454">
        <ele>263</ele>
        <time>2017-05-26T09:24:39Z</time>
      </trkpt>
      <trkpt lat="45.94447" lon="4.83448">
        <ele>263</ele>
        <time>2017-05-26T09:24:40Z</time>
      </trkpt>
      <trkpt lat="45.94444" lon="4.83443">
        <ele>263</ele>
        <time>2017-05-26T09:24:41Z</time>
      </trkpt>
      <trkpt lat="45.94441" lon="4.83438">
        <ele>263</ele>
        <time>2017-05-26T09:24:42Z</time>
      </trkpt>
      <trkpt lat="45.94439" lon="4.83432">
        <ele>264</ele>
        <time>2017-05-26T09:24:43Z</time>
      </trkpt>
      <trkpt lat="45.94436" lon="4.83427">
        <ele>264</ele>
        <time>2017-05-26T09:24:44Z</time>
      </trkpt>
      <trkpt lat="45.94433" lon="4.83421">
        <ele>264</ele>
        <time>2017-05-26T09:24:45Z</time>
      </trkpt>
      <trkpt lat="45.94431" lon="4.83416">
        <ele>264</ele>
        <time>2017-05-26T09:24:46Z</time>
      </trkpt>
      <trkpt lat="45.94428" lon="4.8341">
        <ele>264</ele>
        <time>2017-05-26T09:24:47Z</time>
      </trkpt>
      <trkpt lat="45.94425" lon="4.83404">
        <ele>264</ele>
        <time>2017-05-26T09:24:48Z</time>
      </trkpt>
      <trkpt lat="45.94422" lon="4.83398">
        <ele>264</ele>
        <time>2017-05-26T09:24:49Z</time>
      </trkpt>
      <trkpt lat="45.9442" lon="4.83392">
        <ele>264</ele>
        <time>2017-05-26T09:24:50Z</time>
      </trkpt>
      <trkpt lat="45.94417" lon="4.83386">
        <ele>264</ele>
        <time>2017-05-26T09:24:51Z</time>
      </trkpt>
      <trkpt lat="45.94413" lon="4.83376">
        <ele>264</ele>
        <time>2017-05-26T09:24:53Z</time>
      </trkpt>
      <trkpt lat="45.9441" lon="4.8337">
        <ele>264</ele>
        <time>2017-05-26T09:24:54Z</time>
      </trkpt>
      <trkpt lat="45.94406" lon="4.83359">
        <ele>264</ele>
        <time>2017-05-26T09:24:56Z</time>
      </trkpt>
      <trkpt lat="45.94403" lon="4.83354">
        <ele>263</ele>
        <time>2017-05-26T09:24:57Z</time>
      </trkpt>
      <trkpt lat="45.94401" lon="4.83348">
        <ele>263</ele>
        <time>2017-05-26T09:24:58Z</time>
      </trkpt>
      <trkpt lat="45.94398" lon="4.83342">
        <ele>263</ele>
        <time>2017-05-26T09:24:59Z</time>
      </trkpt>
      <trkpt lat="45.94396" lon="4.83335">
        <ele>263</ele>
        <time>2017-05-26T09:25:00Z</time>
      </trkpt>
      <trkpt lat="45.94393" lon="4.83328">
        <ele>264</ele>
        <time>2017-05-26T09:25:01Z</time>
      </trkpt>
      <trkpt lat="45.9439" lon="4.8332">
        <ele>264</ele>
        <time>2017-05-26T09:25:02Z</time>
      </trkpt>
      <trkpt lat="45.94387" lon="4.83311">
        <ele>264</ele>
        <time>2017-05-26T09:25:03Z</time>
      </trkpt>
      <trkpt lat="45.94384" lon="4.83302">
        <ele>264</ele>
        <time>2017-05-26T09:25:04Z</time>
      </trkpt>
      <trkpt lat="45.94381" lon="4.83292">
        <ele>264</ele>
        <time>2017-05-26T09:25:05Z</time>
      </trkpt>
      <trkpt lat="45.94377" lon="4.83284">
        <ele>264</ele>
        <time>2017-05-26T09:25:06Z</time>
      </trkpt>
      <trkpt lat="45.94374" lon="4.83276">
        <ele>264</ele>
        <time>2017-05-26T09:25:07Z</time>
      </trkpt>
      <trkpt lat="45.94371" lon="4.83268">
        <ele>264</ele>
        <time>2017-05-26T09:25:08Z</time>
      </trkpt>
      <trkpt lat="45.94368" lon="4.83261">
        <ele>265</ele>
        <time>2017-05-26T09:25:09Z</time>
      </trkpt>
      <trkpt lat="45.94366" lon="4.83253">
        <ele>265</ele>
        <time>2017-05-26T09:25:10Z</time>
      </trkpt>
      <trkpt lat="45.94363" lon="4.83247">
        <ele>265</ele>
        <time>2017-05-26T09:25:11Z</time>
      </trkpt>
      <trkpt lat="45.9436" lon="4.8324">
        <ele>265</ele>
        <time>2017-05-26T09:25:12Z</time>
      </trkpt>
      <trkpt lat="45.94358" lon="4.83233">
        <ele>265</ele>
        <time>2017-05-26T09:25:13Z</time>
      </trkpt>
      <trkpt lat="45.94356" lon="4.83227">
        <ele>266</ele>
        <time>2017-05-26T09:25:14Z</time>
      </trkpt>
      <trkpt lat="45.94354" lon="4.83221">
        <ele>266</ele>
        <time>2017-05-26T09:25:15Z</time>
      </trkpt>
      <trkpt lat="45.9435" lon="4.8321">
        <ele>266</ele>
        <time>2017-05-26T09:25:17Z</time>
      </trkpt>
      <trkpt lat="45.94348" lon="4.83203">
        <ele>266</ele>
        <time>2017-05-26T09:25:18Z</time>
      </trkpt>
      <trkpt lat="45.94346" lon="4.83196">
        <ele>266</ele>
        <time>2017-05-26T09:25:19Z</time>
      </trkpt>
      <trkpt lat="45.94343" lon="4.83189">
        <ele>266</ele>
        <time>2017-05-26T09:25:20Z</time>
      </trkpt>
      <trkpt lat="45.94341" lon="4.83181">
        <ele>266</ele>
        <time>2017-05-26T09:25:21Z</time>
      </trkpt>
      <trkpt lat="45.94338" lon="4.83173">
        <ele>266</ele>
        <time>2017-05-26T09:25:22Z</time>
      </trkpt>
      <trkpt lat="45.94335" lon="4.83165">
        <ele>266</ele>
        <time>2017-05-26T09:25:23Z</time>
      </trkpt>
      <trkpt lat="45.94332" lon="4.83156">
        <ele>266</ele>
        <time>2017-05-26T09:25:24Z</time>
      </trkpt>
      <trkpt lat="45.94329" lon="4.83148">
        <ele>266</ele>
        <time>2017-05-26T09:25:25Z</time>
      </trkpt>
      <trkpt lat="45.94326" lon="4.8314">
        <ele>266</ele>
        <time>2017-05-26T09:25:26Z</time>
      </trkpt>
      <trkpt lat="45.94324" lon="4.83132">
        <ele>266</ele>
        <time>2017-05-26T09:25:27Z</time>
      </trkpt>
      <trkpt lat="45.94321" lon="4.83124">
        <ele>266</ele>
        <time>2017-05-26T09:25:28Z</time>
      </trkpt>
      <trkpt lat="45.94319" lon="4.83116">
        <ele>266</ele>
        <time>2017-05-26T09:25:29Z</time>
      </trkpt>
      <trkpt lat="45.94316" lon="4.83108">
        <ele>266</ele>
        <time>2017-05-26T09:25:30Z</time>
      </trkpt>
      <trkpt lat="45.94314" lon="4.831">
        <ele>266</ele>
        <time>2017-05-26T09:25:31Z</time>
      </trkpt>
      <trkpt lat="45.94312" lon="4.83093">
        <ele>266</ele>
        <time>2017-05-26T09:25:32Z</time>
      </trkpt>
      <trkpt lat="45.9431" lon="4.83086">
        <ele>266</ele>
        <time>2017-05-26T09:25:33Z</time>
      </trkpt>
      <trkpt lat="45.94308" lon="4.83078">
        <ele>266</ele>
        <time>2017-05-26T09:25:34Z</time>
      </trkpt>
      <trkpt lat="45.94307" lon="4.83071">
        <ele>266</ele>
        <time>2017-05-26T09:25:35Z</time>
      </trkpt>
      <trkpt lat="45.94305" lon="4.83064">
        <ele>266</ele>
        <time>2017-05-26T09:25:36Z</time>
      </trkpt>
      <trkpt lat="45.94303" lon="4.83057">
        <ele>266</ele>
        <time>2017-05-26T09:25:37Z</time>
      </trkpt>
      <trkpt lat="45.94302" lon="4.83051">
        <ele>266</ele>
        <time>2017-05-26T09:25:38Z</time>
      </trkpt>
      <trkpt lat="45.943" lon="4.83044">
        <ele>266</ele>
        <time>2017-05-26T09:25:39Z</time>
      </trkpt>
      <trkpt lat="45.94299" lon="4.83038">
        <ele>266</ele>
        <time>2017-05-26T09:25:40Z</time>
      </trkpt>
      <trkpt lat="45.94297" lon="4.83026">
        <ele>266</ele>
        <time>2017-05-26T09:25:42Z</time>
      </trkpt>
      <trkpt lat="45.94296" lon="4.8302">
        <ele>266</ele>
        <time>2017-05-26T09:25:43Z</time>
      </trkpt>
      <trkpt lat="45.94293" lon="4.83009">
        <ele>266</ele>
        <time>2017-05-26T09:25:45Z</time>
      </trkpt>
      <trkpt lat="45.94292" lon="4.83003">
        <ele>266</ele>
        <time>2017-05-26T09:25:46Z</time>
      </trkpt>
      <trkpt lat="45.94289" lon="4.82991">
        <ele>265</ele>
        <time>2017-05-26T09:25:48Z</time>
      </trkpt>
      <trkpt lat="45.94287" lon="4.82985">
        <ele>265</ele>
        <time>2017-05-26T09:25:49Z</time>
      </trkpt>
      <trkpt lat="45.94283" lon="4.82974">
        <ele>265</ele>
        <time>2017-05-26T09:25:51Z</time>
      </trkpt>
      <trkpt lat="45.94281" lon="4.82969">
        <ele>265</ele>
        <time>2017-05-26T09:25:52Z</time>
      </trkpt>
      <trkpt lat="45.94278" lon="4.82958">
        <ele>265</ele>
        <time>2017-05-26T09:25:54Z</time>
      </trkpt>
      <trkpt lat="45.94279" lon="4.82952">
        <ele>265</ele>
        <time>2017-05-26T09:25:55Z</time>
      </trkpt>
      <trkpt lat="45.94281" lon="4.8294">
        <ele>265</ele>
        <time>2017-05-26T09:25:57Z</time>
      </trkpt>
      <trkpt lat="45.94282" lon="4.82933">
        <ele>265</ele>
        <time>2017-05-26T09:25:58Z</time>
      </trkpt>
      <trkpt lat="45.94284" lon="4.82927">
        <ele>265</ele>
        <time>2017-05-26T09:25:59Z</time>
      </trkpt>
      <trkpt lat="45.94284" lon="4.82921">
        <ele>265</ele>
        <time>2017-05-26T09:26:00Z</time>
      </trkpt>
      <trkpt lat="45.94285" lon="4.82914">
        <ele>265</ele>
        <time>2017-05-26T09:26:01Z</time>
      </trkpt>
      <trkpt lat="45.94286" lon="4.82908">
        <ele>265</ele>
        <time>2017-05-26T09:26:02Z</time>
      </trkpt>
      <trkpt lat="45.94287" lon="4.829">
        <ele>265</ele>
        <time>2017-05-26T09:26:03Z</time>
      </trkpt>
      <trkpt lat="45.94288" lon="4.82893">
        <ele>265</ele>
        <time>2017-05-26T09:26:04Z</time>
      </trkpt>
      <trkpt lat="45.94288" lon="4.82886">
        <ele>265</ele>
        <time>2017-05-26T09:26:05Z</time>
      </trkpt>
      <trkpt lat="45.94289" lon="4.82879">
        <ele>265</ele>
        <time>2017-05-26T09:26:06Z</time>
      </trkpt>
      <trkpt lat="45.94289" lon="4.82871">
        <ele>265</ele>
        <time>2017-05-26T09:26:07Z</time>
      </trkpt>
      <trkpt lat="45.94289" lon="4.82864">
        <ele>265</ele>
        <time>2017-05-26T09:26:08Z</time>
      </trkpt>
      <trkpt lat="45.9429" lon="4.82856">
        <ele>265</ele>
        <time>2017-05-26T09:26:09Z</time>
      </trkpt>
      <trkpt lat="45.9429" lon="4.82849">
        <ele>265</ele>
        <time>2017-05-26T09:26:10Z</time>
      </trkpt>
      <trkpt lat="45.9429" lon="4.82842">
        <ele>265</ele>
        <time>2017-05-26T09:26:11Z</time>
      </trkpt>
      <trkpt lat="45.9429" lon="4.82835">
        <ele>265</ele>
        <time>2017-05-26T09:26:12Z</time>
      </trkpt>
      <trkpt lat="45.94291" lon="4.82827">
        <ele>265</ele>
        <time>2017-05-26T09:26:13Z</time>
      </trkpt>
      <trkpt lat="45.94291" lon="4.8282">
        <ele>265</ele>
        <time>2017-05-26T09:26:14Z</time>
      </trkpt>
      <trkpt lat="45.94291" lon="4.82813">
        <ele>265</ele>
        <time>2017-05-26T09:26:15Z</time>
      </trkpt>
      <trkpt lat="45.9429" lon="4.82806">
        <ele>265</ele>
        <time>2017-05-26T09:26:16Z</time>
      </trkpt>
      <trkpt lat="45.9429" lon="4.82799">
        <ele>265</ele>
        <time>2017-05-26T09:26:17Z</time>
      </trkpt>
      <trkpt lat="45.9429" lon="4.82792">
        <ele>265</ele>
        <time>2017-05-26T09:26:18Z</time>
      </trkpt>
      <trkpt lat="45.9429" lon="4.82785">
        <ele>265</ele>
        <time>2017-05-26T09:26:19Z</time>
      </trkpt>
      <trkpt lat="45.9429" lon="4.82777">
        <ele>265</ele>
        <time>2017-05-26T09:26:20Z</time>
      </trkpt>
      <trkpt lat="45.9429" lon="4.8277">
        <ele>265</ele>
        <time>2017-05-26T09:26:21Z</time>
      </trkpt>
      <trkpt lat="45.9429" lon="4.82762">
        <ele>265</ele>
        <time>2017-05-26T09:26:22Z</time>
      </trkpt>
      <trkpt lat="45.94291" lon="4.82754">
        <ele>265</ele>
        <time>2017-05-26T09:26:23Z</time>
      </trkpt>
      <trkpt lat="45.94291" lon="4.82745">
        <ele>265</ele>
        <time>2017-05-26T09:26:24Z</time>
      </trkpt>
      <trkpt lat="45.94291" lon="4.82737">
        <ele>265</ele>
        <time>2017-05-26T09:26:25Z</time>
      </trkpt>
      <trkpt lat="45.94291" lon="4.82729">
        <ele>265</ele>
        <time>2017-05-26T09:26:26Z</time>
      </trkpt>
      <trkpt lat="45.94291" lon="4.8272">
        <ele>265</ele>
        <time>2017-05-26T09:26:27Z</time>
      </trkpt>
      <trkpt lat="45.94291" lon="4.82711">
        <ele>265</ele>
        <time>2017-05-26T09:26:28Z</time>
      </trkpt>
      <trkpt lat="45.94291" lon="4.82701">
        <ele>265</ele>
        <time>2017-05-26T09:26:29Z</time>
      </trkpt>
      <trkpt lat="45.94291" lon="4.82691">
        <ele>265</ele>
        <time>2017-05-26T09:26:30Z</time>
      </trkpt>
      <trkpt lat="45.94291" lon="4.82681">
        <ele>265</ele>
        <time>2017-05-26T09:26:31Z</time>
      </trkpt>
      <trkpt lat="45.94291" lon="4.82671">
        <ele>265</ele>
        <time>2017-05-26T09:26:32Z</time>
      </trkpt>
      <trkpt lat="45.94291" lon="4.82661">
        <ele>265</ele>
        <time>2017-05-26T09:26:33Z</time>
      </trkpt>
      <trkpt lat="45.94292" lon="4.82651">
        <ele>265</ele>
        <time>2017-05-26T09:26:34Z</time>
      </trkpt>
      <trkpt lat="45.94292" lon="4.82641">
        <ele>265</ele>
        <time>2017-05-26T09:26:35Z</time>
      </trkpt>
      <trkpt lat="45.94292" lon="4.8263">
        <ele>265</ele>
        <time>2017-05-26T09:26:36Z</time>
      </trkpt>
      <trkpt lat="45.94292" lon="4.82619">
        <ele>265</ele>
        <time>2017-05-26T09:26:37Z</time>
      </trkpt>
      <trkpt lat="45.94292" lon="4.82608">
        <ele>265</ele>
        <time>2017-05-26T09:26:38Z</time>
      </trkpt>
      <trkpt lat="45.94293" lon="4.82598">
        <ele>265</ele>
        <time>2017-05-26T09:26:39Z</time>
      </trkpt>
      <trkpt lat="45.94293" lon="4.82587">
        <ele>265</ele>
        <time>2017-05-26T09:26:40Z</time>
      </trkpt>
      <trkpt lat="45.94294" lon="4.82577">
        <ele>264</ele>
        <time>2017-05-26T09:26:41Z</time>
      </trkpt>
      <trkpt lat="45.94294" lon="4.82567">
        <ele>264</ele>
        <time>2017-05-26T09:26:42Z</time>
      </trkpt>
      <trkpt lat="45.94294" lon="4.82557">
        <ele>264</ele>
        <time>2017-05-26T09:26:43Z</time>
      </trkpt>
      <trkpt lat="45.94295" lon="4.82547">
        <ele>264</ele>
        <time>2017-05-26T09:26:44Z</time>
      </trkpt>
      <trkpt lat="45.94295" lon="4.82538">
        <ele>264</ele>
        <time>2017-05-26T09:26:45Z</time>
      </trkpt>
      <trkpt lat="45.94295" lon="4.82528">
        <ele>264</ele>
        <time>2017-05-26T09:26:46Z</time>
      </trkpt>
      <trkpt lat="45.94295" lon="4.82519">
        <ele>264</ele>
        <time>2017-05-26T09:26:47Z</time>
      </trkpt>
      <trkpt lat="45.94295" lon="4.82509">
        <ele>264</ele>
        <time>2017-05-26T09:26:48Z</time>
      </trkpt>
      <trkpt lat="45.94295" lon="4.825">
        <ele>264</ele>
        <time>2017-05-26T09:26:49Z</time>
      </trkpt>
      <trkpt lat="45.94294" lon="4.82491">
        <ele>264</ele>
        <time>2017-05-26T09:26:50Z</time>
      </trkpt>
      <trkpt lat="45.94294" lon="4.82481">
        <ele>264</ele>
        <time>2017-05-26T09:26:51Z</time>
      </trkpt>
      <trkpt lat="45.94294" lon="4.82472">
        <ele>264</ele>
        <time>2017-05-26T09:26:52Z</time>
      </trkpt>
      <trkpt lat="45.94294" lon="4.82463">
        <ele>264</ele>
        <time>2017-05-26T09:26:53Z</time>
      </trkpt>
      <trkpt lat="45.94294" lon="4.82453">
        <ele>264</ele>
        <time>2017-05-26T09:26:54Z</time>
      </trkpt>
      <trkpt lat="45.94293" lon="4.82444">
        <ele>264</ele>
        <time>2017-05-26T09:26:55Z</time>
      </trkpt>
      <trkpt lat="45.94293" lon="4.82435">
        <ele>264</ele>
        <time>2017-05-26T09:26:56Z</time>
      </trkpt>
      <trkpt lat="45.94292" lon="4.82425">
        <ele>264</ele>
        <time>2017-05-26T09:26:57Z</time>
      </trkpt>
      <trkpt lat="45.94291" lon="4.82416">
        <ele>264</ele>
        <time>2017-05-26T09:26:58Z</time>
      </trkpt>
      <trkpt lat="45.94291" lon="4.82407">
        <ele>264</ele>
        <time>2017-05-26T09:26:59Z</time>
      </trkpt>
      <trkpt lat="45.94291" lon="4.82398">
        <ele>264</ele>
        <time>2017-05-26T09:27:00Z</time>
      </trkpt>
      <trkpt lat="45.94291" lon="4.82389">
        <ele>264</ele>
        <time>2017-05-26T09:27:01Z</time>
      </trkpt>
      <trkpt lat="45.9429" lon="4.8238">
        <ele>264</ele>
        <time>2017-05-26T09:27:02Z</time>
      </trkpt>
      <trkpt lat="45.9429" lon="4.82371">
        <ele>264</ele>
        <time>2017-05-26T09:27:03Z</time>
      </trkpt>
      <trkpt lat="45.94289" lon="4.82362">
        <ele>264</ele>
        <time>2017-05-26T09:27:04Z</time>
      </trkpt>
      <trkpt lat="45.94289" lon="4.82353">
        <ele>264</ele>
        <time>2017-05-26T09:27:05Z</time>
      </trkpt>
      <trkpt lat="45.94289" lon="4.82343">
        <ele>264</ele>
        <time>2017-05-26T09:27:06Z</time>
      </trkpt>
      <trkpt lat="45.94289" lon="4.82334">
        <ele>264</ele>
        <time>2017-05-26T09:27:07Z</time>
      </trkpt>
      <trkpt lat="45.94289" lon="4.82325">
        <ele>265</ele>
        <time>2017-05-26T09:27:08Z</time>
      </trkpt>
      <trkpt lat="45.94288" lon="4.82316">
        <ele>265</ele>
        <time>2017-05-26T09:27:09Z</time>
      </trkpt>
      <trkpt lat="45.94287" lon="4.82307">
        <ele>265</ele>
        <time>2017-05-26T09:27:10Z</time>
      </trkpt>
      <trkpt lat="45.94287" lon="4.82298">
        <ele>265</ele>
        <time>2017-05-26T09:27:11Z</time>
      </trkpt>
      <trkpt lat="45.94286" lon="4.82289">
        <ele>265</ele>
        <time>2017-05-26T09:27:12Z</time>
      </trkpt>
      <trkpt lat="45.94286" lon="4.8228">
        <ele>265</ele>
        <time>2017-05-26T09:27:13Z</time>
      </trkpt>
      <trkpt lat="45.94285" lon="4.82271">
        <ele>265</ele>
        <time>2017-05-26T09:27:14Z</time>
      </trkpt>
      <trkpt lat="45.94285" lon="4.82262">
        <ele>265</ele>
        <time>2017-05-26T09:27:15Z</time>
      </trkpt>
      <trkpt lat="45.94284" lon="4.82253">
        <ele>265</ele>
        <time>2017-05-26T09:27:16Z</time>
      </trkpt>
      <trkpt lat="45.94284" lon="4.82243">
        <ele>264</ele>
        <time>2017-05-26T09:27:17Z</time>
      </trkpt>
      <trkpt lat="45.94283" lon="4.82234">
        <ele>264</ele>
        <time>2017-05-26T09:27:18Z</time>
      </trkpt>
      <trkpt lat="45.94282" lon="4.82224">
        <ele>264</ele>
        <time>2017-05-26T09:27:19Z</time>
      </trkpt>
      <trkpt lat="45.94281" lon="4.82215">
        <ele>264</ele>
        <time>2017-05-26T09:27:20Z</time>
      </trkpt>
      <trkpt lat="45.9428" lon="4.82205">
        <ele>264</ele>
        <time>2017-05-26T09:27:21Z</time>
      </trkpt>
      <trkpt lat="45.94279" lon="4.82196">
        <ele>264</ele>
        <time>2017-05-26T09:27:22Z</time>
      </trkpt>
      <trkpt lat="45.94277" lon="4.82187">
        <ele>264</ele>
        <time>2017-05-26T09:27:23Z</time>
      </trkpt>
      <trkpt lat="45.94276" lon="4.82178">
        <ele>264</ele>
        <time>2017-05-26T09:27:24Z</time>
      </trkpt>
      <trkpt lat="45.94274" lon="4.8217">
        <ele>264</ele>
        <time>2017-05-26T09:27:25Z</time>
      </trkpt>
      <trkpt lat="45.94273" lon="4.82161">
        <ele>263</ele>
        <time>2017-05-26T09:27:26Z</time>
      </trkpt>
      <trkpt lat="45.94271" lon="4.82152">
        <ele>263</ele>
        <time>2017-05-26T09:27:27Z</time>
      </trkpt>
      <trkpt lat="45.94269" lon="4.82144">
        <ele>263</ele>
        <time>2017-05-26T09:27:28Z</time>
      </trkpt>
      <trkpt lat="45.94267" lon="4.82135">
        <ele>263</ele>
        <time>2017-05-26T09:27:29Z</time>
      </trkpt>
      <trkpt lat="45.94266" lon="4.82127">
        <ele>263</ele>
        <time>2017-05-26T09:27:30Z</time>
      </trkpt>
      <trkpt lat="45.94264" lon="4.82119">
        <ele>263</ele>
        <time>2017-05-26T09:27:31Z</time>
      </trkpt>
      <trkpt lat="45.94263" lon="4.8211">
        <ele>263</ele>
        <time>2017-05-26T09:27:32Z</time>
      </trkpt>
      <trkpt lat="45.94262" lon="4.82102">
        <ele>262</ele>
        <time>2017-05-26T09:27:33Z</time>
      </trkpt>
      <trkpt lat="45.9426" lon="4.82093">
        <ele>262</ele>
        <time>2017-05-26T09:27:34Z</time>
      </trkpt>
      <trkpt lat="45.94258" lon="4.82084">
        <ele>262</ele>
        <time>2017-05-26T09:27:35Z</time>
      </trkpt>
      <trkpt lat="45.94256" lon="4.82075">
        <ele>262</ele>
        <time>2017-05-26T09:27:36Z</time>
      </trkpt>
      <trkpt lat="45.94254" lon="4.82066">
        <ele>262</ele>
        <time>2017-05-26T09:27:37Z</time>
      </trkpt>
      <trkpt lat="45.94252" lon="4.82057">
        <ele>262</ele>
        <time>2017-05-26T09:27:38Z</time>
      </trkpt>
      <trkpt lat="45.94249" lon="4.82048">
        <ele>263</ele>
        <time>2017-05-26T09:27:39Z</time>
      </trkpt>
      <trkpt lat="45.94245" lon="4.8204">
        <ele>263</ele>
        <time>2017-05-26T09:27:40Z</time>
      </trkpt>
      <trkpt lat="45.94243" lon="4.82031">
        <ele>263</ele>
        <time>2017-05-26T09:27:41Z</time>
      </trkpt>
      <trkpt lat="45.94241" lon="4.82022">
        <ele>263</ele>
        <time>2017-05-26T09:27:42Z</time>
      </trkpt>
      <trkpt lat="45.94239" lon="4.82014">
        <ele>263</ele>
        <time>2017-05-26T09:27:43Z</time>
      </trkpt>
      <trkpt lat="45.94237" lon="4.82006">
        <ele>263</ele>
        <time>2017-05-26T09:27:44Z</time>
      </trkpt>
      <trkpt lat="45.94236" lon="4.81998">
        <ele>263</ele>
        <time>2017-05-26T09:27:45Z</time>
      </trkpt>
      <trkpt lat="45.94235" lon="4.81989">
        <ele>263</ele>
        <time>2017-05-26T09:27:46Z</time>
      </trkpt>
      <trkpt lat="45.94233" lon="4.81981">
        <ele>263</ele>
        <time>2017-05-26T09:27:47Z</time>
      </trkpt>
      <trkpt lat="45.94232" lon="4.81972">
        <ele>264</ele>
        <time>2017-05-26T09:27:48Z</time>
      </trkpt>
      <trkpt lat="45.9423" lon="4.81963">
        <ele>264</ele>
        <time>2017-05-26T09:27:49Z</time>
      </trkpt>
      <trkpt lat="45.94229" lon="4.81955">
        <ele>264</ele>
        <time>2017-05-26T09:27:50Z</time>
      </trkpt>
      <trkpt lat="45.94227" lon="4.81946">
        <ele>264</ele>
        <time>2017-05-26T09:27:51Z</time>
      </trkpt>
      <trkpt lat="45.94225" lon="4.81937">
        <ele>264</ele>
        <time>2017-05-26T09:27:52Z</time>
      </trkpt>
      <trkpt lat="45.94223" lon="4.81928">
        <ele>264</ele>
        <time>2017-05-26T09:27:53Z</time>
      </trkpt>
      <trkpt lat="45.94221" lon="4.81918">
        <ele>264</ele>
        <time>2017-05-26T09:27:54Z</time>
      </trkpt>
      <trkpt lat="45.94218" lon="4.81909">
        <ele>265</ele>
        <time>2017-05-26T09:27:55Z</time>
      </trkpt>
      <trkpt lat="45.94216" lon="4.81899">
        <ele>265</ele>
        <time>2017-05-26T09:27:56Z</time>
      </trkpt>
      <trkpt lat="45.94214" lon="4.81889">
        <ele>265</ele>
        <time>2017-05-26T09:27:57Z</time>
      </trkpt>
      <trkpt lat="45.94212" lon="4.81879">
        <ele>265</ele>
        <time>2017-05-26T09:27:58Z</time>
      </trkpt>
      <trkpt lat="45.9421" lon="4.8187">
        <ele>265</ele>
        <time>2017-05-26T09:27:59Z</time>
      </trkpt>
      <trkpt lat="45.94208" lon="4.8186">
        <ele>265</ele>
        <time>2017-05-26T09:28:00Z</time>
      </trkpt>
      <trkpt lat="45.94206" lon="4.81851">
        <ele>266</ele>
        <time>2017-05-26T09:28:01Z</time>
      </trkpt>
      <trkpt lat="45.94204" lon="4.81842">
        <ele>266</ele>
        <time>2017-05-26T09:28:02Z</time>
      </trkpt>
      <trkpt lat="45.94202" lon="4.81833">
        <ele>266</ele>
        <time>2017-05-26T09:28:03Z</time>
      </trkpt>
      <trkpt lat="45.94201" lon="4.81823">
        <ele>266</ele>
        <time>2017-05-26T09:28:04Z</time>
      </trkpt>
      <trkpt lat="45.942" lon="4.81814">
        <ele>266</ele>
        <time>2017-05-26T09:28:05Z</time>
      </trkpt>
      <trkpt lat="45.942" lon="4.81804">
        <ele>266</ele>
        <time>2017-05-26T09:28:06Z</time>
      </trkpt>
      <trkpt lat="45.94201" lon="4.81795">
        <ele>266</ele>
        <time>2017-05-26T09:28:07Z</time>
      </trkpt>
      <trkpt lat="45.94203" lon="4.81786">
        <ele>266</ele>
        <time>2017-05-26T09:28:08Z</time>
      </trkpt>
      <trkpt lat="45.94205" lon="4.81778">
        <ele>266</ele>
        <time>2017-05-26T09:28:09Z</time>
      </trkpt>
      <trkpt lat="45.94208" lon="4.8177">
        <ele>265</ele>
        <time>2017-05-26T09:28:10Z</time>
      </trkpt>
      <trkpt lat="45.94212" lon="4.81763">
        <ele>265</ele>
        <time>2017-05-26T09:28:11Z</time>
      </trkpt>
      <trkpt lat="45.94216" lon="4.81756">
        <ele>265</ele>
        <time>2017-05-26T09:28:12Z</time>
      </trkpt>
      <trkpt lat="45.94219" lon="4.81749">
        <ele>265</ele>
        <time>2017-05-26T09:28:13Z</time>
      </trkpt>
      <trkpt lat="45.9422" lon="4.81741">
        <ele>265</ele>
        <time>2017-05-26T09:28:14Z</time>
      </trkpt>
      <trkpt lat="45.94221" lon="4.81733">
        <ele>265</ele>
        <time>2017-05-26T09:28:15Z</time>
      </trkpt>
      <trkpt lat="45.94219" lon="4.81726">
        <ele>266</ele>
        <time>2017-05-26T09:28:16Z</time>
      </trkpt>
      <trkpt lat="45.94216" lon="4.81719">
        <ele>266</ele>
        <time>2017-05-26T09:28:17Z</time>
      </trkpt>
      <trkpt lat="45.94212" lon="4.81714">
        <ele>266</ele>
        <time>2017-05-26T09:28:18Z</time>
      </trkpt>
      <trkpt lat="45.94207" lon="4.81711">
        <ele>266</ele>
        <time>2017-05-26T09:28:19Z</time>
      </trkpt>
      <trkpt lat="45.94202" lon="4.81707">
        <ele>266</ele>
        <time>2017-05-26T09:28:20Z</time>
      </trkpt>
      <trkpt lat="45.94197" lon="4.81704">
        <ele>267</ele>
        <time>2017-05-26T09:28:21Z</time>
      </trkpt>
      <trkpt lat="45.94192" lon="4.817">
        <ele>267</ele>
        <time>2017-05-26T09:28:22Z</time>
      </trkpt>
      <trkpt lat="45.94186" lon="4.81693">
        <ele>267</ele>
        <time>2017-05-26T09:28:23Z</time>
      </trkpt>
      <trkpt lat="45.94181" lon="4.81685">
        <ele>267</ele>
        <time>2017-05-26T09:28:24Z</time>
      </trkpt>
      <trkpt lat="45.94178" lon="4.81676">
        <ele>268</ele>
        <time>2017-05-26T09:28:25Z</time>
      </trkpt>
      <trkpt lat="45.94175" lon="4.81665">
        <ele>268</ele>
        <time>2017-05-26T09:28:26Z</time>
      </trkpt>
      <trkpt lat="45.94173" lon="4.81654">
        <ele>268</ele>
        <time>2017-05-26T09:28:27Z</time>
      </trkpt>
      <trkpt lat="45.9417" lon="4.81643">
        <ele>268</ele>
        <time>2017-05-26T09:28:28Z</time>
      </trkpt>
      <trkpt lat="45.94167" lon="4.81632">
        <ele>268</ele>
        <time>2017-05-26T09:28:29Z</time>
      </trkpt>
      <trkpt lat="45.94164" lon="4.81621">
        <ele>268</ele>
        <time>2017-05-26T09:28:30Z</time>
      </trkpt>
      <trkpt lat="45.94162" lon="4.8161">
        <ele>267</ele>
        <time>2017-05-26T09:28:31Z</time>
      </trkpt>
      <trkpt lat="45.94159" lon="4.81597">
        <ele>267</ele>
        <time>2017-05-26T09:28:32Z</time>
      </trkpt>
      <trkpt lat="45.94156" lon="4.81585">
        <ele>267</ele>
        <time>2017-05-26T09:28:33Z</time>
      </trkpt>
      <trkpt lat="45.94154" lon="4.81574">
        <ele>265</ele>
        <time>2017-05-26T09:28:34Z</time>
      </trkpt>
      <trkpt lat="45.94152" lon="4.81562">
        <ele>265</ele>
        <time>2017-05-26T09:28:35Z</time>
      </trkpt>
      <trkpt lat="45.94152" lon="4.8155">
        <ele>264</ele>
        <time>2017-05-26T09:28:36Z</time>
      </trkpt>
      <trkpt lat="45.94151" lon="4.81538">
        <ele>264</ele>
        <time>2017-05-26T09:28:37Z</time>
      </trkpt>
      <trkpt lat="45.94149" lon="4.81526">
        <ele>263</ele>
        <time>2017-05-26T09:28:38Z</time>
      </trkpt>
      <trkpt lat="45.94149" lon="4.81514">
        <ele>263</ele>
        <time>2017-05-26T09:28:39Z</time>
      </trkpt>
      <trkpt lat="45.94148" lon="4.81501">
        <ele>263</ele>
        <time>2017-05-26T09:28:40Z</time>
      </trkpt>
      <trkpt lat="45.9415" lon="4.81486">
        <ele>259</ele>
        <time>2017-05-26T09:28:41Z</time>
      </trkpt>
      <trkpt lat="45.94151" lon="4.81472">
        <ele>258</ele>
        <time>2017-05-26T09:28:42Z</time>
      </trkpt>
      <trkpt lat="45.94152" lon="4.81458">
        <ele>257</ele>
        <time>2017-05-26T09:28:43Z</time>
      </trkpt>
      <trkpt lat="45.94154" lon="4.81444">
        <ele>256</ele>
        <time>2017-05-26T09:28:44Z</time>
      </trkpt>
      <trkpt lat="45.94155" lon="4.81431">
        <ele>256</ele>
        <time>2017-05-26T09:28:45Z</time>
      </trkpt>
      <trkpt lat="45.94157" lon="4.81416">
        <ele>254</ele>
        <time>2017-05-26T09:28:46Z</time>
      </trkpt>
      <trkpt lat="45.94159" lon="4.814">
        <ele>253</ele>
        <time>2017-05-26T09:28:47Z</time>
      </trkpt>
      <trkpt lat="45.94161" lon="4.81385">
        <ele>251</ele>
        <time>2017-05-26T09:28:48Z</time>
      </trkpt>
      <trkpt lat="45.94163" lon="4.81371">
        <ele>251</ele>
        <time>2017-05-26T09:28:49Z</time>
      </trkpt>
      <trkpt lat="45.94164" lon="4.81355">
        <ele>251</ele>
        <time>2017-05-26T09:28:50Z</time>
      </trkpt>
      <trkpt lat="45.94165" lon="4.81339">
        <ele>251</ele>
        <time>2017-05-26T09:28:51Z</time>
      </trkpt>
      <trkpt lat="45.94165" lon="4.81322">
        <ele>250</ele>
        <time>2017-05-26T09:28:52Z</time>
      </trkpt>
      <trkpt lat="45.94166" lon="4.81304">
        <ele>248</ele>
        <time>2017-05-26T09:28:53Z</time>
      </trkpt>
      <trkpt lat="45.94166" lon="4.81286">
        <ele>247</ele>
        <time>2017-05-26T09:28:54Z</time>
      </trkpt>
      <trkpt lat="45.94164" lon="4.81269">
        <ele>248</ele>
        <time>2017-05-26T09:28:55Z</time>
      </trkpt>
      <trkpt lat="45.94163" lon="4.81252">
        <ele>249</ele>
        <time>2017-05-26T09:28:56Z</time>
      </trkpt>
      <trkpt lat="45.94159" lon="4.81235">
        <ele>246</ele>
        <time>2017-05-26T09:28:57Z</time>
      </trkpt>
      <trkpt lat="45.94155" lon="4.81218">
        <ele>245</ele>
        <time>2017-05-26T09:28:58Z</time>
      </trkpt>
      <trkpt lat="45.94149" lon="4.81201">
        <ele>244</ele>
        <time>2017-05-26T09:28:59Z</time>
      </trkpt>
      <trkpt lat="45.94144" lon="4.81184">
        <ele>244</ele>
        <time>2017-05-26T09:29:00Z</time>
      </trkpt>
      <trkpt lat="45.94138" lon="4.81168">
        <ele>244</ele>
        <time>2017-05-26T09:29:01Z</time>
      </trkpt>
      <trkpt lat="45.94132" lon="4.81153">
        <ele>243</ele>
        <time>2017-05-26T09:29:02Z</time>
      </trkpt>
      <trkpt lat="45.94125" lon="4.81138">
        <ele>243</ele>
        <time>2017-05-26T09:29:03Z</time>
      </trkpt>
      <trkpt lat="45.94118" lon="4.81124">
        <ele>243</ele>
        <time>2017-05-26T09:29:04Z</time>
      </trkpt>
      <trkpt lat="45.94111" lon="4.8111">
        <ele>242</ele>
        <time>2017-05-26T09:29:05Z</time>
      </trkpt>
      <trkpt lat="45.94103" lon="4.81096">
        <ele>241</ele>
        <time>2017-05-26T09:29:06Z</time>
      </trkpt>
      <trkpt lat="45.94097" lon="4.81082">
        <ele>241</ele>
        <time>2017-05-26T09:29:07Z</time>
      </trkpt>
      <trkpt lat="45.9409" lon="4.81067">
        <ele>242</ele>
        <time>2017-05-26T09:29:08Z</time>
      </trkpt>
      <trkpt lat="45.94084" lon="4.81052">
        <ele>243</ele>
        <time>2017-05-26T09:29:09Z</time>
      </trkpt>
      <trkpt lat="45.94078" lon="4.81036">
        <ele>234</ele>
        <time>2017-05-26T09:29:10Z</time>
      </trkpt>
      <trkpt lat="45.94073" lon="4.81021">
        <ele>234</ele>
        <time>2017-05-26T09:29:11Z</time>
      </trkpt>
      <trkpt lat="45.94069" lon="4.81006">
        <ele>235</ele>
        <time>2017-05-26T09:29:12Z</time>
      </trkpt>
      <trkpt lat="45.94066" lon="4.80991">
        <ele>234</ele>
        <time>2017-05-26T09:29:13Z</time>
      </trkpt>
      <trkpt lat="45.94063" lon="4.80975">
        <ele>233</ele>
        <time>2017-05-26T09:29:14Z</time>
      </trkpt>
      <trkpt lat="45.9406" lon="4.8096">
        <ele>232</ele>
        <time>2017-05-26T09:29:15Z</time>
      </trkpt>
      <trkpt lat="45.94059" lon="4.80944">
        <ele>232</ele>
        <time>2017-05-26T09:29:16Z</time>
      </trkpt>
      <trkpt lat="45.94056" lon="4.80929">
        <ele>232</ele>
        <time>2017-05-26T09:29:17Z</time>
      </trkpt>
      <trkpt lat="45.94054" lon="4.80913">
        <ele>231</ele>
        <time>2017-05-26T09:29:18Z</time>
      </trkpt>
      <trkpt lat="45.94052" lon="4.80898">
        <ele>230</ele>
        <time>2017-05-26T09:29:19Z</time>
      </trkpt>
      <trkpt lat="45.9405" lon="4.80882">
        <ele>230</ele>
        <time>2017-05-26T09:29:20Z</time>
      </trkpt>
      <trkpt lat="45.94048" lon="4.80863">
        <ele>229</ele>
        <time>2017-05-26T09:29:21Z</time>
      </trkpt>
      <trkpt lat="45.94046" lon="4.80847">
        <ele>229</ele>
        <time>2017-05-26T09:29:22Z</time>
      </trkpt>
      <trkpt lat="45.94044" lon="4.80831">
        <ele>229</ele>
        <time>2017-05-26T09:29:23Z</time>
      </trkpt>
      <trkpt lat="45.94043" lon="4.80815">
        <ele>228</ele>
        <time>2017-05-26T09:29:24Z</time>
      </trkpt>
      <trkpt lat="45.9404" lon="4.808">
        <ele>228</ele>
        <time>2017-05-26T09:29:25Z</time>
      </trkpt>
      <trkpt lat="45.94038" lon="4.80785">
        <ele>227</ele>
        <time>2017-05-26T09:29:26Z</time>
      </trkpt>
      <trkpt lat="45.94036" lon="4.80769">
        <ele>227</ele>
        <time>2017-05-26T09:29:27Z</time>
      </trkpt>
      <trkpt lat="45.94034" lon="4.80753">
        <ele>226</ele>
        <time>2017-05-26T09:29:28Z</time>
      </trkpt>
      <trkpt lat="45.94032" lon="4.80738">
        <ele>226</ele>
        <time>2017-05-26T09:29:29Z</time>
      </trkpt>
      <trkpt lat="45.94031" lon="4.80722">
        <ele>225</ele>
        <time>2017-05-26T09:29:30Z</time>
      </trkpt>
      <trkpt lat="45.94029" lon="4.80705">
        <ele>225</ele>
        <time>2017-05-26T09:29:31Z</time>
      </trkpt>
      <trkpt lat="45.94027" lon="4.80688">
        <ele>224</ele>
        <time>2017-05-26T09:29:32Z</time>
      </trkpt>
      <trkpt lat="45.94025" lon="4.80672">
        <ele>223</ele>
        <time>2017-05-26T09:29:33Z</time>
      </trkpt>
      <trkpt lat="45.94024" lon="4.80658">
        <ele>223</ele>
        <time>2017-05-26T09:29:34Z</time>
      </trkpt>
      <trkpt lat="45.94022" lon="4.80643">
        <ele>224</ele>
        <time>2017-05-26T09:29:35Z</time>
      </trkpt>
      <trkpt lat="45.9402" lon="4.80627">
        <ele>224</ele>
        <time>2017-05-26T09:29:36Z</time>
      </trkpt>
      <trkpt lat="45.9402" lon="4.80611">
        <ele>224</ele>
        <time>2017-05-26T09:29:37Z</time>
      </trkpt>
      <trkpt lat="45.94019" lon="4.80595">
        <ele>223</ele>
        <time>2017-05-26T09:29:38Z</time>
      </trkpt>
      <trkpt lat="45.94019" lon="4.80579">
        <ele>223</ele>
        <time>2017-05-26T09:29:39Z</time>
      </trkpt>
      <trkpt lat="45.94019" lon="4.80563">
        <ele>224</ele>
        <time>2017-05-26T09:29:40Z</time>
      </trkpt>
      <trkpt lat="45.94018" lon="4.80547">
        <ele>224</ele>
        <time>2017-05-26T09:29:41Z</time>
      </trkpt>
      <trkpt lat="45.94018" lon="4.8053">
        <ele>224</ele>
        <time>2017-05-26T09:29:42Z</time>
      </trkpt>
      <trkpt lat="45.94018" lon="4.80513">
        <ele>223</ele>
        <time>2017-05-26T09:29:43Z</time>
      </trkpt>
      <trkpt lat="45.94019" lon="4.80496">
        <ele>222</ele>
        <time>2017-05-26T09:29:44Z</time>
      </trkpt>
      <trkpt lat="45.94019" lon="4.8048">
        <ele>223</ele>
        <time>2017-05-26T09:29:45Z</time>
      </trkpt>
      <trkpt lat="45.94017" lon="4.80464">
        <ele>223</ele>
        <time>2017-05-26T09:29:46Z</time>
      </trkpt>
      <trkpt lat="45.94016" lon="4.80449">
        <ele>223</ele>
        <time>2017-05-26T09:29:47Z</time>
      </trkpt>
      <trkpt lat="45.94014" lon="4.80433">
        <ele>221</ele>
        <time>2017-05-26T09:29:48Z</time>
      </trkpt>
      <trkpt lat="45.94011" lon="4.80418">
        <ele>219</ele>
        <time>2017-05-26T09:29:49Z</time>
      </trkpt>
      <trkpt lat="45.94007" lon="4.80403">
        <ele>217</ele>
        <time>2017-05-26T09:29:50Z</time>
      </trkpt>
      <trkpt lat="45.94005" lon="4.80386">
        <ele>217</ele>
        <time>2017-05-26T09:29:51Z</time>
      </trkpt>
      <trkpt lat="45.94002" lon="4.8037">
        <ele>215</ele>
        <time>2017-05-26T09:29:52Z</time>
      </trkpt>
      <trkpt lat="45.93999" lon="4.80353">
        <ele>206</ele>
        <time>2017-05-26T09:29:53Z</time>
      </trkpt>
      <trkpt lat="45.93995" lon="4.80335">
        <ele>206</ele>
        <time>2017-05-26T09:29:54Z</time>
      </trkpt>
      <trkpt lat="45.93992" lon="4.80318">
        <ele>204</ele>
        <time>2017-05-26T09:29:55Z</time>
      </trkpt>
      <trkpt lat="45.93989" lon="4.80302">
        <ele>203</ele>
        <time>2017-05-26T09:29:56Z</time>
      </trkpt>
      <trkpt lat="45.93984" lon="4.80287">
        <ele>203</ele>
        <time>2017-05-26T09:29:57Z</time>
      </trkpt>
      <trkpt lat="45.9398" lon="4.80273">
        <ele>203</ele>
        <time>2017-05-26T09:29:58Z</time>
      </trkpt>
      <trkpt lat="45.93975" lon="4.80259">
        <ele>203</ele>
        <time>2017-05-26T09:29:59Z</time>
      </trkpt>
      <trkpt lat="45.93971" lon="4.80245">
        <ele>204</ele>
        <time>2017-05-26T09:30:00Z</time>
      </trkpt>
      <trkpt lat="45.93966" lon="4.80231">
        <ele>205</ele>
        <time>2017-05-26T09:30:01Z</time>
      </trkpt>
      <trkpt lat="45.93962" lon="4.80217">
        <ele>205</ele>
        <time>2017-05-26T09:30:02Z</time>
      </trkpt>
      <trkpt lat="45.9396" lon="4.80204">
        <ele>205</ele>
        <time>2017-05-26T09:30:03Z</time>
      </trkpt>
      <trkpt lat="45.93956" lon="4.8019">
        <ele>206</ele>
        <time>2017-05-26T09:30:04Z</time>
      </trkpt>
      <trkpt lat="45.93954" lon="4.80177">
        <ele>206</ele>
        <time>2017-05-26T09:30:05Z</time>
      </trkpt>
      <trkpt lat="45.93951" lon="4.80165">
        <ele>209</ele>
        <time>2017-05-26T09:30:06Z</time>
      </trkpt>
      <trkpt lat="45.9395" lon="4.80152">
        <ele>209</ele>
        <time>2017-05-26T09:30:07Z</time>
      </trkpt>
      <trkpt lat="45.93949" lon="4.8014">
        <ele>209</ele>
        <time>2017-05-26T09:30:08Z</time>
      </trkpt>
      <trkpt lat="45.93947" lon="4.80129">
        <ele>209</ele>
        <time>2017-05-26T09:30:09Z</time>
      </trkpt>
      <trkpt lat="45.93946" lon="4.80118">
        <ele>209</ele>
        <time>2017-05-26T09:30:10Z</time>
      </trkpt>
      <trkpt lat="45.93944" lon="4.80107">
        <ele>209</ele>
        <time>2017-05-26T09:30:11Z</time>
      </trkpt>
      <trkpt lat="45.93942" lon="4.80096">
        <ele>208</ele>
        <time>2017-05-26T09:30:12Z</time>
      </trkpt>
      <trkpt lat="45.93941" lon="4.80086">
        <ele>208</ele>
        <time>2017-05-26T09:30:13Z</time>
      </trkpt>
      <trkpt lat="45.9394" lon="4.80076">
        <ele>207</ele>
        <time>2017-05-26T09:30:14Z</time>
      </trkpt>
      <trkpt lat="45.9394" lon="4.80066">
        <ele>207</ele>
        <time>2017-05-26T09:30:15Z</time>
      </trkpt>
      <trkpt lat="45.93939" lon="4.80056">
        <ele>207</ele>
        <time>2017-05-26T09:30:16Z</time>
      </trkpt>
      <trkpt lat="45.9394" lon="4.80046">
        <ele>207</ele>
        <time>2017-05-26T09:30:17Z</time>
      </trkpt>
      <trkpt lat="45.9394" lon="4.80037">
        <ele>207</ele>
        <time>2017-05-26T09:30:18Z</time>
      </trkpt>
      <trkpt lat="45.93941" lon="4.80029">
        <ele>207</ele>
        <time>2017-05-26T09:30:19Z</time>
      </trkpt>
      <trkpt lat="45.93942" lon="4.8002">
        <ele>206</ele>
        <time>2017-05-26T09:30:20Z</time>
      </trkpt>
      <trkpt lat="45.93943" lon="4.80011">
        <ele>206</ele>
        <time>2017-05-26T09:30:21Z</time>
      </trkpt>
      <trkpt lat="45.93944" lon="4.80002">
        <ele>206</ele>
        <time>2017-05-26T09:30:22Z</time>
      </trkpt>
      <trkpt lat="45.93945" lon="4.79993">
        <ele>205</ele>
        <time>2017-05-26T09:30:23Z</time>
      </trkpt>
      <trkpt lat="45.93946" lon="4.79985">
        <ele>205</ele>
        <time>2017-05-26T09:30:24Z</time>
      </trkpt>
      <trkpt lat="45.93948" lon="4.79976">
        <ele>205</ele>
        <time>2017-05-26T09:30:25Z</time>
      </trkpt>
      <trkpt lat="45.93949" lon="4.79967">
        <ele>205</ele>
        <time>2017-05-26T09:30:26Z</time>
      </trkpt>
      <trkpt lat="45.9395" lon="4.79958">
        <ele>205</ele>
        <time>2017-05-26T09:30:27Z</time>
      </trkpt>
      <trkpt lat="45.93952" lon="4.79949">
        <ele>205</ele>
        <time>2017-05-26T09:30:28Z</time>
      </trkpt>
      <trkpt lat="45.93953" lon="4.7994">
        <ele>205</ele>
        <time>2017-05-26T09:30:29Z</time>
      </trkpt>
      <trkpt lat="45.93955" lon="4.7993">
        <ele>205</ele>
        <time>2017-05-26T09:30:30Z</time>
      </trkpt>
      <trkpt lat="45.93957" lon="4.79921">
        <ele>205</ele>
        <time>2017-05-26T09:30:31Z</time>
      </trkpt>
      <trkpt lat="45.93958" lon="4.79911">
        <ele>205</ele>
        <time>2017-05-26T09:30:32Z</time>
      </trkpt>
      <trkpt lat="45.9396" lon="4.799">
        <ele>206</ele>
        <time>2017-05-26T09:30:33Z</time>
      </trkpt>
      <trkpt lat="45.93962" lon="4.7989">
        <ele>206</ele>
        <time>2017-05-26T09:30:34Z</time>
      </trkpt>
      <trkpt lat="45.93963" lon="4.79879">
        <ele>206</ele>
        <time>2017-05-26T09:30:35Z</time>
      </trkpt>
      <trkpt lat="45.93965" lon="4.79868">
        <ele>206</ele>
        <time>2017-05-26T09:30:36Z</time>
      </trkpt>
      <trkpt lat="45.93966" lon="4.79857">
        <ele>206</ele>
        <time>2017-05-26T09:30:37Z</time>
      </trkpt>
      <trkpt lat="45.93968" lon="4.79845">
        <ele>206</ele>
        <time>2017-05-26T09:30:38Z</time>
      </trkpt>
      <trkpt lat="45.9397" lon="4.79833">
        <ele>207</ele>
        <time>2017-05-26T09:30:39Z</time>
      </trkpt>
      <trkpt lat="45.93972" lon="4.7982">
        <ele>207</ele>
        <time>2017-05-26T09:30:40Z</time>
      </trkpt>
      <trkpt lat="45.93973" lon="4.79807">
        <ele>207</ele>
        <time>2017-05-26T09:30:41Z</time>
      </trkpt>
      <trkpt lat="45.93974" lon="4.79795">
        <ele>206</ele>
        <time>2017-05-26T09:30:42Z</time>
      </trkpt>
      <trkpt lat="45.93975" lon="4.79783">
        <ele>206</ele>
        <time>2017-05-26T09:30:43Z</time>
      </trkpt>
      <trkpt lat="45.93974" lon="4.79771">
        <ele>206</ele>
        <time>2017-05-26T09:30:44Z</time>
      </trkpt>
      <trkpt lat="45.93973" lon="4.79759">
        <ele>206</ele>
        <time>2017-05-26T09:30:45Z</time>
      </trkpt>
      <trkpt lat="45.93972" lon="4.79748">
        <ele>207</ele>
        <time>2017-05-26T09:30:46Z</time>
      </trkpt>
      <trkpt lat="45.93971" lon="4.79737">
        <ele>207</ele>
        <time>2017-05-26T09:30:47Z</time>
      </trkpt>
      <trkpt lat="45.9397" lon="4.79725">
        <ele>207</ele>
        <time>2017-05-26T09:30:48Z</time>
      </trkpt>
      <trkpt lat="45.93969" lon="4.79714">
        <ele>207</ele>
        <time>2017-05-26T09:30:49Z</time>
      </trkpt>
      <trkpt lat="45.93968" lon="4.79703">
        <ele>207</ele>
        <time>2017-05-26T09:30:50Z</time>
      </trkpt>
      <trkpt lat="45.93968" lon="4.79692">
        <ele>207</ele>
        <time>2017-05-26T09:30:51Z</time>
      </trkpt>
      <trkpt lat="45.93967" lon="4.79681">
        <ele>207</ele>
        <time>2017-05-26T09:30:52Z</time>
      </trkpt>
      <trkpt lat="45.93966" lon="4.7967">
        <ele>207</ele>
        <time>2017-05-26T09:30:53Z</time>
      </trkpt>
      <trkpt lat="45.93966" lon="4.79659">
        <ele>207</ele>
        <time>2017-05-26T09:30:54Z</time>
      </trkpt>
      <trkpt lat="45.93964" lon="4.79647">
        <ele>207</ele>
        <time>2017-05-26T09:30:55Z</time>
      </trkpt>
      <trkpt lat="45.93962" lon="4.79636">
        <ele>207</ele>
        <time>2017-05-26T09:30:56Z</time>
      </trkpt>
      <trkpt lat="45.93962" lon="4.79625">
        <ele>207</ele>
        <time>2017-05-26T09:30:57Z</time>
      </trkpt>
      <trkpt lat="45.93961" lon="4.79614">
        <ele>207</ele>
        <time>2017-05-26T09:30:58Z</time>
      </trkpt>
      <trkpt lat="45.93959" lon="4.79603">
        <ele>207</ele>
        <time>2017-05-26T09:30:59Z</time>
      </trkpt>
      <trkpt lat="45.93958" lon="4.79592">
        <ele>207</ele>
        <time>2017-05-26T09:31:00Z</time>
      </trkpt>
      <trkpt lat="45.93958" lon="4.79581">
        <ele>206</ele>
        <time>2017-05-26T09:31:01Z</time>
      </trkpt>
      <trkpt lat="45.93957" lon="4.7957">
        <ele>205</ele>
        <time>2017-05-26T09:31:02Z</time>
      </trkpt>
      <trkpt lat="45.93957" lon="4.79559">
        <ele>205</ele>
        <time>2017-05-26T09:31:03Z</time>
      </trkpt>
      <trkpt lat="45.93956" lon="4.79547">
        <ele>205</ele>
        <time>2017-05-26T09:31:04Z</time>
      </trkpt>
      <trkpt lat="45.93955" lon="4.79536">
        <ele>205</ele>
        <time>2017-05-26T09:31:05Z</time>
      </trkpt>
      <trkpt lat="45.93954" lon="4.79524">
        <ele>204</ele>
        <time>2017-05-26T09:31:06Z</time>
      </trkpt>
      <trkpt lat="45.93954" lon="4.79512">
        <ele>204</ele>
        <time>2017-05-26T09:31:07Z</time>
      </trkpt>
      <trkpt lat="45.93954" lon="4.795">
        <ele>203</ele>
        <time>2017-05-26T09:31:08Z</time>
      </trkpt>
      <trkpt lat="45.93955" lon="4.79488">
        <ele>203</ele>
        <time>2017-05-26T09:31:09Z</time>
      </trkpt>
      <trkpt lat="45.93954" lon="4.79476">
        <ele>203</ele>
        <time>2017-05-26T09:31:10Z</time>
      </trkpt>
      <trkpt lat="45.93955" lon="4.79463">
        <ele>203</ele>
        <time>2017-05-26T09:31:11Z</time>
      </trkpt>
      <trkpt lat="45.93955" lon="4.79451">
        <ele>203</ele>
        <time>2017-05-26T09:31:12Z</time>
      </trkpt>
      <trkpt lat="45.93955" lon="4.79439">
        <ele>203</ele>
        <time>2017-05-26T09:31:13Z</time>
      </trkpt>
      <trkpt lat="45.93955" lon="4.79427">
        <ele>202</ele>
        <time>2017-05-26T09:31:14Z</time>
      </trkpt>
      <trkpt lat="45.93954" lon="4.79415">
        <ele>201</ele>
        <time>2017-05-26T09:31:15Z</time>
      </trkpt>
      <trkpt lat="45.93954" lon="4.79402">
        <ele>201</ele>
        <time>2017-05-26T09:31:16Z</time>
      </trkpt>
      <trkpt lat="45.93954" lon="4.79389">
        <ele>201</ele>
        <time>2017-05-26T09:31:17Z</time>
      </trkpt>
      <trkpt lat="45.93955" lon="4.79376">
        <ele>201</ele>
        <time>2017-05-26T09:31:18Z</time>
      </trkpt>
      <trkpt lat="45.93954" lon="4.79363">
        <ele>201</ele>
        <time>2017-05-26T09:31:19Z</time>
      </trkpt>
      <trkpt lat="45.93954" lon="4.79351">
        <ele>201</ele>
        <time>2017-05-26T09:31:20Z</time>
      </trkpt>
      <trkpt lat="45.93955" lon="4.79338">
        <ele>200</ele>
        <time>2017-05-26T09:31:21Z</time>
      </trkpt>
      <trkpt lat="45.93955" lon="4.79326">
        <ele>199</ele>
        <time>2017-05-26T09:31:22Z</time>
      </trkpt>
      <trkpt lat="45.93954" lon="4.79315">
        <ele>199</ele>
        <time>2017-05-26T09:31:23Z</time>
      </trkpt>
      <trkpt lat="45.93953" lon="4.79302">
        <ele>199</ele>
        <time>2017-05-26T09:31:24Z</time>
      </trkpt>
      <trkpt lat="45.93953" lon="4.79291">
        <ele>198</ele>
        <time>2017-05-26T09:31:25Z</time>
      </trkpt>
      <trkpt lat="45.93953" lon="4.79279">
        <ele>198</ele>
        <time>2017-05-26T09:31:26Z</time>
      </trkpt>
      <trkpt lat="45.93953" lon="4.79266">
        <ele>198</ele>
        <time>2017-05-26T09:31:27Z</time>
      </trkpt>
      <trkpt lat="45.93952" lon="4.79254">
        <ele>198</ele>
        <time>2017-05-26T09:31:28Z</time>
      </trkpt>
      <trkpt lat="45.93952" lon="4.79242">
        <ele>197</ele>
        <time>2017-05-26T09:31:29Z</time>
      </trkpt>
      <trkpt lat="45.93952" lon="4.7923">
        <ele>197</ele>
        <time>2017-05-26T09:31:30Z</time>
      </trkpt>
      <trkpt lat="45.93952" lon="4.79218">
        <ele>197</ele>
        <time>2017-05-26T09:31:31Z</time>
      </trkpt>
      <trkpt lat="45.93951" lon="4.79207">
        <ele>197</ele>
        <time>2017-05-26T09:31:32Z</time>
      </trkpt>
      <trkpt lat="45.93951" lon="4.79195">
        <ele>197</ele>
        <time>2017-05-26T09:31:33Z</time>
      </trkpt>
      <trkpt lat="45.93951" lon="4.79183">
        <ele>197</ele>
        <time>2017-05-26T09:31:34Z</time>
      </trkpt>
      <trkpt lat="45.93952" lon="4.79171">
        <ele>197</ele>
        <time>2017-05-26T09:31:35Z</time>
      </trkpt>
      <trkpt lat="45.93952" lon="4.7916">
        <ele>197</ele>
        <time>2017-05-26T09:31:36Z</time>
      </trkpt>
      <trkpt lat="45.93953" lon="4.7915">
        <ele>197</ele>
        <time>2017-05-26T09:31:37Z</time>
      </trkpt>
      <trkpt lat="45.93953" lon="4.79139">
        <ele>197</ele>
        <time>2017-05-26T09:31:38Z</time>
      </trkpt>
      <trkpt lat="45.93952" lon="4.79128">
        <ele>197</ele>
        <time>2017-05-26T09:31:39Z</time>
      </trkpt>
      <trkpt lat="45.93952" lon="4.79117">
        <ele>197</ele>
        <time>2017-05-26T09:31:40Z</time>
      </trkpt>
      <trkpt lat="45.93951" lon="4.79106">
        <ele>197</ele>
        <time>2017-05-26T09:31:41Z</time>
      </trkpt>
      <trkpt lat="45.9395" lon="4.79095">
        <ele>196</ele>
        <time>2017-05-26T09:31:42Z</time>
      </trkpt>
      <trkpt lat="45.9395" lon="4.79084">
        <ele>196</ele>
        <time>2017-05-26T09:31:43Z</time>
      </trkpt>
      <trkpt lat="45.93949" lon="4.79073">
        <ele>196</ele>
        <time>2017-05-26T09:31:44Z</time>
      </trkpt>
      <trkpt lat="45.93949" lon="4.79062">
        <ele>196</ele>
        <time>2017-05-26T09:31:45Z</time>
      </trkpt>
      <trkpt lat="45.93948" lon="4.79051">
        <ele>196</ele>
        <time>2017-05-26T09:31:46Z</time>
      </trkpt>
      <trkpt lat="45.93947" lon="4.79042">
        <ele>196</ele>
        <time>2017-05-26T09:31:47Z</time>
      </trkpt>
      <trkpt lat="45.93946" lon="4.79032">
        <ele>195</ele>
        <time>2017-05-26T09:31:48Z</time>
      </trkpt>
      <trkpt lat="45.93946" lon="4.79021">
        <ele>195</ele>
        <time>2017-05-26T09:31:49Z</time>
      </trkpt>
      <trkpt lat="45.93946" lon="4.79011">
        <ele>195</ele>
        <time>2017-05-26T09:31:50Z</time>
      </trkpt>
      <trkpt lat="45.93944" lon="4.79">
        <ele>194</ele>
        <time>2017-05-26T09:31:51Z</time>
      </trkpt>
      <trkpt lat="45.93944" lon="4.7899">
        <ele>194</ele>
        <time>2017-05-26T09:31:52Z</time>
      </trkpt>
      <trkpt lat="45.93943" lon="4.7898">
        <ele>194</ele>
        <time>2017-05-26T09:31:53Z</time>
      </trkpt>
      <trkpt lat="45.93943" lon="4.7897">
        <ele>194</ele>
        <time>2017-05-26T09:31:54Z</time>
      </trkpt>
      <trkpt lat="45.93943" lon="4.78959">
        <ele>194</ele>
        <time>2017-05-26T09:31:55Z</time>
      </trkpt>
      <trkpt lat="45.93944" lon="4.78948">
        <ele>194</ele>
        <time>2017-05-26T09:31:56Z</time>
      </trkpt>
      <trkpt lat="45.93943" lon="4.78938">
        <ele>194</ele>
        <time>2017-05-26T09:31:57Z</time>
      </trkpt>
      <trkpt lat="45.93943" lon="4.78928">
        <ele>193</ele>
        <time>2017-05-26T09:31:58Z</time>
      </trkpt>
      <trkpt lat="45.93942" lon="4.78917">
        <ele>193</ele>
        <time>2017-05-26T09:31:59Z</time>
      </trkpt>
      <trkpt lat="45.93942" lon="4.78907">
        <ele>193</ele>
        <time>2017-05-26T09:32:00Z</time>
      </trkpt>
      <trkpt lat="45.93941" lon="4.78896">
        <ele>193</ele>
        <time>2017-05-26T09:32:01Z</time>
      </trkpt>
      <trkpt lat="45.93941" lon="4.78885">
        <ele>194</ele>
        <time>2017-05-26T09:32:02Z</time>
      </trkpt>
      <trkpt lat="45.9394" lon="4.78873">
        <ele>194</ele>
        <time>2017-05-26T09:32:03Z</time>
      </trkpt>
      <trkpt lat="45.9394" lon="4.78862">
        <ele>194</ele>
        <time>2017-05-26T09:32:04Z</time>
      </trkpt>
      <trkpt lat="45.93939" lon="4.78851">
        <ele>193</ele>
        <time>2017-05-26T09:32:05Z</time>
      </trkpt>
      <trkpt lat="45.93938" lon="4.78839">
        <ele>193</ele>
        <time>2017-05-26T09:32:06Z</time>
      </trkpt>
      <trkpt lat="45.93937" lon="4.78828">
        <ele>193</ele>
        <time>2017-05-26T09:32:07Z</time>
      </trkpt>
      <trkpt lat="45.93937" lon="4.78817">
        <ele>194</ele>
        <time>2017-05-26T09:32:08Z</time>
      </trkpt>
      <trkpt lat="45.93936" lon="4.78806">
        <ele>194</ele>
        <time>2017-05-26T09:32:09Z</time>
      </trkpt>
      <trkpt lat="45.93936" lon="4.78795">
        <ele>194</ele>
        <time>2017-05-26T09:32:10Z</time>
      </trkpt>
      <trkpt lat="45.93936" lon="4.78785">
        <ele>194</ele>
        <time>2017-05-26T09:32:11Z</time>
      </trkpt>
      <trkpt lat="45.93935" lon="4.78776">
        <ele>194</ele>
        <time>2017-05-26T09:32:12Z</time>
      </trkpt>
      <trkpt lat="45.93935" lon="4.78767">
        <ele>193</ele>
        <time>2017-05-26T09:32:13Z</time>
      </trkpt>
      <trkpt lat="45.93936" lon="4.78758">
        <ele>193</ele>
        <time>2017-05-26T09:32:14Z</time>
      </trkpt>
      <trkpt lat="45.93936" lon="4.7875">
        <ele>193</ele>
        <time>2017-05-26T09:32:15Z</time>
      </trkpt>
      <trkpt lat="45.93935" lon="4.78742">
        <ele>193</ele>
        <time>2017-05-26T09:32:16Z</time>
      </trkpt>
      <trkpt lat="45.93936" lon="4.78734">
        <ele>193</ele>
        <time>2017-05-26T09:32:17Z</time>
      </trkpt>
      <trkpt lat="45.93935" lon="4.78727">
        <ele>194</ele>
        <time>2017-05-26T09:32:18Z</time>
      </trkpt>
      <trkpt lat="45.93935" lon="4.78719">
        <ele>194</ele>
        <time>2017-05-26T09:32:19Z</time>
      </trkpt>
      <trkpt lat="45.93935" lon="4.78711">
        <ele>194</ele>
        <time>2017-05-26T09:32:20Z</time>
      </trkpt>
      <trkpt lat="45.93935" lon="4.78702">
        <ele>194</ele>
        <time>2017-05-26T09:32:21Z</time>
      </trkpt>
      <trkpt lat="45.93935" lon="4.78694">
        <ele>194</ele>
        <time>2017-05-26T09:32:22Z</time>
      </trkpt>
      <trkpt lat="45.93935" lon="4.78686">
        <ele>193</ele>
        <time>2017-05-26T09:32:23Z</time>
      </trkpt>
      <trkpt lat="45.93935" lon="4.78677">
        <ele>193</ele>
        <time>2017-05-26T09:32:24Z</time>
      </trkpt>
      <trkpt lat="45.93936" lon="4.78669">
        <ele>193</ele>
        <time>2017-05-26T09:32:25Z</time>
      </trkpt>
      <trkpt lat="45.93935" lon="4.78662">
        <ele>194</ele>
        <time>2017-05-26T09:32:26Z</time>
      </trkpt>
      <trkpt lat="45.93935" lon="4.78655">
        <ele>194</ele>
        <time>2017-05-26T09:32:27Z</time>
      </trkpt>
      <trkpt lat="45.93935" lon="4.78647">
        <ele>195</ele>
        <time>2017-05-26T09:32:28Z</time>
      </trkpt>
      <trkpt lat="45.93936" lon="4.78638">
        <ele>195</ele>
        <time>2017-05-26T09:32:29Z</time>
      </trkpt>
      <trkpt lat="45.93937" lon="4.78631">
        <ele>195</ele>
        <time>2017-05-26T09:32:30Z</time>
      </trkpt>
      <trkpt lat="45.93937" lon="4.78623">
        <ele>196</ele>
        <time>2017-05-26T09:32:31Z</time>
      </trkpt>
      <trkpt lat="45.93937" lon="4.78616">
        <ele>196</ele>
        <time>2017-05-26T09:32:32Z</time>
      </trkpt>
      <trkpt lat="45.93937" lon="4.78608">
        <ele>196</ele>
        <time>2017-05-26T09:32:33Z</time>
      </trkpt>
      <trkpt lat="45.93938" lon="4.78599">
        <ele>196</ele>
        <time>2017-05-26T09:32:34Z</time>
      </trkpt>
      <trkpt lat="45.93937" lon="4.78592">
        <ele>195</ele>
        <time>2017-05-26T09:32:35Z</time>
      </trkpt>
      <trkpt lat="45.93937" lon="4.78584">
        <ele>195</ele>
        <time>2017-05-26T09:32:36Z</time>
      </trkpt>
      <trkpt lat="45.93936" lon="4.78577">
        <ele>196</ele>
        <time>2017-05-26T09:32:37Z</time>
      </trkpt>
      <trkpt lat="45.93935" lon="4.78565">
        <ele>196</ele>
        <time>2017-05-26T09:32:39Z</time>
      </trkpt>
      <trkpt lat="45.93934" lon="4.78559">
        <ele>197</ele>
        <time>2017-05-26T09:32:40Z</time>
      </trkpt>
      <trkpt lat="45.93934" lon="4.78552">
        <ele>197</ele>
        <time>2017-05-26T09:32:41Z</time>
      </trkpt>
      <trkpt lat="45.93934" lon="4.78546">
        <ele>197</ele>
        <time>2017-05-26T09:32:42Z</time>
      </trkpt>
      <trkpt lat="45.93934" lon="4.78539">
        <ele>197</ele>
        <time>2017-05-26T09:32:43Z</time>
      </trkpt>
      <trkpt lat="45.93934" lon="4.78532">
        <ele>197</ele>
        <time>2017-05-26T09:32:44Z</time>
      </trkpt>
      <trkpt lat="45.93934" lon="4.78524">
        <ele>197</ele>
        <time>2017-05-26T09:32:45Z</time>
      </trkpt>
      <trkpt lat="45.93935" lon="4.78516">
        <ele>197</ele>
        <time>2017-05-26T09:32:46Z</time>
      </trkpt>
      <trkpt lat="45.93936" lon="4.78509">
        <ele>197</ele>
        <time>2017-05-26T09:32:47Z</time>
      </trkpt>
      <trkpt lat="45.93938" lon="4.78501">
        <ele>197</ele>
        <time>2017-05-26T09:32:48Z</time>
      </trkpt>
      <trkpt lat="45.93939" lon="4.78493">
        <ele>197</ele>
        <time>2017-05-26T09:32:49Z</time>
      </trkpt>
      <trkpt lat="45.9394" lon="4.78486">
        <ele>197</ele>
        <time>2017-05-26T09:32:50Z</time>
      </trkpt>
      <trkpt lat="45.93942" lon="4.78474">
        <ele>197</ele>
        <time>2017-05-26T09:32:52Z</time>
      </trkpt>
      <trkpt lat="45.93942" lon="4.78468">
        <ele>197</ele>
        <time>2017-05-26T09:32:53Z</time>
      </trkpt>
      <trkpt lat="45.93943" lon="4.78456">
        <ele>197</ele>
        <time>2017-05-26T09:32:55Z</time>
      </trkpt>
      <trkpt lat="45.93944" lon="4.78449">
        <ele>197</ele>
        <time>2017-05-26T09:32:56Z</time>
      </trkpt>
      <trkpt lat="45.93946" lon="4.78442">
        <ele>197</ele>
        <time>2017-05-26T09:32:57Z</time>
      </trkpt>
      <trkpt lat="45.93947" lon="4.78434">
        <ele>197</ele>
        <time>2017-05-26T09:32:58Z</time>
      </trkpt>
      <trkpt lat="45.93948" lon="4.78426">
        <ele>197</ele>
        <time>2017-05-26T09:32:59Z</time>
      </trkpt>
      <trkpt lat="45.93949" lon="4.78419">
        <ele>197</ele>
        <time>2017-05-26T09:33:00Z</time>
      </trkpt>
      <trkpt lat="45.9395" lon="4.78413">
        <ele>196</ele>
        <time>2017-05-26T09:33:01Z</time>
      </trkpt>
      <trkpt lat="45.93952" lon="4.78406">
        <ele>196</ele>
        <time>2017-05-26T09:33:02Z</time>
      </trkpt>
      <trkpt lat="45.93952" lon="4.78399">
        <ele>196</ele>
        <time>2017-05-26T09:33:03Z</time>
      </trkpt>
      <trkpt lat="45.93953" lon="4.78392">
        <ele>196</ele>
        <time>2017-05-26T09:33:04Z</time>
      </trkpt>
      <trkpt lat="45.93954" lon="4.78385">
        <ele>196</ele>
        <time>2017-05-26T09:33:05Z</time>
      </trkpt>
      <trkpt lat="45.93955" lon="4.78379">
        <ele>196</ele>
        <time>2017-05-26T09:33:06Z</time>
      </trkpt>
      <trkpt lat="45.93955" lon="4.78372">
        <ele>196</ele>
        <time>2017-05-26T09:33:07Z</time>
      </trkpt>
      <trkpt lat="45.93957" lon="4.78366">
        <ele>196</ele>
        <time>2017-05-26T09:33:08Z</time>
      </trkpt>
      <trkpt lat="45.93958" lon="4.78359">
        <ele>196</ele>
        <time>2017-05-26T09:33:09Z</time>
      </trkpt>
      <trkpt lat="45.93961" lon="4.78351">
        <ele>196</ele>
        <time>2017-05-26T09:33:10Z</time>
      </trkpt>
      <trkpt lat="45.93962" lon="4.78344">
        <ele>196</ele>
        <time>2017-05-26T09:33:11Z</time>
      </trkpt>
      <trkpt lat="45.93963" lon="4.78337">
        <ele>197</ele>
        <time>2017-05-26T09:33:12Z</time>
      </trkpt>
      <trkpt lat="45.93964" lon="4.78325">
        <ele>196</ele>
        <time>2017-05-26T09:33:14Z</time>
      </trkpt>
      <trkpt lat="45.93965" lon="4.78319">
        <ele>196</ele>
        <time>2017-05-26T09:33:15Z</time>
      </trkpt>
      <trkpt lat="45.93968" lon="4.78307">
        <ele>196</ele>
        <time>2017-05-26T09:33:17Z</time>
      </trkpt>
      <trkpt lat="45.93968" lon="4.78302">
        <ele>196</ele>
        <time>2017-05-26T09:33:18Z</time>
      </trkpt>
      <trkpt lat="45.93969" lon="4.78296">
        <ele>196</ele>
        <time>2017-05-26T09:33:19Z</time>
      </trkpt>
      <trkpt lat="45.9397" lon="4.78289">
        <ele>196</ele>
        <time>2017-05-26T09:33:20Z</time>
      </trkpt>
      <trkpt lat="45.93971" lon="4.78281">
        <ele>196</ele>
        <time>2017-05-26T09:33:21Z</time>
      </trkpt>
      <trkpt lat="45.93972" lon="4.78273">
        <ele>196</ele>
        <time>2017-05-26T09:33:22Z</time>
      </trkpt>
      <trkpt lat="45.93974" lon="4.78265">
        <ele>196</ele>
        <time>2017-05-26T09:33:23Z</time>
      </trkpt>
      <trkpt lat="45.93973" lon="4.78256">
        <ele>196</ele>
        <time>2017-05-26T09:33:24Z</time>
      </trkpt>
      <trkpt lat="45.93974" lon="4.78247">
        <ele>196</ele>
        <time>2017-05-26T09:33:25Z</time>
      </trkpt>
      <trkpt lat="45.93974" lon="4.78239">
        <ele>196</ele>
        <time>2017-05-26T09:33:26Z</time>
      </trkpt>
      <trkpt lat="45.93975" lon="4.78231">
        <ele>196</ele>
        <time>2017-05-26T09:33:27Z</time>
      </trkpt>
      <trkpt lat="45.93976" lon="4.78224">
        <ele>196</ele>
        <time>2017-05-26T09:33:28Z</time>
      </trkpt>
      <trkpt lat="45.93976" lon="4.78217">
        <ele>197</ele>
        <time>2017-05-26T09:33:29Z</time>
      </trkpt>
      <trkpt lat="45.93977" lon="4.78211">
        <ele>197</ele>
        <time>2017-05-26T09:33:30Z</time>
      </trkpt>
      <trkpt lat="45.93977" lon="4.78205">
        <ele>197</ele>
        <time>2017-05-26T09:33:31Z</time>
      </trkpt>
      <trkpt lat="45.93978" lon="4.78198">
        <ele>197</ele>
        <time>2017-05-26T09:33:32Z</time>
      </trkpt>
      <trkpt lat="45.9398" lon="4.78191">
        <ele>197</ele>
        <time>2017-05-26T09:33:33Z</time>
      </trkpt>
      <trkpt lat="45.93982" lon="4.78185">
        <ele>198</ele>
        <time>2017-05-26T09:33:34Z</time>
      </trkpt>
      <trkpt lat="45.93984" lon="4.78176">
        <ele>198</ele>
        <time>2017-05-26T09:33:36Z</time>
      </trkpt>
      <trkpt lat="45.93986" lon="4.78173">
        <ele>199</ele>
        <time>2017-05-26T09:33:37Z</time>
      </trkpt>
      <trkpt lat="45.9399" lon="4.78163">
        <ele>199</ele>
        <time>2017-05-26T09:33:40Z</time>
      </trkpt>
      <trkpt lat="45.93991" lon="4.78157">
        <ele>199</ele>
        <time>2017-05-26T09:33:41Z</time>
      </trkpt>
      <trkpt lat="45.93991" lon="4.78147">
        <ele>198</ele>
        <time>2017-05-26T09:33:43Z</time>
      </trkpt>
      <trkpt lat="45.93993" lon="4.78142">
        <ele>198</ele>
        <time>2017-05-26T09:33:44Z</time>
      </trkpt>
      <trkpt lat="45.93995" lon="4.7813">
        <ele>197</ele>
        <time>2017-05-26T09:33:46Z</time>
      </trkpt>
      <trkpt lat="45.93996" lon="4.78123">
        <ele>197</ele>
        <time>2017-05-26T09:33:47Z</time>
      </trkpt>
      <trkpt lat="45.93997" lon="4.78117">
        <ele>197</ele>
        <time>2017-05-26T09:33:48Z</time>
      </trkpt>
      <trkpt lat="45.93998" lon="4.7811">
        <ele>197</ele>
        <time>2017-05-26T09:33:49Z</time>
      </trkpt>
      <trkpt lat="45.93999" lon="4.78104">
        <ele>197</ele>
        <time>2017-05-26T09:33:50Z</time>
      </trkpt>
      <trkpt lat="45.93999" lon="4.78097">
        <ele>198</ele>
        <time>2017-05-26T09:33:51Z</time>
      </trkpt>
      <trkpt lat="45.94" lon="4.7809">
        <ele>198</ele>
        <time>2017-05-26T09:33:52Z</time>
      </trkpt>
      <trkpt lat="45.94001" lon="4.78084">
        <ele>199</ele>
        <time>2017-05-26T09:33:53Z</time>
      </trkpt>
      <trkpt lat="45.94002" lon="4.78078">
        <ele>200</ele>
        <time>2017-05-26T09:33:54Z</time>
      </trkpt>
      <trkpt lat="45.94003" lon="4.78071">
        <ele>200</ele>
        <time>2017-05-26T09:33:55Z</time>
      </trkpt>
      <trkpt lat="45.94004" lon="4.78064">
        <ele>201</ele>
        <time>2017-05-26T09:33:56Z</time>
      </trkpt>
      <trkpt lat="45.94005" lon="4.78058">
        <ele>201</ele>
        <time>2017-05-26T09:33:57Z</time>
      </trkpt>
      <trkpt lat="45.94007" lon="4.78052">
        <ele>201</ele>
        <time>2017-05-26T09:33:58Z</time>
      </trkpt>
      <trkpt lat="45.94009" lon="4.78046">
        <ele>201</ele>
        <time>2017-05-26T09:33:59Z</time>
      </trkpt>
      <trkpt lat="45.94012" lon="4.78034">
        <ele>201</ele>
        <time>2017-05-26T09:34:01Z</time>
      </trkpt>
      <trkpt lat="45.94013" lon="4.78028">
        <ele>201</ele>
        <time>2017-05-26T09:34:02Z</time>
      </trkpt>
      <trkpt lat="45.94014" lon="4.78021">
        <ele>200</ele>
        <time>2017-05-26T09:34:03Z</time>
      </trkpt>
      <trkpt lat="45.94015" lon="4.78013">
        <ele>200</ele>
        <time>2017-05-26T09:34:04Z</time>
      </trkpt>
      <trkpt lat="45.94016" lon="4.78006">
        <ele>200</ele>
        <time>2017-05-26T09:34:05Z</time>
      </trkpt>
      <trkpt lat="45.94017" lon="4.77998">
        <ele>199</ele>
        <time>2017-05-26T09:34:06Z</time>
      </trkpt>
      <trkpt lat="45.94018" lon="4.7799">
        <ele>199</ele>
        <time>2017-05-26T09:34:07Z</time>
      </trkpt>
      <trkpt lat="45.94019" lon="4.77983">
        <ele>200</ele>
        <time>2017-05-26T09:34:08Z</time>
      </trkpt>
      <trkpt lat="45.94021" lon="4.77974">
        <ele>200</ele>
        <time>2017-05-26T09:34:09Z</time>
      </trkpt>
      <trkpt lat="45.94022" lon="4.77966">
        <ele>200</ele>
        <time>2017-05-26T09:34:10Z</time>
      </trkpt>
      <trkpt lat="45.94024" lon="4.77958">
        <ele>200</ele>
        <time>2017-05-26T09:34:11Z</time>
      </trkpt>
      <trkpt lat="45.94027" lon="4.77953">
        <ele>200</ele>
        <time>2017-05-26T09:34:12Z</time>
      </trkpt>
      <trkpt lat="45.94029" lon="4.77946">
        <ele>200</ele>
        <time>2017-05-26T09:34:13Z</time>
      </trkpt>
      <trkpt lat="45.94031" lon="4.77938">
        <ele>200</ele>
        <time>2017-05-26T09:34:14Z</time>
      </trkpt>
      <trkpt lat="45.9403" lon="4.77931">
        <ele>200</ele>
        <time>2017-05-26T09:34:15Z</time>
      </trkpt>
      <trkpt lat="45.94028" lon="4.77924">
        <ele>200</ele>
        <time>2017-05-26T09:34:16Z</time>
      </trkpt>
      <trkpt lat="45.94026" lon="4.77919">
        <ele>199</ele>
        <time>2017-05-26T09:34:17Z</time>
      </trkpt>
      <trkpt lat="45.94022" lon="4.77914">
        <ele>198</ele>
        <time>2017-05-26T09:34:18Z</time>
      </trkpt>
      <trkpt lat="45.94017" lon="4.77911">
        <ele>197</ele>
        <time>2017-05-26T09:34:19Z</time>
      </trkpt>
      <trkpt lat="45.94004" lon="4.7792">
        <ele>195</ele>
        <time>2017-05-26T09:34:20Z</time>
      </trkpt>
      <trkpt lat="45.93994" lon="4.77924">
        <ele>193</ele>
        <time>2017-05-26T09:34:21Z</time>
      </trkpt>
      <trkpt lat="45.93985" lon="4.77929">
        <ele>192</ele>
        <time>2017-05-26T09:34:22Z</time>
      </trkpt>
      <trkpt lat="45.93975" lon="4.77935">
        <ele>191</ele>
        <time>2017-05-26T09:34:23Z</time>
      </trkpt>
      <trkpt lat="45.93967" lon="4.7794">
        <ele>190</ele>
        <time>2017-05-26T09:34:24Z</time>
      </trkpt>
      <trkpt lat="45.93959" lon="4.77948">
        <ele>190</ele>
        <time>2017-05-26T09:34:25Z</time>
      </trkpt>
      <trkpt lat="45.9395" lon="4.77954">
        <ele>189</ele>
        <time>2017-05-26T09:34:26Z</time>
      </trkpt>
      <trkpt lat="45.93941" lon="4.77958">
        <ele>189</ele>
        <time>2017-05-26T09:34:27Z</time>
      </trkpt>
      <trkpt lat="45.93933" lon="4.77963">
        <ele>189</ele>
        <time>2017-05-26T09:34:28Z</time>
      </trkpt>
      <trkpt lat="45.93924" lon="4.77969">
        <ele>188</ele>
        <time>2017-05-26T09:34:29Z</time>
      </trkpt>
      <trkpt lat="45.93916" lon="4.77975">
        <ele>182</ele>
        <time>2017-05-26T09:34:30Z</time>
      </trkpt>
      <trkpt lat="45.93909" lon="4.77981">
        <ele>182</ele>
        <time>2017-05-26T09:34:31Z</time>
      </trkpt>
      <trkpt lat="45.93902" lon="4.77988">
        <ele>182</ele>
        <time>2017-05-26T09:34:32Z</time>
      </trkpt>
      <trkpt lat="45.93897" lon="4.77994">
        <ele>182</ele>
        <time>2017-05-26T09:34:33Z</time>
      </trkpt>
      <trkpt lat="45.93891" lon="4.77999">
        <ele>182</ele>
        <time>2017-05-26T09:34:34Z</time>
      </trkpt>
      <trkpt lat="45.93886" lon="4.78004">
        <ele>184</ele>
        <time>2017-05-26T09:34:35Z</time>
      </trkpt>
      <trkpt lat="45.93882" lon="4.78007">
        <ele>184</ele>
        <time>2017-05-26T09:34:36Z</time>
      </trkpt>
      <trkpt lat="45.93874" lon="4.78011">
        <ele>183</ele>
        <time>2017-05-26T09:34:38Z</time>
      </trkpt>
      <trkpt lat="45.93872" lon="4.7801">
        <ele>183</ele>
        <time>2017-05-26T09:34:39Z</time>
      </trkpt>
      <trkpt lat="45.93865" lon="4.78002">
        <ele>183</ele>
        <time>2017-05-26T09:34:42Z</time>
      </trkpt>
      <trkpt lat="45.93863" lon="4.77999">
        <ele>179</ele>
        <time>2017-05-26T09:34:43Z</time>
      </trkpt>
      <trkpt lat="45.93856" lon="4.77993">
        <ele>179</ele>
        <time>2017-05-26T09:34:45Z</time>
      </trkpt>
      <trkpt lat="45.93851" lon="4.7799">
        <ele>179</ele>
        <time>2017-05-26T09:34:46Z</time>
      </trkpt>
      <trkpt lat="45.93845" lon="4.77987">
        <ele>179</ele>
        <time>2017-05-26T09:34:47Z</time>
      </trkpt>
      <trkpt lat="45.9384" lon="4.77983">
        <ele>178</ele>
        <time>2017-05-26T09:34:48Z</time>
      </trkpt>
      <trkpt lat="45.93835" lon="4.77978">
        <ele>178</ele>
        <time>2017-05-26T09:34:49Z</time>
      </trkpt>
      <trkpt lat="45.93831" lon="4.77972">
        <ele>172</ele>
        <time>2017-05-26T09:34:50Z</time>
      </trkpt>
      <trkpt lat="45.93827" lon="4.77966">
        <ele>171</ele>
        <time>2017-05-26T09:34:51Z</time>
      </trkpt>
      <trkpt lat="45.93822" lon="4.7796">
        <ele>170</ele>
        <time>2017-05-26T09:34:52Z</time>
      </trkpt>
      <trkpt lat="45.93818" lon="4.77955">
        <ele>170</ele>
        <time>2017-05-26T09:34:53Z</time>
      </trkpt>
      <trkpt lat="45.93814" lon="4.77949">
        <ele>169</ele>
        <time>2017-05-26T09:34:54Z</time>
      </trkpt>
      <trkpt lat="45.93809" lon="4.77944">
        <ele>169</ele>
        <time>2017-05-26T09:34:55Z</time>
      </trkpt>
      <trkpt lat="45.93805" lon="4.77938">
        <ele>169</ele>
        <time>2017-05-26T09:34:56Z</time>
      </trkpt>
      <trkpt lat="45.93801" lon="4.77932">
        <ele>168</ele>
        <time>2017-05-26T09:34:57Z</time>
      </trkpt>
      <trkpt lat="45.93797" lon="4.77927">
        <ele>168</ele>
        <time>2017-05-26T09:34:58Z</time>
      </trkpt>
      <trkpt lat="45.93793" lon="4.77922">
        <ele>168</ele>
        <time>2017-05-26T09:34:59Z</time>
      </trkpt>
      <trkpt lat="45.93788" lon="4.77916">
        <ele>166</ele>
        <time>2017-05-26T09:35:00Z</time>
      </trkpt>
      <trkpt lat="45.93784" lon="4.77911">
        <ele>166</ele>
        <time>2017-05-26T09:35:01Z</time>
      </trkpt>
      <trkpt lat="45.9378" lon="4.77905">
        <ele>166</ele>
        <time>2017-05-26T09:35:02Z</time>
      </trkpt>
      <trkpt lat="45.93776" lon="4.77899">
        <ele>166</ele>
        <time>2017-05-26T09:35:03Z</time>
      </trkpt>
      <trkpt lat="45.93772" lon="4.77895">
        <ele>166</ele>
        <time>2017-05-26T09:35:04Z</time>
      </trkpt>
      <trkpt lat="45.93768" lon="4.7789">
        <ele>166</ele>
        <time>2017-05-26T09:35:05Z</time>
      </trkpt>
      <trkpt lat="45.93764" lon="4.77885">
        <ele>166</ele>
        <time>2017-05-26T09:35:06Z</time>
      </trkpt>
      <trkpt lat="45.93761" lon="4.77881">
        <ele>166</ele>
        <time>2017-05-26T09:35:07Z</time>
      </trkpt>
      <trkpt lat="45.93757" lon="4.77876">
        <ele>166</ele>
        <time>2017-05-26T09:35:08Z</time>
      </trkpt>
      <trkpt lat="45.93753" lon="4.77872">
        <ele>166</ele>
        <time>2017-05-26T09:35:09Z</time>
      </trkpt>
      <trkpt lat="45.9375" lon="4.77867">
        <ele>167</ele>
        <time>2017-05-26T09:35:10Z</time>
      </trkpt>
      <trkpt lat="45.93746" lon="4.77863">
        <ele>167</ele>
        <time>2017-05-26T09:35:11Z</time>
      </trkpt>
      <trkpt lat="45.93742" lon="4.77858">
        <ele>167</ele>
        <time>2017-05-26T09:35:12Z</time>
      </trkpt>
      <trkpt lat="45.93738" lon="4.77854">
        <ele>167</ele>
        <time>2017-05-26T09:35:13Z</time>
      </trkpt>
      <trkpt lat="45.93735" lon="4.77849">
        <ele>167</ele>
        <time>2017-05-26T09:35:14Z</time>
      </trkpt>
      <trkpt lat="45.93731" lon="4.77844">
        <ele>167</ele>
        <time>2017-05-26T09:35:15Z</time>
      </trkpt>
      <trkpt lat="45.93728" lon="4.77839">
        <ele>167</ele>
        <time>2017-05-26T09:35:16Z</time>
      </trkpt>
      <trkpt lat="45.93724" lon="4.77834">
        <ele>167</ele>
        <time>2017-05-26T09:35:17Z</time>
      </trkpt>
      <trkpt lat="45.93721" lon="4.77829">
        <ele>168</ele>
        <time>2017-05-26T09:35:18Z</time>
      </trkpt>
      <trkpt lat="45.93717" lon="4.77824">
        <ele>169</ele>
        <time>2017-05-26T09:35:19Z</time>
      </trkpt>
      <trkpt lat="45.93713" lon="4.77818">
        <ele>169</ele>
        <time>2017-05-26T09:35:20Z</time>
      </trkpt>
      <trkpt lat="45.93709" lon="4.77813">
        <ele>169</ele>
        <time>2017-05-26T09:35:21Z</time>
      </trkpt>
      <trkpt lat="45.93705" lon="4.77808">
        <ele>169</ele>
        <time>2017-05-26T09:35:22Z</time>
      </trkpt>
      <trkpt lat="45.937" lon="4.77802">
        <ele>169</ele>
        <time>2017-05-26T09:35:23Z</time>
      </trkpt>
      <trkpt lat="45.93696" lon="4.77796">
        <ele>169</ele>
        <time>2017-05-26T09:35:24Z</time>
      </trkpt>
      <trkpt lat="45.93692" lon="4.7779">
        <ele>170</ele>
        <time>2017-05-26T09:35:25Z</time>
      </trkpt>
      <trkpt lat="45.93687" lon="4.77784">
        <ele>170</ele>
        <time>2017-05-26T09:35:26Z</time>
      </trkpt>
      <trkpt lat="45.93683" lon="4.77778">
        <ele>170</ele>
        <time>2017-05-26T09:35:27Z</time>
      </trkpt>
      <trkpt lat="45.93678" lon="4.77772">
        <ele>170</ele>
        <time>2017-05-26T09:35:28Z</time>
      </trkpt>
      <trkpt lat="45.93673" lon="4.77765">
        <ele>170</ele>
        <time>2017-05-26T09:35:29Z</time>
      </trkpt>
      <trkpt lat="45.93668" lon="4.77758">
        <ele>171</ele>
        <time>2017-05-26T09:35:30Z</time>
      </trkpt>
      <trkpt lat="45.93664" lon="4.7775">
        <ele>171</ele>
        <time>2017-05-26T09:35:31Z</time>
      </trkpt>
      <trkpt lat="45.93659" lon="4.77742">
        <ele>170</ele>
        <time>2017-05-26T09:35:32Z</time>
      </trkpt>
      <trkpt lat="45.93654" lon="4.77734">
        <ele>170</ele>
        <time>2017-05-26T09:35:33Z</time>
      </trkpt>
      <trkpt lat="45.93649" lon="4.77725">
        <ele>170</ele>
        <time>2017-05-26T09:35:34Z</time>
      </trkpt>
      <trkpt lat="45.93644" lon="4.77716">
        <ele>170</ele>
        <time>2017-05-26T09:35:35Z</time>
      </trkpt>
      <trkpt lat="45.93638" lon="4.77706">
        <ele>170</ele>
        <time>2017-05-26T09:35:36Z</time>
      </trkpt>
      <trkpt lat="45.93633" lon="4.77696">
        <ele>169</ele>
        <time>2017-05-26T09:35:37Z</time>
      </trkpt>
      <trkpt lat="45.93628" lon="4.77686">
        <ele>169</ele>
        <time>2017-05-26T09:35:38Z</time>
      </trkpt>
      <trkpt lat="45.93623" lon="4.77676">
        <ele>169</ele>
        <time>2017-05-26T09:35:39Z</time>
      </trkpt>
      <trkpt lat="45.93619" lon="4.77666">
        <ele>169</ele>
        <time>2017-05-26T09:35:40Z</time>
      </trkpt>
      <trkpt lat="45.93614" lon="4.77656">
        <ele>169</ele>
        <time>2017-05-26T09:35:41Z</time>
      </trkpt>
      <trkpt lat="45.9361" lon="4.77646">
        <ele>169</ele>
        <time>2017-05-26T09:35:42Z</time>
      </trkpt>
      <trkpt lat="45.93606" lon="4.77636">
        <ele>169</ele>
        <time>2017-05-26T09:35:43Z</time>
      </trkpt>
      <trkpt lat="45.93602" lon="4.77627">
        <ele>169</ele>
        <time>2017-05-26T09:35:44Z</time>
      </trkpt>
      <trkpt lat="45.93599" lon="4.77618">
        <ele>170</ele>
        <time>2017-05-26T09:35:45Z</time>
      </trkpt>
      <trkpt lat="45.93595" lon="4.77609">
        <ele>170</ele>
        <time>2017-05-26T09:35:46Z</time>
      </trkpt>
      <trkpt lat="45.93592" lon="4.77599">
        <ele>170</ele>
        <time>2017-05-26T09:35:47Z</time>
      </trkpt>
      <trkpt lat="45.93589" lon="4.77591">
        <ele>170</ele>
        <time>2017-05-26T09:35:48Z</time>
      </trkpt>
      <trkpt lat="45.93586" lon="4.77582">
        <ele>170</ele>
        <time>2017-05-26T09:35:49Z</time>
      </trkpt>
      <trkpt lat="45.93584" lon="4.77573">
        <ele>170</ele>
        <time>2017-05-26T09:35:50Z</time>
      </trkpt>
      <trkpt lat="45.93582" lon="4.77565">
        <ele>169</ele>
        <time>2017-05-26T09:35:51Z</time>
      </trkpt>
      <trkpt lat="45.9358" lon="4.77557">
        <ele>169</ele>
        <time>2017-05-26T09:35:52Z</time>
      </trkpt>
      <trkpt lat="45.93577" lon="4.77549">
        <ele>169</ele>
        <time>2017-05-26T09:35:53Z</time>
      </trkpt>
      <trkpt lat="45.93575" lon="4.77541">
        <ele>169</ele>
        <time>2017-05-26T09:35:54Z</time>
      </trkpt>
      <trkpt lat="45.93573" lon="4.77534">
        <ele>169</ele>
        <time>2017-05-26T09:35:55Z</time>
      </trkpt>
      <trkpt lat="45.93571" lon="4.77526">
        <ele>169</ele>
        <time>2017-05-26T09:35:56Z</time>
      </trkpt>
      <trkpt lat="45.9357" lon="4.77519">
        <ele>169</ele>
        <time>2017-05-26T09:35:57Z</time>
      </trkpt>
      <trkpt lat="45.93568" lon="4.77511">
        <ele>169</ele>
        <time>2017-05-26T09:35:58Z</time>
      </trkpt>
      <trkpt lat="45.93566" lon="4.77503">
        <ele>169</ele>
        <time>2017-05-26T09:35:59Z</time>
      </trkpt>
      <trkpt lat="45.93564" lon="4.77494">
        <ele>169</ele>
        <time>2017-05-26T09:36:00Z</time>
      </trkpt>
      <trkpt lat="45.93562" lon="4.77486">
        <ele>169</ele>
        <time>2017-05-26T09:36:01Z</time>
      </trkpt>
      <trkpt lat="45.93561" lon="4.77478">
        <ele>169</ele>
        <time>2017-05-26T09:36:02Z</time>
      </trkpt>
      <trkpt lat="45.93559" lon="4.7747">
        <ele>169</ele>
        <time>2017-05-26T09:36:03Z</time>
      </trkpt>
      <trkpt lat="45.93557" lon="4.77462">
        <ele>169</ele>
        <time>2017-05-26T09:36:04Z</time>
      </trkpt>
      <trkpt lat="45.93555" lon="4.77454">
        <ele>169</ele>
        <time>2017-05-26T09:36:05Z</time>
      </trkpt>
      <trkpt lat="45.93554" lon="4.77447">
        <ele>169</ele>
        <time>2017-05-26T09:36:06Z</time>
      </trkpt>
      <trkpt lat="45.93552" lon="4.7744">
        <ele>169</ele>
        <time>2017-05-26T09:36:07Z</time>
      </trkpt>
      <trkpt lat="45.93551" lon="4.77433">
        <ele>169</ele>
        <time>2017-05-26T09:36:08Z</time>
      </trkpt>
      <trkpt lat="45.93549" lon="4.77426">
        <ele>170</ele>
        <time>2017-05-26T09:36:09Z</time>
      </trkpt>
      <trkpt lat="45.93547" lon="4.77419">
        <ele>170</ele>
        <time>2017-05-26T09:36:10Z</time>
      </trkpt>
      <trkpt lat="45.93546" lon="4.77412">
        <ele>170</ele>
        <time>2017-05-26T09:36:11Z</time>
      </trkpt>
      <trkpt lat="45.93545" lon="4.77406">
        <ele>170</ele>
        <time>2017-05-26T09:36:12Z</time>
      </trkpt>
      <trkpt lat="45.93543" lon="4.77399">
        <ele>170</ele>
        <time>2017-05-26T09:36:13Z</time>
      </trkpt>
      <trkpt lat="45.93542" lon="4.77393">
        <ele>170</ele>
        <time>2017-05-26T09:36:14Z</time>
      </trkpt>
      <trkpt lat="45.93541" lon="4.77387">
        <ele>170</ele>
        <time>2017-05-26T09:36:15Z</time>
      </trkpt>
      <trkpt lat="45.9354" lon="4.7738">
        <ele>170</ele>
        <time>2017-05-26T09:36:16Z</time>
      </trkpt>
      <trkpt lat="45.93538" lon="4.77373">
        <ele>170</ele>
        <time>2017-05-26T09:36:17Z</time>
      </trkpt>
      <trkpt lat="45.93537" lon="4.77366">
        <ele>170</ele>
        <time>2017-05-26T09:36:18Z</time>
      </trkpt>
      <trkpt lat="45.93535" lon="4.77359">
        <ele>170</ele>
        <time>2017-05-26T09:36:19Z</time>
      </trkpt>
      <trkpt lat="45.93533" lon="4.77352">
        <ele>170</ele>
        <time>2017-05-26T09:36:20Z</time>
      </trkpt>
      <trkpt lat="45.93532" lon="4.77345">
        <ele>170</ele>
        <time>2017-05-26T09:36:21Z</time>
      </trkpt>
      <trkpt lat="45.9353" lon="4.77337">
        <ele>170</ele>
        <time>2017-05-26T09:36:22Z</time>
      </trkpt>
      <trkpt lat="45.93528" lon="4.77329">
        <ele>170</ele>
        <time>2017-05-26T09:36:23Z</time>
      </trkpt>
      <trkpt lat="45.93526" lon="4.77321">
        <ele>170</ele>
        <time>2017-05-26T09:36:24Z</time>
      </trkpt>
      <trkpt lat="45.93524" lon="4.77313">
        <ele>170</ele>
        <time>2017-05-26T09:36:25Z</time>
      </trkpt>
      <trkpt lat="45.93522" lon="4.77305">
        <ele>170</ele>
        <time>2017-05-26T09:36:26Z</time>
      </trkpt>
      <trkpt lat="45.93521" lon="4.77297">
        <ele>170</ele>
        <time>2017-05-26T09:36:27Z</time>
      </trkpt>
      <trkpt lat="45.93519" lon="4.77289">
        <ele>170</ele>
        <time>2017-05-26T09:36:28Z</time>
      </trkpt>
      <trkpt lat="45.93518" lon="4.77281">
        <ele>170</ele>
        <time>2017-05-26T09:36:29Z</time>
      </trkpt>
      <trkpt lat="45.93516" lon="4.77274">
        <ele>170</ele>
        <time>2017-05-26T09:36:30Z</time>
      </trkpt>
      <trkpt lat="45.93515" lon="4.77266">
        <ele>170</ele>
        <time>2017-05-26T09:36:31Z</time>
      </trkpt>
      <trkpt lat="45.93513" lon="4.77258">
        <ele>170</ele>
        <time>2017-05-26T09:36:32Z</time>
      </trkpt>
      <trkpt lat="45.93511" lon="4.7725">
        <ele>169</ele>
        <time>2017-05-26T09:36:33Z</time>
      </trkpt>
      <trkpt lat="45.9351" lon="4.77242">
        <ele>169</ele>
        <time>2017-05-26T09:36:34Z</time>
      </trkpt>
      <trkpt lat="45.93509" lon="4.77234">
        <ele>169</ele>
        <time>2017-05-26T09:36:35Z</time>
      </trkpt>
      <trkpt lat="45.93507" lon="4.77227">
        <ele>169</ele>
        <time>2017-05-26T09:36:36Z</time>
      </trkpt>
      <trkpt lat="45.93506" lon="4.77219">
        <ele>169</ele>
        <time>2017-05-26T09:36:37Z</time>
      </trkpt>
      <trkpt lat="45.93504" lon="4.77212">
        <ele>169</ele>
        <time>2017-05-26T09:36:38Z</time>
      </trkpt>
      <trkpt lat="45.93502" lon="4.77205">
        <ele>169</ele>
        <time>2017-05-26T09:36:39Z</time>
      </trkpt>
      <trkpt lat="45.93501" lon="4.77198">
        <ele>169</ele>
        <time>2017-05-26T09:36:40Z</time>
      </trkpt>
      <trkpt lat="45.93499" lon="4.7719">
        <ele>169</ele>
        <time>2017-05-26T09:36:41Z</time>
      </trkpt>
      <trkpt lat="45.93498" lon="4.77183">
        <ele>169</ele>
        <time>2017-05-26T09:36:42Z</time>
      </trkpt>
      <trkpt lat="45.93496" lon="4.77175">
        <ele>169</ele>
        <time>2017-05-26T09:36:43Z</time>
      </trkpt>
      <trkpt lat="45.93494" lon="4.77167">
        <ele>169</ele>
        <time>2017-05-26T09:36:44Z</time>
      </trkpt>
      <trkpt lat="45.93493" lon="4.77158">
        <ele>169</ele>
        <time>2017-05-26T09:36:45Z</time>
      </trkpt>
      <trkpt lat="45.9349" lon="4.77149">
        <ele>169</ele>
        <time>2017-05-26T09:36:46Z</time>
      </trkpt>
      <trkpt lat="45.93488" lon="4.77141">
        <ele>169</ele>
        <time>2017-05-26T09:36:47Z</time>
      </trkpt>
      <trkpt lat="45.93486" lon="4.77132">
        <ele>169</ele>
        <time>2017-05-26T09:36:48Z</time>
      </trkpt>
      <trkpt lat="45.93485" lon="4.77123">
        <ele>169</ele>
        <time>2017-05-26T09:36:49Z</time>
      </trkpt>
      <trkpt lat="45.93483" lon="4.77114">
        <ele>169</ele>
        <time>2017-05-26T09:36:50Z</time>
      </trkpt>
      <trkpt lat="45.93481" lon="4.77105">
        <ele>169</ele>
        <time>2017-05-26T09:36:51Z</time>
      </trkpt>
      <trkpt lat="45.93479" lon="4.77097">
        <ele>169</ele>
        <time>2017-05-26T09:36:52Z</time>
      </trkpt>
      <trkpt lat="45.93477" lon="4.77088">
        <ele>169</ele>
        <time>2017-05-26T09:36:53Z</time>
      </trkpt>
      <trkpt lat="45.93476" lon="4.7708">
        <ele>170</ele>
        <time>2017-05-26T09:36:54Z</time>
      </trkpt>
      <trkpt lat="45.93474" lon="4.77071">
        <ele>170</ele>
        <time>2017-05-26T09:36:55Z</time>
      </trkpt>
      <trkpt lat="45.93472" lon="4.77064">
        <ele>170</ele>
        <time>2017-05-26T09:36:56Z</time>
      </trkpt>
      <trkpt lat="45.93471" lon="4.77056">
        <ele>170</ele>
        <time>2017-05-26T09:36:57Z</time>
      </trkpt>
      <trkpt lat="45.9347" lon="4.77047">
        <ele>170</ele>
        <time>2017-05-26T09:36:58Z</time>
      </trkpt>
      <trkpt lat="45.93468" lon="4.77039">
        <ele>170</ele>
        <time>2017-05-26T09:36:59Z</time>
      </trkpt>
      <trkpt lat="45.93467" lon="4.77032">
        <ele>170</ele>
        <time>2017-05-26T09:37:00Z</time>
      </trkpt>
      <trkpt lat="45.93466" lon="4.77024">
        <ele>170</ele>
        <time>2017-05-26T09:37:01Z</time>
      </trkpt>
      <trkpt lat="45.93465" lon="4.77016">
        <ele>170</ele>
        <time>2017-05-26T09:37:02Z</time>
      </trkpt>
      <trkpt lat="45.93464" lon="4.77008">
        <ele>170</ele>
        <time>2017-05-26T09:37:03Z</time>
      </trkpt>
      <trkpt lat="45.93463" lon="4.77">
        <ele>170</ele>
        <time>2017-05-26T09:37:04Z</time>
      </trkpt>
      <trkpt lat="45.93462" lon="4.76992">
        <ele>170</ele>
        <time>2017-05-26T09:37:05Z</time>
      </trkpt>
      <trkpt lat="45.9346" lon="4.76983">
        <ele>170</ele>
        <time>2017-05-26T09:37:06Z</time>
      </trkpt>
      <trkpt lat="45.93458" lon="4.76975">
        <ele>170</ele>
        <time>2017-05-26T09:37:07Z</time>
      </trkpt>
      <trkpt lat="45.93457" lon="4.76966">
        <ele>170</ele>
        <time>2017-05-26T09:37:08Z</time>
      </trkpt>
      <trkpt lat="45.93456" lon="4.76958">
        <ele>170</ele>
        <time>2017-05-26T09:37:09Z</time>
      </trkpt>
      <trkpt lat="45.93454" lon="4.76949">
        <ele>170</ele>
        <time>2017-05-26T09:37:10Z</time>
      </trkpt>
      <trkpt lat="45.93453" lon="4.76941">
        <ele>170</ele>
        <time>2017-05-26T09:37:11Z</time>
      </trkpt>
      <trkpt lat="45.93451" lon="4.76933">
        <ele>170</ele>
        <time>2017-05-26T09:37:12Z</time>
      </trkpt>
      <trkpt lat="45.9345" lon="4.76925">
        <ele>170</ele>
        <time>2017-05-26T09:37:13Z</time>
      </trkpt>
      <trkpt lat="45.93448" lon="4.76917">
        <ele>170</ele>
        <time>2017-05-26T09:37:14Z</time>
      </trkpt>
      <trkpt lat="45.93446" lon="4.76909">
        <ele>170</ele>
        <time>2017-05-26T09:37:15Z</time>
      </trkpt>
      <trkpt lat="45.93444" lon="4.76901">
        <ele>170</ele>
        <time>2017-05-26T09:37:16Z</time>
      </trkpt>
      <trkpt lat="45.93441" lon="4.76894">
        <ele>170</ele>
        <time>2017-05-26T09:37:17Z</time>
      </trkpt>
      <trkpt lat="45.93439" lon="4.76886">
        <ele>170</ele>
        <time>2017-05-26T09:37:18Z</time>
      </trkpt>
      <trkpt lat="45.93436" lon="4.76879">
        <ele>171</ele>
        <time>2017-05-26T09:37:19Z</time>
      </trkpt>
      <trkpt lat="45.93433" lon="4.76871">
        <ele>171</ele>
        <time>2017-05-26T09:37:20Z</time>
      </trkpt>
      <trkpt lat="45.93429" lon="4.76863">
        <ele>171</ele>
        <time>2017-05-26T09:37:21Z</time>
      </trkpt>
      <trkpt lat="45.93426" lon="4.76855">
        <ele>171</ele>
        <time>2017-05-26T09:37:22Z</time>
      </trkpt>
      <trkpt lat="45.93422" lon="4.76847">
        <ele>171</ele>
        <time>2017-05-26T09:37:23Z</time>
      </trkpt>
      <trkpt lat="45.93418" lon="4.7684">
        <ele>172</ele>
        <time>2017-05-26T09:37:24Z</time>
      </trkpt>
      <trkpt lat="45.93414" lon="4.76833">
        <ele>172</ele>
        <time>2017-05-26T09:37:25Z</time>
      </trkpt>
      <trkpt lat="45.9341" lon="4.76826">
        <ele>172</ele>
        <time>2017-05-26T09:37:26Z</time>
      </trkpt>
      <trkpt lat="45.93406" lon="4.76819">
        <ele>172</ele>
        <time>2017-05-26T09:37:27Z</time>
      </trkpt>
      <trkpt lat="45.93402" lon="4.76812">
        <ele>172</ele>
        <time>2017-05-26T09:37:28Z</time>
      </trkpt>
      <trkpt lat="45.93397" lon="4.76807">
        <ele>172</ele>
        <time>2017-05-26T09:37:29Z</time>
      </trkpt>
      <trkpt lat="45.93393" lon="4.76801">
        <ele>172</ele>
        <time>2017-05-26T09:37:30Z</time>
      </trkpt>
      <trkpt lat="45.93389" lon="4.76796">
        <ele>172</ele>
        <time>2017-05-26T09:37:31Z</time>
      </trkpt>
      <trkpt lat="45.93384" lon="4.76791">
        <ele>172</ele>
        <time>2017-05-26T09:37:32Z</time>
      </trkpt>
      <trkpt lat="45.9338" lon="4.76786">
        <ele>172</ele>
        <time>2017-05-26T09:37:33Z</time>
      </trkpt>
      <trkpt lat="45.93376" lon="4.76781">
        <ele>172</ele>
        <time>2017-05-26T09:37:34Z</time>
      </trkpt>
      <trkpt lat="45.93371" lon="4.76776">
        <ele>172</ele>
        <time>2017-05-26T09:37:35Z</time>
      </trkpt>
      <trkpt lat="45.93366" lon="4.76772">
        <ele>172</ele>
        <time>2017-05-26T09:37:36Z</time>
      </trkpt>
      <trkpt lat="45.93362" lon="4.76766">
        <ele>172</ele>
        <time>2017-05-26T09:37:37Z</time>
      </trkpt>
      <trkpt lat="45.93357" lon="4.76762">
        <ele>172</ele>
        <time>2017-05-26T09:37:38Z</time>
      </trkpt>
      <trkpt lat="45.93352" lon="4.76757">
        <ele>172</ele>
        <time>2017-05-26T09:37:39Z</time>
      </trkpt>
      <trkpt lat="45.93348" lon="4.76752">
        <ele>172</ele>
        <time>2017-05-26T09:37:40Z</time>
      </trkpt>
      <trkpt lat="45.93344" lon="4.76748">
        <ele>173</ele>
        <time>2017-05-26T09:37:41Z</time>
      </trkpt>
      <trkpt lat="45.93339" lon="4.76743">
        <ele>173</ele>
        <time>2017-05-26T09:37:42Z</time>
      </trkpt>
      <trkpt lat="45.93335" lon="4.76738">
        <ele>172</ele>
        <time>2017-05-26T09:37:43Z</time>
      </trkpt>
      <trkpt lat="45.9333" lon="4.76733">
        <ele>172</ele>
        <time>2017-05-26T09:37:44Z</time>
      </trkpt>
      <trkpt lat="45.93325" lon="4.76728">
        <ele>172</ele>
        <time>2017-05-26T09:37:45Z</time>
      </trkpt>
      <trkpt lat="45.9332" lon="4.76723">
        <ele>172</ele>
        <time>2017-05-26T09:37:46Z</time>
      </trkpt>
      <trkpt lat="45.93316" lon="4.76719">
        <ele>172</ele>
        <time>2017-05-26T09:37:47Z</time>
      </trkpt>
      <trkpt lat="45.9331" lon="4.76714">
        <ele>172</ele>
        <time>2017-05-26T09:37:48Z</time>
      </trkpt>
      <trkpt lat="45.93306" lon="4.76709">
        <ele>172</ele>
        <time>2017-05-26T09:37:49Z</time>
      </trkpt>
      <trkpt lat="45.93301" lon="4.76704">
        <ele>172</ele>
        <time>2017-05-26T09:37:50Z</time>
      </trkpt>
      <trkpt lat="45.93297" lon="4.767">
        <ele>172</ele>
        <time>2017-05-26T09:37:51Z</time>
      </trkpt>
      <trkpt lat="45.93292" lon="4.76696">
        <ele>172</ele>
        <time>2017-05-26T09:37:52Z</time>
      </trkpt>
      <trkpt lat="45.93288" lon="4.76692">
        <ele>172</ele>
        <time>2017-05-26T09:37:53Z</time>
      </trkpt>
      <trkpt lat="45.93284" lon="4.76688">
        <ele>172</ele>
        <time>2017-05-26T09:37:54Z</time>
      </trkpt>
      <trkpt lat="45.9328" lon="4.76684">
        <ele>172</ele>
        <time>2017-05-26T09:37:55Z</time>
      </trkpt>
      <trkpt lat="45.93275" lon="4.76679">
        <ele>172</ele>
        <time>2017-05-26T09:37:56Z</time>
      </trkpt>
      <trkpt lat="45.93271" lon="4.76674">
        <ele>172</ele>
        <time>2017-05-26T09:37:57Z</time>
      </trkpt>
      <trkpt lat="45.93267" lon="4.7667">
        <ele>172</ele>
        <time>2017-05-26T09:37:58Z</time>
      </trkpt>
      <trkpt lat="45.93263" lon="4.76665">
        <ele>171</ele>
        <time>2017-05-26T09:37:59Z</time>
      </trkpt>
      <trkpt lat="45.93259" lon="4.76659">
        <ele>171</ele>
        <time>2017-05-26T09:38:00Z</time>
      </trkpt>
      <trkpt lat="45.93254" lon="4.76655">
        <ele>171</ele>
        <time>2017-05-26T09:38:01Z</time>
      </trkpt>
      <trkpt lat="45.9325" lon="4.76651">
        <ele>171</ele>
        <time>2017-05-26T09:38:02Z</time>
      </trkpt>
      <trkpt lat="45.93246" lon="4.76647">
        <ele>171</ele>
        <time>2017-05-26T09:38:03Z</time>
      </trkpt>
      <trkpt lat="45.93241" lon="4.76642">
        <ele>171</ele>
        <time>2017-05-26T09:38:04Z</time>
      </trkpt>
      <trkpt lat="45.93237" lon="4.76637">
        <ele>171</ele>
        <time>2017-05-26T09:38:05Z</time>
      </trkpt>
      <trkpt lat="45.93233" lon="4.76633">
        <ele>170</ele>
        <time>2017-05-26T09:38:06Z</time>
      </trkpt>
      <trkpt lat="45.93229" lon="4.76628">
        <ele>170</ele>
        <time>2017-05-26T09:38:07Z</time>
      </trkpt>
      <trkpt lat="45.93225" lon="4.76624">
        <ele>170</ele>
        <time>2017-05-26T09:38:08Z</time>
      </trkpt>
      <trkpt lat="45.93221" lon="4.7662">
        <ele>170</ele>
        <time>2017-05-26T09:38:09Z</time>
      </trkpt>
      <trkpt lat="45.93217" lon="4.76615">
        <ele>170</ele>
        <time>2017-05-26T09:38:10Z</time>
      </trkpt>
      <trkpt lat="45.93213" lon="4.76611">
        <ele>170</ele>
        <time>2017-05-26T09:38:11Z</time>
      </trkpt>
      <trkpt lat="45.93209" lon="4.76606">
        <ele>170</ele>
        <time>2017-05-26T09:38:12Z</time>
      </trkpt>
      <trkpt lat="45.93204" lon="4.76601">
        <ele>170</ele>
        <time>2017-05-26T09:38:13Z</time>
      </trkpt>
      <trkpt lat="45.932" lon="4.76597">
        <ele>170</ele>
        <time>2017-05-26T09:38:14Z</time>
      </trkpt>
      <trkpt lat="45.93196" lon="4.76592">
        <ele>170</ele>
        <time>2017-05-26T09:38:15Z</time>
      </trkpt>
      <trkpt lat="45.93191" lon="4.76589">
        <ele>170</ele>
        <time>2017-05-26T09:38:16Z</time>
      </trkpt>
      <trkpt lat="45.93187" lon="4.76584">
        <ele>171</ele>
        <time>2017-05-26T09:38:17Z</time>
      </trkpt>
      <trkpt lat="45.93183" lon="4.76581">
        <ele>170</ele>
        <time>2017-05-26T09:38:18Z</time>
      </trkpt>
      <trkpt lat="45.93179" lon="4.76577">
        <ele>170</ele>
        <time>2017-05-26T09:38:19Z</time>
      </trkpt>
      <trkpt lat="45.93175" lon="4.76573">
        <ele>170</ele>
        <time>2017-05-26T09:38:20Z</time>
      </trkpt>
      <trkpt lat="45.93171" lon="4.76568">
        <ele>170</ele>
        <time>2017-05-26T09:38:21Z</time>
      </trkpt>
      <trkpt lat="45.93166" lon="4.76564">
        <ele>170</ele>
        <time>2017-05-26T09:38:22Z</time>
      </trkpt>
      <trkpt lat="45.93162" lon="4.7656">
        <ele>170</ele>
        <time>2017-05-26T09:38:23Z</time>
      </trkpt>
      <trkpt lat="45.93157" lon="4.76555">
        <ele>170</ele>
        <time>2017-05-26T09:38:24Z</time>
      </trkpt>
      <trkpt lat="45.93153" lon="4.7655">
        <ele>170</ele>
        <time>2017-05-26T09:38:25Z</time>
      </trkpt>
      <trkpt lat="45.93148" lon="4.76546">
        <ele>170</ele>
        <time>2017-05-26T09:38:26Z</time>
      </trkpt>
      <trkpt lat="45.93144" lon="4.76542">
        <ele>170</ele>
        <time>2017-05-26T09:38:27Z</time>
      </trkpt>
      <trkpt lat="45.9314" lon="4.76538">
        <ele>170</ele>
        <time>2017-05-26T09:38:28Z</time>
      </trkpt>
      <trkpt lat="45.93136" lon="4.76534">
        <ele>170</ele>
        <time>2017-05-26T09:38:29Z</time>
      </trkpt>
      <trkpt lat="45.93132" lon="4.76529">
        <ele>170</ele>
        <time>2017-05-26T09:38:30Z</time>
      </trkpt>
      <trkpt lat="45.93128" lon="4.76526">
        <ele>170</ele>
        <time>2017-05-26T09:38:31Z</time>
      </trkpt>
      <trkpt lat="45.93123" lon="4.76521">
        <ele>170</ele>
        <time>2017-05-26T09:38:32Z</time>
      </trkpt>
      <trkpt lat="45.93118" lon="4.76517">
        <ele>170</ele>
        <time>2017-05-26T09:38:33Z</time>
      </trkpt>
      <trkpt lat="45.93113" lon="4.76513">
        <ele>170</ele>
        <time>2017-05-26T09:38:34Z</time>
      </trkpt>
      <trkpt lat="45.93109" lon="4.76509">
        <ele>170</ele>
        <time>2017-05-26T09:38:35Z</time>
      </trkpt>
      <trkpt lat="45.93104" lon="4.76505">
        <ele>170</ele>
        <time>2017-05-26T09:38:36Z</time>
      </trkpt>
      <trkpt lat="45.93099" lon="4.765">
        <ele>170</ele>
        <time>2017-05-26T09:38:37Z</time>
      </trkpt>
      <trkpt lat="45.93094" lon="4.76496">
        <ele>170</ele>
        <time>2017-05-26T09:38:38Z</time>
      </trkpt>
      <trkpt lat="45.93089" lon="4.76491">
        <ele>170</ele>
        <time>2017-05-26T09:38:39Z</time>
      </trkpt>
      <trkpt lat="45.93084" lon="4.76486">
        <ele>170</ele>
        <time>2017-05-26T09:38:40Z</time>
      </trkpt>
      <trkpt lat="45.93079" lon="4.76481">
        <ele>169</ele>
        <time>2017-05-26T09:38:41Z</time>
      </trkpt>
      <trkpt lat="45.93074" lon="4.76476">
        <ele>169</ele>
        <time>2017-05-26T09:38:42Z</time>
      </trkpt>
      <trkpt lat="45.93068" lon="4.76471">
        <ele>169</ele>
        <time>2017-05-26T09:38:43Z</time>
      </trkpt>
      <trkpt lat="45.93063" lon="4.76466">
        <ele>169</ele>
        <time>2017-05-26T09:38:44Z</time>
      </trkpt>
      <trkpt lat="45.93058" lon="4.76461">
        <ele>169</ele>
        <time>2017-05-26T09:38:45Z</time>
      </trkpt>
      <trkpt lat="45.93053" lon="4.76456">
        <ele>169</ele>
        <time>2017-05-26T09:38:46Z</time>
      </trkpt>
      <trkpt lat="45.93048" lon="4.76451">
        <ele>169</ele>
        <time>2017-05-26T09:38:47Z</time>
      </trkpt>
      <trkpt lat="45.93043" lon="4.76446">
        <ele>169</ele>
        <time>2017-05-26T09:38:48Z</time>
      </trkpt>
      <trkpt lat="45.93037" lon="4.76441">
        <ele>169</ele>
        <time>2017-05-26T09:38:49Z</time>
      </trkpt>
      <trkpt lat="45.93032" lon="4.76436">
        <ele>169</ele>
        <time>2017-05-26T09:38:50Z</time>
      </trkpt>
      <trkpt lat="45.93026" lon="4.76432">
        <ele>169</ele>
        <time>2017-05-26T09:38:51Z</time>
      </trkpt>
      <trkpt lat="45.93021" lon="4.76427">
        <ele>169</ele>
        <time>2017-05-26T09:38:52Z</time>
      </trkpt>
      <trkpt lat="45.93016" lon="4.76422">
        <ele>169</ele>
        <time>2017-05-26T09:38:53Z</time>
      </trkpt>
      <trkpt lat="45.93011" lon="4.76418">
        <ele>169</ele>
        <time>2017-05-26T09:38:54Z</time>
      </trkpt>
      <trkpt lat="45.93007" lon="4.76414">
        <ele>169</ele>
        <time>2017-05-26T09:38:55Z</time>
      </trkpt>
      <trkpt lat="45.93003" lon="4.76409">
        <ele>169</ele>
        <time>2017-05-26T09:38:56Z</time>
      </trkpt>
      <trkpt lat="45.92998" lon="4.76405">
        <ele>169</ele>
        <time>2017-05-26T09:38:57Z</time>
      </trkpt>
      <trkpt lat="45.92994" lon="4.76401">
        <ele>169</ele>
        <time>2017-05-26T09:38:58Z</time>
      </trkpt>
      <trkpt lat="45.9299" lon="4.76397">
        <ele>169</ele>
        <time>2017-05-26T09:38:59Z</time>
      </trkpt>
      <trkpt lat="45.92986" lon="4.76392">
        <ele>169</ele>
        <time>2017-05-26T09:39:00Z</time>
      </trkpt>
      <trkpt lat="45.92981" lon="4.76388">
        <ele>169</ele>
        <time>2017-05-26T09:39:01Z</time>
      </trkpt>
      <trkpt lat="45.92977" lon="4.76384">
        <ele>169</ele>
        <time>2017-05-26T09:39:02Z</time>
      </trkpt>
      <trkpt lat="45.92973" lon="4.7638">
        <ele>169</ele>
        <time>2017-05-26T09:39:03Z</time>
      </trkpt>
      <trkpt lat="45.92969" lon="4.76375">
        <ele>169</ele>
        <time>2017-05-26T09:39:04Z</time>
      </trkpt>
      <trkpt lat="45.92965" lon="4.76371">
        <ele>169</ele>
        <time>2017-05-26T09:39:05Z</time>
      </trkpt>
      <trkpt lat="45.9296" lon="4.76367">
        <ele>169</ele>
        <time>2017-05-26T09:39:06Z</time>
      </trkpt>
      <trkpt lat="45.92956" lon="4.76362">
        <ele>169</ele>
        <time>2017-05-26T09:39:07Z</time>
      </trkpt>
      <trkpt lat="45.92951" lon="4.76357">
        <ele>169</ele>
        <time>2017-05-26T09:39:08Z</time>
      </trkpt>
      <trkpt lat="45.92947" lon="4.76352">
        <ele>169</ele>
        <time>2017-05-26T09:39:09Z</time>
      </trkpt>
      <trkpt lat="45.92942" lon="4.76347">
        <ele>169</ele>
        <time>2017-05-26T09:39:10Z</time>
      </trkpt>
      <trkpt lat="45.92938" lon="4.76343">
        <ele>169</ele>
        <time>2017-05-26T09:39:11Z</time>
      </trkpt>
      <trkpt lat="45.92934" lon="4.76338">
        <ele>169</ele>
        <time>2017-05-26T09:39:12Z</time>
      </trkpt>
      <trkpt lat="45.92929" lon="4.76334">
        <ele>169</ele>
        <time>2017-05-26T09:39:13Z</time>
      </trkpt>
      <trkpt lat="45.92925" lon="4.7633">
        <ele>169</ele>
        <time>2017-05-26T09:39:14Z</time>
      </trkpt>
      <trkpt lat="45.92921" lon="4.76326">
        <ele>169</ele>
        <time>2017-05-26T09:39:15Z</time>
      </trkpt>
      <trkpt lat="45.92917" lon="4.76322">
        <ele>169</ele>
        <time>2017-05-26T09:39:16Z</time>
      </trkpt>
      <trkpt lat="45.92913" lon="4.76318">
        <ele>169</ele>
        <time>2017-05-26T09:39:17Z</time>
      </trkpt>
      <trkpt lat="45.92909" lon="4.76314">
        <ele>169</ele>
        <time>2017-05-26T09:39:18Z</time>
      </trkpt>
      <trkpt lat="45.92905" lon="4.76309">
        <ele>169</ele>
        <time>2017-05-26T09:39:19Z</time>
      </trkpt>
      <trkpt lat="45.92901" lon="4.76305">
        <ele>169</ele>
        <time>2017-05-26T09:39:20Z</time>
      </trkpt>
      <trkpt lat="45.92895" lon="4.76299">
        <ele>169</ele>
        <time>2017-05-26T09:39:21Z</time>
      </trkpt>
      <trkpt lat="45.92889" lon="4.76295">
        <ele>169</ele>
        <time>2017-05-26T09:39:22Z</time>
      </trkpt>
      <trkpt lat="45.92885" lon="4.76291">
        <ele>169</ele>
        <time>2017-05-26T09:39:23Z</time>
      </trkpt>
      <trkpt lat="45.9288" lon="4.76287">
        <ele>169</ele>
        <time>2017-05-26T09:39:24Z</time>
      </trkpt>
      <trkpt lat="45.92876" lon="4.76283">
        <ele>169</ele>
        <time>2017-05-26T09:39:25Z</time>
      </trkpt>
      <trkpt lat="45.92873" lon="4.76279">
        <ele>169</ele>
        <time>2017-05-26T09:39:26Z</time>
      </trkpt>
      <trkpt lat="45.92868" lon="4.76275">
        <ele>169</ele>
        <time>2017-05-26T09:39:27Z</time>
      </trkpt>
      <trkpt lat="45.92864" lon="4.76271">
        <ele>169</ele>
        <time>2017-05-26T09:39:28Z</time>
      </trkpt>
      <trkpt lat="45.9286" lon="4.76265">
        <ele>169</ele>
        <time>2017-05-26T09:39:29Z</time>
      </trkpt>
      <trkpt lat="45.92855" lon="4.7626">
        <ele>169</ele>
        <time>2017-05-26T09:39:30Z</time>
      </trkpt>
      <trkpt lat="45.9285" lon="4.76255">
        <ele>169</ele>
        <time>2017-05-26T09:39:31Z</time>
      </trkpt>
      <trkpt lat="45.92845" lon="4.7625">
        <ele>169</ele>
        <time>2017-05-26T09:39:32Z</time>
      </trkpt>
      <trkpt lat="45.9284" lon="4.76244">
        <ele>169</ele>
        <time>2017-05-26T09:39:33Z</time>
      </trkpt>
      <trkpt lat="45.92835" lon="4.76239">
        <ele>169</ele>
        <time>2017-05-26T09:39:34Z</time>
      </trkpt>
      <trkpt lat="45.92829" lon="4.76233">
        <ele>168</ele>
        <time>2017-05-26T09:39:35Z</time>
      </trkpt>
      <trkpt lat="45.92824" lon="4.76228">
        <ele>168</ele>
        <time>2017-05-26T09:39:36Z</time>
      </trkpt>
      <trkpt lat="45.92818" lon="4.76222">
        <ele>168</ele>
        <time>2017-05-26T09:39:37Z</time>
      </trkpt>
      <trkpt lat="45.92813" lon="4.76217">
        <ele>168</ele>
        <time>2017-05-26T09:39:38Z</time>
      </trkpt>
      <trkpt lat="45.92807" lon="4.76212">
        <ele>168</ele>
        <time>2017-05-26T09:39:39Z</time>
      </trkpt>
      <trkpt lat="45.92803" lon="4.76207">
        <ele>168</ele>
        <time>2017-05-26T09:39:40Z</time>
      </trkpt>
      <trkpt lat="45.92798" lon="4.76202">
        <ele>168</ele>
        <time>2017-05-26T09:39:41Z</time>
      </trkpt>
      <trkpt lat="45.92793" lon="4.76197">
        <ele>168</ele>
        <time>2017-05-26T09:39:42Z</time>
      </trkpt>
      <trkpt lat="45.92788" lon="4.76193">
        <ele>168</ele>
        <time>2017-05-26T09:39:43Z</time>
      </trkpt>
      <trkpt lat="45.92783" lon="4.76189">
        <ele>168</ele>
        <time>2017-05-26T09:39:44Z</time>
      </trkpt>
      <trkpt lat="45.92778" lon="4.76185">
        <ele>168</ele>
        <time>2017-05-26T09:39:45Z</time>
      </trkpt>
      <trkpt lat="45.92774" lon="4.76181">
        <ele>167</ele>
        <time>2017-05-26T09:39:46Z</time>
      </trkpt>
      <trkpt lat="45.9277" lon="4.76177">
        <ele>167</ele>
        <time>2017-05-26T09:39:47Z</time>
      </trkpt>
      <trkpt lat="45.92765" lon="4.76174">
        <ele>167</ele>
        <time>2017-05-26T09:39:48Z</time>
      </trkpt>
      <trkpt lat="45.92761" lon="4.7617">
        <ele>167</ele>
        <time>2017-05-26T09:39:49Z</time>
      </trkpt>
      <trkpt lat="45.92756" lon="4.76165">
        <ele>167</ele>
        <time>2017-05-26T09:39:50Z</time>
      </trkpt>
      <trkpt lat="45.92752" lon="4.76161">
        <ele>167</ele>
        <time>2017-05-26T09:39:51Z</time>
      </trkpt>
      <trkpt lat="45.92746" lon="4.76157">
        <ele>168</ele>
        <time>2017-05-26T09:39:52Z</time>
      </trkpt>
      <trkpt lat="45.92741" lon="4.76153">
        <ele>168</ele>
        <time>2017-05-26T09:39:53Z</time>
      </trkpt>
      <trkpt lat="45.92737" lon="4.7615">
        <ele>168</ele>
        <time>2017-05-26T09:39:54Z</time>
      </trkpt>
      <trkpt lat="45.92732" lon="4.76147">
        <ele>168</ele>
        <time>2017-05-26T09:39:55Z</time>
      </trkpt>
      <trkpt lat="45.92728" lon="4.76144">
        <ele>168</ele>
        <time>2017-05-26T09:39:56Z</time>
      </trkpt>
      <trkpt lat="45.92724" lon="4.76141">
        <ele>168</ele>
        <time>2017-05-26T09:39:57Z</time>
      </trkpt>
      <trkpt lat="45.9272" lon="4.76138">
        <ele>168</ele>
        <time>2017-05-26T09:39:58Z</time>
      </trkpt>
      <trkpt lat="45.92715" lon="4.76135">
        <ele>168</ele>
        <time>2017-05-26T09:39:59Z</time>
      </trkpt>
      <trkpt lat="45.92711" lon="4.76132">
        <ele>168</ele>
        <time>2017-05-26T09:40:00Z</time>
      </trkpt>
      <trkpt lat="45.92706" lon="4.76128">
        <ele>169</ele>
        <time>2017-05-26T09:40:01Z</time>
      </trkpt>
      <trkpt lat="45.92702" lon="4.76124">
        <ele>169</ele>
        <time>2017-05-26T09:40:02Z</time>
      </trkpt>
      <trkpt lat="45.92697" lon="4.7612">
        <ele>169</ele>
        <time>2017-05-26T09:40:03Z</time>
      </trkpt>
      <trkpt lat="45.92693" lon="4.76116">
        <ele>169</ele>
        <time>2017-05-26T09:40:04Z</time>
      </trkpt>
      <trkpt lat="45.92688" lon="4.76112">
        <ele>169</ele>
        <time>2017-05-26T09:40:05Z</time>
      </trkpt>
      <trkpt lat="45.92683" lon="4.76109">
        <ele>169</ele>
        <time>2017-05-26T09:40:06Z</time>
      </trkpt>
      <trkpt lat="45.92678" lon="4.76105">
        <ele>169</ele>
        <time>2017-05-26T09:40:07Z</time>
      </trkpt>
      <trkpt lat="45.92673" lon="4.76101">
        <ele>169</ele>
        <time>2017-05-26T09:40:08Z</time>
      </trkpt>
      <trkpt lat="45.92668" lon="4.76097">
        <ele>169</ele>
        <time>2017-05-26T09:40:09Z</time>
      </trkpt>
      <trkpt lat="45.92663" lon="4.76093">
        <ele>170</ele>
        <time>2017-05-26T09:40:10Z</time>
      </trkpt>
      <trkpt lat="45.92658" lon="4.76089">
        <ele>170</ele>
        <time>2017-05-26T09:40:11Z</time>
      </trkpt>
      <trkpt lat="45.92652" lon="4.76085">
        <ele>170</ele>
        <time>2017-05-26T09:40:12Z</time>
      </trkpt>
      <trkpt lat="45.92647" lon="4.7608">
        <ele>170</ele>
        <time>2017-05-26T09:40:13Z</time>
      </trkpt>
      <trkpt lat="45.92641" lon="4.76076">
        <ele>170</ele>
        <time>2017-05-26T09:40:14Z</time>
      </trkpt>
      <trkpt lat="45.92636" lon="4.76073">
        <ele>170</ele>
        <time>2017-05-26T09:40:15Z</time>
      </trkpt>
      <trkpt lat="45.92631" lon="4.76069">
        <ele>170</ele>
        <time>2017-05-26T09:40:16Z</time>
      </trkpt>
      <trkpt lat="45.92626" lon="4.76066">
        <ele>170</ele>
        <time>2017-05-26T09:40:17Z</time>
      </trkpt>
      <trkpt lat="45.92621" lon="4.76062">
        <ele>171</ele>
        <time>2017-05-26T09:40:18Z</time>
      </trkpt>
      <trkpt lat="45.92617" lon="4.76059">
        <ele>171</ele>
        <time>2017-05-26T09:40:19Z</time>
      </trkpt>
      <trkpt lat="45.92612" lon="4.76056">
        <ele>171</ele>
        <time>2017-05-26T09:40:20Z</time>
      </trkpt>
      <trkpt lat="45.92607" lon="4.76052">
        <ele>171</ele>
        <time>2017-05-26T09:40:21Z</time>
      </trkpt>
      <trkpt lat="45.92601" lon="4.76049">
        <ele>171</ele>
        <time>2017-05-26T09:40:22Z</time>
      </trkpt>
      <trkpt lat="45.92595" lon="4.76044">
        <ele>171</ele>
        <time>2017-05-26T09:40:23Z</time>
      </trkpt>
      <trkpt lat="45.9259" lon="4.7604">
        <ele>171</ele>
        <time>2017-05-26T09:40:24Z</time>
      </trkpt>
      <trkpt lat="45.92585" lon="4.76036">
        <ele>171</ele>
        <time>2017-05-26T09:40:25Z</time>
      </trkpt>
      <trkpt lat="45.9258" lon="4.76033">
        <ele>172</ele>
        <time>2017-05-26T09:40:26Z</time>
      </trkpt>
      <trkpt lat="45.92575" lon="4.7603">
        <ele>172</ele>
        <time>2017-05-26T09:40:27Z</time>
      </trkpt>
      <trkpt lat="45.92571" lon="4.76027">
        <ele>172</ele>
        <time>2017-05-26T09:40:28Z</time>
      </trkpt>
      <trkpt lat="45.92563" lon="4.76021">
        <ele>172</ele>
        <time>2017-05-26T09:40:30Z</time>
      </trkpt>
      <trkpt lat="45.9256" lon="4.76019">
        <ele>172</ele>
        <time>2017-05-26T09:40:31Z</time>
      </trkpt>
      <trkpt lat="45.92552" lon="4.76013">
        <ele>172</ele>
        <time>2017-05-26T09:40:33Z</time>
      </trkpt>
      <trkpt lat="45.92548" lon="4.76011">
        <ele>172</ele>
        <time>2017-05-26T09:40:34Z</time>
      </trkpt>
      <trkpt lat="45.9254" lon="4.76005">
        <ele>172</ele>
        <time>2017-05-26T09:40:36Z</time>
      </trkpt>
      <trkpt lat="45.92536" lon="4.76002">
        <ele>172</ele>
        <time>2017-05-26T09:40:37Z</time>
      </trkpt>
      <trkpt lat="45.92532" lon="4.75999">
        <ele>172</ele>
        <time>2017-05-26T09:40:38Z</time>
      </trkpt>
      <trkpt lat="45.92528" lon="4.75996">
        <ele>172</ele>
        <time>2017-05-26T09:40:39Z</time>
      </trkpt>
      <trkpt lat="45.92523" lon="4.75993">
        <ele>172</ele>
        <time>2017-05-26T09:40:40Z</time>
      </trkpt>
      <trkpt lat="45.92519" lon="4.7599">
        <ele>172</ele>
        <time>2017-05-26T09:40:41Z</time>
      </trkpt>
      <trkpt lat="45.92515" lon="4.75987">
        <ele>172</ele>
        <time>2017-05-26T09:40:42Z</time>
      </trkpt>
      <trkpt lat="45.92511" lon="4.75985">
        <ele>172</ele>
        <time>2017-05-26T09:40:43Z</time>
      </trkpt>
      <trkpt lat="45.92503" lon="4.75979">
        <ele>172</ele>
        <time>2017-05-26T09:40:45Z</time>
      </trkpt>
      <trkpt lat="45.92499" lon="4.75976">
        <ele>172</ele>
        <time>2017-05-26T09:40:46Z</time>
      </trkpt>
      <trkpt lat="45.92495" lon="4.75973">
        <ele>172</ele>
        <time>2017-05-26T09:40:47Z</time>
      </trkpt>
      <trkpt lat="45.92491" lon="4.7597">
        <ele>172</ele>
        <time>2017-05-26T09:40:48Z</time>
      </trkpt>
      <trkpt lat="45.92486" lon="4.75967">
        <ele>172</ele>
        <time>2017-05-26T09:40:49Z</time>
      </trkpt>
      <trkpt lat="45.92482" lon="4.75964">
        <ele>172</ele>
        <time>2017-05-26T09:40:50Z</time>
      </trkpt>
      <trkpt lat="45.92478" lon="4.75962">
        <ele>172</ele>
        <time>2017-05-26T09:40:51Z</time>
      </trkpt>
      <trkpt lat="45.92474" lon="4.75959">
        <ele>172</ele>
        <time>2017-05-26T09:40:52Z</time>
      </trkpt>
      <trkpt lat="45.92469" lon="4.75956">
        <ele>172</ele>
        <time>2017-05-26T09:40:53Z</time>
      </trkpt>
      <trkpt lat="45.92465" lon="4.75953">
        <ele>172</ele>
        <time>2017-05-26T09:40:54Z</time>
      </trkpt>
      <trkpt lat="45.92461" lon="4.7595">
        <ele>172</ele>
        <time>2017-05-26T09:40:55Z</time>
      </trkpt>
      <trkpt lat="45.92456" lon="4.75947">
        <ele>172</ele>
        <time>2017-05-26T09:40:56Z</time>
      </trkpt>
      <trkpt lat="45.92451" lon="4.75944">
        <ele>172</ele>
        <time>2017-05-26T09:40:57Z</time>
      </trkpt>
      <trkpt lat="45.92446" lon="4.7594">
        <ele>172</ele>
        <time>2017-05-26T09:40:58Z</time>
      </trkpt>
      <trkpt lat="45.92442" lon="4.75937">
        <ele>172</ele>
        <time>2017-05-26T09:40:59Z</time>
      </trkpt>
      <trkpt lat="45.92437" lon="4.75934">
        <ele>172</ele>
        <time>2017-05-26T09:41:00Z</time>
      </trkpt>
      <trkpt lat="45.92432" lon="4.7593">
        <ele>172</ele>
        <time>2017-05-26T09:41:01Z</time>
      </trkpt>
      <trkpt lat="45.92426" lon="4.75927">
        <ele>172</ele>
        <time>2017-05-26T09:41:02Z</time>
      </trkpt>
      <trkpt lat="45.92421" lon="4.75923">
        <ele>172</ele>
        <time>2017-05-26T09:41:03Z</time>
      </trkpt>
      <trkpt lat="45.92415" lon="4.75919">
        <ele>172</ele>
        <time>2017-05-26T09:41:04Z</time>
      </trkpt>
      <trkpt lat="45.9241" lon="4.75915">
        <ele>172</ele>
        <time>2017-05-26T09:41:05Z</time>
      </trkpt>
      <trkpt lat="45.92404" lon="4.75911">
        <ele>172</ele>
        <time>2017-05-26T09:41:06Z</time>
      </trkpt>
      <trkpt lat="45.92399" lon="4.75907">
        <ele>173</ele>
        <time>2017-05-26T09:41:07Z</time>
      </trkpt>
      <trkpt lat="45.92393" lon="4.75903">
        <ele>173</ele>
        <time>2017-05-26T09:41:08Z</time>
      </trkpt>
      <trkpt lat="45.92387" lon="4.75899">
        <ele>173</ele>
        <time>2017-05-26T09:41:09Z</time>
      </trkpt>
      <trkpt lat="45.92382" lon="4.75896">
        <ele>173</ele>
        <time>2017-05-26T09:41:10Z</time>
      </trkpt>
      <trkpt lat="45.92376" lon="4.75892">
        <ele>173</ele>
        <time>2017-05-26T09:41:11Z</time>
      </trkpt>
      <trkpt lat="45.92371" lon="4.75889">
        <ele>173</ele>
        <time>2017-05-26T09:41:12Z</time>
      </trkpt>
      <trkpt lat="45.92366" lon="4.75886">
        <ele>173</ele>
        <time>2017-05-26T09:41:13Z</time>
      </trkpt>
      <trkpt lat="45.92361" lon="4.75882">
        <ele>173</ele>
        <time>2017-05-26T09:41:14Z</time>
      </trkpt>
      <trkpt lat="45.92356" lon="4.75879">
        <ele>173</ele>
        <time>2017-05-26T09:41:15Z</time>
      </trkpt>
      <trkpt lat="45.92352" lon="4.75877">
        <ele>173</ele>
        <time>2017-05-26T09:41:16Z</time>
      </trkpt>
      <trkpt lat="45.92347" lon="4.75874">
        <ele>173</ele>
        <time>2017-05-26T09:41:17Z</time>
      </trkpt>
      <trkpt lat="45.92342" lon="4.75871">
        <ele>173</ele>
        <time>2017-05-26T09:41:18Z</time>
      </trkpt>
      <trkpt lat="45.92337" lon="4.75868">
        <ele>173</ele>
        <time>2017-05-26T09:41:19Z</time>
      </trkpt>
      <trkpt lat="45.92332" lon="4.75865">
        <ele>173</ele>
        <time>2017-05-26T09:41:20Z</time>
      </trkpt>
      <trkpt lat="45.92327" lon="4.75862">
        <ele>173</ele>
        <time>2017-05-26T09:41:21Z</time>
      </trkpt>
      <trkpt lat="45.92323" lon="4.75859">
        <ele>173</ele>
        <time>2017-05-26T09:41:22Z</time>
      </trkpt>
      <trkpt lat="45.92318" lon="4.75856">
        <ele>173</ele>
        <time>2017-05-26T09:41:23Z</time>
      </trkpt>
      <trkpt lat="45.92314" lon="4.75853">
        <ele>173</ele>
        <time>2017-05-26T09:41:24Z</time>
      </trkpt>
      <trkpt lat="45.92309" lon="4.75849">
        <ele>173</ele>
        <time>2017-05-26T09:41:25Z</time>
      </trkpt>
      <trkpt lat="45.92304" lon="4.75846">
        <ele>173</ele>
        <time>2017-05-26T09:41:26Z</time>
      </trkpt>
      <trkpt lat="45.92299" lon="4.75843">
        <ele>173</ele>
        <time>2017-05-26T09:41:27Z</time>
      </trkpt>
      <trkpt lat="45.92293" lon="4.75841">
        <ele>173</ele>
        <time>2017-05-26T09:41:28Z</time>
      </trkpt>
      <trkpt lat="45.92287" lon="4.75838">
        <ele>173</ele>
        <time>2017-05-26T09:41:29Z</time>
      </trkpt>
      <trkpt lat="45.92281" lon="4.75834">
        <ele>173</ele>
        <time>2017-05-26T09:41:30Z</time>
      </trkpt>
      <trkpt lat="45.92275" lon="4.75829">
        <ele>174</ele>
        <time>2017-05-26T09:41:31Z</time>
      </trkpt>
      <trkpt lat="45.9227" lon="4.75823">
        <ele>174</ele>
        <time>2017-05-26T09:41:32Z</time>
      </trkpt>
      <trkpt lat="45.92266" lon="4.75816">
        <ele>174</ele>
        <time>2017-05-26T09:41:33Z</time>
      </trkpt>
      <trkpt lat="45.92263" lon="4.75808">
        <ele>174</ele>
        <time>2017-05-26T09:41:34Z</time>
      </trkpt>
      <trkpt lat="45.92261" lon="4.75801">
        <ele>174</ele>
        <time>2017-05-26T09:41:35Z</time>
      </trkpt>
      <trkpt lat="45.92259" lon="4.75793">
        <ele>174</ele>
        <time>2017-05-26T09:41:36Z</time>
      </trkpt>
      <trkpt lat="45.92257" lon="4.75786">
        <ele>174</ele>
        <time>2017-05-26T09:41:37Z</time>
      </trkpt>
      <trkpt lat="45.92255" lon="4.75779">
        <ele>174</ele>
        <time>2017-05-26T09:41:38Z</time>
      </trkpt>
      <trkpt lat="45.92254" lon="4.75771">
        <ele>174</ele>
        <time>2017-05-26T09:41:39Z</time>
      </trkpt>
      <trkpt lat="45.92253" lon="4.75763">
        <ele>174</ele>
        <time>2017-05-26T09:41:40Z</time>
      </trkpt>
      <trkpt lat="45.92252" lon="4.75756">
        <ele>174</ele>
        <time>2017-05-26T09:41:41Z</time>
      </trkpt>
      <trkpt lat="45.9225" lon="4.75749">
        <ele>174</ele>
        <time>2017-05-26T09:41:42Z</time>
      </trkpt>
      <trkpt lat="45.92248" lon="4.75742">
        <ele>174</ele>
        <time>2017-05-26T09:41:43Z</time>
      </trkpt>
      <trkpt lat="45.92247" lon="4.75734">
        <ele>174</ele>
        <time>2017-05-26T09:41:44Z</time>
      </trkpt>
      <trkpt lat="45.92245" lon="4.75727">
        <ele>174</ele>
        <time>2017-05-26T09:41:45Z</time>
      </trkpt>
      <trkpt lat="45.92242" lon="4.75719">
        <ele>174</ele>
        <time>2017-05-26T09:41:46Z</time>
      </trkpt>
      <trkpt lat="45.92239" lon="4.75712">
        <ele>174</ele>
        <time>2017-05-26T09:41:47Z</time>
      </trkpt>
      <trkpt lat="45.92236" lon="4.75706">
        <ele>174</ele>
        <time>2017-05-26T09:41:48Z</time>
      </trkpt>
      <trkpt lat="45.92231" lon="4.75701">
        <ele>174</ele>
        <time>2017-05-26T09:41:49Z</time>
      </trkpt>
      <trkpt lat="45.92227" lon="4.75696">
        <ele>174</ele>
        <time>2017-05-26T09:41:50Z</time>
      </trkpt>
      <trkpt lat="45.92222" lon="4.75691">
        <ele>174</ele>
        <time>2017-05-26T09:41:51Z</time>
      </trkpt>
      <trkpt lat="45.92218" lon="4.75687">
        <ele>174</ele>
        <time>2017-05-26T09:41:52Z</time>
      </trkpt>
      <trkpt lat="45.92213" lon="4.75682">
        <ele>174</ele>
        <time>2017-05-26T09:41:53Z</time>
      </trkpt>
      <trkpt lat="45.92208" lon="4.75677">
        <ele>174</ele>
        <time>2017-05-26T09:41:54Z</time>
      </trkpt>
      <trkpt lat="45.92204" lon="4.75673">
        <ele>174</ele>
        <time>2017-05-26T09:41:55Z</time>
      </trkpt>
      <trkpt lat="45.92199" lon="4.75669">
        <ele>174</ele>
        <time>2017-05-26T09:41:56Z</time>
      </trkpt>
      <trkpt lat="45.92195" lon="4.75664">
        <ele>174</ele>
        <time>2017-05-26T09:41:57Z</time>
      </trkpt>
      <trkpt lat="45.9219" lon="4.75659">
        <ele>174</ele>
        <time>2017-05-26T09:41:58Z</time>
      </trkpt>
      <trkpt lat="45.92186" lon="4.75655">
        <ele>174</ele>
        <time>2017-05-26T09:41:59Z</time>
      </trkpt>
      <trkpt lat="45.92181" lon="4.75651">
        <ele>174</ele>
        <time>2017-05-26T09:42:00Z</time>
      </trkpt>
      <trkpt lat="45.92177" lon="4.75647">
        <ele>174</ele>
        <time>2017-05-26T09:42:01Z</time>
      </trkpt>
      <trkpt lat="45.92172" lon="4.75643">
        <ele>174</ele>
        <time>2017-05-26T09:42:02Z</time>
      </trkpt>
      <trkpt lat="45.92168" lon="4.75639">
        <ele>174</ele>
        <time>2017-05-26T09:42:03Z</time>
      </trkpt>
      <trkpt lat="45.92164" lon="4.75635">
        <ele>174</ele>
        <time>2017-05-26T09:42:04Z</time>
      </trkpt>
      <trkpt lat="45.9216" lon="4.7563">
        <ele>174</ele>
        <time>2017-05-26T09:42:05Z</time>
      </trkpt>
      <trkpt lat="45.92156" lon="4.75626">
        <ele>174</ele>
        <time>2017-05-26T09:42:06Z</time>
      </trkpt>
      <trkpt lat="45.92151" lon="4.75622">
        <ele>174</ele>
        <time>2017-05-26T09:42:07Z</time>
      </trkpt>
      <trkpt lat="45.92146" lon="4.75617">
        <ele>174</ele>
        <time>2017-05-26T09:42:08Z</time>
      </trkpt>
      <trkpt lat="45.92141" lon="4.75611">
        <ele>174</ele>
        <time>2017-05-26T09:42:09Z</time>
      </trkpt>
      <trkpt lat="45.92136" lon="4.75606">
        <ele>174</ele>
        <time>2017-05-26T09:42:10Z</time>
      </trkpt>
      <trkpt lat="45.92131" lon="4.75601">
        <ele>174</ele>
        <time>2017-05-26T09:42:11Z</time>
      </trkpt>
      <trkpt lat="45.92126" lon="4.75596">
        <ele>174</ele>
        <time>2017-05-26T09:42:12Z</time>
      </trkpt>
      <trkpt lat="45.92121" lon="4.7559">
        <ele>174</ele>
        <time>2017-05-26T09:42:13Z</time>
      </trkpt>
      <trkpt lat="45.92117" lon="4.75585">
        <ele>174</ele>
        <time>2017-05-26T09:42:14Z</time>
      </trkpt>
      <trkpt lat="45.92113" lon="4.75579">
        <ele>174</ele>
        <time>2017-05-26T09:42:15Z</time>
      </trkpt>
      <trkpt lat="45.92112" lon="4.75573">
        <ele>174</ele>
        <time>2017-05-26T09:42:16Z</time>
      </trkpt>
      <trkpt lat="45.92115" lon="4.75562">
        <ele>174</ele>
        <time>2017-05-26T09:42:18Z</time>
      </trkpt>
      <trkpt lat="45.92119" lon="4.75555">
        <ele>174</ele>
        <time>2017-05-26T09:42:19Z</time>
      </trkpt>
      <trkpt lat="45.92123" lon="4.75549">
        <ele>174</ele>
        <time>2017-05-26T09:42:20Z</time>
      </trkpt>
      <trkpt lat="45.92126" lon="4.75544">
        <ele>174</ele>
        <time>2017-05-26T09:42:21Z</time>
      </trkpt>
      <trkpt lat="45.9213" lon="4.75538">
        <ele>174</ele>
        <time>2017-05-26T09:42:22Z</time>
      </trkpt>
      <trkpt lat="45.92134" lon="4.75531">
        <ele>174</ele>
        <time>2017-05-26T09:42:23Z</time>
      </trkpt>
      <trkpt lat="45.92137" lon="4.75525">
        <ele>174</ele>
        <time>2017-05-26T09:42:24Z</time>
      </trkpt>
      <trkpt lat="45.92141" lon="4.75518">
        <ele>174</ele>
        <time>2017-05-26T09:42:25Z</time>
      </trkpt>
      <trkpt lat="45.92144" lon="4.7551">
        <ele>174</ele>
        <time>2017-05-26T09:42:26Z</time>
      </trkpt>
      <trkpt lat="45.92147" lon="4.75503">
        <ele>175</ele>
        <time>2017-05-26T09:42:27Z</time>
      </trkpt>
      <trkpt lat="45.9215" lon="4.75497">
        <ele>175</ele>
        <time>2017-05-26T09:42:28Z</time>
      </trkpt>
      <trkpt lat="45.92153" lon="4.7549">
        <ele>175</ele>
        <time>2017-05-26T09:42:29Z</time>
      </trkpt>
      <trkpt lat="45.92155" lon="4.75483">
        <ele>176</ele>
        <time>2017-05-26T09:42:30Z</time>
      </trkpt>
      <trkpt lat="45.92158" lon="4.75476">
        <ele>176</ele>
        <time>2017-05-26T09:42:31Z</time>
      </trkpt>
      <trkpt lat="45.92161" lon="4.7547">
        <ele>176</ele>
        <time>2017-05-26T09:42:32Z</time>
      </trkpt>
      <trkpt lat="45.92164" lon="4.75463">
        <ele>176</ele>
        <time>2017-05-26T09:42:33Z</time>
      </trkpt>
      <trkpt lat="45.92166" lon="4.75456">
        <ele>176</ele>
        <time>2017-05-26T09:42:34Z</time>
      </trkpt>
      <trkpt lat="45.92169" lon="4.75449">
        <ele>176</ele>
        <time>2017-05-26T09:42:35Z</time>
      </trkpt>
      <trkpt lat="45.92172" lon="4.75442">
        <ele>177</ele>
        <time>2017-05-26T09:42:36Z</time>
      </trkpt>
      <trkpt lat="45.92175" lon="4.75435">
        <ele>177</ele>
        <time>2017-05-26T09:42:37Z</time>
      </trkpt>
      <trkpt lat="45.92177" lon="4.75428">
        <ele>177</ele>
        <time>2017-05-26T09:42:38Z</time>
      </trkpt>
      <trkpt lat="45.9218" lon="4.75421">
        <ele>177</ele>
        <time>2017-05-26T09:42:39Z</time>
      </trkpt>
      <trkpt lat="45.92183" lon="4.75415">
        <ele>177</ele>
        <time>2017-05-26T09:42:40Z</time>
      </trkpt>
      <trkpt lat="45.92186" lon="4.75408">
        <ele>177</ele>
        <time>2017-05-26T09:42:41Z</time>
      </trkpt>
      <trkpt lat="45.92188" lon="4.75402">
        <ele>177</ele>
        <time>2017-05-26T09:42:42Z</time>
      </trkpt>
      <trkpt lat="45.92191" lon="4.75395">
        <ele>177</ele>
        <time>2017-05-26T09:42:43Z</time>
      </trkpt>
      <trkpt lat="45.92194" lon="4.75387">
        <ele>177</ele>
        <time>2017-05-26T09:42:44Z</time>
      </trkpt>
      <trkpt lat="45.92196" lon="4.7538">
        <ele>177</ele>
        <time>2017-05-26T09:42:45Z</time>
      </trkpt>
      <trkpt lat="45.92198" lon="4.75374">
        <ele>177</ele>
        <time>2017-05-26T09:42:46Z</time>
      </trkpt>
      <trkpt lat="45.922" lon="4.75367">
        <ele>177</ele>
        <time>2017-05-26T09:42:47Z</time>
      </trkpt>
      <trkpt lat="45.92202" lon="4.75359">
        <ele>177</ele>
        <time>2017-05-26T09:42:48Z</time>
      </trkpt>
      <trkpt lat="45.92203" lon="4.75352">
        <ele>177</ele>
        <time>2017-05-26T09:42:49Z</time>
      </trkpt>
      <trkpt lat="45.92205" lon="4.75345">
        <ele>177</ele>
        <time>2017-05-26T09:42:50Z</time>
      </trkpt>
      <trkpt lat="45.92207" lon="4.75337">
        <ele>177</ele>
        <time>2017-05-26T09:42:51Z</time>
      </trkpt>
      <trkpt lat="45.92208" lon="4.7533">
        <ele>176</ele>
        <time>2017-05-26T09:42:52Z</time>
      </trkpt>
      <trkpt lat="45.92209" lon="4.75322">
        <ele>176</ele>
        <time>2017-05-26T09:42:53Z</time>
      </trkpt>
      <trkpt lat="45.9221" lon="4.75313">
        <ele>176</ele>
        <time>2017-05-26T09:42:54Z</time>
      </trkpt>
      <trkpt lat="45.92211" lon="4.75304">
        <ele>176</ele>
        <time>2017-05-26T09:42:55Z</time>
      </trkpt>
      <trkpt lat="45.92212" lon="4.75295">
        <ele>176</ele>
        <time>2017-05-26T09:42:56Z</time>
      </trkpt>
      <trkpt lat="45.92213" lon="4.75286">
        <ele>176</ele>
        <time>2017-05-26T09:42:57Z</time>
      </trkpt>
      <trkpt lat="45.92213" lon="4.75277">
        <ele>176</ele>
        <time>2017-05-26T09:42:58Z</time>
      </trkpt>
      <trkpt lat="45.92212" lon="4.75268">
        <ele>176</ele>
        <time>2017-05-26T09:42:59Z</time>
      </trkpt>
      <trkpt lat="45.92213" lon="4.75259">
        <ele>175</ele>
        <time>2017-05-26T09:43:00Z</time>
      </trkpt>
      <trkpt lat="45.92214" lon="4.7525">
        <ele>175</ele>
        <time>2017-05-26T09:43:01Z</time>
      </trkpt>
      <trkpt lat="45.92215" lon="4.75241">
        <ele>175</ele>
        <time>2017-05-26T09:43:02Z</time>
      </trkpt>
      <trkpt lat="45.92215" lon="4.75232">
        <ele>175</ele>
        <time>2017-05-26T09:43:03Z</time>
      </trkpt>
      <trkpt lat="45.92216" lon="4.75222">
        <ele>175</ele>
        <time>2017-05-26T09:43:04Z</time>
      </trkpt>
      <trkpt lat="45.92217" lon="4.75213">
        <ele>175</ele>
        <time>2017-05-26T09:43:05Z</time>
      </trkpt>
      <trkpt lat="45.92219" lon="4.75203">
        <ele>175</ele>
        <time>2017-05-26T09:43:06Z</time>
      </trkpt>
      <trkpt lat="45.92222" lon="4.75194">
        <ele>175</ele>
        <time>2017-05-26T09:43:07Z</time>
      </trkpt>
      <trkpt lat="45.92225" lon="4.75185">
        <ele>175</ele>
        <time>2017-05-26T09:43:08Z</time>
      </trkpt>
      <trkpt lat="45.92227" lon="4.75175">
        <ele>175</ele>
        <time>2017-05-26T09:43:09Z</time>
      </trkpt>
      <trkpt lat="45.92231" lon="4.75166">
        <ele>174</ele>
        <time>2017-05-26T09:43:10Z</time>
      </trkpt>
      <trkpt lat="45.92235" lon="4.75157">
        <ele>174</ele>
        <time>2017-05-26T09:43:11Z</time>
      </trkpt>
      <trkpt lat="45.92239" lon="4.75149">
        <ele>174</ele>
        <time>2017-05-26T09:43:12Z</time>
      </trkpt>
      <trkpt lat="45.92243" lon="4.75142">
        <ele>174</ele>
        <time>2017-05-26T09:43:13Z</time>
      </trkpt>
      <trkpt lat="45.92247" lon="4.75135">
        <ele>174</ele>
        <time>2017-05-26T09:43:14Z</time>
      </trkpt>
      <trkpt lat="45.92253" lon="4.75128">
        <ele>174</ele>
        <time>2017-05-26T09:43:15Z</time>
      </trkpt>
      <trkpt lat="45.92258" lon="4.75122">
        <ele>174</ele>
        <time>2017-05-26T09:43:16Z</time>
      </trkpt>
      <trkpt lat="45.92263" lon="4.75117">
        <ele>174</ele>
        <time>2017-05-26T09:43:17Z</time>
      </trkpt>
      <trkpt lat="45.92268" lon="4.75112">
        <ele>174</ele>
        <time>2017-05-26T09:43:18Z</time>
      </trkpt>
      <trkpt lat="45.92273" lon="4.75106">
        <ele>174</ele>
        <time>2017-05-26T09:43:19Z</time>
      </trkpt>
      <trkpt lat="45.92278" lon="4.751">
        <ele>173</ele>
        <time>2017-05-26T09:43:20Z</time>
      </trkpt>
      <trkpt lat="45.92283" lon="4.75095">
        <ele>173</ele>
        <time>2017-05-26T09:43:21Z</time>
      </trkpt>
      <trkpt lat="45.92288" lon="4.75089">
        <ele>173</ele>
        <time>2017-05-26T09:43:22Z</time>
      </trkpt>
      <trkpt lat="45.92293" lon="4.75084">
        <ele>173</ele>
        <time>2017-05-26T09:43:23Z</time>
      </trkpt>
      <trkpt lat="45.92297" lon="4.75079">
        <ele>172</ele>
        <time>2017-05-26T09:43:24Z</time>
      </trkpt>
      <trkpt lat="45.92302" lon="4.75074">
        <ele>172</ele>
        <time>2017-05-26T09:43:25Z</time>
      </trkpt>
      <trkpt lat="45.92307" lon="4.75068">
        <ele>172</ele>
        <time>2017-05-26T09:43:26Z</time>
      </trkpt>
      <trkpt lat="45.92311" lon="4.75063">
        <ele>172</ele>
        <time>2017-05-26T09:43:27Z</time>
      </trkpt>
      <trkpt lat="45.92315" lon="4.75057">
        <ele>172</ele>
        <time>2017-05-26T09:43:28Z</time>
      </trkpt>
      <trkpt lat="45.92319" lon="4.75051">
        <ele>172</ele>
        <time>2017-05-26T09:43:29Z</time>
      </trkpt>
      <trkpt lat="45.92323" lon="4.75045">
        <ele>172</ele>
        <time>2017-05-26T09:43:30Z</time>
      </trkpt>
      <trkpt lat="45.92327" lon="4.75038">
        <ele>171</ele>
        <time>2017-05-26T09:43:31Z</time>
      </trkpt>
      <trkpt lat="45.9233" lon="4.75032">
        <ele>171</ele>
        <time>2017-05-26T09:43:32Z</time>
      </trkpt>
      <trkpt lat="45.92334" lon="4.75025">
        <ele>170</ele>
        <time>2017-05-26T09:43:33Z</time>
      </trkpt>
      <trkpt lat="45.92337" lon="4.75018">
        <ele>170</ele>
        <time>2017-05-26T09:43:34Z</time>
      </trkpt>
      <trkpt lat="45.92341" lon="4.75011">
        <ele>170</ele>
        <time>2017-05-26T09:43:35Z</time>
      </trkpt>
      <trkpt lat="45.92343" lon="4.75003">
        <ele>170</ele>
        <time>2017-05-26T09:43:36Z</time>
      </trkpt>
      <trkpt lat="45.92347" lon="4.74996">
        <ele>170</ele>
        <time>2017-05-26T09:43:37Z</time>
      </trkpt>
      <trkpt lat="45.9235" lon="4.74987">
        <ele>170</ele>
        <time>2017-05-26T09:43:38Z</time>
      </trkpt>
      <trkpt lat="45.92354" lon="4.74979">
        <ele>170</ele>
        <time>2017-05-26T09:43:39Z</time>
      </trkpt>
      <trkpt lat="45.92357" lon="4.7497">
        <ele>170</ele>
        <time>2017-05-26T09:43:40Z</time>
      </trkpt>
      <trkpt lat="45.9236" lon="4.74961">
        <ele>170</ele>
        <time>2017-05-26T09:43:41Z</time>
      </trkpt>
      <trkpt lat="45.92364" lon="4.74953">
        <ele>170</ele>
        <time>2017-05-26T09:43:42Z</time>
      </trkpt>
      <trkpt lat="45.92367" lon="4.74944">
        <ele>170</ele>
        <time>2017-05-26T09:43:43Z</time>
      </trkpt>
      <trkpt lat="45.9237" lon="4.74936">
        <ele>170</ele>
        <time>2017-05-26T09:43:44Z</time>
      </trkpt>
      <trkpt lat="45.92373" lon="4.74928">
        <ele>170</ele>
        <time>2017-05-26T09:43:45Z</time>
      </trkpt>
      <trkpt lat="45.92376" lon="4.7492">
        <ele>170</ele>
        <time>2017-05-26T09:43:46Z</time>
      </trkpt>
      <trkpt lat="45.92379" lon="4.74912">
        <ele>171</ele>
        <time>2017-05-26T09:43:47Z</time>
      </trkpt>
      <trkpt lat="45.92382" lon="4.74904">
        <ele>171</ele>
        <time>2017-05-26T09:43:48Z</time>
      </trkpt>
      <trkpt lat="45.92385" lon="4.74897">
        <ele>171</ele>
        <time>2017-05-26T09:43:49Z</time>
      </trkpt>
      <trkpt lat="45.92387" lon="4.7489">
        <ele>171</ele>
        <time>2017-05-26T09:43:50Z</time>
      </trkpt>
      <trkpt lat="45.9239" lon="4.74883">
        <ele>171</ele>
        <time>2017-05-26T09:43:51Z</time>
      </trkpt>
      <trkpt lat="45.92393" lon="4.74876">
        <ele>171</ele>
        <time>2017-05-26T09:43:52Z</time>
      </trkpt>
      <trkpt lat="45.92395" lon="4.74869">
        <ele>171</ele>
        <time>2017-05-26T09:43:53Z</time>
      </trkpt>
      <trkpt lat="45.92398" lon="4.74861">
        <ele>171</ele>
        <time>2017-05-26T09:43:54Z</time>
      </trkpt>
      <trkpt lat="45.924" lon="4.74854">
        <ele>171</ele>
        <time>2017-05-26T09:43:55Z</time>
      </trkpt>
      <trkpt lat="45.92402" lon="4.74846">
        <ele>171</ele>
        <time>2017-05-26T09:43:56Z</time>
      </trkpt>
      <trkpt lat="45.92404" lon="4.74838">
        <ele>171</ele>
        <time>2017-05-26T09:43:57Z</time>
      </trkpt>
      <trkpt lat="45.92405" lon="4.74831">
        <ele>171</ele>
        <time>2017-05-26T09:43:58Z</time>
      </trkpt>
      <trkpt lat="45.92407" lon="4.74823">
        <ele>171</ele>
        <time>2017-05-26T09:43:59Z</time>
      </trkpt>
      <trkpt lat="45.92408" lon="4.74815">
        <ele>171</ele>
        <time>2017-05-26T09:44:00Z</time>
      </trkpt>
      <trkpt lat="45.9241" lon="4.74807">
        <ele>171</ele>
        <time>2017-05-26T09:44:01Z</time>
      </trkpt>
      <trkpt lat="45.92411" lon="4.74799">
        <ele>171</ele>
        <time>2017-05-26T09:44:02Z</time>
      </trkpt>
      <trkpt lat="45.92413" lon="4.74791">
        <ele>171</ele>
        <time>2017-05-26T09:44:03Z</time>
      </trkpt>
      <trkpt lat="45.92416" lon="4.74784">
        <ele>171</ele>
        <time>2017-05-26T09:44:04Z</time>
      </trkpt>
      <trkpt lat="45.92417" lon="4.74776">
        <ele>171</ele>
        <time>2017-05-26T09:44:05Z</time>
      </trkpt>
      <trkpt lat="45.92419" lon="4.74768">
        <ele>171</ele>
        <time>2017-05-26T09:44:06Z</time>
      </trkpt>
      <trkpt lat="45.92421" lon="4.74761">
        <ele>171</ele>
        <time>2017-05-26T09:44:07Z</time>
      </trkpt>
      <trkpt lat="45.92424" lon="4.74753">
        <ele>172</ele>
        <time>2017-05-26T09:44:08Z</time>
      </trkpt>
      <trkpt lat="45.92426" lon="4.74746">
        <ele>172</ele>
        <time>2017-05-26T09:44:09Z</time>
      </trkpt>
      <trkpt lat="45.92428" lon="4.74739">
        <ele>171</ele>
        <time>2017-05-26T09:44:10Z</time>
      </trkpt>
      <trkpt lat="45.9243" lon="4.74732">
        <ele>171</ele>
        <time>2017-05-26T09:44:11Z</time>
      </trkpt>
      <trkpt lat="45.92433" lon="4.74726">
        <ele>171</ele>
        <time>2017-05-26T09:44:12Z</time>
      </trkpt>
      <trkpt lat="45.92435" lon="4.74719">
        <ele>171</ele>
        <time>2017-05-26T09:44:13Z</time>
      </trkpt>
      <trkpt lat="45.92437" lon="4.74713">
        <ele>171</ele>
        <time>2017-05-26T09:44:14Z</time>
      </trkpt>
      <trkpt lat="45.9244" lon="4.74707">
        <ele>171</ele>
        <time>2017-05-26T09:44:15Z</time>
      </trkpt>
      <trkpt lat="45.92442" lon="4.74701">
        <ele>171</ele>
        <time>2017-05-26T09:44:16Z</time>
      </trkpt>
      <trkpt lat="45.92445" lon="4.74695">
        <ele>171</ele>
        <time>2017-05-26T09:44:17Z</time>
      </trkpt>
      <trkpt lat="45.92448" lon="4.74688">
        <ele>171</ele>
        <time>2017-05-26T09:44:18Z</time>
      </trkpt>
      <trkpt lat="45.92451" lon="4.74681">
        <ele>171</ele>
        <time>2017-05-26T09:44:19Z</time>
      </trkpt>
      <trkpt lat="45.92455" lon="4.74673">
        <ele>171</ele>
        <time>2017-05-26T09:44:20Z</time>
      </trkpt>
      <trkpt lat="45.92459" lon="4.74665">
        <ele>171</ele>
        <time>2017-05-26T09:44:21Z</time>
      </trkpt>
      <trkpt lat="45.92462" lon="4.74657">
        <ele>171</ele>
        <time>2017-05-26T09:44:22Z</time>
      </trkpt>
      <trkpt lat="45.92466" lon="4.7465">
        <ele>171</ele>
        <time>2017-05-26T09:44:23Z</time>
      </trkpt>
      <trkpt lat="45.9247" lon="4.74643">
        <ele>171</ele>
        <time>2017-05-26T09:44:24Z</time>
      </trkpt>
      <trkpt lat="45.92475" lon="4.74636">
        <ele>171</ele>
        <time>2017-05-26T09:44:25Z</time>
      </trkpt>
      <trkpt lat="45.9248" lon="4.74629">
        <ele>171</ele>
        <time>2017-05-26T09:44:26Z</time>
      </trkpt>
      <trkpt lat="45.92485" lon="4.74623">
        <ele>171</ele>
        <time>2017-05-26T09:44:27Z</time>
      </trkpt>
      <trkpt lat="45.9249" lon="4.74618">
        <ele>171</ele>
        <time>2017-05-26T09:44:28Z</time>
      </trkpt>
      <trkpt lat="45.92494" lon="4.74612">
        <ele>171</ele>
        <time>2017-05-26T09:44:29Z</time>
      </trkpt>
      <trkpt lat="45.92499" lon="4.74607">
        <ele>171</ele>
        <time>2017-05-26T09:44:30Z</time>
      </trkpt>
      <trkpt lat="45.92503" lon="4.74603">
        <ele>171</ele>
        <time>2017-05-26T09:44:31Z</time>
      </trkpt>
      <trkpt lat="45.92508" lon="4.74599">
        <ele>171</ele>
        <time>2017-05-26T09:44:32Z</time>
      </trkpt>
      <trkpt lat="45.92512" lon="4.74593">
        <ele>171</ele>
        <time>2017-05-26T09:44:33Z</time>
      </trkpt>
      <trkpt lat="45.92516" lon="4.74588">
        <ele>171</ele>
        <time>2017-05-26T09:44:34Z</time>
      </trkpt>
      <trkpt lat="45.9252" lon="4.74583">
        <ele>171</ele>
        <time>2017-05-26T09:44:35Z</time>
      </trkpt>
      <trkpt lat="45.92524" lon="4.74578">
        <ele>171</ele>
        <time>2017-05-26T09:44:36Z</time>
      </trkpt>
      <trkpt lat="45.92528" lon="4.74573">
        <ele>171</ele>
        <time>2017-05-26T09:44:37Z</time>
      </trkpt>
      <trkpt lat="45.92532" lon="4.74567">
        <ele>171</ele>
        <time>2017-05-26T09:44:38Z</time>
      </trkpt>
      <trkpt lat="45.92536" lon="4.74561">
        <ele>171</ele>
        <time>2017-05-26T09:44:39Z</time>
      </trkpt>
      <trkpt lat="45.9254" lon="4.74555">
        <ele>171</ele>
        <time>2017-05-26T09:44:40Z</time>
      </trkpt>
      <trkpt lat="45.92544" lon="4.74549">
        <ele>170</ele>
        <time>2017-05-26T09:44:41Z</time>
      </trkpt>
      <trkpt lat="45.92548" lon="4.74542">
        <ele>170</ele>
        <time>2017-05-26T09:44:42Z</time>
      </trkpt>
      <trkpt lat="45.92552" lon="4.74536">
        <ele>170</ele>
        <time>2017-05-26T09:44:43Z</time>
      </trkpt>
      <trkpt lat="45.92556" lon="4.74529">
        <ele>170</ele>
        <time>2017-05-26T09:44:44Z</time>
      </trkpt>
      <trkpt lat="45.92559" lon="4.74521">
        <ele>170</ele>
        <time>2017-05-26T09:44:45Z</time>
      </trkpt>
      <trkpt lat="45.92563" lon="4.74514">
        <ele>170</ele>
        <time>2017-05-26T09:44:46Z</time>
      </trkpt>
      <trkpt lat="45.92567" lon="4.74507">
        <ele>170</ele>
        <time>2017-05-26T09:44:47Z</time>
      </trkpt>
      <trkpt lat="45.92571" lon="4.745">
        <ele>170</ele>
        <time>2017-05-26T09:44:48Z</time>
      </trkpt>
      <trkpt lat="45.92575" lon="4.74493">
        <ele>170</ele>
        <time>2017-05-26T09:44:49Z</time>
      </trkpt>
      <trkpt lat="45.92578" lon="4.74487">
        <ele>170</ele>
        <time>2017-05-26T09:44:50Z</time>
      </trkpt>
      <trkpt lat="45.92582" lon="4.7448">
        <ele>170</ele>
        <time>2017-05-26T09:44:51Z</time>
      </trkpt>
      <trkpt lat="45.92585" lon="4.74474">
        <ele>170</ele>
        <time>2017-05-26T09:44:52Z</time>
      </trkpt>
      <trkpt lat="45.92589" lon="4.74469">
        <ele>170</ele>
        <time>2017-05-26T09:44:53Z</time>
      </trkpt>
      <trkpt lat="45.92592" lon="4.74463">
        <ele>170</ele>
        <time>2017-05-26T09:44:54Z</time>
      </trkpt>
      <trkpt lat="45.92595" lon="4.74457">
        <ele>170</ele>
        <time>2017-05-26T09:44:55Z</time>
      </trkpt>
      <trkpt lat="45.92599" lon="4.7445">
        <ele>170</ele>
        <time>2017-05-26T09:44:56Z</time>
      </trkpt>
      <trkpt lat="45.92602" lon="4.74444">
        <ele>170</ele>
        <time>2017-05-26T09:44:57Z</time>
      </trkpt>
      <trkpt lat="45.92606" lon="4.74437">
        <ele>170</ele>
        <time>2017-05-26T09:44:58Z</time>
      </trkpt>
      <trkpt lat="45.92609" lon="4.7443">
        <ele>170</ele>
        <time>2017-05-26T09:44:59Z</time>
      </trkpt>
      <trkpt lat="45.92613" lon="4.74423">
        <ele>170</ele>
        <time>2017-05-26T09:45:00Z</time>
      </trkpt>
      <trkpt lat="45.92617" lon="4.74417">
        <ele>170</ele>
        <time>2017-05-26T09:45:01Z</time>
      </trkpt>
      <trkpt lat="45.9262" lon="4.74411">
        <ele>170</ele>
        <time>2017-05-26T09:45:02Z</time>
      </trkpt>
      <trkpt lat="45.92624" lon="4.74405">
        <ele>170</ele>
        <time>2017-05-26T09:45:03Z</time>
      </trkpt>
      <trkpt lat="45.92627" lon="4.74399">
        <ele>170</ele>
        <time>2017-05-26T09:45:04Z</time>
      </trkpt>
      <trkpt lat="45.92631" lon="4.74392">
        <ele>170</ele>
        <time>2017-05-26T09:45:05Z</time>
      </trkpt>
      <trkpt lat="45.92635" lon="4.74386">
        <ele>170</ele>
        <time>2017-05-26T09:45:06Z</time>
      </trkpt>
      <trkpt lat="45.92638" lon="4.74379">
        <ele>170</ele>
        <time>2017-05-26T09:45:07Z</time>
      </trkpt>
      <trkpt lat="45.92642" lon="4.74373">
        <ele>171</ele>
        <time>2017-05-26T09:45:08Z</time>
      </trkpt>
      <trkpt lat="45.92645" lon="4.74367">
        <ele>171</ele>
        <time>2017-05-26T09:45:09Z</time>
      </trkpt>
      <trkpt lat="45.92648" lon="4.74361">
        <ele>171</ele>
        <time>2017-05-26T09:45:10Z</time>
      </trkpt>
      <trkpt lat="45.92652" lon="4.74355">
        <ele>171</ele>
        <time>2017-05-26T09:45:11Z</time>
      </trkpt>
      <trkpt lat="45.92655" lon="4.74348">
        <ele>171</ele>
        <time>2017-05-26T09:45:12Z</time>
      </trkpt>
      <trkpt lat="45.92658" lon="4.74342">
        <ele>171</ele>
        <time>2017-05-26T09:45:13Z</time>
      </trkpt>
      <trkpt lat="45.92662" lon="4.74337">
        <ele>171</ele>
        <time>2017-05-26T09:45:14Z</time>
      </trkpt>
      <trkpt lat="45.92665" lon="4.74331">
        <ele>171</ele>
        <time>2017-05-26T09:45:15Z</time>
      </trkpt>
      <trkpt lat="45.92668" lon="4.74326">
        <ele>171</ele>
        <time>2017-05-26T09:45:16Z</time>
      </trkpt>
      <trkpt lat="45.92671" lon="4.7432">
        <ele>171</ele>
        <time>2017-05-26T09:45:17Z</time>
      </trkpt>
      <trkpt lat="45.92676" lon="4.74311">
        <ele>171</ele>
        <time>2017-05-26T09:45:19Z</time>
      </trkpt>
      <trkpt lat="45.92679" lon="4.74306">
        <ele>171</ele>
        <time>2017-05-26T09:45:20Z</time>
      </trkpt>
      <trkpt lat="45.92682" lon="4.743">
        <ele>171</ele>
        <time>2017-05-26T09:45:21Z</time>
      </trkpt>
      <trkpt lat="45.92686" lon="4.74294">
        <ele>171</ele>
        <time>2017-05-26T09:45:22Z</time>
      </trkpt>
      <trkpt lat="45.92689" lon="4.74287">
        <ele>171</ele>
        <time>2017-05-26T09:45:23Z</time>
      </trkpt>
      <trkpt lat="45.92693" lon="4.74279">
        <ele>171</ele>
        <time>2017-05-26T09:45:24Z</time>
      </trkpt>
      <trkpt lat="45.92697" lon="4.74271">
        <ele>171</ele>
        <time>2017-05-26T09:45:25Z</time>
      </trkpt>
      <trkpt lat="45.92702" lon="4.74263">
        <ele>171</ele>
        <time>2017-05-26T09:45:26Z</time>
      </trkpt>
      <trkpt lat="45.92706" lon="4.74255">
        <ele>171</ele>
        <time>2017-05-26T09:45:27Z</time>
      </trkpt>
      <trkpt lat="45.92711" lon="4.74248">
        <ele>171</ele>
        <time>2017-05-26T09:45:28Z</time>
      </trkpt>
      <trkpt lat="45.92716" lon="4.74241">
        <ele>171</ele>
        <time>2017-05-26T09:45:29Z</time>
      </trkpt>
      <trkpt lat="45.9272" lon="4.74234">
        <ele>171</ele>
        <time>2017-05-26T09:45:30Z</time>
      </trkpt>
      <trkpt lat="45.92725" lon="4.74228">
        <ele>171</ele>
        <time>2017-05-26T09:45:31Z</time>
      </trkpt>
      <trkpt lat="45.9273" lon="4.74221">
        <ele>171</ele>
        <time>2017-05-26T09:45:32Z</time>
      </trkpt>
      <trkpt lat="45.92735" lon="4.74215">
        <ele>171</ele>
        <time>2017-05-26T09:45:33Z</time>
      </trkpt>
      <trkpt lat="45.92739" lon="4.74209">
        <ele>171</ele>
        <time>2017-05-26T09:45:34Z</time>
      </trkpt>
      <trkpt lat="45.92743" lon="4.74203">
        <ele>171</ele>
        <time>2017-05-26T09:45:35Z</time>
      </trkpt>
      <trkpt lat="45.92748" lon="4.74197">
        <ele>171</ele>
        <time>2017-05-26T09:45:36Z</time>
      </trkpt>
      <trkpt lat="45.92752" lon="4.7419">
        <ele>172</ele>
        <time>2017-05-26T09:45:37Z</time>
      </trkpt>
      <trkpt lat="45.92756" lon="4.74185">
        <ele>172</ele>
        <time>2017-05-26T09:45:38Z</time>
      </trkpt>
      <trkpt lat="45.92761" lon="4.7418">
        <ele>172</ele>
        <time>2017-05-26T09:45:39Z</time>
      </trkpt>
      <trkpt lat="45.92765" lon="4.74175">
        <ele>172</ele>
        <time>2017-05-26T09:45:40Z</time>
      </trkpt>
      <trkpt lat="45.92769" lon="4.7417">
        <ele>172</ele>
        <time>2017-05-26T09:45:41Z</time>
      </trkpt>
      <trkpt lat="45.92773" lon="4.74166">
        <ele>172</ele>
        <time>2017-05-26T09:45:42Z</time>
      </trkpt>
      <trkpt lat="45.92778" lon="4.74161">
        <ele>172</ele>
        <time>2017-05-26T09:45:43Z</time>
      </trkpt>
      <trkpt lat="45.92782" lon="4.74156">
        <ele>172</ele>
        <time>2017-05-26T09:45:44Z</time>
      </trkpt>
      <trkpt lat="45.92787" lon="4.74151">
        <ele>172</ele>
        <time>2017-05-26T09:45:45Z</time>
      </trkpt>
      <trkpt lat="45.92792" lon="4.74146">
        <ele>172</ele>
        <time>2017-05-26T09:45:46Z</time>
      </trkpt>
      <trkpt lat="45.92798" lon="4.7414">
        <ele>172</ele>
        <time>2017-05-26T09:45:47Z</time>
      </trkpt>
      <trkpt lat="45.92803" lon="4.74134">
        <ele>172</ele>
        <time>2017-05-26T09:45:48Z</time>
      </trkpt>
      <trkpt lat="45.92809" lon="4.74128">
        <ele>172</ele>
        <time>2017-05-26T09:45:49Z</time>
      </trkpt>
      <trkpt lat="45.92814" lon="4.74122">
        <ele>172</ele>
        <time>2017-05-26T09:45:50Z</time>
      </trkpt>
      <trkpt lat="45.92819" lon="4.74116">
        <ele>172</ele>
        <time>2017-05-26T09:45:51Z</time>
      </trkpt>
      <trkpt lat="45.92824" lon="4.7411">
        <ele>171</ele>
        <time>2017-05-26T09:45:52Z</time>
      </trkpt>
      <trkpt lat="45.92829" lon="4.74104">
        <ele>171</ele>
        <time>2017-05-26T09:45:53Z</time>
      </trkpt>
      <trkpt lat="45.92834" lon="4.74099">
        <ele>171</ele>
        <time>2017-05-26T09:45:54Z</time>
      </trkpt>
      <trkpt lat="45.92839" lon="4.74094">
        <ele>171</ele>
        <time>2017-05-26T09:45:55Z</time>
      </trkpt>
      <trkpt lat="45.92843" lon="4.74089">
        <ele>171</ele>
        <time>2017-05-26T09:45:56Z</time>
      </trkpt>
      <trkpt lat="45.92847" lon="4.74084">
        <ele>171</ele>
        <time>2017-05-26T09:45:57Z</time>
      </trkpt>
      <trkpt lat="45.92852" lon="4.74079">
        <ele>172</ele>
        <time>2017-05-26T09:45:58Z</time>
      </trkpt>
      <trkpt lat="45.92856" lon="4.74074">
        <ele>172</ele>
        <time>2017-05-26T09:45:59Z</time>
      </trkpt>
      <trkpt lat="45.9286" lon="4.74069">
        <ele>172</ele>
        <time>2017-05-26T09:46:00Z</time>
      </trkpt>
      <trkpt lat="45.92863" lon="4.74064">
        <ele>172</ele>
        <time>2017-05-26T09:46:01Z</time>
      </trkpt>
      <trkpt lat="45.92867" lon="4.7406">
        <ele>172</ele>
        <time>2017-05-26T09:46:02Z</time>
      </trkpt>
      <trkpt lat="45.92871" lon="4.74056">
        <ele>172</ele>
        <time>2017-05-26T09:46:03Z</time>
      </trkpt>
      <trkpt lat="45.92875" lon="4.74052">
        <ele>172</ele>
        <time>2017-05-26T09:46:04Z</time>
      </trkpt>
      <trkpt lat="45.92879" lon="4.7405">
        <ele>172</ele>
        <time>2017-05-26T09:46:05Z</time>
      </trkpt>
      <trkpt lat="45.92885" lon="4.74047">
        <ele>172</ele>
        <time>2017-05-26T09:46:06Z</time>
      </trkpt>
      <trkpt lat="45.9289" lon="4.74047">
        <ele>172</ele>
        <time>2017-05-26T09:46:07Z</time>
      </trkpt>
      <trkpt lat="45.92897" lon="4.74046">
        <ele>172</ele>
        <time>2017-05-26T09:46:08Z</time>
      </trkpt>
      <trkpt lat="45.92903" lon="4.74044">
        <ele>172</ele>
        <time>2017-05-26T09:46:09Z</time>
      </trkpt>
      <trkpt lat="45.92908" lon="4.7404">
        <ele>172</ele>
        <time>2017-05-26T09:46:10Z</time>
      </trkpt>
      <trkpt lat="45.92913" lon="4.74034">
        <ele>172</ele>
        <time>2017-05-26T09:46:11Z</time>
      </trkpt>
      <trkpt lat="45.92916" lon="4.74026">
        <ele>172</ele>
        <time>2017-05-26T09:46:12Z</time>
      </trkpt>
      <trkpt lat="45.92918" lon="4.74017">
        <ele>172</ele>
        <time>2017-05-26T09:46:13Z</time>
      </trkpt>
      <trkpt lat="45.92917" lon="4.74009">
        <ele>172</ele>
        <time>2017-05-26T09:46:14Z</time>
      </trkpt>
      <trkpt lat="45.92915" lon="4.74">
        <ele>172</ele>
        <time>2017-05-26T09:46:15Z</time>
      </trkpt>
      <trkpt lat="45.92912" lon="4.73994">
        <ele>172</ele>
        <time>2017-05-26T09:46:16Z</time>
      </trkpt>
      <trkpt lat="45.92909" lon="4.73989">
        <ele>172</ele>
        <time>2017-05-26T09:46:17Z</time>
      </trkpt>
      <trkpt lat="45.92904" lon="4.73985">
        <ele>172</ele>
        <time>2017-05-26T09:46:18Z</time>
      </trkpt>
      <trkpt lat="45.92899" lon="4.73982">
        <ele>172</ele>
        <time>2017-05-26T09:46:19Z</time>
      </trkpt>
      <trkpt lat="45.92895" lon="4.73977">
        <ele>172</ele>
        <time>2017-05-26T09:46:20Z</time>
      </trkpt>
      <trkpt lat="45.92891" lon="4.73971">
        <ele>172</ele>
        <time>2017-05-26T09:46:21Z</time>
      </trkpt>
      <trkpt lat="45.92889" lon="4.73964">
        <ele>172</ele>
        <time>2017-05-26T09:46:22Z</time>
      </trkpt>
      <trkpt lat="45.92887" lon="4.73956">
        <ele>172</ele>
        <time>2017-05-26T09:46:23Z</time>
      </trkpt>
      <trkpt lat="45.92886" lon="4.73947">
        <ele>172</ele>
        <time>2017-05-26T09:46:24Z</time>
      </trkpt>
      <trkpt lat="45.92886" lon="4.73938">
        <ele>172</ele>
        <time>2017-05-26T09:46:25Z</time>
      </trkpt>
      <trkpt lat="45.92885" lon="4.73928">
        <ele>172</ele>
        <time>2017-05-26T09:46:26Z</time>
      </trkpt>
      <trkpt lat="45.92884" lon="4.73919">
        <ele>172</ele>
        <time>2017-05-26T09:46:27Z</time>
      </trkpt>
      <trkpt lat="45.92882" lon="4.7391">
        <ele>173</ele>
        <time>2017-05-26T09:46:28Z</time>
      </trkpt>
      <trkpt lat="45.92881" lon="4.739">
        <ele>173</ele>
        <time>2017-05-26T09:46:29Z</time>
      </trkpt>
      <trkpt lat="45.92879" lon="4.73891">
        <ele>173</ele>
        <time>2017-05-26T09:46:30Z</time>
      </trkpt>
      <trkpt lat="45.92877" lon="4.73882">
        <ele>173</ele>
        <time>2017-05-26T09:46:31Z</time>
      </trkpt>
      <trkpt lat="45.92875" lon="4.73872">
        <ele>173</ele>
        <time>2017-05-26T09:46:32Z</time>
      </trkpt>
      <trkpt lat="45.92873" lon="4.73863">
        <ele>173</ele>
        <time>2017-05-26T09:46:33Z</time>
      </trkpt>
      <trkpt lat="45.92872" lon="4.73854">
        <ele>173</ele>
        <time>2017-05-26T09:46:34Z</time>
      </trkpt>
      <trkpt lat="45.9287" lon="4.73844">
        <ele>173</ele>
        <time>2017-05-26T09:46:35Z</time>
      </trkpt>
      <trkpt lat="45.92868" lon="4.73836">
        <ele>173</ele>
        <time>2017-05-26T09:46:36Z</time>
      </trkpt>
      <trkpt lat="45.92865" lon="4.73827">
        <ele>173</ele>
        <time>2017-05-26T09:46:37Z</time>
      </trkpt>
      <trkpt lat="45.92863" lon="4.7382">
        <ele>173</ele>
        <time>2017-05-26T09:46:38Z</time>
      </trkpt>
      <trkpt lat="45.92861" lon="4.73813">
        <ele>173</ele>
        <time>2017-05-26T09:46:39Z</time>
      </trkpt>
      <trkpt lat="45.92859" lon="4.73806">
        <ele>173</ele>
        <time>2017-05-26T09:46:40Z</time>
      </trkpt>
      <trkpt lat="45.92858" lon="4.73799">
        <ele>173</ele>
        <time>2017-05-26T09:46:41Z</time>
      </trkpt>
      <trkpt lat="45.92856" lon="4.73793">
        <ele>173</ele>
        <time>2017-05-26T09:46:42Z</time>
      </trkpt>
      <trkpt lat="45.92854" lon="4.73788">
        <ele>173</ele>
        <time>2017-05-26T09:46:43Z</time>
      </trkpt>
      <trkpt lat="45.92849" lon="4.73785">
        <ele>173</ele>
        <time>2017-05-26T09:46:44Z</time>
      </trkpt>
      <trkpt lat="45.92844" lon="4.73783">
        <ele>173</ele>
        <time>2017-05-26T09:46:45Z</time>
      </trkpt>
      <trkpt lat="45.92839" lon="4.73782">
        <ele>173</ele>
        <time>2017-05-26T09:46:46Z</time>
      </trkpt>
      <trkpt lat="45.92835" lon="4.73781">
        <ele>173</ele>
        <time>2017-05-26T09:46:47Z</time>
      </trkpt>
      <trkpt lat="45.9283" lon="4.73779">
        <ele>173</ele>
        <time>2017-05-26T09:46:48Z</time>
      </trkpt>
      <trkpt lat="45.92826" lon="4.73776">
        <ele>173</ele>
        <time>2017-05-26T09:46:49Z</time>
      </trkpt>
      <trkpt lat="45.92821" lon="4.73773">
        <ele>173</ele>
        <time>2017-05-26T09:46:50Z</time>
      </trkpt>
      <trkpt lat="45.92817" lon="4.7377">
        <ele>173</ele>
        <time>2017-05-26T09:46:51Z</time>
      </trkpt>
      <trkpt lat="45.92812" lon="4.73767">
        <ele>173</ele>
        <time>2017-05-26T09:46:52Z</time>
      </trkpt>
      <trkpt lat="45.92807" lon="4.73765">
        <ele>173</ele>
        <time>2017-05-26T09:46:53Z</time>
      </trkpt>
      <trkpt lat="45.92802" lon="4.73762">
        <ele>173</ele>
        <time>2017-05-26T09:46:54Z</time>
      </trkpt>
      <trkpt lat="45.92798" lon="4.73761">
        <ele>173</ele>
        <time>2017-05-26T09:46:55Z</time>
      </trkpt>
      <trkpt lat="45.92793" lon="4.73759">
        <ele>173</ele>
        <time>2017-05-26T09:46:56Z</time>
      </trkpt>
      <trkpt lat="45.92787" lon="4.73751">
        <ele>173</ele>
        <time>2017-05-26T09:46:58Z</time>
      </trkpt>
      <trkpt lat="45.92784" lon="4.73746">
        <ele>172</ele>
        <time>2017-05-26T09:46:59Z</time>
      </trkpt>
      <trkpt lat="45.92779" lon="4.73737">
        <ele>172</ele>
        <time>2017-05-26T09:47:01Z</time>
      </trkpt>
      <trkpt lat="45.92775" lon="4.73733">
        <ele>172</ele>
        <time>2017-05-26T09:47:02Z</time>
      </trkpt>
      <trkpt lat="45.92767" lon="4.7373">
        <ele>172</ele>
        <time>2017-05-26T09:47:04Z</time>
      </trkpt>
      <trkpt lat="45.92763" lon="4.73728">
        <ele>172</ele>
        <time>2017-05-26T09:47:05Z</time>
      </trkpt>
      <trkpt lat="45.92758" lon="4.73727">
        <ele>172</ele>
        <time>2017-05-26T09:47:06Z</time>
      </trkpt>
      <trkpt lat="45.92753" lon="4.73725">
        <ele>172</ele>
        <time>2017-05-26T09:47:07Z</time>
      </trkpt>
      <trkpt lat="45.92749" lon="4.73724">
        <ele>173</ele>
        <time>2017-05-26T09:47:08Z</time>
      </trkpt>
      <trkpt lat="45.92744" lon="4.73724">
        <ele>173</ele>
        <time>2017-05-26T09:47:09Z</time>
      </trkpt>
      <trkpt lat="45.92738" lon="4.73724">
        <ele>173</ele>
        <time>2017-05-26T09:47:10Z</time>
      </trkpt>
      <trkpt lat="45.92733" lon="4.73723">
        <ele>173</ele>
        <time>2017-05-26T09:47:11Z</time>
      </trkpt>
      <trkpt lat="45.92728" lon="4.73722">
        <ele>173</ele>
        <time>2017-05-26T09:47:12Z</time>
      </trkpt>
      <trkpt lat="45.92723" lon="4.7372">
        <ele>173</ele>
        <time>2017-05-26T09:47:13Z</time>
      </trkpt>
      <trkpt lat="45.92718" lon="4.73719">
        <ele>173</ele>
        <time>2017-05-26T09:47:14Z</time>
      </trkpt>
      <trkpt lat="45.92713" lon="4.73718">
        <ele>173</ele>
        <time>2017-05-26T09:47:15Z</time>
      </trkpt>
      <trkpt lat="45.92708" lon="4.73717">
        <ele>173</ele>
        <time>2017-05-26T09:47:16Z</time>
      </trkpt>
      <trkpt lat="45.92704" lon="4.73717">
        <ele>173</ele>
        <time>2017-05-26T09:47:17Z</time>
      </trkpt>
      <trkpt lat="45.92699" lon="4.73715">
        <ele>173</ele>
        <time>2017-05-26T09:47:18Z</time>
      </trkpt>
      <trkpt lat="45.92694" lon="4.73715">
        <ele>173</ele>
        <time>2017-05-26T09:47:19Z</time>
      </trkpt>
      <trkpt lat="45.92689" lon="4.73714">
        <ele>173</ele>
        <time>2017-05-26T09:47:20Z</time>
      </trkpt>
      <trkpt lat="45.92684" lon="4.73713">
        <ele>173</ele>
        <time>2017-05-26T09:47:21Z</time>
      </trkpt>
      <trkpt lat="45.92676" lon="4.7371">
        <ele>174</ele>
        <time>2017-05-26T09:47:23Z</time>
      </trkpt>
      <trkpt lat="45.92671" lon="4.73708">
        <ele>174</ele>
        <time>2017-05-26T09:47:24Z</time>
      </trkpt>
      <trkpt lat="45.92663" lon="4.73703">
        <ele>173</ele>
        <time>2017-05-26T09:47:26Z</time>
      </trkpt>
      <trkpt lat="45.9266" lon="4.73701">
        <ele>173</ele>
        <time>2017-05-26T09:47:27Z</time>
      </trkpt>
      <trkpt lat="45.92656" lon="4.73697">
        <ele>173</ele>
        <time>2017-05-26T09:47:28Z</time>
      </trkpt>
      <trkpt lat="45.92651" lon="4.73694">
        <ele>173</ele>
        <time>2017-05-26T09:47:29Z</time>
      </trkpt>
      <trkpt lat="45.92647" lon="4.7369">
        <ele>173</ele>
        <time>2017-05-26T09:47:30Z</time>
      </trkpt>
      <trkpt lat="45.92643" lon="4.73685">
        <ele>173</ele>
        <time>2017-05-26T09:47:31Z</time>
      </trkpt>
      <trkpt lat="45.92639" lon="4.73678">
        <ele>173</ele>
        <time>2017-05-26T09:47:32Z</time>
      </trkpt>
      <trkpt lat="45.92636" lon="4.73672">
        <ele>173</ele>
        <time>2017-05-26T09:47:33Z</time>
      </trkpt>
      <trkpt lat="45.92632" lon="4.73664">
        <ele>173</ele>
        <time>2017-05-26T09:47:34Z</time>
      </trkpt>
      <trkpt lat="45.92628" lon="4.73657">
        <ele>173</ele>
        <time>2017-05-26T09:47:35Z</time>
      </trkpt>
      <trkpt lat="45.92625" lon="4.73648">
        <ele>173</ele>
        <time>2017-05-26T09:47:36Z</time>
      </trkpt>
      <trkpt lat="45.9262" lon="4.7364">
        <ele>173</ele>
        <time>2017-05-26T09:47:37Z</time>
      </trkpt>
      <trkpt lat="45.92615" lon="4.73633">
        <ele>173</ele>
        <time>2017-05-26T09:47:38Z</time>
      </trkpt>
      <trkpt lat="45.9261" lon="4.73629">
        <ele>173</ele>
        <time>2017-05-26T09:47:39Z</time>
      </trkpt>
      <trkpt lat="45.92604" lon="4.73627">
        <ele>173</ele>
        <time>2017-05-26T09:47:40Z</time>
      </trkpt>
      <trkpt lat="45.92598" lon="4.73626">
        <ele>173</ele>
        <time>2017-05-26T09:47:41Z</time>
      </trkpt>
      <trkpt lat="45.92592" lon="4.73625">
        <ele>172</ele>
        <time>2017-05-26T09:47:42Z</time>
      </trkpt>
      <trkpt lat="45.92586" lon="4.73626">
        <ele>172</ele>
        <time>2017-05-26T09:47:43Z</time>
      </trkpt>
      <trkpt lat="45.9258" lon="4.73627">
        <ele>173</ele>
        <time>2017-05-26T09:47:44Z</time>
      </trkpt>
      <trkpt lat="45.92575" lon="4.73629">
        <ele>173</ele>
        <time>2017-05-26T09:47:45Z</time>
      </trkpt>
      <trkpt lat="45.9257" lon="4.7363">
        <ele>173</ele>
        <time>2017-05-26T09:47:46Z</time>
      </trkpt>
      <trkpt lat="45.92564" lon="4.73632">
        <ele>173</ele>
        <time>2017-05-26T09:47:47Z</time>
      </trkpt>
      <trkpt lat="45.92559" lon="4.73633">
        <ele>173</ele>
        <time>2017-05-26T09:47:48Z</time>
      </trkpt>
      <trkpt lat="45.92554" lon="4.73635">
        <ele>173</ele>
        <time>2017-05-26T09:47:49Z</time>
      </trkpt>
      <trkpt lat="45.92549" lon="4.73636">
        <ele>173</ele>
        <time>2017-05-26T09:47:50Z</time>
      </trkpt>
      <trkpt lat="45.92544" lon="4.73638">
        <ele>173</ele>
        <time>2017-05-26T09:47:51Z</time>
      </trkpt>
      <trkpt lat="45.92539" lon="4.73638">
        <ele>173</ele>
        <time>2017-05-26T09:47:52Z</time>
      </trkpt>
      <trkpt lat="45.92535" lon="4.73638">
        <ele>173</ele>
        <time>2017-05-26T09:47:53Z</time>
      </trkpt>
      <trkpt lat="45.9253" lon="4.73638">
        <ele>173</ele>
        <time>2017-05-26T09:47:54Z</time>
      </trkpt>
      <trkpt lat="45.92526" lon="4.73638">
        <ele>173</ele>
        <time>2017-05-26T09:47:55Z</time>
      </trkpt>
      <trkpt lat="45.92517" lon="4.7364">
        <ele>173</ele>
        <time>2017-05-26T09:47:57Z</time>
      </trkpt>
      <trkpt lat="45.92513" lon="4.73641">
        <ele>174</ele>
        <time>2017-05-26T09:47:58Z</time>
      </trkpt>
      <trkpt lat="45.92505" lon="4.73642">
        <ele>174</ele>
        <time>2017-05-26T09:48:00Z</time>
      </trkpt>
      <trkpt lat="45.92501" lon="4.73641">
        <ele>174</ele>
        <time>2017-05-26T09:48:01Z</time>
      </trkpt>
      <trkpt lat="45.92493" lon="4.73643">
        <ele>174</ele>
        <time>2017-05-26T09:48:03Z</time>
      </trkpt>
      <trkpt lat="45.92489" lon="4.73643">
        <ele>174</ele>
        <time>2017-05-26T09:48:04Z</time>
      </trkpt>
      <trkpt lat="45.92481" lon="4.73643">
        <ele>174</ele>
        <time>2017-05-26T09:48:06Z</time>
      </trkpt>
      <trkpt lat="45.92477" lon="4.73644">
        <ele>174</ele>
        <time>2017-05-26T09:48:07Z</time>
      </trkpt>
      <trkpt lat="45.92469" lon="4.73648">
        <ele>174</ele>
        <time>2017-05-26T09:48:09Z</time>
      </trkpt>
      <trkpt lat="45.92468" lon="4.73654">
        <ele>174</ele>
        <time>2017-05-26T09:48:10Z</time>
      </trkpt>
      <trkpt lat="45.92468" lon="4.73665">
        <ele>174</ele>
        <time>2017-05-26T09:48:12Z</time>
      </trkpt>
      <trkpt lat="45.92467" lon="4.7367">
        <ele>174</ele>
        <time>2017-05-26T09:48:13Z</time>
      </trkpt>
      <trkpt lat="45.92466" lon="4.73679">
        <ele>174</ele>
        <time>2017-05-26T09:48:15Z</time>
      </trkpt>
      <trkpt lat="45.92465" lon="4.73684">
        <ele>174</ele>
        <time>2017-05-26T09:48:16Z</time>
      </trkpt>
      <trkpt lat="45.92463" lon="4.73694">
        <ele>174</ele>
        <time>2017-05-26T09:48:18Z</time>
      </trkpt>
      <trkpt lat="45.92463" lon="4.73699">
        <ele>174</ele>
        <time>2017-05-26T09:48:19Z</time>
      </trkpt>
      <trkpt lat="45.92461" lon="4.73708">
        <ele>174</ele>
        <time>2017-05-26T09:48:22Z</time>
      </trkpt>
      <trkpt lat="45.92461" lon="4.7371">
        <ele>174</ele>
        <time>2017-05-26T09:48:23Z</time>
      </trkpt>
      <trkpt lat="45.9246" lon="4.73712">
        <ele>174</ele>
        <time>2017-05-26T09:48:32Z</time>
      </trkpt>
      <trkpt lat="45.92459" lon="4.73712">
        <ele>174</ele>
        <time>2017-05-26T09:48:33Z</time>
      </trkpt>
      <trkpt lat="45.92458" lon="4.73713">
        <ele>174</ele>
        <time>2017-05-26T09:48:44.113Z</time>
      </trkpt>
    </trkseg>
  </trk>
</gpx>